<?xml version="1.0" encoding="UTF-8" standalone="no" ?>
<gpx xmlns="http://www.topografix.com/GPX/1/1" xmlns:xsi="http://www.w3.org/2001/XMLSchema-instance" xsi:schemaLocation="http://www.topografix.com/GPX/1/1 http://www.topografix.com/GPX/1/1/gpx.xsd" version="1.1" creator="VisuGPX - https://www.visugpx.com">
  <metadata>
    <name>Joel , entrainement a Lyon</name>
    <desc><![CDATA[séance a Lyon , pas bien longues que des cotes , (colline de Fourvière)]]></desc>
  </metadata>
  <trk>
    <name><![CDATA[Joel , entrainement a Lyon_1]]></name>
    <trkseg>
      <trkpt lat="45.76063" lon="4.81981">
        <ele>285.8</ele>
        <time>2013-05-01T04:33:18.000Z</time>
      </trkpt>
      <trkpt lat="45.76063" lon="4.81981">
        <ele>285.8</ele>
        <time>2013-05-01T04:33:19.000Z</time>
      </trkpt>
      <trkpt lat="45.76063" lon="4.81981">
        <ele>285.8</ele>
        <time>2013-05-01T04:33:20.000Z</time>
      </trkpt>
      <trkpt lat="45.76063" lon="4.81981">
        <ele>285.8</ele>
        <time>2013-05-01T04:33:21.000Z</time>
      </trkpt>
      <trkpt lat="45.76063" lon="4.81981">
        <ele>285.9</ele>
        <time>2013-05-01T04:33:22.000Z</time>
      </trkpt>
      <trkpt lat="45.76063" lon="4.81981">
        <ele>285.9</ele>
        <time>2013-05-01T04:33:23.000Z</time>
      </trkpt>
      <trkpt lat="45.76063" lon="4.81981">
        <ele>285.9</ele>
        <time>2013-05-01T04:33:24.000Z</time>
      </trkpt>
      <trkpt lat="45.76063" lon="4.81981">
        <ele>285.9</ele>
        <time>2013-05-01T04:33:25.000Z</time>
      </trkpt>
      <trkpt lat="45.76063" lon="4.81981">
        <ele>285.9</ele>
        <time>2013-05-01T04:33:26.000Z</time>
      </trkpt>
      <trkpt lat="45.76063" lon="4.8198">
        <ele>285.9</ele>
        <time>2013-05-01T04:33:27.000Z</time>
      </trkpt>
      <trkpt lat="45.76063" lon="4.81978">
        <ele>285.9</ele>
        <time>2013-05-01T04:33:28.000Z</time>
      </trkpt>
      <trkpt lat="45.76064" lon="4.81977">
        <ele>285.9</ele>
        <time>2013-05-01T04:33:29.000Z</time>
      </trkpt>
      <trkpt lat="45.76064" lon="4.81976">
        <ele>286</ele>
        <time>2013-05-01T04:33:30.000Z</time>
      </trkpt>
      <trkpt lat="45.76065" lon="4.81973">
        <ele>286</ele>
        <time>2013-05-01T04:33:31.000Z</time>
      </trkpt>
      <trkpt lat="45.76065" lon="4.81971">
        <ele>286</ele>
        <time>2013-05-01T04:33:32.000Z</time>
      </trkpt>
      <trkpt lat="45.76065" lon="4.81967">
        <ele>285.9</ele>
        <time>2013-05-01T04:33:33.000Z</time>
      </trkpt>
      <trkpt lat="45.76063" lon="4.81964">
        <ele>285.9</ele>
        <time>2013-05-01T04:33:34.000Z</time>
      </trkpt>
      <trkpt lat="45.76062" lon="4.81961">
        <ele>285.9</ele>
        <time>2013-05-01T04:33:35.000Z</time>
      </trkpt>
      <trkpt lat="45.76061" lon="4.81958">
        <ele>285.9</ele>
        <time>2013-05-01T04:33:36.000Z</time>
      </trkpt>
      <trkpt lat="45.7606" lon="4.81955">
        <ele>285.9</ele>
        <time>2013-05-01T04:33:37.000Z</time>
      </trkpt>
      <trkpt lat="45.76059" lon="4.81951">
        <ele>285.9</ele>
        <time>2013-05-01T04:33:38.000Z</time>
      </trkpt>
      <trkpt lat="45.76058" lon="4.81948">
        <ele>285.9</ele>
        <time>2013-05-01T04:33:39.000Z</time>
      </trkpt>
      <trkpt lat="45.76056" lon="4.81945">
        <ele>286</ele>
        <time>2013-05-01T04:33:40.000Z</time>
      </trkpt>
      <trkpt lat="45.76055" lon="4.81942">
        <ele>286.1</ele>
        <time>2013-05-01T04:33:41.000Z</time>
      </trkpt>
      <trkpt lat="45.76054" lon="4.81939">
        <ele>286.2</ele>
        <time>2013-05-01T04:33:42.000Z</time>
      </trkpt>
      <trkpt lat="45.76053" lon="4.81936">
        <ele>286.3</ele>
        <time>2013-05-01T04:33:43.000Z</time>
      </trkpt>
      <trkpt lat="45.76052" lon="4.81933">
        <ele>286.4</ele>
        <time>2013-05-01T04:33:44.000Z</time>
      </trkpt>
      <trkpt lat="45.76051" lon="4.8193">
        <ele>286.5</ele>
        <time>2013-05-01T04:33:45.000Z</time>
      </trkpt>
      <trkpt lat="45.7605" lon="4.81927">
        <ele>286.6</ele>
        <time>2013-05-01T04:33:46.000Z</time>
      </trkpt>
      <trkpt lat="45.76049" lon="4.81923">
        <ele>286.8</ele>
        <time>2013-05-01T04:33:47.000Z</time>
      </trkpt>
      <trkpt lat="45.76047" lon="4.81921">
        <ele>286.9</ele>
        <time>2013-05-01T04:33:48.000Z</time>
      </trkpt>
      <trkpt lat="45.76046" lon="4.81918">
        <ele>287</ele>
        <time>2013-05-01T04:33:49.000Z</time>
      </trkpt>
      <trkpt lat="45.76045" lon="4.81915">
        <ele>287</ele>
        <time>2013-05-01T04:33:50.000Z</time>
      </trkpt>
      <trkpt lat="45.76044" lon="4.81912">
        <ele>287</ele>
        <time>2013-05-01T04:33:51.000Z</time>
      </trkpt>
      <trkpt lat="45.76043" lon="4.81908">
        <ele>287</ele>
        <time>2013-05-01T04:33:52.000Z</time>
      </trkpt>
      <trkpt lat="45.76042" lon="4.81905">
        <ele>287</ele>
        <time>2013-05-01T04:33:53.000Z</time>
      </trkpt>
      <trkpt lat="45.76041" lon="4.81902">
        <ele>287</ele>
        <time>2013-05-01T04:33:54.000Z</time>
      </trkpt>
      <trkpt lat="45.7604" lon="4.81898">
        <ele>287.1</ele>
        <time>2013-05-01T04:33:55.000Z</time>
      </trkpt>
      <trkpt lat="45.76039" lon="4.81895">
        <ele>287.2</ele>
        <time>2013-05-01T04:33:56.000Z</time>
      </trkpt>
      <trkpt lat="45.76038" lon="4.81892">
        <ele>287.3</ele>
        <time>2013-05-01T04:33:57.000Z</time>
      </trkpt>
      <trkpt lat="45.76036" lon="4.81889">
        <ele>287.4</ele>
        <time>2013-05-01T04:33:58.000Z</time>
      </trkpt>
      <trkpt lat="45.76035" lon="4.81886">
        <ele>287.5</ele>
        <time>2013-05-01T04:33:59.000Z</time>
      </trkpt>
      <trkpt lat="45.76034" lon="4.81883">
        <ele>287.6</ele>
        <time>2013-05-01T04:34:00.000Z</time>
      </trkpt>
      <trkpt lat="45.76033" lon="4.8188">
        <ele>287.7</ele>
        <time>2013-05-01T04:34:01.000Z</time>
      </trkpt>
      <trkpt lat="45.76033" lon="4.81877">
        <ele>287.8</ele>
        <time>2013-05-01T04:34:02.000Z</time>
      </trkpt>
      <trkpt lat="45.76032" lon="4.81875">
        <ele>287.8</ele>
        <time>2013-05-01T04:34:03.000Z</time>
      </trkpt>
      <trkpt lat="45.76032" lon="4.81872">
        <ele>287.9</ele>
        <time>2013-05-01T04:34:04.000Z</time>
      </trkpt>
      <trkpt lat="45.76031" lon="4.81869">
        <ele>287.9</ele>
        <time>2013-05-01T04:34:05.000Z</time>
      </trkpt>
      <trkpt lat="45.7603" lon="4.81866">
        <ele>288</ele>
        <time>2013-05-01T04:34:06.000Z</time>
      </trkpt>
      <trkpt lat="45.7603" lon="4.81863">
        <ele>288</ele>
        <time>2013-05-01T04:34:07.000Z</time>
      </trkpt>
      <trkpt lat="45.7603" lon="4.8186">
        <ele>288.1</ele>
        <time>2013-05-01T04:34:08.000Z</time>
      </trkpt>
      <trkpt lat="45.7603" lon="4.81857">
        <ele>288.3</ele>
        <time>2013-05-01T04:34:09.000Z</time>
      </trkpt>
      <trkpt lat="45.7603" lon="4.81855">
        <ele>288.4</ele>
        <time>2013-05-01T04:34:10.000Z</time>
      </trkpt>
      <trkpt lat="45.7603" lon="4.81852">
        <ele>288.6</ele>
        <time>2013-05-01T04:34:11.000Z</time>
      </trkpt>
      <trkpt lat="45.76029" lon="4.81849">
        <ele>288.9</ele>
        <time>2013-05-01T04:34:12.000Z</time>
      </trkpt>
      <trkpt lat="45.76028" lon="4.81846">
        <ele>289.1</ele>
        <time>2013-05-01T04:34:13.000Z</time>
      </trkpt>
      <trkpt lat="45.76027" lon="4.81843">
        <ele>289.3</ele>
        <time>2013-05-01T04:34:14.000Z</time>
      </trkpt>
      <trkpt lat="45.76026" lon="4.8184">
        <ele>289.6</ele>
        <time>2013-05-01T04:34:15.000Z</time>
      </trkpt>
      <trkpt lat="45.76025" lon="4.81836">
        <ele>289.8</ele>
        <time>2013-05-01T04:34:16.000Z</time>
      </trkpt>
      <trkpt lat="45.76025" lon="4.81833">
        <ele>290</ele>
        <time>2013-05-01T04:34:17.000Z</time>
      </trkpt>
      <trkpt lat="45.76024" lon="4.81831">
        <ele>290.1</ele>
        <time>2013-05-01T04:34:18.000Z</time>
      </trkpt>
      <trkpt lat="45.76023" lon="4.81827">
        <ele>290.2</ele>
        <time>2013-05-01T04:34:19.000Z</time>
      </trkpt>
      <trkpt lat="45.76022" lon="4.81824">
        <ele>290.3</ele>
        <time>2013-05-01T04:34:20.000Z</time>
      </trkpt>
      <trkpt lat="45.76022" lon="4.8182">
        <ele>290.5</ele>
        <time>2013-05-01T04:34:21.000Z</time>
      </trkpt>
      <trkpt lat="45.76022" lon="4.81817">
        <ele>290.6</ele>
        <time>2013-05-01T04:34:22.000Z</time>
      </trkpt>
      <trkpt lat="45.76021" lon="4.81814">
        <ele>290.7</ele>
        <time>2013-05-01T04:34:23.000Z</time>
      </trkpt>
      <trkpt lat="45.7602" lon="4.81811">
        <ele>290.8</ele>
        <time>2013-05-01T04:34:24.000Z</time>
      </trkpt>
      <trkpt lat="45.7602" lon="4.81808">
        <ele>290.9</ele>
        <time>2013-05-01T04:34:25.000Z</time>
      </trkpt>
      <trkpt lat="45.76019" lon="4.81805">
        <ele>291</ele>
        <time>2013-05-01T04:34:26.000Z</time>
      </trkpt>
      <trkpt lat="45.76018" lon="4.81801">
        <ele>291.1</ele>
        <time>2013-05-01T04:34:27.000Z</time>
      </trkpt>
      <trkpt lat="45.76017" lon="4.81798">
        <ele>291.1</ele>
        <time>2013-05-01T04:34:28.000Z</time>
      </trkpt>
      <trkpt lat="45.76016" lon="4.81795">
        <ele>291.2</ele>
        <time>2013-05-01T04:34:29.000Z</time>
      </trkpt>
      <trkpt lat="45.76015" lon="4.81791">
        <ele>291.2</ele>
        <time>2013-05-01T04:34:30.000Z</time>
      </trkpt>
      <trkpt lat="45.76015" lon="4.81788">
        <ele>291.3</ele>
        <time>2013-05-01T04:34:31.000Z</time>
      </trkpt>
      <trkpt lat="45.76014" lon="4.81784">
        <ele>291.4</ele>
        <time>2013-05-01T04:34:32.000Z</time>
      </trkpt>
      <trkpt lat="45.76014" lon="4.8178">
        <ele>291.4</ele>
        <time>2013-05-01T04:34:33.000Z</time>
      </trkpt>
      <trkpt lat="45.76014" lon="4.81778">
        <ele>291.5</ele>
        <time>2013-05-01T04:34:34.000Z</time>
      </trkpt>
      <trkpt lat="45.76015" lon="4.81774">
        <ele>291.7</ele>
        <time>2013-05-01T04:34:35.000Z</time>
      </trkpt>
      <trkpt lat="45.76014" lon="4.81771">
        <ele>291.9</ele>
        <time>2013-05-01T04:34:36.000Z</time>
      </trkpt>
      <trkpt lat="45.76013" lon="4.81768">
        <ele>292.1</ele>
        <time>2013-05-01T04:34:37.000Z</time>
      </trkpt>
      <trkpt lat="45.76012" lon="4.81766">
        <ele>292.2</ele>
        <time>2013-05-01T04:34:38.000Z</time>
      </trkpt>
      <trkpt lat="45.7601" lon="4.81763">
        <ele>292.4</ele>
        <time>2013-05-01T04:34:39.000Z</time>
      </trkpt>
      <trkpt lat="45.76009" lon="4.8176">
        <ele>292.5</ele>
        <time>2013-05-01T04:34:40.000Z</time>
      </trkpt>
      <trkpt lat="45.76009" lon="4.81757">
        <ele>292.7</ele>
        <time>2013-05-01T04:34:41.000Z</time>
      </trkpt>
      <trkpt lat="45.76009" lon="4.81754">
        <ele>292.8</ele>
        <time>2013-05-01T04:34:42.000Z</time>
      </trkpt>
      <trkpt lat="45.76007" lon="4.81751">
        <ele>293</ele>
        <time>2013-05-01T04:34:43.000Z</time>
      </trkpt>
      <trkpt lat="45.76006" lon="4.81749">
        <ele>293.1</ele>
        <time>2013-05-01T04:34:44.000Z</time>
      </trkpt>
      <trkpt lat="45.76005" lon="4.81745">
        <ele>293.3</ele>
        <time>2013-05-01T04:34:45.000Z</time>
      </trkpt>
      <trkpt lat="45.76004" lon="4.81742">
        <ele>293.6</ele>
        <time>2013-05-01T04:34:46.000Z</time>
      </trkpt>
      <trkpt lat="45.76003" lon="4.81739">
        <ele>293.8</ele>
        <time>2013-05-01T04:34:47.000Z</time>
      </trkpt>
      <trkpt lat="45.76002" lon="4.81735">
        <ele>294.1</ele>
        <time>2013-05-01T04:34:48.000Z</time>
      </trkpt>
      <trkpt lat="45.76001" lon="4.81732">
        <ele>294.3</ele>
        <time>2013-05-01T04:34:49.000Z</time>
      </trkpt>
      <trkpt lat="45.76" lon="4.81729">
        <ele>294.5</ele>
        <time>2013-05-01T04:34:50.000Z</time>
      </trkpt>
      <trkpt lat="45.75999" lon="4.81726">
        <ele>294.8</ele>
        <time>2013-05-01T04:34:51.000Z</time>
      </trkpt>
      <trkpt lat="45.75997" lon="4.81722">
        <ele>295.1</ele>
        <time>2013-05-01T04:34:52.000Z</time>
      </trkpt>
      <trkpt lat="45.75995" lon="4.81719">
        <ele>295.3</ele>
        <time>2013-05-01T04:34:53.000Z</time>
      </trkpt>
      <trkpt lat="45.75994" lon="4.81716">
        <ele>295.4</ele>
        <time>2013-05-01T04:34:54.000Z</time>
      </trkpt>
      <trkpt lat="45.75993" lon="4.81714">
        <ele>295.5</ele>
        <time>2013-05-01T04:34:55.000Z</time>
      </trkpt>
      <trkpt lat="45.75992" lon="4.81711">
        <ele>295.6</ele>
        <time>2013-05-01T04:34:56.000Z</time>
      </trkpt>
      <trkpt lat="45.75991" lon="4.81707">
        <ele>295.7</ele>
        <time>2013-05-01T04:34:57.000Z</time>
      </trkpt>
      <trkpt lat="45.7599" lon="4.81703">
        <ele>295.8</ele>
        <time>2013-05-01T04:34:58.000Z</time>
      </trkpt>
      <trkpt lat="45.7599" lon="4.817">
        <ele>295.9</ele>
        <time>2013-05-01T04:34:59.000Z</time>
      </trkpt>
      <trkpt lat="45.75989" lon="4.81696">
        <ele>296</ele>
        <time>2013-05-01T04:35:00.000Z</time>
      </trkpt>
      <trkpt lat="45.75989" lon="4.81693">
        <ele>296</ele>
        <time>2013-05-01T04:35:01.000Z</time>
      </trkpt>
      <trkpt lat="45.75988" lon="4.81691">
        <ele>296</ele>
        <time>2013-05-01T04:35:02.000Z</time>
      </trkpt>
      <trkpt lat="45.75988" lon="4.81687">
        <ele>296</ele>
        <time>2013-05-01T04:35:03.000Z</time>
      </trkpt>
      <trkpt lat="45.75987" lon="4.81684">
        <ele>296</ele>
        <time>2013-05-01T04:35:04.000Z</time>
      </trkpt>
      <trkpt lat="45.75986" lon="4.8168">
        <ele>296</ele>
        <time>2013-05-01T04:35:05.000Z</time>
      </trkpt>
      <trkpt lat="45.75985" lon="4.81677">
        <ele>296</ele>
        <time>2013-05-01T04:35:06.000Z</time>
      </trkpt>
      <trkpt lat="45.75984" lon="4.81674">
        <ele>296</ele>
        <time>2013-05-01T04:35:07.000Z</time>
      </trkpt>
      <trkpt lat="45.75983" lon="4.8167">
        <ele>296</ele>
        <time>2013-05-01T04:35:08.000Z</time>
      </trkpt>
      <trkpt lat="45.75982" lon="4.81666">
        <ele>296</ele>
        <time>2013-05-01T04:35:09.000Z</time>
      </trkpt>
      <trkpt lat="45.75982" lon="4.81662">
        <ele>296.1</ele>
        <time>2013-05-01T04:35:10.000Z</time>
      </trkpt>
      <trkpt lat="45.75981" lon="4.8166">
        <ele>296.1</ele>
        <time>2013-05-01T04:35:11.000Z</time>
      </trkpt>
      <trkpt lat="45.7598" lon="4.81656">
        <ele>296.1</ele>
        <time>2013-05-01T04:35:12.000Z</time>
      </trkpt>
      <trkpt lat="45.75979" lon="4.81654">
        <ele>296.1</ele>
        <time>2013-05-01T04:35:13.000Z</time>
      </trkpt>
      <trkpt lat="45.75978" lon="4.81651">
        <ele>296.1</ele>
        <time>2013-05-01T04:35:14.000Z</time>
      </trkpt>
      <trkpt lat="45.75977" lon="4.81647">
        <ele>296.1</ele>
        <time>2013-05-01T04:35:15.000Z</time>
      </trkpt>
      <trkpt lat="45.75976" lon="4.81644">
        <ele>296.1</ele>
        <time>2013-05-01T04:35:16.000Z</time>
      </trkpt>
      <trkpt lat="45.75975" lon="4.81641">
        <ele>296.1</ele>
        <time>2013-05-01T04:35:17.000Z</time>
      </trkpt>
      <trkpt lat="45.75975" lon="4.81639">
        <ele>296.1</ele>
        <time>2013-05-01T04:35:18.000Z</time>
      </trkpt>
      <trkpt lat="45.75974" lon="4.81637">
        <ele>296</ele>
        <time>2013-05-01T04:35:19.000Z</time>
      </trkpt>
      <trkpt lat="45.75974" lon="4.81635">
        <ele>295.9</ele>
        <time>2013-05-01T04:35:20.000Z</time>
      </trkpt>
      <trkpt lat="45.75973" lon="4.81632">
        <ele>295.8</ele>
        <time>2013-05-01T04:35:21.000Z</time>
      </trkpt>
      <trkpt lat="45.75972" lon="4.8163">
        <ele>295.7</ele>
        <time>2013-05-01T04:35:22.000Z</time>
      </trkpt>
      <trkpt lat="45.75971" lon="4.81627">
        <ele>295.7</ele>
        <time>2013-05-01T04:35:23.000Z</time>
      </trkpt>
      <trkpt lat="45.7597" lon="4.81624">
        <ele>295.6</ele>
        <time>2013-05-01T04:35:24.000Z</time>
      </trkpt>
      <trkpt lat="45.7597" lon="4.81622">
        <ele>295.5</ele>
        <time>2013-05-01T04:35:25.000Z</time>
      </trkpt>
      <trkpt lat="45.75969" lon="4.81619">
        <ele>295.5</ele>
        <time>2013-05-01T04:35:26.000Z</time>
      </trkpt>
      <trkpt lat="45.75968" lon="4.81616">
        <ele>295.4</ele>
        <time>2013-05-01T04:35:27.000Z</time>
      </trkpt>
      <trkpt lat="45.75967" lon="4.81613">
        <ele>295.4</ele>
        <time>2013-05-01T04:35:28.000Z</time>
      </trkpt>
      <trkpt lat="45.75966" lon="4.81609">
        <ele>295.4</ele>
        <time>2013-05-01T04:35:29.000Z</time>
      </trkpt>
      <trkpt lat="45.75966" lon="4.81606">
        <ele>295.4</ele>
        <time>2013-05-01T04:35:30.000Z</time>
      </trkpt>
      <trkpt lat="45.75964" lon="4.81602">
        <ele>295.4</ele>
        <time>2013-05-01T04:35:31.000Z</time>
      </trkpt>
      <trkpt lat="45.75963" lon="4.81598">
        <ele>295.3</ele>
        <time>2013-05-01T04:35:32.000Z</time>
      </trkpt>
      <trkpt lat="45.75962" lon="4.81595">
        <ele>295.3</ele>
        <time>2013-05-01T04:35:33.000Z</time>
      </trkpt>
      <trkpt lat="45.75961" lon="4.81591">
        <ele>295.2</ele>
        <time>2013-05-01T04:35:34.000Z</time>
      </trkpt>
      <trkpt lat="45.7596" lon="4.81588">
        <ele>295.1</ele>
        <time>2013-05-01T04:35:35.000Z</time>
      </trkpt>
      <trkpt lat="45.7596" lon="4.81585">
        <ele>295.1</ele>
        <time>2013-05-01T04:35:36.000Z</time>
      </trkpt>
      <trkpt lat="45.75959" lon="4.81582">
        <ele>295</ele>
        <time>2013-05-01T04:35:37.000Z</time>
      </trkpt>
      <trkpt lat="45.75958" lon="4.81579">
        <ele>294.9</ele>
        <time>2013-05-01T04:35:38.000Z</time>
      </trkpt>
      <trkpt lat="45.75958" lon="4.81575">
        <ele>294.8</ele>
        <time>2013-05-01T04:35:39.000Z</time>
      </trkpt>
      <trkpt lat="45.75957" lon="4.81572">
        <ele>294.8</ele>
        <time>2013-05-01T04:35:40.000Z</time>
      </trkpt>
      <trkpt lat="45.75957" lon="4.81569">
        <ele>294.7</ele>
        <time>2013-05-01T04:35:41.000Z</time>
      </trkpt>
      <trkpt lat="45.75956" lon="4.81565">
        <ele>294.6</ele>
        <time>2013-05-01T04:35:42.000Z</time>
      </trkpt>
      <trkpt lat="45.75957" lon="4.81561">
        <ele>294.6</ele>
        <time>2013-05-01T04:35:43.000Z</time>
      </trkpt>
      <trkpt lat="45.75957" lon="4.81557">
        <ele>294.5</ele>
        <time>2013-05-01T04:35:44.000Z</time>
      </trkpt>
      <trkpt lat="45.75958" lon="4.81554">
        <ele>294.5</ele>
        <time>2013-05-01T04:35:45.000Z</time>
      </trkpt>
      <trkpt lat="45.75958" lon="4.8155">
        <ele>294.5</ele>
        <time>2013-05-01T04:35:46.000Z</time>
      </trkpt>
      <trkpt lat="45.75959" lon="4.81547">
        <ele>294.5</ele>
        <time>2013-05-01T04:35:47.000Z</time>
      </trkpt>
      <trkpt lat="45.75959" lon="4.81543">
        <ele>294.5</ele>
        <time>2013-05-01T04:35:48.000Z</time>
      </trkpt>
      <trkpt lat="45.7596" lon="4.81539">
        <ele>294.5</ele>
        <time>2013-05-01T04:35:49.000Z</time>
      </trkpt>
      <trkpt lat="45.7596" lon="4.81536">
        <ele>294.6</ele>
        <time>2013-05-01T04:35:50.000Z</time>
      </trkpt>
      <trkpt lat="45.75961" lon="4.81533">
        <ele>294.6</ele>
        <time>2013-05-01T04:35:51.000Z</time>
      </trkpt>
      <trkpt lat="45.75961" lon="4.81529">
        <ele>294.6</ele>
        <time>2013-05-01T04:35:52.000Z</time>
      </trkpt>
      <trkpt lat="45.75961" lon="4.81525">
        <ele>294.6</ele>
        <time>2013-05-01T04:35:53.000Z</time>
      </trkpt>
      <trkpt lat="45.75961" lon="4.81522">
        <ele>294.5</ele>
        <time>2013-05-01T04:35:54.000Z</time>
      </trkpt>
      <trkpt lat="45.75961" lon="4.81519">
        <ele>294.5</ele>
        <time>2013-05-01T04:35:55.000Z</time>
      </trkpt>
      <trkpt lat="45.75961" lon="4.81516">
        <ele>294.4</ele>
        <time>2013-05-01T04:35:56.000Z</time>
      </trkpt>
      <trkpt lat="45.75961" lon="4.81512">
        <ele>294.3</ele>
        <time>2013-05-01T04:35:57.000Z</time>
      </trkpt>
      <trkpt lat="45.7596" lon="4.81509">
        <ele>294.3</ele>
        <time>2013-05-01T04:35:58.000Z</time>
      </trkpt>
      <trkpt lat="45.7596" lon="4.81505">
        <ele>294.2</ele>
        <time>2013-05-01T04:35:59.000Z</time>
      </trkpt>
      <trkpt lat="45.75959" lon="4.81502">
        <ele>294.1</ele>
        <time>2013-05-01T04:36:00.000Z</time>
      </trkpt>
      <trkpt lat="45.75958" lon="4.81498">
        <ele>293.9</ele>
        <time>2013-05-01T04:36:01.000Z</time>
      </trkpt>
      <trkpt lat="45.75957" lon="4.81495">
        <ele>293.8</ele>
        <time>2013-05-01T04:36:02.000Z</time>
      </trkpt>
      <trkpt lat="45.75957" lon="4.81492">
        <ele>293.7</ele>
        <time>2013-05-01T04:36:03.000Z</time>
      </trkpt>
      <trkpt lat="45.75956" lon="4.81489">
        <ele>293.6</ele>
        <time>2013-05-01T04:36:04.000Z</time>
      </trkpt>
      <trkpt lat="45.75956" lon="4.81486">
        <ele>293.5</ele>
        <time>2013-05-01T04:36:05.000Z</time>
      </trkpt>
      <trkpt lat="45.75955" lon="4.81483">
        <ele>293.4</ele>
        <time>2013-05-01T04:36:06.000Z</time>
      </trkpt>
      <trkpt lat="45.75954" lon="4.81479">
        <ele>293.2</ele>
        <time>2013-05-01T04:36:07.000Z</time>
      </trkpt>
      <trkpt lat="45.75954" lon="4.81476">
        <ele>293.1</ele>
        <time>2013-05-01T04:36:08.000Z</time>
      </trkpt>
      <trkpt lat="45.75953" lon="4.81473">
        <ele>292.9</ele>
        <time>2013-05-01T04:36:09.000Z</time>
      </trkpt>
      <trkpt lat="45.75952" lon="4.81469">
        <ele>292.9</ele>
        <time>2013-05-01T04:36:10.000Z</time>
      </trkpt>
      <trkpt lat="45.75951" lon="4.81466">
        <ele>292.9</ele>
        <time>2013-05-01T04:36:11.000Z</time>
      </trkpt>
      <trkpt lat="45.7595" lon="4.81462">
        <ele>292.9</ele>
        <time>2013-05-01T04:36:12.000Z</time>
      </trkpt>
      <trkpt lat="45.75949" lon="4.81459">
        <ele>292.9</ele>
        <time>2013-05-01T04:36:13.000Z</time>
      </trkpt>
      <trkpt lat="45.75948" lon="4.81456">
        <ele>292.9</ele>
        <time>2013-05-01T04:36:14.000Z</time>
      </trkpt>
      <trkpt lat="45.75947" lon="4.81454">
        <ele>292.9</ele>
        <time>2013-05-01T04:36:15.000Z</time>
      </trkpt>
      <trkpt lat="45.75946" lon="4.81451">
        <ele>292.9</ele>
        <time>2013-05-01T04:36:16.000Z</time>
      </trkpt>
      <trkpt lat="45.75944" lon="4.81449">
        <ele>292.8</ele>
        <time>2013-05-01T04:36:17.000Z</time>
      </trkpt>
      <trkpt lat="45.75943" lon="4.81445">
        <ele>292.8</ele>
        <time>2013-05-01T04:36:18.000Z</time>
      </trkpt>
      <trkpt lat="45.75943" lon="4.81442">
        <ele>292.6</ele>
        <time>2013-05-01T04:36:19.000Z</time>
      </trkpt>
      <trkpt lat="45.75942" lon="4.81439">
        <ele>292.4</ele>
        <time>2013-05-01T04:36:20.000Z</time>
      </trkpt>
      <trkpt lat="45.75942" lon="4.81435">
        <ele>292.2</ele>
        <time>2013-05-01T04:36:21.000Z</time>
      </trkpt>
      <trkpt lat="45.75942" lon="4.81432">
        <ele>292.1</ele>
        <time>2013-05-01T04:36:22.000Z</time>
      </trkpt>
      <trkpt lat="45.75942" lon="4.81428">
        <ele>292</ele>
        <time>2013-05-01T04:36:23.000Z</time>
      </trkpt>
      <trkpt lat="45.75942" lon="4.81425">
        <ele>292</ele>
        <time>2013-05-01T04:36:24.000Z</time>
      </trkpt>
      <trkpt lat="45.75943" lon="4.81422">
        <ele>292</ele>
        <time>2013-05-01T04:36:25.000Z</time>
      </trkpt>
      <trkpt lat="45.75944" lon="4.81418">
        <ele>292</ele>
        <time>2013-05-01T04:36:26.000Z</time>
      </trkpt>
      <trkpt lat="45.75946" lon="4.81415">
        <ele>292</ele>
        <time>2013-05-01T04:36:27.000Z</time>
      </trkpt>
      <trkpt lat="45.75947" lon="4.81411">
        <ele>291.8</ele>
        <time>2013-05-01T04:36:28.000Z</time>
      </trkpt>
      <trkpt lat="45.75948" lon="4.81408">
        <ele>291.7</ele>
        <time>2013-05-01T04:36:29.000Z</time>
      </trkpt>
      <trkpt lat="45.75949" lon="4.81404">
        <ele>291.5</ele>
        <time>2013-05-01T04:36:30.000Z</time>
      </trkpt>
      <trkpt lat="45.7595" lon="4.814">
        <ele>291.4</ele>
        <time>2013-05-01T04:36:31.000Z</time>
      </trkpt>
      <trkpt lat="45.75952" lon="4.81397">
        <ele>291.4</ele>
        <time>2013-05-01T04:36:32.000Z</time>
      </trkpt>
      <trkpt lat="45.75953" lon="4.81394">
        <ele>291.3</ele>
        <time>2013-05-01T04:36:33.000Z</time>
      </trkpt>
      <trkpt lat="45.75955" lon="4.81392">
        <ele>291.3</ele>
        <time>2013-05-01T04:36:34.000Z</time>
      </trkpt>
      <trkpt lat="45.75957" lon="4.81389">
        <ele>291.3</ele>
        <time>2013-05-01T04:36:35.000Z</time>
      </trkpt>
      <trkpt lat="45.75959" lon="4.81387">
        <ele>291.5</ele>
        <time>2013-05-01T04:36:36.000Z</time>
      </trkpt>
      <trkpt lat="45.75961" lon="4.81384">
        <ele>291.6</ele>
        <time>2013-05-01T04:36:37.000Z</time>
      </trkpt>
      <trkpt lat="45.75962" lon="4.81382">
        <ele>291.8</ele>
        <time>2013-05-01T04:36:38.000Z</time>
      </trkpt>
      <trkpt lat="45.75964" lon="4.81379">
        <ele>291.9</ele>
        <time>2013-05-01T04:36:39.000Z</time>
      </trkpt>
      <trkpt lat="45.75966" lon="4.81376">
        <ele>291.9</ele>
        <time>2013-05-01T04:36:40.000Z</time>
      </trkpt>
      <trkpt lat="45.75966" lon="4.81373">
        <ele>291.9</ele>
        <time>2013-05-01T04:36:41.000Z</time>
      </trkpt>
      <trkpt lat="45.75967" lon="4.8137">
        <ele>291.9</ele>
        <time>2013-05-01T04:36:42.000Z</time>
      </trkpt>
      <trkpt lat="45.75968" lon="4.81367">
        <ele>291.8</ele>
        <time>2013-05-01T04:36:43.000Z</time>
      </trkpt>
      <trkpt lat="45.75969" lon="4.81364">
        <ele>291.8</ele>
        <time>2013-05-01T04:36:44.000Z</time>
      </trkpt>
      <trkpt lat="45.7597" lon="4.81361">
        <ele>291.8</ele>
        <time>2013-05-01T04:36:45.000Z</time>
      </trkpt>
      <trkpt lat="45.75972" lon="4.81358">
        <ele>291.9</ele>
        <time>2013-05-01T04:36:46.000Z</time>
      </trkpt>
      <trkpt lat="45.75973" lon="4.81355">
        <ele>292</ele>
        <time>2013-05-01T04:36:47.000Z</time>
      </trkpt>
      <trkpt lat="45.75974" lon="4.81352">
        <ele>292.1</ele>
        <time>2013-05-01T04:36:48.000Z</time>
      </trkpt>
      <trkpt lat="45.75976" lon="4.81349">
        <ele>292.3</ele>
        <time>2013-05-01T04:36:49.000Z</time>
      </trkpt>
      <trkpt lat="45.75977" lon="4.81347">
        <ele>292.3</ele>
        <time>2013-05-01T04:36:50.000Z</time>
      </trkpt>
      <trkpt lat="45.75978" lon="4.81344">
        <ele>292.4</ele>
        <time>2013-05-01T04:36:51.000Z</time>
      </trkpt>
      <trkpt lat="45.75979" lon="4.8134">
        <ele>292.5</ele>
        <time>2013-05-01T04:36:52.000Z</time>
      </trkpt>
      <trkpt lat="45.7598" lon="4.81337">
        <ele>292.6</ele>
        <time>2013-05-01T04:36:53.000Z</time>
      </trkpt>
      <trkpt lat="45.75981" lon="4.81334">
        <ele>292.7</ele>
        <time>2013-05-01T04:36:54.000Z</time>
      </trkpt>
      <trkpt lat="45.75983" lon="4.81331">
        <ele>292.6</ele>
        <time>2013-05-01T04:36:55.000Z</time>
      </trkpt>
      <trkpt lat="45.75984" lon="4.81328">
        <ele>292.4</ele>
        <time>2013-05-01T04:36:56.000Z</time>
      </trkpt>
      <trkpt lat="45.75985" lon="4.81325">
        <ele>292.3</ele>
        <time>2013-05-01T04:36:57.000Z</time>
      </trkpt>
      <trkpt lat="45.75986" lon="4.81322">
        <ele>292.2</ele>
        <time>2013-05-01T04:36:58.000Z</time>
      </trkpt>
      <trkpt lat="45.75987" lon="4.81319">
        <ele>292.1</ele>
        <time>2013-05-01T04:36:59.000Z</time>
      </trkpt>
      <trkpt lat="45.75989" lon="4.81317">
        <ele>292</ele>
        <time>2013-05-01T04:37:00.000Z</time>
      </trkpt>
      <trkpt lat="45.7599" lon="4.81314">
        <ele>291.9</ele>
        <time>2013-05-01T04:37:01.000Z</time>
      </trkpt>
      <trkpt lat="45.75991" lon="4.81311">
        <ele>291.8</ele>
        <time>2013-05-01T04:37:02.000Z</time>
      </trkpt>
      <trkpt lat="45.75993" lon="4.81309">
        <ele>291.7</ele>
        <time>2013-05-01T04:37:03.000Z</time>
      </trkpt>
      <trkpt lat="45.75995" lon="4.81306">
        <ele>291.7</ele>
        <time>2013-05-01T04:37:04.000Z</time>
      </trkpt>
      <trkpt lat="45.75997" lon="4.81304">
        <ele>291.7</ele>
        <time>2013-05-01T04:37:05.000Z</time>
      </trkpt>
      <trkpt lat="45.75999" lon="4.81302">
        <ele>291.7</ele>
        <time>2013-05-01T04:37:06.000Z</time>
      </trkpt>
      <trkpt lat="45.76001" lon="4.813">
        <ele>291.6</ele>
        <time>2013-05-01T04:37:07.000Z</time>
      </trkpt>
      <trkpt lat="45.76002" lon="4.81298">
        <ele>291.5</ele>
        <time>2013-05-01T04:37:08.000Z</time>
      </trkpt>
      <trkpt lat="45.76004" lon="4.81297">
        <ele>291.4</ele>
        <time>2013-05-01T04:37:09.000Z</time>
      </trkpt>
      <trkpt lat="45.76007" lon="4.81295">
        <ele>291.2</ele>
        <time>2013-05-01T04:37:10.000Z</time>
      </trkpt>
      <trkpt lat="45.76009" lon="4.81294">
        <ele>291.1</ele>
        <time>2013-05-01T04:37:11.000Z</time>
      </trkpt>
      <trkpt lat="45.76011" lon="4.81292">
        <ele>291</ele>
        <time>2013-05-01T04:37:12.000Z</time>
      </trkpt>
      <trkpt lat="45.76014" lon="4.8129">
        <ele>290.9</ele>
        <time>2013-05-01T04:37:13.000Z</time>
      </trkpt>
      <trkpt lat="45.76016" lon="4.81289">
        <ele>290.8</ele>
        <time>2013-05-01T04:37:14.000Z</time>
      </trkpt>
      <trkpt lat="45.76018" lon="4.81288">
        <ele>290.7</ele>
        <time>2013-05-01T04:37:15.000Z</time>
      </trkpt>
      <trkpt lat="45.7602" lon="4.81286">
        <ele>290.6</ele>
        <time>2013-05-01T04:37:16.000Z</time>
      </trkpt>
      <trkpt lat="45.76022" lon="4.81285">
        <ele>290.5</ele>
        <time>2013-05-01T04:37:17.000Z</time>
      </trkpt>
      <trkpt lat="45.76024" lon="4.81282">
        <ele>290.3</ele>
        <time>2013-05-01T04:37:18.000Z</time>
      </trkpt>
      <trkpt lat="45.76026" lon="4.8128">
        <ele>290.2</ele>
        <time>2013-05-01T04:37:19.000Z</time>
      </trkpt>
      <trkpt lat="45.76029" lon="4.81278">
        <ele>290.1</ele>
        <time>2013-05-01T04:37:20.000Z</time>
      </trkpt>
      <trkpt lat="45.76031" lon="4.81276">
        <ele>290</ele>
        <time>2013-05-01T04:37:21.000Z</time>
      </trkpt>
      <trkpt lat="45.76032" lon="4.81274">
        <ele>289.8</ele>
        <time>2013-05-01T04:37:22.000Z</time>
      </trkpt>
      <trkpt lat="45.76035" lon="4.81272">
        <ele>289.7</ele>
        <time>2013-05-01T04:37:23.000Z</time>
      </trkpt>
      <trkpt lat="45.76037" lon="4.8127">
        <ele>289.7</ele>
        <time>2013-05-01T04:37:24.000Z</time>
      </trkpt>
      <trkpt lat="45.7604" lon="4.81268">
        <ele>289.6</ele>
        <time>2013-05-01T04:37:25.000Z</time>
      </trkpt>
      <trkpt lat="45.76042" lon="4.81267">
        <ele>289.5</ele>
        <time>2013-05-01T04:37:26.000Z</time>
      </trkpt>
      <trkpt lat="45.76044" lon="4.81265">
        <ele>289.4</ele>
        <time>2013-05-01T04:37:27.000Z</time>
      </trkpt>
      <trkpt lat="45.76046" lon="4.81263">
        <ele>289.3</ele>
        <time>2013-05-01T04:37:28.000Z</time>
      </trkpt>
      <trkpt lat="45.76049" lon="4.81261">
        <ele>289.1</ele>
        <time>2013-05-01T04:37:29.000Z</time>
      </trkpt>
      <trkpt lat="45.76051" lon="4.8126">
        <ele>289</ele>
        <time>2013-05-01T04:37:30.000Z</time>
      </trkpt>
      <trkpt lat="45.76053" lon="4.81259">
        <ele>289</ele>
        <time>2013-05-01T04:37:31.000Z</time>
      </trkpt>
      <trkpt lat="45.76056" lon="4.81258">
        <ele>288.9</ele>
        <time>2013-05-01T04:37:32.000Z</time>
      </trkpt>
      <trkpt lat="45.76058" lon="4.81257">
        <ele>288.8</ele>
        <time>2013-05-01T04:37:33.000Z</time>
      </trkpt>
      <trkpt lat="45.76061" lon="4.81255">
        <ele>288.6</ele>
        <time>2013-05-01T04:37:34.000Z</time>
      </trkpt>
      <trkpt lat="45.76063" lon="4.81254">
        <ele>288.6</ele>
        <time>2013-05-01T04:37:35.000Z</time>
      </trkpt>
      <trkpt lat="45.76066" lon="4.81253">
        <ele>288.6</ele>
        <time>2013-05-01T04:37:36.000Z</time>
      </trkpt>
      <trkpt lat="45.76068" lon="4.81252">
        <ele>288.6</ele>
        <time>2013-05-01T04:37:37.000Z</time>
      </trkpt>
      <trkpt lat="45.76071" lon="4.81251">
        <ele>288.6</ele>
        <time>2013-05-01T04:37:38.000Z</time>
      </trkpt>
      <trkpt lat="45.76074" lon="4.8125">
        <ele>288.7</ele>
        <time>2013-05-01T04:37:39.000Z</time>
      </trkpt>
      <trkpt lat="45.76076" lon="4.81249">
        <ele>288.5</ele>
        <time>2013-05-01T04:37:40.000Z</time>
      </trkpt>
      <trkpt lat="45.76079" lon="4.81248">
        <ele>288.4</ele>
        <time>2013-05-01T04:37:41.000Z</time>
      </trkpt>
      <trkpt lat="45.76082" lon="4.81246">
        <ele>288.3</ele>
        <time>2013-05-01T04:37:42.000Z</time>
      </trkpt>
      <trkpt lat="45.76084" lon="4.81245">
        <ele>288.1</ele>
        <time>2013-05-01T04:37:43.000Z</time>
      </trkpt>
      <trkpt lat="45.76087" lon="4.81244">
        <ele>287.9</ele>
        <time>2013-05-01T04:37:44.000Z</time>
      </trkpt>
      <trkpt lat="45.7609" lon="4.81242">
        <ele>287.6</ele>
        <time>2013-05-01T04:37:45.000Z</time>
      </trkpt>
      <trkpt lat="45.76092" lon="4.81241">
        <ele>287.5</ele>
        <time>2013-05-01T04:37:46.000Z</time>
      </trkpt>
      <trkpt lat="45.76095" lon="4.8124">
        <ele>287.4</ele>
        <time>2013-05-01T04:37:47.000Z</time>
      </trkpt>
      <trkpt lat="45.76097" lon="4.81239">
        <ele>287.3</ele>
        <time>2013-05-01T04:37:48.000Z</time>
      </trkpt>
      <trkpt lat="45.761" lon="4.81238">
        <ele>287.2</ele>
        <time>2013-05-01T04:37:49.000Z</time>
      </trkpt>
      <trkpt lat="45.76102" lon="4.81236">
        <ele>287.2</ele>
        <time>2013-05-01T04:37:50.000Z</time>
      </trkpt>
      <trkpt lat="45.76104" lon="4.81235">
        <ele>287.2</ele>
        <time>2013-05-01T04:37:51.000Z</time>
      </trkpt>
      <trkpt lat="45.76107" lon="4.81234">
        <ele>287.2</ele>
        <time>2013-05-01T04:37:52.000Z</time>
      </trkpt>
      <trkpt lat="45.76109" lon="4.81233">
        <ele>287.3</ele>
        <time>2013-05-01T04:37:53.000Z</time>
      </trkpt>
      <trkpt lat="45.76112" lon="4.81232">
        <ele>287.3</ele>
        <time>2013-05-01T04:37:54.000Z</time>
      </trkpt>
      <trkpt lat="45.76115" lon="4.81231">
        <ele>287.3</ele>
        <time>2013-05-01T04:37:55.000Z</time>
      </trkpt>
      <trkpt lat="45.76117" lon="4.8123">
        <ele>287.2</ele>
        <time>2013-05-01T04:37:56.000Z</time>
      </trkpt>
      <trkpt lat="45.7612" lon="4.81229">
        <ele>287.2</ele>
        <time>2013-05-01T04:37:57.000Z</time>
      </trkpt>
      <trkpt lat="45.76122" lon="4.81228">
        <ele>287.1</ele>
        <time>2013-05-01T04:37:58.000Z</time>
      </trkpt>
      <trkpt lat="45.76124" lon="4.81226">
        <ele>287.1</ele>
        <time>2013-05-01T04:37:59.000Z</time>
      </trkpt>
      <trkpt lat="45.76126" lon="4.81225">
        <ele>287</ele>
        <time>2013-05-01T04:38:00.000Z</time>
      </trkpt>
      <trkpt lat="45.76129" lon="4.81225">
        <ele>287</ele>
        <time>2013-05-01T04:38:01.000Z</time>
      </trkpt>
      <trkpt lat="45.76131" lon="4.81224">
        <ele>287</ele>
        <time>2013-05-01T04:38:02.000Z</time>
      </trkpt>
      <trkpt lat="45.76133" lon="4.81224">
        <ele>287</ele>
        <time>2013-05-01T04:38:03.000Z</time>
      </trkpt>
      <trkpt lat="45.76135" lon="4.81225">
        <ele>287</ele>
        <time>2013-05-01T04:38:04.000Z</time>
      </trkpt>
      <trkpt lat="45.76137" lon="4.81226">
        <ele>287</ele>
        <time>2013-05-01T04:38:05.000Z</time>
      </trkpt>
      <trkpt lat="45.76139" lon="4.81227">
        <ele>287</ele>
        <time>2013-05-01T04:38:06.000Z</time>
      </trkpt>
      <trkpt lat="45.76141" lon="4.81228">
        <ele>286.9</ele>
        <time>2013-05-01T04:38:07.000Z</time>
      </trkpt>
      <trkpt lat="45.76143" lon="4.8123">
        <ele>286.8</ele>
        <time>2013-05-01T04:38:08.000Z</time>
      </trkpt>
      <trkpt lat="45.76145" lon="4.81231">
        <ele>286.7</ele>
        <time>2013-05-01T04:38:09.000Z</time>
      </trkpt>
      <trkpt lat="45.76147" lon="4.81233">
        <ele>286.6</ele>
        <time>2013-05-01T04:38:10.000Z</time>
      </trkpt>
      <trkpt lat="45.76148" lon="4.81235">
        <ele>286.6</ele>
        <time>2013-05-01T04:38:11.000Z</time>
      </trkpt>
      <trkpt lat="45.7615" lon="4.81238">
        <ele>286.7</ele>
        <time>2013-05-01T04:38:12.000Z</time>
      </trkpt>
      <trkpt lat="45.76151" lon="4.81241">
        <ele>286.7</ele>
        <time>2013-05-01T04:38:13.000Z</time>
      </trkpt>
      <trkpt lat="45.76152" lon="4.81243">
        <ele>286.8</ele>
        <time>2013-05-01T04:38:14.000Z</time>
      </trkpt>
      <trkpt lat="45.76153" lon="4.81245">
        <ele>286.8</ele>
        <time>2013-05-01T04:38:15.000Z</time>
      </trkpt>
      <trkpt lat="45.76154" lon="4.81248">
        <ele>286.9</ele>
        <time>2013-05-01T04:38:16.000Z</time>
      </trkpt>
      <trkpt lat="45.76155" lon="4.81251">
        <ele>287</ele>
        <time>2013-05-01T04:38:17.000Z</time>
      </trkpt>
      <trkpt lat="45.76157" lon="4.81253">
        <ele>287</ele>
        <time>2013-05-01T04:38:18.000Z</time>
      </trkpt>
      <trkpt lat="45.76158" lon="4.81256">
        <ele>287.1</ele>
        <time>2013-05-01T04:38:19.000Z</time>
      </trkpt>
      <trkpt lat="45.76159" lon="4.8126">
        <ele>287.1</ele>
        <time>2013-05-01T04:38:20.000Z</time>
      </trkpt>
      <trkpt lat="45.76161" lon="4.81263">
        <ele>287.1</ele>
        <time>2013-05-01T04:38:21.000Z</time>
      </trkpt>
      <trkpt lat="45.76162" lon="4.81266">
        <ele>287.1</ele>
        <time>2013-05-01T04:38:22.000Z</time>
      </trkpt>
      <trkpt lat="45.76163" lon="4.8127">
        <ele>287.1</ele>
        <time>2013-05-01T04:38:23.000Z</time>
      </trkpt>
      <trkpt lat="45.76164" lon="4.81273">
        <ele>287.1</ele>
        <time>2013-05-01T04:38:24.000Z</time>
      </trkpt>
      <trkpt lat="45.76165" lon="4.81276">
        <ele>287</ele>
        <time>2013-05-01T04:38:25.000Z</time>
      </trkpt>
      <trkpt lat="45.76165" lon="4.81279">
        <ele>287.2</ele>
        <time>2013-05-01T04:38:26.000Z</time>
      </trkpt>
      <trkpt lat="45.76166" lon="4.81282">
        <ele>287.3</ele>
        <time>2013-05-01T04:38:27.000Z</time>
      </trkpt>
      <trkpt lat="45.76168" lon="4.81285">
        <ele>287.5</ele>
        <time>2013-05-01T04:38:28.000Z</time>
      </trkpt>
      <trkpt lat="45.76169" lon="4.81286">
        <ele>287.6</ele>
        <time>2013-05-01T04:38:29.000Z</time>
      </trkpt>
      <trkpt lat="45.76171" lon="4.81287">
        <ele>287.7</ele>
        <time>2013-05-01T04:38:30.000Z</time>
      </trkpt>
      <trkpt lat="45.76174" lon="4.81287">
        <ele>287.8</ele>
        <time>2013-05-01T04:38:31.000Z</time>
      </trkpt>
      <trkpt lat="45.76176" lon="4.81288">
        <ele>288</ele>
        <time>2013-05-01T04:38:32.000Z</time>
      </trkpt>
      <trkpt lat="45.76178" lon="4.81289">
        <ele>288.2</ele>
        <time>2013-05-01T04:38:33.000Z</time>
      </trkpt>
      <trkpt lat="45.7618" lon="4.8129">
        <ele>288.3</ele>
        <time>2013-05-01T04:38:34.000Z</time>
      </trkpt>
      <trkpt lat="45.76183" lon="4.8129">
        <ele>288.4</ele>
        <time>2013-05-01T04:38:35.000Z</time>
      </trkpt>
      <trkpt lat="45.76185" lon="4.8129">
        <ele>288.5</ele>
        <time>2013-05-01T04:38:36.000Z</time>
      </trkpt>
      <trkpt lat="45.76187" lon="4.8129">
        <ele>288.5</ele>
        <time>2013-05-01T04:38:37.000Z</time>
      </trkpt>
      <trkpt lat="45.7619" lon="4.8129">
        <ele>288.6</ele>
        <time>2013-05-01T04:38:38.000Z</time>
      </trkpt>
      <trkpt lat="45.76192" lon="4.8129">
        <ele>288.6</ele>
        <time>2013-05-01T04:38:39.000Z</time>
      </trkpt>
      <trkpt lat="45.76194" lon="4.81289">
        <ele>288.6</ele>
        <time>2013-05-01T04:38:40.000Z</time>
      </trkpt>
      <trkpt lat="45.76196" lon="4.81289">
        <ele>288.6</ele>
        <time>2013-05-01T04:38:41.000Z</time>
      </trkpt>
      <trkpt lat="45.76199" lon="4.81289">
        <ele>288.4</ele>
        <time>2013-05-01T04:38:42.000Z</time>
      </trkpt>
      <trkpt lat="45.76201" lon="4.81289">
        <ele>288.3</ele>
        <time>2013-05-01T04:38:43.000Z</time>
      </trkpt>
      <trkpt lat="45.76204" lon="4.81289">
        <ele>288.3</ele>
        <time>2013-05-01T04:38:44.000Z</time>
      </trkpt>
      <trkpt lat="45.76207" lon="4.81289">
        <ele>288.2</ele>
        <time>2013-05-01T04:38:45.000Z</time>
      </trkpt>
      <trkpt lat="45.7621" lon="4.81288">
        <ele>288</ele>
        <time>2013-05-01T04:38:46.000Z</time>
      </trkpt>
      <trkpt lat="45.76213" lon="4.81288">
        <ele>287.9</ele>
        <time>2013-05-01T04:38:47.000Z</time>
      </trkpt>
      <trkpt lat="45.76215" lon="4.81288">
        <ele>287.7</ele>
        <time>2013-05-01T04:38:48.000Z</time>
      </trkpt>
      <trkpt lat="45.76217" lon="4.81288">
        <ele>287.7</ele>
        <time>2013-05-01T04:38:49.000Z</time>
      </trkpt>
      <trkpt lat="45.7622" lon="4.81287">
        <ele>287.5</ele>
        <time>2013-05-01T04:38:50.000Z</time>
      </trkpt>
      <trkpt lat="45.76223" lon="4.81287">
        <ele>287.3</ele>
        <time>2013-05-01T04:38:51.000Z</time>
      </trkpt>
      <trkpt lat="45.76225" lon="4.81286">
        <ele>287.1</ele>
        <time>2013-05-01T04:38:52.000Z</time>
      </trkpt>
      <trkpt lat="45.76228" lon="4.81286">
        <ele>287</ele>
        <time>2013-05-01T04:38:53.000Z</time>
      </trkpt>
      <trkpt lat="45.7623" lon="4.81285">
        <ele>286.8</ele>
        <time>2013-05-01T04:38:54.000Z</time>
      </trkpt>
      <trkpt lat="45.76233" lon="4.81285">
        <ele>286.7</ele>
        <time>2013-05-01T04:38:55.000Z</time>
      </trkpt>
      <trkpt lat="45.76235" lon="4.81284">
        <ele>286.5</ele>
        <time>2013-05-01T04:38:56.000Z</time>
      </trkpt>
      <trkpt lat="45.76237" lon="4.81283">
        <ele>286.3</ele>
        <time>2013-05-01T04:38:57.000Z</time>
      </trkpt>
      <trkpt lat="45.7624" lon="4.81283">
        <ele>286.2</ele>
        <time>2013-05-01T04:38:58.000Z</time>
      </trkpt>
      <trkpt lat="45.76242" lon="4.81282">
        <ele>286.1</ele>
        <time>2013-05-01T04:38:59.000Z</time>
      </trkpt>
      <trkpt lat="45.76245" lon="4.81282">
        <ele>285.9</ele>
        <time>2013-05-01T04:39:00.000Z</time>
      </trkpt>
      <trkpt lat="45.76247" lon="4.81281">
        <ele>285.8</ele>
        <time>2013-05-01T04:39:01.000Z</time>
      </trkpt>
      <trkpt lat="45.7625" lon="4.8128">
        <ele>285.6</ele>
        <time>2013-05-01T04:39:02.000Z</time>
      </trkpt>
      <trkpt lat="45.76252" lon="4.8128">
        <ele>285.5</ele>
        <time>2013-05-01T04:39:03.000Z</time>
      </trkpt>
      <trkpt lat="45.76255" lon="4.8128">
        <ele>285.3</ele>
        <time>2013-05-01T04:39:04.000Z</time>
      </trkpt>
      <trkpt lat="45.76257" lon="4.8128">
        <ele>285.1</ele>
        <time>2013-05-01T04:39:05.000Z</time>
      </trkpt>
      <trkpt lat="45.7626" lon="4.81279">
        <ele>285</ele>
        <time>2013-05-01T04:39:06.000Z</time>
      </trkpt>
      <trkpt lat="45.76262" lon="4.8128">
        <ele>285</ele>
        <time>2013-05-01T04:39:07.000Z</time>
      </trkpt>
      <trkpt lat="45.76265" lon="4.81281">
        <ele>285.1</ele>
        <time>2013-05-01T04:39:08.000Z</time>
      </trkpt>
      <trkpt lat="45.76267" lon="4.81284">
        <ele>285.3</ele>
        <time>2013-05-01T04:39:09.000Z</time>
      </trkpt>
      <trkpt lat="45.76269" lon="4.81286">
        <ele>285.6</ele>
        <time>2013-05-01T04:39:10.000Z</time>
      </trkpt>
      <trkpt lat="45.76271" lon="4.81288">
        <ele>285.7</ele>
        <time>2013-05-01T04:39:11.000Z</time>
      </trkpt>
      <trkpt lat="45.76273" lon="4.81291">
        <ele>285.9</ele>
        <time>2013-05-01T04:39:12.000Z</time>
      </trkpt>
      <trkpt lat="45.76274" lon="4.81293">
        <ele>286</ele>
        <time>2013-05-01T04:39:13.000Z</time>
      </trkpt>
      <trkpt lat="45.76276" lon="4.81294">
        <ele>286.1</ele>
        <time>2013-05-01T04:39:14.000Z</time>
      </trkpt>
      <trkpt lat="45.76277" lon="4.81296">
        <ele>286</ele>
        <time>2013-05-01T04:39:15.000Z</time>
      </trkpt>
      <trkpt lat="45.76279" lon="4.81297">
        <ele>286</ele>
        <time>2013-05-01T04:39:16.000Z</time>
      </trkpt>
      <trkpt lat="45.76282" lon="4.81297">
        <ele>285.8</ele>
        <time>2013-05-01T04:39:17.000Z</time>
      </trkpt>
      <trkpt lat="45.76284" lon="4.81297">
        <ele>285.7</ele>
        <time>2013-05-01T04:39:18.000Z</time>
      </trkpt>
      <trkpt lat="45.76287" lon="4.81298">
        <ele>285.6</ele>
        <time>2013-05-01T04:39:19.000Z</time>
      </trkpt>
      <trkpt lat="45.76289" lon="4.81298">
        <ele>285.5</ele>
        <time>2013-05-01T04:39:20.000Z</time>
      </trkpt>
      <trkpt lat="45.76291" lon="4.81299">
        <ele>285.5</ele>
        <time>2013-05-01T04:39:21.000Z</time>
      </trkpt>
      <trkpt lat="45.76293" lon="4.81299">
        <ele>285.3</ele>
        <time>2013-05-01T04:39:22.000Z</time>
      </trkpt>
      <trkpt lat="45.76296" lon="4.81301">
        <ele>285.3</ele>
        <time>2013-05-01T04:39:23.000Z</time>
      </trkpt>
      <trkpt lat="45.76298" lon="4.81303">
        <ele>285.3</ele>
        <time>2013-05-01T04:39:24.000Z</time>
      </trkpt>
      <trkpt lat="45.763" lon="4.81305">
        <ele>285.3</ele>
        <time>2013-05-01T04:39:25.000Z</time>
      </trkpt>
      <trkpt lat="45.76303" lon="4.81307">
        <ele>285.2</ele>
        <time>2013-05-01T04:39:26.000Z</time>
      </trkpt>
      <trkpt lat="45.76305" lon="4.81308">
        <ele>285.1</ele>
        <time>2013-05-01T04:39:27.000Z</time>
      </trkpt>
      <trkpt lat="45.76308" lon="4.81308">
        <ele>284.9</ele>
        <time>2013-05-01T04:39:28.000Z</time>
      </trkpt>
      <trkpt lat="45.76311" lon="4.81309">
        <ele>284.8</ele>
        <time>2013-05-01T04:39:29.000Z</time>
      </trkpt>
      <trkpt lat="45.76314" lon="4.8131">
        <ele>284.6</ele>
        <time>2013-05-01T04:39:30.000Z</time>
      </trkpt>
      <trkpt lat="45.76316" lon="4.81312">
        <ele>284.5</ele>
        <time>2013-05-01T04:39:31.000Z</time>
      </trkpt>
      <trkpt lat="45.76319" lon="4.81313">
        <ele>284.3</ele>
        <time>2013-05-01T04:39:32.000Z</time>
      </trkpt>
      <trkpt lat="45.76321" lon="4.81314">
        <ele>284.2</ele>
        <time>2013-05-01T04:39:33.000Z</time>
      </trkpt>
      <trkpt lat="45.76324" lon="4.81315">
        <ele>284</ele>
        <time>2013-05-01T04:39:34.000Z</time>
      </trkpt>
      <trkpt lat="45.76327" lon="4.81315">
        <ele>283.8</ele>
        <time>2013-05-01T04:39:35.000Z</time>
      </trkpt>
      <trkpt lat="45.76329" lon="4.81316">
        <ele>283.7</ele>
        <time>2013-05-01T04:39:36.000Z</time>
      </trkpt>
      <trkpt lat="45.76332" lon="4.81317">
        <ele>283.5</ele>
        <time>2013-05-01T04:39:37.000Z</time>
      </trkpt>
      <trkpt lat="45.76335" lon="4.81318">
        <ele>283.4</ele>
        <time>2013-05-01T04:39:38.000Z</time>
      </trkpt>
      <trkpt lat="45.76337" lon="4.81319">
        <ele>283.3</ele>
        <time>2013-05-01T04:39:39.000Z</time>
      </trkpt>
      <trkpt lat="45.7634" lon="4.8132">
        <ele>283.2</ele>
        <time>2013-05-01T04:39:40.000Z</time>
      </trkpt>
      <trkpt lat="45.76343" lon="4.81321">
        <ele>283</ele>
        <time>2013-05-01T04:39:41.000Z</time>
      </trkpt>
      <trkpt lat="45.76345" lon="4.81322">
        <ele>282.9</ele>
        <time>2013-05-01T04:39:42.000Z</time>
      </trkpt>
      <trkpt lat="45.76348" lon="4.81323">
        <ele>282.8</ele>
        <time>2013-05-01T04:39:43.000Z</time>
      </trkpt>
      <trkpt lat="45.7635" lon="4.81323">
        <ele>282.6</ele>
        <time>2013-05-01T04:39:44.000Z</time>
      </trkpt>
      <trkpt lat="45.76352" lon="4.81324">
        <ele>282.5</ele>
        <time>2013-05-01T04:39:45.000Z</time>
      </trkpt>
      <trkpt lat="45.76355" lon="4.81324">
        <ele>282.4</ele>
        <time>2013-05-01T04:39:46.000Z</time>
      </trkpt>
      <trkpt lat="45.76358" lon="4.81325">
        <ele>282.2</ele>
        <time>2013-05-01T04:39:47.000Z</time>
      </trkpt>
      <trkpt lat="45.7636" lon="4.81326">
        <ele>282.1</ele>
        <time>2013-05-01T04:39:48.000Z</time>
      </trkpt>
      <trkpt lat="45.76363" lon="4.81326">
        <ele>281.8</ele>
        <time>2013-05-01T04:39:49.000Z</time>
      </trkpt>
      <trkpt lat="45.76366" lon="4.81326">
        <ele>281.6</ele>
        <time>2013-05-01T04:39:50.000Z</time>
      </trkpt>
      <trkpt lat="45.76368" lon="4.81326">
        <ele>281.4</ele>
        <time>2013-05-01T04:39:51.000Z</time>
      </trkpt>
      <trkpt lat="45.76371" lon="4.81326">
        <ele>281.2</ele>
        <time>2013-05-01T04:39:52.000Z</time>
      </trkpt>
      <trkpt lat="45.76373" lon="4.81325">
        <ele>281</ele>
        <time>2013-05-01T04:39:53.000Z</time>
      </trkpt>
      <trkpt lat="45.76375" lon="4.81323">
        <ele>280.8</ele>
        <time>2013-05-01T04:39:54.000Z</time>
      </trkpt>
      <trkpt lat="45.76377" lon="4.81322">
        <ele>280.6</ele>
        <time>2013-05-01T04:39:55.000Z</time>
      </trkpt>
      <trkpt lat="45.76379" lon="4.8132">
        <ele>280.4</ele>
        <time>2013-05-01T04:39:56.000Z</time>
      </trkpt>
      <trkpt lat="45.76382" lon="4.81318">
        <ele>280.1</ele>
        <time>2013-05-01T04:39:57.000Z</time>
      </trkpt>
      <trkpt lat="45.76384" lon="4.81316">
        <ele>279.9</ele>
        <time>2013-05-01T04:39:58.000Z</time>
      </trkpt>
      <trkpt lat="45.76385" lon="4.81314">
        <ele>279.6</ele>
        <time>2013-05-01T04:39:59.000Z</time>
      </trkpt>
      <trkpt lat="45.76387" lon="4.81311">
        <ele>279.4</ele>
        <time>2013-05-01T04:40:00.000Z</time>
      </trkpt>
      <trkpt lat="45.76389" lon="4.81309">
        <ele>279.2</ele>
        <time>2013-05-01T04:40:01.000Z</time>
      </trkpt>
      <trkpt lat="45.76391" lon="4.81307">
        <ele>278.4</ele>
        <time>2013-05-01T04:40:02.000Z</time>
      </trkpt>
      <trkpt lat="45.76393" lon="4.81306">
        <ele>277.8</ele>
        <time>2013-05-01T04:40:03.000Z</time>
      </trkpt>
      <trkpt lat="45.76395" lon="4.81304">
        <ele>277.4</ele>
        <time>2013-05-01T04:40:04.000Z</time>
      </trkpt>
      <trkpt lat="45.76396" lon="4.81302">
        <ele>277</ele>
        <time>2013-05-01T04:40:05.000Z</time>
      </trkpt>
      <trkpt lat="45.76398" lon="4.813">
        <ele>276.7</ele>
        <time>2013-05-01T04:40:06.000Z</time>
      </trkpt>
      <trkpt lat="45.764" lon="4.81298">
        <ele>276.3</ele>
        <time>2013-05-01T04:40:07.000Z</time>
      </trkpt>
      <trkpt lat="45.76402" lon="4.81296">
        <ele>276</ele>
        <time>2013-05-01T04:40:08.000Z</time>
      </trkpt>
      <trkpt lat="45.76404" lon="4.81294">
        <ele>275.8</ele>
        <time>2013-05-01T04:40:09.000Z</time>
      </trkpt>
      <trkpt lat="45.76406" lon="4.81292">
        <ele>275.7</ele>
        <time>2013-05-01T04:40:10.000Z</time>
      </trkpt>
      <trkpt lat="45.76408" lon="4.81291">
        <ele>275.4</ele>
        <time>2013-05-01T04:40:11.000Z</time>
      </trkpt>
      <trkpt lat="45.7641" lon="4.8129">
        <ele>275.1</ele>
        <time>2013-05-01T04:40:12.000Z</time>
      </trkpt>
      <trkpt lat="45.76412" lon="4.81288">
        <ele>274.9</ele>
        <time>2013-05-01T04:40:13.000Z</time>
      </trkpt>
      <trkpt lat="45.76414" lon="4.81287">
        <ele>274.8</ele>
        <time>2013-05-01T04:40:14.000Z</time>
      </trkpt>
      <trkpt lat="45.76416" lon="4.81285">
        <ele>274.7</ele>
        <time>2013-05-01T04:40:15.000Z</time>
      </trkpt>
      <trkpt lat="45.76418" lon="4.81283">
        <ele>274.5</ele>
        <time>2013-05-01T04:40:16.000Z</time>
      </trkpt>
      <trkpt lat="45.7642" lon="4.81282">
        <ele>274.1</ele>
        <time>2013-05-01T04:40:17.000Z</time>
      </trkpt>
      <trkpt lat="45.76422" lon="4.8128">
        <ele>273.8</ele>
        <time>2013-05-01T04:40:18.000Z</time>
      </trkpt>
      <trkpt lat="45.76424" lon="4.81278">
        <ele>273.7</ele>
        <time>2013-05-01T04:40:19.000Z</time>
      </trkpt>
      <trkpt lat="45.76427" lon="4.81277">
        <ele>273.3</ele>
        <time>2013-05-01T04:40:20.000Z</time>
      </trkpt>
      <trkpt lat="45.76429" lon="4.81275">
        <ele>273</ele>
        <time>2013-05-01T04:40:21.000Z</time>
      </trkpt>
      <trkpt lat="45.7643" lon="4.81272">
        <ele>272.9</ele>
        <time>2013-05-01T04:40:22.000Z</time>
      </trkpt>
      <trkpt lat="45.76432" lon="4.8127">
        <ele>272.7</ele>
        <time>2013-05-01T04:40:23.000Z</time>
      </trkpt>
      <trkpt lat="45.76434" lon="4.81267">
        <ele>272.5</ele>
        <time>2013-05-01T04:40:24.000Z</time>
      </trkpt>
      <trkpt lat="45.76436" lon="4.81265">
        <ele>272.5</ele>
        <time>2013-05-01T04:40:25.000Z</time>
      </trkpt>
      <trkpt lat="45.76437" lon="4.81262">
        <ele>272.3</ele>
        <time>2013-05-01T04:40:26.000Z</time>
      </trkpt>
      <trkpt lat="45.76439" lon="4.8126">
        <ele>272.2</ele>
        <time>2013-05-01T04:40:27.000Z</time>
      </trkpt>
      <trkpt lat="45.76441" lon="4.81257">
        <ele>272</ele>
        <time>2013-05-01T04:40:28.000Z</time>
      </trkpt>
      <trkpt lat="45.76443" lon="4.81254">
        <ele>271.9</ele>
        <time>2013-05-01T04:40:29.000Z</time>
      </trkpt>
      <trkpt lat="45.76444" lon="4.81252">
        <ele>271.8</ele>
        <time>2013-05-01T04:40:30.000Z</time>
      </trkpt>
      <trkpt lat="45.76446" lon="4.8125">
        <ele>271.4</ele>
        <time>2013-05-01T04:40:31.000Z</time>
      </trkpt>
      <trkpt lat="45.76448" lon="4.81247">
        <ele>271.3</ele>
        <time>2013-05-01T04:40:32.000Z</time>
      </trkpt>
      <trkpt lat="45.7645" lon="4.81245">
        <ele>271.1</ele>
        <time>2013-05-01T04:40:33.000Z</time>
      </trkpt>
      <trkpt lat="45.76452" lon="4.81243">
        <ele>270.9</ele>
        <time>2013-05-01T04:40:34.000Z</time>
      </trkpt>
      <trkpt lat="45.76453" lon="4.8124">
        <ele>271</ele>
        <time>2013-05-01T04:40:35.000Z</time>
      </trkpt>
      <trkpt lat="45.76455" lon="4.81238">
        <ele>270.9</ele>
        <time>2013-05-01T04:40:36.000Z</time>
      </trkpt>
      <trkpt lat="45.76456" lon="4.81235">
        <ele>270.9</ele>
        <time>2013-05-01T04:40:37.000Z</time>
      </trkpt>
      <trkpt lat="45.76458" lon="4.81233">
        <ele>270.8</ele>
        <time>2013-05-01T04:40:38.000Z</time>
      </trkpt>
      <trkpt lat="45.7646" lon="4.8123">
        <ele>270.6</ele>
        <time>2013-05-01T04:40:39.000Z</time>
      </trkpt>
      <trkpt lat="45.76462" lon="4.81228">
        <ele>270.3</ele>
        <time>2013-05-01T04:40:40.000Z</time>
      </trkpt>
      <trkpt lat="45.76464" lon="4.81226">
        <ele>270</ele>
        <time>2013-05-01T04:40:41.000Z</time>
      </trkpt>
      <trkpt lat="45.76466" lon="4.81225">
        <ele>269.7</ele>
        <time>2013-05-01T04:40:42.000Z</time>
      </trkpt>
      <trkpt lat="45.7647" lon="4.81221">
        <ele>268.9</ele>
        <time>2013-05-01T04:40:43.000Z</time>
      </trkpt>
      <trkpt lat="45.7647" lon="4.81221">
        <ele>268.9</ele>
        <time>2013-05-01T04:40:44.000Z</time>
      </trkpt>
      <trkpt lat="45.76472" lon="4.81219">
        <ele>268.5</ele>
        <time>2013-05-01T04:40:45.000Z</time>
      </trkpt>
      <trkpt lat="45.76473" lon="4.81217">
        <ele>268.2</ele>
        <time>2013-05-01T04:40:46.000Z</time>
      </trkpt>
      <trkpt lat="45.76475" lon="4.81214">
        <ele>267.9</ele>
        <time>2013-05-01T04:40:47.000Z</time>
      </trkpt>
      <trkpt lat="45.76476" lon="4.81212">
        <ele>267.7</ele>
        <time>2013-05-01T04:40:48.000Z</time>
      </trkpt>
      <trkpt lat="45.76478" lon="4.81209">
        <ele>267.5</ele>
        <time>2013-05-01T04:40:49.000Z</time>
      </trkpt>
      <trkpt lat="45.76479" lon="4.81206">
        <ele>267.3</ele>
        <time>2013-05-01T04:40:50.000Z</time>
      </trkpt>
      <trkpt lat="45.7648" lon="4.81203">
        <ele>267.3</ele>
        <time>2013-05-01T04:40:51.000Z</time>
      </trkpt>
      <trkpt lat="45.76481" lon="4.812">
        <ele>267.3</ele>
        <time>2013-05-01T04:40:52.000Z</time>
      </trkpt>
      <trkpt lat="45.76482" lon="4.81196">
        <ele>267.4</ele>
        <time>2013-05-01T04:40:53.000Z</time>
      </trkpt>
      <trkpt lat="45.76483" lon="4.81192">
        <ele>267.4</ele>
        <time>2013-05-01T04:40:54.000Z</time>
      </trkpt>
      <trkpt lat="45.76484" lon="4.81189">
        <ele>267.1</ele>
        <time>2013-05-01T04:40:55.000Z</time>
      </trkpt>
      <trkpt lat="45.76485" lon="4.81186">
        <ele>266.9</ele>
        <time>2013-05-01T04:40:56.000Z</time>
      </trkpt>
      <trkpt lat="45.76486" lon="4.81182">
        <ele>266.6</ele>
        <time>2013-05-01T04:40:57.000Z</time>
      </trkpt>
      <trkpt lat="45.76486" lon="4.81178">
        <ele>266.5</ele>
        <time>2013-05-01T04:40:58.000Z</time>
      </trkpt>
      <trkpt lat="45.76487" lon="4.81175">
        <ele>266.2</ele>
        <time>2013-05-01T04:40:59.000Z</time>
      </trkpt>
      <trkpt lat="45.76489" lon="4.81172">
        <ele>265.9</ele>
        <time>2013-05-01T04:41:00.000Z</time>
      </trkpt>
      <trkpt lat="45.7649" lon="4.81168">
        <ele>265.6</ele>
        <time>2013-05-01T04:41:01.000Z</time>
      </trkpt>
      <trkpt lat="45.76491" lon="4.81165">
        <ele>265.4</ele>
        <time>2013-05-01T04:41:02.000Z</time>
      </trkpt>
      <trkpt lat="45.76491" lon="4.81161">
        <ele>265.3</ele>
        <time>2013-05-01T04:41:03.000Z</time>
      </trkpt>
      <trkpt lat="45.76492" lon="4.81158">
        <ele>265.2</ele>
        <time>2013-05-01T04:41:04.000Z</time>
      </trkpt>
      <trkpt lat="45.76493" lon="4.81155">
        <ele>265.1</ele>
        <time>2013-05-01T04:41:05.000Z</time>
      </trkpt>
      <trkpt lat="45.76494" lon="4.81151">
        <ele>264.9</ele>
        <time>2013-05-01T04:41:06.000Z</time>
      </trkpt>
      <trkpt lat="45.76495" lon="4.81148">
        <ele>264.8</ele>
        <time>2013-05-01T04:41:07.000Z</time>
      </trkpt>
      <trkpt lat="45.76496" lon="4.81145">
        <ele>264.7</ele>
        <time>2013-05-01T04:41:08.000Z</time>
      </trkpt>
      <trkpt lat="45.76497" lon="4.81142">
        <ele>264.7</ele>
        <time>2013-05-01T04:41:09.000Z</time>
      </trkpt>
      <trkpt lat="45.76497" lon="4.81138">
        <ele>264.6</ele>
        <time>2013-05-01T04:41:10.000Z</time>
      </trkpt>
      <trkpt lat="45.76498" lon="4.81135">
        <ele>264.6</ele>
        <time>2013-05-01T04:41:11.000Z</time>
      </trkpt>
      <trkpt lat="45.76498" lon="4.81131">
        <ele>264.4</ele>
        <time>2013-05-01T04:41:12.000Z</time>
      </trkpt>
      <trkpt lat="45.76499" lon="4.81128">
        <ele>264.2</ele>
        <time>2013-05-01T04:41:13.000Z</time>
      </trkpt>
      <trkpt lat="45.76499" lon="4.81124">
        <ele>264.2</ele>
        <time>2013-05-01T04:41:14.000Z</time>
      </trkpt>
      <trkpt lat="45.765" lon="4.8112">
        <ele>263.9</ele>
        <time>2013-05-01T04:41:15.000Z</time>
      </trkpt>
      <trkpt lat="45.76501" lon="4.81116">
        <ele>263.5</ele>
        <time>2013-05-01T04:41:16.000Z</time>
      </trkpt>
      <trkpt lat="45.76502" lon="4.81113">
        <ele>263.2</ele>
        <time>2013-05-01T04:41:17.000Z</time>
      </trkpt>
      <trkpt lat="45.76503" lon="4.8111">
        <ele>263</ele>
        <time>2013-05-01T04:41:18.000Z</time>
      </trkpt>
      <trkpt lat="45.76504" lon="4.81108">
        <ele>262.9</ele>
        <time>2013-05-01T04:41:19.000Z</time>
      </trkpt>
      <trkpt lat="45.76505" lon="4.81105">
        <ele>262.9</ele>
        <time>2013-05-01T04:41:20.000Z</time>
      </trkpt>
      <trkpt lat="45.76506" lon="4.81103">
        <ele>262.9</ele>
        <time>2013-05-01T04:41:21.000Z</time>
      </trkpt>
      <trkpt lat="45.76507" lon="4.811">
        <ele>262.9</ele>
        <time>2013-05-01T04:41:22.000Z</time>
      </trkpt>
      <trkpt lat="45.76508" lon="4.81097">
        <ele>262.9</ele>
        <time>2013-05-01T04:41:23.000Z</time>
      </trkpt>
      <trkpt lat="45.76509" lon="4.81094">
        <ele>262.8</ele>
        <time>2013-05-01T04:41:24.000Z</time>
      </trkpt>
      <trkpt lat="45.7651" lon="4.81092">
        <ele>262.8</ele>
        <time>2013-05-01T04:41:25.000Z</time>
      </trkpt>
      <trkpt lat="45.7651" lon="4.81089">
        <ele>263</ele>
        <time>2013-05-01T04:41:26.000Z</time>
      </trkpt>
      <trkpt lat="45.76511" lon="4.81086">
        <ele>263.2</ele>
        <time>2013-05-01T04:41:27.000Z</time>
      </trkpt>
      <trkpt lat="45.76511" lon="4.81083">
        <ele>263.5</ele>
        <time>2013-05-01T04:41:28.000Z</time>
      </trkpt>
      <trkpt lat="45.76512" lon="4.81079">
        <ele>263.9</ele>
        <time>2013-05-01T04:41:29.000Z</time>
      </trkpt>
      <trkpt lat="45.76512" lon="4.81075">
        <ele>264.5</ele>
        <time>2013-05-01T04:41:30.000Z</time>
      </trkpt>
      <trkpt lat="45.76513" lon="4.81072">
        <ele>264.9</ele>
        <time>2013-05-01T04:41:31.000Z</time>
      </trkpt>
      <trkpt lat="45.76514" lon="4.81069">
        <ele>265.1</ele>
        <time>2013-05-01T04:41:32.000Z</time>
      </trkpt>
      <trkpt lat="45.76515" lon="4.81066">
        <ele>265.3</ele>
        <time>2013-05-01T04:41:33.000Z</time>
      </trkpt>
      <trkpt lat="45.76517" lon="4.81064">
        <ele>265.3</ele>
        <time>2013-05-01T04:41:34.000Z</time>
      </trkpt>
      <trkpt lat="45.76518" lon="4.81061">
        <ele>265.4</ele>
        <time>2013-05-01T04:41:35.000Z</time>
      </trkpt>
      <trkpt lat="45.7652" lon="4.81059">
        <ele>265.5</ele>
        <time>2013-05-01T04:41:36.000Z</time>
      </trkpt>
      <trkpt lat="45.76521" lon="4.81057">
        <ele>265.5</ele>
        <time>2013-05-01T04:41:37.000Z</time>
      </trkpt>
      <trkpt lat="45.76523" lon="4.81054">
        <ele>265.7</ele>
        <time>2013-05-01T04:41:38.000Z</time>
      </trkpt>
      <trkpt lat="45.76525" lon="4.81053">
        <ele>265.9</ele>
        <time>2013-05-01T04:41:39.000Z</time>
      </trkpt>
      <trkpt lat="45.76527" lon="4.8105">
        <ele>266.1</ele>
        <time>2013-05-01T04:41:40.000Z</time>
      </trkpt>
      <trkpt lat="45.76529" lon="4.81049">
        <ele>266.3</ele>
        <time>2013-05-01T04:41:41.000Z</time>
      </trkpt>
      <trkpt lat="45.76531" lon="4.81047">
        <ele>266.1</ele>
        <time>2013-05-01T04:41:42.000Z</time>
      </trkpt>
      <trkpt lat="45.76533" lon="4.81045">
        <ele>265.9</ele>
        <time>2013-05-01T04:41:43.000Z</time>
      </trkpt>
      <trkpt lat="45.76535" lon="4.81044">
        <ele>265.5</ele>
        <time>2013-05-01T04:41:44.000Z</time>
      </trkpt>
      <trkpt lat="45.76537" lon="4.81044">
        <ele>264.9</ele>
        <time>2013-05-01T04:41:45.000Z</time>
      </trkpt>
      <trkpt lat="45.7654" lon="4.81043">
        <ele>264.4</ele>
        <time>2013-05-01T04:41:46.000Z</time>
      </trkpt>
      <trkpt lat="45.76543" lon="4.81042">
        <ele>263.7</ele>
        <time>2013-05-01T04:41:47.000Z</time>
      </trkpt>
      <trkpt lat="45.76545" lon="4.8104">
        <ele>263.5</ele>
        <time>2013-05-01T04:41:48.000Z</time>
      </trkpt>
      <trkpt lat="45.76547" lon="4.81038">
        <ele>263.4</ele>
        <time>2013-05-01T04:41:49.000Z</time>
      </trkpt>
      <trkpt lat="45.76549" lon="4.81036">
        <ele>263.4</ele>
        <time>2013-05-01T04:41:50.000Z</time>
      </trkpt>
      <trkpt lat="45.76551" lon="4.81034">
        <ele>263.5</ele>
        <time>2013-05-01T04:41:51.000Z</time>
      </trkpt>
      <trkpt lat="45.76553" lon="4.81032">
        <ele>263.6</ele>
        <time>2013-05-01T04:41:52.000Z</time>
      </trkpt>
      <trkpt lat="45.76555" lon="4.81029">
        <ele>263.6</ele>
        <time>2013-05-01T04:41:53.000Z</time>
      </trkpt>
      <trkpt lat="45.76557" lon="4.81027">
        <ele>263.5</ele>
        <time>2013-05-01T04:41:54.000Z</time>
      </trkpt>
      <trkpt lat="45.76559" lon="4.81025">
        <ele>263.5</ele>
        <time>2013-05-01T04:41:55.000Z</time>
      </trkpt>
      <trkpt lat="45.76561" lon="4.81023">
        <ele>263.6</ele>
        <time>2013-05-01T04:41:56.000Z</time>
      </trkpt>
      <trkpt lat="45.76563" lon="4.8102">
        <ele>263.8</ele>
        <time>2013-05-01T04:41:57.000Z</time>
      </trkpt>
      <trkpt lat="45.76564" lon="4.81017">
        <ele>263.9</ele>
        <time>2013-05-01T04:41:58.000Z</time>
      </trkpt>
      <trkpt lat="45.76566" lon="4.81014">
        <ele>264</ele>
        <time>2013-05-01T04:41:59.000Z</time>
      </trkpt>
      <trkpt lat="45.76568" lon="4.81012">
        <ele>263.9</ele>
        <time>2013-05-01T04:42:00.000Z</time>
      </trkpt>
      <trkpt lat="45.7657" lon="4.81009">
        <ele>263.8</ele>
        <time>2013-05-01T04:42:01.000Z</time>
      </trkpt>
      <trkpt lat="45.76571" lon="4.81006">
        <ele>263.6</ele>
        <time>2013-05-01T04:42:02.000Z</time>
      </trkpt>
      <trkpt lat="45.76573" lon="4.81003">
        <ele>263.2</ele>
        <time>2013-05-01T04:42:03.000Z</time>
      </trkpt>
      <trkpt lat="45.76575" lon="4.81002">
        <ele>262.4</ele>
        <time>2013-05-01T04:42:04.000Z</time>
      </trkpt>
      <trkpt lat="45.76576" lon="4.81">
        <ele>262.2</ele>
        <time>2013-05-01T04:42:05.000Z</time>
      </trkpt>
      <trkpt lat="45.76578" lon="4.80997">
        <ele>262.1</ele>
        <time>2013-05-01T04:42:06.000Z</time>
      </trkpt>
      <trkpt lat="45.7658" lon="4.80995">
        <ele>261.9</ele>
        <time>2013-05-01T04:42:07.000Z</time>
      </trkpt>
      <trkpt lat="45.76583" lon="4.80993">
        <ele>261</ele>
        <time>2013-05-01T04:42:08.000Z</time>
      </trkpt>
      <trkpt lat="45.76585" lon="4.80992">
        <ele>260.6</ele>
        <time>2013-05-01T04:42:09.000Z</time>
      </trkpt>
      <trkpt lat="45.76587" lon="4.80991">
        <ele>260.6</ele>
        <time>2013-05-01T04:42:10.000Z</time>
      </trkpt>
      <trkpt lat="45.7659" lon="4.80989">
        <ele>260.5</ele>
        <time>2013-05-01T04:42:11.000Z</time>
      </trkpt>
      <trkpt lat="45.76592" lon="4.80988">
        <ele>260</ele>
        <time>2013-05-01T04:42:12.000Z</time>
      </trkpt>
      <trkpt lat="45.76594" lon="4.80986">
        <ele>259.7</ele>
        <time>2013-05-01T04:42:13.000Z</time>
      </trkpt>
      <trkpt lat="45.76597" lon="4.80985">
        <ele>259.3</ele>
        <time>2013-05-01T04:42:14.000Z</time>
      </trkpt>
      <trkpt lat="45.76599" lon="4.80983">
        <ele>258.9</ele>
        <time>2013-05-01T04:42:15.000Z</time>
      </trkpt>
      <trkpt lat="45.76602" lon="4.80982">
        <ele>258.4</ele>
        <time>2013-05-01T04:42:16.000Z</time>
      </trkpt>
      <trkpt lat="45.76603" lon="4.8098">
        <ele>257.9</ele>
        <time>2013-05-01T04:42:17.000Z</time>
      </trkpt>
      <trkpt lat="45.76605" lon="4.80979">
        <ele>257.4</ele>
        <time>2013-05-01T04:42:18.000Z</time>
      </trkpt>
      <trkpt lat="45.76607" lon="4.80977">
        <ele>256.9</ele>
        <time>2013-05-01T04:42:19.000Z</time>
      </trkpt>
      <trkpt lat="45.7661" lon="4.80976">
        <ele>256.2</ele>
        <time>2013-05-01T04:42:20.000Z</time>
      </trkpt>
      <trkpt lat="45.76612" lon="4.80975">
        <ele>255.5</ele>
        <time>2013-05-01T04:42:21.000Z</time>
      </trkpt>
      <trkpt lat="45.76613" lon="4.80974">
        <ele>255.2</ele>
        <time>2013-05-01T04:42:22.000Z</time>
      </trkpt>
      <trkpt lat="45.76615" lon="4.80973">
        <ele>255.1</ele>
        <time>2013-05-01T04:42:23.000Z</time>
      </trkpt>
      <trkpt lat="45.76617" lon="4.80972">
        <ele>254.9</ele>
        <time>2013-05-01T04:42:24.000Z</time>
      </trkpt>
      <trkpt lat="45.7662" lon="4.80971">
        <ele>254.6</ele>
        <time>2013-05-01T04:42:25.000Z</time>
      </trkpt>
      <trkpt lat="45.76622" lon="4.80969">
        <ele>254.5</ele>
        <time>2013-05-01T04:42:26.000Z</time>
      </trkpt>
      <trkpt lat="45.76625" lon="4.80968">
        <ele>254.3</ele>
        <time>2013-05-01T04:42:27.000Z</time>
      </trkpt>
      <trkpt lat="45.76627" lon="4.80967">
        <ele>254</ele>
        <time>2013-05-01T04:42:28.000Z</time>
      </trkpt>
      <trkpt lat="45.76629" lon="4.80965">
        <ele>253.9</ele>
        <time>2013-05-01T04:42:29.000Z</time>
      </trkpt>
      <trkpt lat="45.76632" lon="4.80963">
        <ele>253.5</ele>
        <time>2013-05-01T04:42:30.000Z</time>
      </trkpt>
      <trkpt lat="45.76635" lon="4.80961">
        <ele>253.1</ele>
        <time>2013-05-01T04:42:31.000Z</time>
      </trkpt>
      <trkpt lat="45.76637" lon="4.8096">
        <ele>252.8</ele>
        <time>2013-05-01T04:42:32.000Z</time>
      </trkpt>
      <trkpt lat="45.7664" lon="4.80958">
        <ele>252.4</ele>
        <time>2013-05-01T04:42:33.000Z</time>
      </trkpt>
      <trkpt lat="45.76643" lon="4.80957">
        <ele>252</ele>
        <time>2013-05-01T04:42:34.000Z</time>
      </trkpt>
      <trkpt lat="45.76646" lon="4.80956">
        <ele>251.7</ele>
        <time>2013-05-01T04:42:35.000Z</time>
      </trkpt>
      <trkpt lat="45.76649" lon="4.80955">
        <ele>251.3</ele>
        <time>2013-05-01T04:42:36.000Z</time>
      </trkpt>
      <trkpt lat="45.76651" lon="4.80954">
        <ele>251</ele>
        <time>2013-05-01T04:42:37.000Z</time>
      </trkpt>
      <trkpt lat="45.76654" lon="4.80954">
        <ele>250.5</ele>
        <time>2013-05-01T04:42:38.000Z</time>
      </trkpt>
      <trkpt lat="45.76656" lon="4.80953">
        <ele>250</ele>
        <time>2013-05-01T04:42:39.000Z</time>
      </trkpt>
      <trkpt lat="45.76659" lon="4.80952">
        <ele>249.6</ele>
        <time>2013-05-01T04:42:40.000Z</time>
      </trkpt>
      <trkpt lat="45.76662" lon="4.80951">
        <ele>249.2</ele>
        <time>2013-05-01T04:42:41.000Z</time>
      </trkpt>
      <trkpt lat="45.76665" lon="4.8095">
        <ele>248.8</ele>
        <time>2013-05-01T04:42:42.000Z</time>
      </trkpt>
      <trkpt lat="45.76667" lon="4.80948">
        <ele>248.5</ele>
        <time>2013-05-01T04:42:43.000Z</time>
      </trkpt>
      <trkpt lat="45.76669" lon="4.80947">
        <ele>248.5</ele>
        <time>2013-05-01T04:42:44.000Z</time>
      </trkpt>
      <trkpt lat="45.76671" lon="4.80946">
        <ele>248.5</ele>
        <time>2013-05-01T04:42:45.000Z</time>
      </trkpt>
      <trkpt lat="45.76673" lon="4.80946">
        <ele>248.4</ele>
        <time>2013-05-01T04:42:46.000Z</time>
      </trkpt>
      <trkpt lat="45.76676" lon="4.80945">
        <ele>248.2</ele>
        <time>2013-05-01T04:42:47.000Z</time>
      </trkpt>
      <trkpt lat="45.76678" lon="4.80945">
        <ele>248.1</ele>
        <time>2013-05-01T04:42:48.000Z</time>
      </trkpt>
      <trkpt lat="45.7668" lon="4.80944">
        <ele>248.2</ele>
        <time>2013-05-01T04:42:49.000Z</time>
      </trkpt>
      <trkpt lat="45.76683" lon="4.80943">
        <ele>248.2</ele>
        <time>2013-05-01T04:42:50.000Z</time>
      </trkpt>
      <trkpt lat="45.76685" lon="4.80942">
        <ele>248.4</ele>
        <time>2013-05-01T04:42:51.000Z</time>
      </trkpt>
      <trkpt lat="45.76688" lon="4.80941">
        <ele>248.5</ele>
        <time>2013-05-01T04:42:52.000Z</time>
      </trkpt>
      <trkpt lat="45.76691" lon="4.8094">
        <ele>248.5</ele>
        <time>2013-05-01T04:42:53.000Z</time>
      </trkpt>
      <trkpt lat="45.76694" lon="4.80939">
        <ele>248.4</ele>
        <time>2013-05-01T04:42:54.000Z</time>
      </trkpt>
      <trkpt lat="45.76696" lon="4.80939">
        <ele>248.3</ele>
        <time>2013-05-01T04:42:55.000Z</time>
      </trkpt>
      <trkpt lat="45.76699" lon="4.80939">
        <ele>248.1</ele>
        <time>2013-05-01T04:42:56.000Z</time>
      </trkpt>
      <trkpt lat="45.76701" lon="4.80939">
        <ele>247.9</ele>
        <time>2013-05-01T04:42:57.000Z</time>
      </trkpt>
      <trkpt lat="45.76704" lon="4.80939">
        <ele>247.7</ele>
        <time>2013-05-01T04:42:58.000Z</time>
      </trkpt>
      <trkpt lat="45.76706" lon="4.80939">
        <ele>247.7</ele>
        <time>2013-05-01T04:42:59.000Z</time>
      </trkpt>
      <trkpt lat="45.76708" lon="4.80939">
        <ele>247.5</ele>
        <time>2013-05-01T04:43:00.000Z</time>
      </trkpt>
      <trkpt lat="45.76711" lon="4.80939">
        <ele>247.5</ele>
        <time>2013-05-01T04:43:01.000Z</time>
      </trkpt>
      <trkpt lat="45.76713" lon="4.80939">
        <ele>247.3</ele>
        <time>2013-05-01T04:43:02.000Z</time>
      </trkpt>
      <trkpt lat="45.76715" lon="4.80939">
        <ele>247.2</ele>
        <time>2013-05-01T04:43:03.000Z</time>
      </trkpt>
      <trkpt lat="45.76718" lon="4.80938">
        <ele>247.1</ele>
        <time>2013-05-01T04:43:04.000Z</time>
      </trkpt>
      <trkpt lat="45.76721" lon="4.80938">
        <ele>246.9</ele>
        <time>2013-05-01T04:43:05.000Z</time>
      </trkpt>
      <trkpt lat="45.76724" lon="4.80938">
        <ele>246.6</ele>
        <time>2013-05-01T04:43:06.000Z</time>
      </trkpt>
      <trkpt lat="45.76726" lon="4.80939">
        <ele>246.2</ele>
        <time>2013-05-01T04:43:07.000Z</time>
      </trkpt>
      <trkpt lat="45.76729" lon="4.80939">
        <ele>245.9</ele>
        <time>2013-05-01T04:43:08.000Z</time>
      </trkpt>
      <trkpt lat="45.76732" lon="4.80939">
        <ele>245.7</ele>
        <time>2013-05-01T04:43:09.000Z</time>
      </trkpt>
      <trkpt lat="45.76734" lon="4.80939">
        <ele>245.4</ele>
        <time>2013-05-01T04:43:10.000Z</time>
      </trkpt>
      <trkpt lat="45.76737" lon="4.80939">
        <ele>245</ele>
        <time>2013-05-01T04:43:11.000Z</time>
      </trkpt>
      <trkpt lat="45.7674" lon="4.8094">
        <ele>244.7</ele>
        <time>2013-05-01T04:43:12.000Z</time>
      </trkpt>
      <trkpt lat="45.76743" lon="4.8094">
        <ele>244.3</ele>
        <time>2013-05-01T04:43:13.000Z</time>
      </trkpt>
      <trkpt lat="45.76745" lon="4.80941">
        <ele>244</ele>
        <time>2013-05-01T04:43:14.000Z</time>
      </trkpt>
      <trkpt lat="45.76748" lon="4.80941">
        <ele>243.7</ele>
        <time>2013-05-01T04:43:15.000Z</time>
      </trkpt>
      <trkpt lat="45.7675" lon="4.80942">
        <ele>243.4</ele>
        <time>2013-05-01T04:43:16.000Z</time>
      </trkpt>
      <trkpt lat="45.76752" lon="4.80943">
        <ele>243</ele>
        <time>2013-05-01T04:43:17.000Z</time>
      </trkpt>
      <trkpt lat="45.76754" lon="4.80944">
        <ele>242.6</ele>
        <time>2013-05-01T04:43:18.000Z</time>
      </trkpt>
      <trkpt lat="45.76757" lon="4.80945">
        <ele>242.3</ele>
        <time>2013-05-01T04:43:19.000Z</time>
      </trkpt>
      <trkpt lat="45.76759" lon="4.80946">
        <ele>241.9</ele>
        <time>2013-05-01T04:43:20.000Z</time>
      </trkpt>
      <trkpt lat="45.76761" lon="4.80948">
        <ele>241.6</ele>
        <time>2013-05-01T04:43:21.000Z</time>
      </trkpt>
      <trkpt lat="45.76763" lon="4.80949">
        <ele>241.3</ele>
        <time>2013-05-01T04:43:22.000Z</time>
      </trkpt>
      <trkpt lat="45.76766" lon="4.80951">
        <ele>241</ele>
        <time>2013-05-01T04:43:23.000Z</time>
      </trkpt>
      <trkpt lat="45.76768" lon="4.80952">
        <ele>240.8</ele>
        <time>2013-05-01T04:43:24.000Z</time>
      </trkpt>
      <trkpt lat="45.7677" lon="4.80952">
        <ele>240.6</ele>
        <time>2013-05-01T04:43:25.000Z</time>
      </trkpt>
      <trkpt lat="45.76773" lon="4.80953">
        <ele>240.4</ele>
        <time>2013-05-01T04:43:26.000Z</time>
      </trkpt>
      <trkpt lat="45.76775" lon="4.80954">
        <ele>240.2</ele>
        <time>2013-05-01T04:43:27.000Z</time>
      </trkpt>
      <trkpt lat="45.76777" lon="4.80955">
        <ele>240.1</ele>
        <time>2013-05-01T04:43:28.000Z</time>
      </trkpt>
      <trkpt lat="45.76779" lon="4.80956">
        <ele>239.9</ele>
        <time>2013-05-01T04:43:29.000Z</time>
      </trkpt>
      <trkpt lat="45.76782" lon="4.80956">
        <ele>239.7</ele>
        <time>2013-05-01T04:43:30.000Z</time>
      </trkpt>
      <trkpt lat="45.76785" lon="4.80956">
        <ele>239.5</ele>
        <time>2013-05-01T04:43:31.000Z</time>
      </trkpt>
      <trkpt lat="45.76787" lon="4.80956">
        <ele>239.3</ele>
        <time>2013-05-01T04:43:32.000Z</time>
      </trkpt>
      <trkpt lat="45.7679" lon="4.80956">
        <ele>239.1</ele>
        <time>2013-05-01T04:43:33.000Z</time>
      </trkpt>
      <trkpt lat="45.76792" lon="4.80956">
        <ele>239</ele>
        <time>2013-05-01T04:43:34.000Z</time>
      </trkpt>
      <trkpt lat="45.76795" lon="4.80956">
        <ele>238.8</ele>
        <time>2013-05-01T04:43:35.000Z</time>
      </trkpt>
      <trkpt lat="45.76797" lon="4.80956">
        <ele>238.6</ele>
        <time>2013-05-01T04:43:36.000Z</time>
      </trkpt>
      <trkpt lat="45.768" lon="4.80956">
        <ele>238.4</ele>
        <time>2013-05-01T04:43:37.000Z</time>
      </trkpt>
      <trkpt lat="45.76802" lon="4.80956">
        <ele>238.3</ele>
        <time>2013-05-01T04:43:38.000Z</time>
      </trkpt>
      <trkpt lat="45.76805" lon="4.80957">
        <ele>238.1</ele>
        <time>2013-05-01T04:43:39.000Z</time>
      </trkpt>
      <trkpt lat="45.76807" lon="4.80957">
        <ele>237.9</ele>
        <time>2013-05-01T04:43:40.000Z</time>
      </trkpt>
      <trkpt lat="45.76809" lon="4.80957">
        <ele>237.7</ele>
        <time>2013-05-01T04:43:41.000Z</time>
      </trkpt>
      <trkpt lat="45.76811" lon="4.80957">
        <ele>237.6</ele>
        <time>2013-05-01T04:43:42.000Z</time>
      </trkpt>
      <trkpt lat="45.76813" lon="4.80958">
        <ele>237.4</ele>
        <time>2013-05-01T04:43:43.000Z</time>
      </trkpt>
      <trkpt lat="45.76816" lon="4.80958">
        <ele>237.3</ele>
        <time>2013-05-01T04:43:44.000Z</time>
      </trkpt>
      <trkpt lat="45.76819" lon="4.80959">
        <ele>237.1</ele>
        <time>2013-05-01T04:43:45.000Z</time>
      </trkpt>
      <trkpt lat="45.76821" lon="4.8096">
        <ele>236.9</ele>
        <time>2013-05-01T04:43:46.000Z</time>
      </trkpt>
      <trkpt lat="45.76823" lon="4.80961">
        <ele>236.7</ele>
        <time>2013-05-01T04:43:47.000Z</time>
      </trkpt>
      <trkpt lat="45.76826" lon="4.80962">
        <ele>236.5</ele>
        <time>2013-05-01T04:43:48.000Z</time>
      </trkpt>
      <trkpt lat="45.76828" lon="4.80962">
        <ele>236.4</ele>
        <time>2013-05-01T04:43:49.000Z</time>
      </trkpt>
      <trkpt lat="45.7683" lon="4.80964">
        <ele>236.2</ele>
        <time>2013-05-01T04:43:50.000Z</time>
      </trkpt>
      <trkpt lat="45.76832" lon="4.80965">
        <ele>236.1</ele>
        <time>2013-05-01T04:43:51.000Z</time>
      </trkpt>
      <trkpt lat="45.76834" lon="4.80965">
        <ele>236</ele>
        <time>2013-05-01T04:43:52.000Z</time>
      </trkpt>
      <trkpt lat="45.76836" lon="4.80966">
        <ele>235.8</ele>
        <time>2013-05-01T04:43:53.000Z</time>
      </trkpt>
      <trkpt lat="45.76838" lon="4.80966">
        <ele>235.6</ele>
        <time>2013-05-01T04:43:54.000Z</time>
      </trkpt>
      <trkpt lat="45.76841" lon="4.80966">
        <ele>235.5</ele>
        <time>2013-05-01T04:43:55.000Z</time>
      </trkpt>
      <trkpt lat="45.76843" lon="4.80965">
        <ele>235.3</ele>
        <time>2013-05-01T04:43:56.000Z</time>
      </trkpt>
      <trkpt lat="45.76845" lon="4.80965">
        <ele>235.1</ele>
        <time>2013-05-01T04:43:57.000Z</time>
      </trkpt>
      <trkpt lat="45.76848" lon="4.80964">
        <ele>235</ele>
        <time>2013-05-01T04:43:58.000Z</time>
      </trkpt>
      <trkpt lat="45.7685" lon="4.80964">
        <ele>234.8</ele>
        <time>2013-05-01T04:43:59.000Z</time>
      </trkpt>
      <trkpt lat="45.76853" lon="4.80964">
        <ele>234.6</ele>
        <time>2013-05-01T04:44:00.000Z</time>
      </trkpt>
      <trkpt lat="45.76855" lon="4.80964">
        <ele>234.4</ele>
        <time>2013-05-01T04:44:01.000Z</time>
      </trkpt>
      <trkpt lat="45.76858" lon="4.80963">
        <ele>234.2</ele>
        <time>2013-05-01T04:44:02.000Z</time>
      </trkpt>
      <trkpt lat="45.7686" lon="4.80963">
        <ele>234.1</ele>
        <time>2013-05-01T04:44:03.000Z</time>
      </trkpt>
      <trkpt lat="45.76863" lon="4.80963">
        <ele>233.8</ele>
        <time>2013-05-01T04:44:04.000Z</time>
      </trkpt>
      <trkpt lat="45.76866" lon="4.80963">
        <ele>233.6</ele>
        <time>2013-05-01T04:44:05.000Z</time>
      </trkpt>
      <trkpt lat="45.76869" lon="4.80963">
        <ele>233.5</ele>
        <time>2013-05-01T04:44:06.000Z</time>
      </trkpt>
      <trkpt lat="45.76871" lon="4.80963">
        <ele>233.3</ele>
        <time>2013-05-01T04:44:07.000Z</time>
      </trkpt>
      <trkpt lat="45.76874" lon="4.80963">
        <ele>233.1</ele>
        <time>2013-05-01T04:44:08.000Z</time>
      </trkpt>
      <trkpt lat="45.76876" lon="4.80963">
        <ele>232.9</ele>
        <time>2013-05-01T04:44:09.000Z</time>
      </trkpt>
      <trkpt lat="45.76878" lon="4.80964">
        <ele>232.8</ele>
        <time>2013-05-01T04:44:10.000Z</time>
      </trkpt>
      <trkpt lat="45.7688" lon="4.80963">
        <ele>232.6</ele>
        <time>2013-05-01T04:44:11.000Z</time>
      </trkpt>
      <trkpt lat="45.76882" lon="4.80964">
        <ele>232.5</ele>
        <time>2013-05-01T04:44:12.000Z</time>
      </trkpt>
      <trkpt lat="45.76884" lon="4.80964">
        <ele>232.3</ele>
        <time>2013-05-01T04:44:13.000Z</time>
      </trkpt>
      <trkpt lat="45.76887" lon="4.80964">
        <ele>232.2</ele>
        <time>2013-05-01T04:44:14.000Z</time>
      </trkpt>
      <trkpt lat="45.76889" lon="4.80963">
        <ele>232</ele>
        <time>2013-05-01T04:44:15.000Z</time>
      </trkpt>
      <trkpt lat="45.76892" lon="4.80963">
        <ele>231.8</ele>
        <time>2013-05-01T04:44:16.000Z</time>
      </trkpt>
      <trkpt lat="45.76895" lon="4.80963">
        <ele>231.6</ele>
        <time>2013-05-01T04:44:17.000Z</time>
      </trkpt>
      <trkpt lat="45.76897" lon="4.80964">
        <ele>231.4</ele>
        <time>2013-05-01T04:44:18.000Z</time>
      </trkpt>
      <trkpt lat="45.76899" lon="4.80966">
        <ele>231.3</ele>
        <time>2013-05-01T04:44:19.000Z</time>
      </trkpt>
      <trkpt lat="45.76901" lon="4.80969">
        <ele>231.1</ele>
        <time>2013-05-01T04:44:20.000Z</time>
      </trkpt>
      <trkpt lat="45.76903" lon="4.80971">
        <ele>231</ele>
        <time>2013-05-01T04:44:21.000Z</time>
      </trkpt>
      <trkpt lat="45.76904" lon="4.80973">
        <ele>230.9</ele>
        <time>2013-05-01T04:44:22.000Z</time>
      </trkpt>
      <trkpt lat="45.76906" lon="4.80976">
        <ele>230.7</ele>
        <time>2013-05-01T04:44:23.000Z</time>
      </trkpt>
      <trkpt lat="45.76907" lon="4.8098">
        <ele>230.5</ele>
        <time>2013-05-01T04:44:24.000Z</time>
      </trkpt>
      <trkpt lat="45.76909" lon="4.80983">
        <ele>230.3</ele>
        <time>2013-05-01T04:44:25.000Z</time>
      </trkpt>
      <trkpt lat="45.7691" lon="4.80987">
        <ele>230.1</ele>
        <time>2013-05-01T04:44:26.000Z</time>
      </trkpt>
      <trkpt lat="45.76911" lon="4.8099">
        <ele>229.9</ele>
        <time>2013-05-01T04:44:27.000Z</time>
      </trkpt>
      <trkpt lat="45.76913" lon="4.80993">
        <ele>229.7</ele>
        <time>2013-05-01T04:44:28.000Z</time>
      </trkpt>
      <trkpt lat="45.76914" lon="4.80997">
        <ele>229.4</ele>
        <time>2013-05-01T04:44:29.000Z</time>
      </trkpt>
      <trkpt lat="45.76914" lon="4.81">
        <ele>229.3</ele>
        <time>2013-05-01T04:44:30.000Z</time>
      </trkpt>
      <trkpt lat="45.76915" lon="4.81004">
        <ele>229.1</ele>
        <time>2013-05-01T04:44:31.000Z</time>
      </trkpt>
      <trkpt lat="45.76915" lon="4.81008">
        <ele>228.9</ele>
        <time>2013-05-01T04:44:32.000Z</time>
      </trkpt>
      <trkpt lat="45.76914" lon="4.81011">
        <ele>228.8</ele>
        <time>2013-05-01T04:44:33.000Z</time>
      </trkpt>
      <trkpt lat="45.76913" lon="4.81014">
        <ele>228.7</ele>
        <time>2013-05-01T04:44:34.000Z</time>
      </trkpt>
      <trkpt lat="45.76913" lon="4.81018">
        <ele>228.5</ele>
        <time>2013-05-01T04:44:35.000Z</time>
      </trkpt>
      <trkpt lat="45.76912" lon="4.8102">
        <ele>228.4</ele>
        <time>2013-05-01T04:44:36.000Z</time>
      </trkpt>
      <trkpt lat="45.76913" lon="4.81022">
        <ele>228.3</ele>
        <time>2013-05-01T04:44:37.000Z</time>
      </trkpt>
      <trkpt lat="45.76913" lon="4.81023">
        <ele>228.2</ele>
        <time>2013-05-01T04:44:38.000Z</time>
      </trkpt>
      <trkpt lat="45.76913" lon="4.81023">
        <ele>228.2</ele>
        <time>2013-05-01T04:44:39.000Z</time>
      </trkpt>
      <trkpt lat="45.76913" lon="4.81024">
        <ele>228.2</ele>
        <time>2013-05-01T04:44:40.000Z</time>
      </trkpt>
      <trkpt lat="45.76913" lon="4.81024">
        <ele>228.2</ele>
        <time>2013-05-01T04:44:41.000Z</time>
      </trkpt>
      <trkpt lat="45.76912" lon="4.81025">
        <ele>228.2</ele>
        <time>2013-05-01T04:44:42.000Z</time>
      </trkpt>
      <trkpt lat="45.7691" lon="4.81026">
        <ele>228.1</ele>
        <time>2013-05-01T04:44:43.000Z</time>
      </trkpt>
      <trkpt lat="45.76908" lon="4.81027">
        <ele>228</ele>
        <time>2013-05-01T04:44:44.000Z</time>
      </trkpt>
      <trkpt lat="45.76905" lon="4.81028">
        <ele>228</ele>
        <time>2013-05-01T04:44:45.000Z</time>
      </trkpt>
      <trkpt lat="45.76902" lon="4.81028">
        <ele>228</ele>
        <time>2013-05-01T04:44:46.000Z</time>
      </trkpt>
      <trkpt lat="45.769" lon="4.81028">
        <ele>227.9</ele>
        <time>2013-05-01T04:44:47.000Z</time>
      </trkpt>
      <trkpt lat="45.76897" lon="4.81028">
        <ele>228</ele>
        <time>2013-05-01T04:44:48.000Z</time>
      </trkpt>
      <trkpt lat="45.76894" lon="4.81027">
        <ele>228.1</ele>
        <time>2013-05-01T04:44:49.000Z</time>
      </trkpt>
      <trkpt lat="45.76892" lon="4.81027">
        <ele>228.1</ele>
        <time>2013-05-01T04:44:50.000Z</time>
      </trkpt>
      <trkpt lat="45.76889" lon="4.81026">
        <ele>228.3</ele>
        <time>2013-05-01T04:44:51.000Z</time>
      </trkpt>
      <trkpt lat="45.76887" lon="4.81025">
        <ele>228.1</ele>
        <time>2013-05-01T04:44:52.000Z</time>
      </trkpt>
      <trkpt lat="45.76884" lon="4.81024">
        <ele>227.8</ele>
        <time>2013-05-01T04:44:53.000Z</time>
      </trkpt>
      <trkpt lat="45.76882" lon="4.81023">
        <ele>227.6</ele>
        <time>2013-05-01T04:44:54.000Z</time>
      </trkpt>
      <trkpt lat="45.7688" lon="4.81022">
        <ele>227.4</ele>
        <time>2013-05-01T04:44:55.000Z</time>
      </trkpt>
      <trkpt lat="45.76878" lon="4.81022">
        <ele>227.2</ele>
        <time>2013-05-01T04:44:56.000Z</time>
      </trkpt>
      <trkpt lat="45.76876" lon="4.81021">
        <ele>227</ele>
        <time>2013-05-01T04:44:57.000Z</time>
      </trkpt>
      <trkpt lat="45.76874" lon="4.81021">
        <ele>226.9</ele>
        <time>2013-05-01T04:44:58.000Z</time>
      </trkpt>
      <trkpt lat="45.76872" lon="4.81019">
        <ele>226.9</ele>
        <time>2013-05-01T04:44:59.000Z</time>
      </trkpt>
      <trkpt lat="45.76869" lon="4.81018">
        <ele>226.8</ele>
        <time>2013-05-01T04:45:00.000Z</time>
      </trkpt>
      <trkpt lat="45.76867" lon="4.81017">
        <ele>226.9</ele>
        <time>2013-05-01T04:45:01.000Z</time>
      </trkpt>
      <trkpt lat="45.76865" lon="4.81016">
        <ele>226.9</ele>
        <time>2013-05-01T04:45:02.000Z</time>
      </trkpt>
      <trkpt lat="45.76863" lon="4.81016">
        <ele>226.7</ele>
        <time>2013-05-01T04:45:03.000Z</time>
      </trkpt>
      <trkpt lat="45.7686" lon="4.81015">
        <ele>226.6</ele>
        <time>2013-05-01T04:45:04.000Z</time>
      </trkpt>
      <trkpt lat="45.76858" lon="4.81014">
        <ele>226.9</ele>
        <time>2013-05-01T04:45:05.000Z</time>
      </trkpt>
      <trkpt lat="45.76855" lon="4.81014">
        <ele>227</ele>
        <time>2013-05-01T04:45:06.000Z</time>
      </trkpt>
      <trkpt lat="45.76853" lon="4.81014">
        <ele>226.9</ele>
        <time>2013-05-01T04:45:07.000Z</time>
      </trkpt>
      <trkpt lat="45.7685" lon="4.81013">
        <ele>227</ele>
        <time>2013-05-01T04:45:08.000Z</time>
      </trkpt>
      <trkpt lat="45.76848" lon="4.81013">
        <ele>227.1</ele>
        <time>2013-05-01T04:45:09.000Z</time>
      </trkpt>
      <trkpt lat="45.76845" lon="4.81013">
        <ele>227.1</ele>
        <time>2013-05-01T04:45:10.000Z</time>
      </trkpt>
      <trkpt lat="45.76843" lon="4.81013">
        <ele>226.9</ele>
        <time>2013-05-01T04:45:11.000Z</time>
      </trkpt>
      <trkpt lat="45.7684" lon="4.81014">
        <ele>226.6</ele>
        <time>2013-05-01T04:45:12.000Z</time>
      </trkpt>
      <trkpt lat="45.76838" lon="4.81016">
        <ele>226</ele>
        <time>2013-05-01T04:45:13.000Z</time>
      </trkpt>
      <trkpt lat="45.76835" lon="4.81017">
        <ele>225.3</ele>
        <time>2013-05-01T04:45:14.000Z</time>
      </trkpt>
      <trkpt lat="45.76833" lon="4.81018">
        <ele>224.8</ele>
        <time>2013-05-01T04:45:15.000Z</time>
      </trkpt>
      <trkpt lat="45.76831" lon="4.8102">
        <ele>224.2</ele>
        <time>2013-05-01T04:45:16.000Z</time>
      </trkpt>
      <trkpt lat="45.76829" lon="4.81022">
        <ele>223.7</ele>
        <time>2013-05-01T04:45:17.000Z</time>
      </trkpt>
      <trkpt lat="45.76826" lon="4.81023">
        <ele>223.5</ele>
        <time>2013-05-01T04:45:18.000Z</time>
      </trkpt>
      <trkpt lat="45.76824" lon="4.81023">
        <ele>223.6</ele>
        <time>2013-05-01T04:45:19.000Z</time>
      </trkpt>
      <trkpt lat="45.76821" lon="4.81025">
        <ele>223.2</ele>
        <time>2013-05-01T04:45:20.000Z</time>
      </trkpt>
      <trkpt lat="45.7682" lon="4.81026">
        <ele>222.6</ele>
        <time>2013-05-01T04:45:21.000Z</time>
      </trkpt>
      <trkpt lat="45.76817" lon="4.81028">
        <ele>222.1</ele>
        <time>2013-05-01T04:45:22.000Z</time>
      </trkpt>
      <trkpt lat="45.76814" lon="4.8103">
        <ele>221.8</ele>
        <time>2013-05-01T04:45:23.000Z</time>
      </trkpt>
      <trkpt lat="45.76812" lon="4.81031">
        <ele>221.7</ele>
        <time>2013-05-01T04:45:24.000Z</time>
      </trkpt>
      <trkpt lat="45.76809" lon="4.81032">
        <ele>221.6</ele>
        <time>2013-05-01T04:45:25.000Z</time>
      </trkpt>
      <trkpt lat="45.76807" lon="4.81034">
        <ele>221.3</ele>
        <time>2013-05-01T04:45:26.000Z</time>
      </trkpt>
      <trkpt lat="45.76804" lon="4.81035">
        <ele>221</ele>
        <time>2013-05-01T04:45:27.000Z</time>
      </trkpt>
      <trkpt lat="45.76802" lon="4.81037">
        <ele>220.7</ele>
        <time>2013-05-01T04:45:28.000Z</time>
      </trkpt>
      <trkpt lat="45.76799" lon="4.81039">
        <ele>220.5</ele>
        <time>2013-05-01T04:45:29.000Z</time>
      </trkpt>
      <trkpt lat="45.76797" lon="4.8104">
        <ele>220.3</ele>
        <time>2013-05-01T04:45:30.000Z</time>
      </trkpt>
      <trkpt lat="45.76794" lon="4.81043">
        <ele>219.7</ele>
        <time>2013-05-01T04:45:31.000Z</time>
      </trkpt>
      <trkpt lat="45.76792" lon="4.81045">
        <ele>219.4</ele>
        <time>2013-05-01T04:45:32.000Z</time>
      </trkpt>
      <trkpt lat="45.76789" lon="4.81046">
        <ele>219.1</ele>
        <time>2013-05-01T04:45:33.000Z</time>
      </trkpt>
      <trkpt lat="45.76787" lon="4.81047">
        <ele>218.9</ele>
        <time>2013-05-01T04:45:34.000Z</time>
      </trkpt>
      <trkpt lat="45.76785" lon="4.81049">
        <ele>218.7</ele>
        <time>2013-05-01T04:45:35.000Z</time>
      </trkpt>
      <trkpt lat="45.76782" lon="4.8105">
        <ele>218.5</ele>
        <time>2013-05-01T04:45:36.000Z</time>
      </trkpt>
      <trkpt lat="45.7678" lon="4.81051">
        <ele>218.2</ele>
        <time>2013-05-01T04:45:37.000Z</time>
      </trkpt>
      <trkpt lat="45.76777" lon="4.81053">
        <ele>217.8</ele>
        <time>2013-05-01T04:45:38.000Z</time>
      </trkpt>
      <trkpt lat="45.76775" lon="4.81055">
        <ele>217.3</ele>
        <time>2013-05-01T04:45:39.000Z</time>
      </trkpt>
      <trkpt lat="45.76773" lon="4.81056">
        <ele>216.9</ele>
        <time>2013-05-01T04:45:40.000Z</time>
      </trkpt>
      <trkpt lat="45.76771" lon="4.81058">
        <ele>216.4</ele>
        <time>2013-05-01T04:45:41.000Z</time>
      </trkpt>
      <trkpt lat="45.76768" lon="4.81059">
        <ele>216</ele>
        <time>2013-05-01T04:45:42.000Z</time>
      </trkpt>
      <trkpt lat="45.76766" lon="4.81061">
        <ele>215.6</ele>
        <time>2013-05-01T04:45:43.000Z</time>
      </trkpt>
      <trkpt lat="45.76764" lon="4.81063">
        <ele>215.2</ele>
        <time>2013-05-01T04:45:44.000Z</time>
      </trkpt>
      <trkpt lat="45.76761" lon="4.81064">
        <ele>215</ele>
        <time>2013-05-01T04:45:45.000Z</time>
      </trkpt>
      <trkpt lat="45.76759" lon="4.81065">
        <ele>214.8</ele>
        <time>2013-05-01T04:45:46.000Z</time>
      </trkpt>
      <trkpt lat="45.76757" lon="4.81066">
        <ele>214.5</ele>
        <time>2013-05-01T04:45:47.000Z</time>
      </trkpt>
      <trkpt lat="45.76754" lon="4.81067">
        <ele>214.4</ele>
        <time>2013-05-01T04:45:48.000Z</time>
      </trkpt>
      <trkpt lat="45.76752" lon="4.81069">
        <ele>214.1</ele>
        <time>2013-05-01T04:45:49.000Z</time>
      </trkpt>
      <trkpt lat="45.7675" lon="4.81071">
        <ele>213.7</ele>
        <time>2013-05-01T04:45:50.000Z</time>
      </trkpt>
      <trkpt lat="45.76748" lon="4.81073">
        <ele>213.5</ele>
        <time>2013-05-01T04:45:51.000Z</time>
      </trkpt>
      <trkpt lat="45.76745" lon="4.81074">
        <ele>213.5</ele>
        <time>2013-05-01T04:45:52.000Z</time>
      </trkpt>
      <trkpt lat="45.76743" lon="4.81077">
        <ele>213.2</ele>
        <time>2013-05-01T04:45:53.000Z</time>
      </trkpt>
      <trkpt lat="45.76741" lon="4.81079">
        <ele>212.9</ele>
        <time>2013-05-01T04:45:54.000Z</time>
      </trkpt>
      <trkpt lat="45.76739" lon="4.81082">
        <ele>212.6</ele>
        <time>2013-05-01T04:45:55.000Z</time>
      </trkpt>
      <trkpt lat="45.76737" lon="4.81084">
        <ele>212.4</ele>
        <time>2013-05-01T04:45:56.000Z</time>
      </trkpt>
      <trkpt lat="45.76735" lon="4.81086">
        <ele>212</ele>
        <time>2013-05-01T04:45:57.000Z</time>
      </trkpt>
      <trkpt lat="45.76733" lon="4.81088">
        <ele>211.7</ele>
        <time>2013-05-01T04:45:58.000Z</time>
      </trkpt>
      <trkpt lat="45.76731" lon="4.81089">
        <ele>211.5</ele>
        <time>2013-05-01T04:45:59.000Z</time>
      </trkpt>
      <trkpt lat="45.76729" lon="4.81092">
        <ele>211.2</ele>
        <time>2013-05-01T04:46:00.000Z</time>
      </trkpt>
      <trkpt lat="45.76727" lon="4.81094">
        <ele>211.1</ele>
        <time>2013-05-01T04:46:01.000Z</time>
      </trkpt>
      <trkpt lat="45.76724" lon="4.81095">
        <ele>211.1</ele>
        <time>2013-05-01T04:46:02.000Z</time>
      </trkpt>
      <trkpt lat="45.76722" lon="4.81098">
        <ele>211</ele>
        <time>2013-05-01T04:46:03.000Z</time>
      </trkpt>
      <trkpt lat="45.7672" lon="4.811">
        <ele>210.8</ele>
        <time>2013-05-01T04:46:04.000Z</time>
      </trkpt>
      <trkpt lat="45.76717" lon="4.81101">
        <ele>210.9</ele>
        <time>2013-05-01T04:46:05.000Z</time>
      </trkpt>
      <trkpt lat="45.76715" lon="4.81103">
        <ele>211</ele>
        <time>2013-05-01T04:46:06.000Z</time>
      </trkpt>
      <trkpt lat="45.76713" lon="4.81104">
        <ele>210.9</ele>
        <time>2013-05-01T04:46:07.000Z</time>
      </trkpt>
      <trkpt lat="45.76711" lon="4.81106">
        <ele>210.8</ele>
        <time>2013-05-01T04:46:08.000Z</time>
      </trkpt>
      <trkpt lat="45.76709" lon="4.81108">
        <ele>210.7</ele>
        <time>2013-05-01T04:46:09.000Z</time>
      </trkpt>
      <trkpt lat="45.76707" lon="4.8111">
        <ele>210.6</ele>
        <time>2013-05-01T04:46:10.000Z</time>
      </trkpt>
      <trkpt lat="45.76705" lon="4.81112">
        <ele>210.4</ele>
        <time>2013-05-01T04:46:11.000Z</time>
      </trkpt>
      <trkpt lat="45.76703" lon="4.81113">
        <ele>210.3</ele>
        <time>2013-05-01T04:46:12.000Z</time>
      </trkpt>
      <trkpt lat="45.76701" lon="4.81115">
        <ele>210.2</ele>
        <time>2013-05-01T04:46:13.000Z</time>
      </trkpt>
      <trkpt lat="45.76699" lon="4.81117">
        <ele>210.3</ele>
        <time>2013-05-01T04:46:14.000Z</time>
      </trkpt>
      <trkpt lat="45.76696" lon="4.81118">
        <ele>210.4</ele>
        <time>2013-05-01T04:46:15.000Z</time>
      </trkpt>
      <trkpt lat="45.76695" lon="4.8112">
        <ele>210.4</ele>
        <time>2013-05-01T04:46:16.000Z</time>
      </trkpt>
      <trkpt lat="45.76693" lon="4.81121">
        <ele>210.7</ele>
        <time>2013-05-01T04:46:17.000Z</time>
      </trkpt>
      <trkpt lat="45.76691" lon="4.81123">
        <ele>210.8</ele>
        <time>2013-05-01T04:46:18.000Z</time>
      </trkpt>
      <trkpt lat="45.76689" lon="4.81125">
        <ele>210.9</ele>
        <time>2013-05-01T04:46:19.000Z</time>
      </trkpt>
      <trkpt lat="45.76687" lon="4.81128">
        <ele>210.8</ele>
        <time>2013-05-01T04:46:20.000Z</time>
      </trkpt>
      <trkpt lat="45.76686" lon="4.8113">
        <ele>210.7</ele>
        <time>2013-05-01T04:46:21.000Z</time>
      </trkpt>
      <trkpt lat="45.76684" lon="4.81133">
        <ele>210.5</ele>
        <time>2013-05-01T04:46:22.000Z</time>
      </trkpt>
      <trkpt lat="45.76682" lon="4.81137">
        <ele>210</ele>
        <time>2013-05-01T04:46:23.000Z</time>
      </trkpt>
      <trkpt lat="45.76681" lon="4.81141">
        <ele>209.7</ele>
        <time>2013-05-01T04:46:24.000Z</time>
      </trkpt>
      <trkpt lat="45.76679" lon="4.81144">
        <ele>209.7</ele>
        <time>2013-05-01T04:46:25.000Z</time>
      </trkpt>
      <trkpt lat="45.76678" lon="4.81146">
        <ele>209.6</ele>
        <time>2013-05-01T04:46:26.000Z</time>
      </trkpt>
      <trkpt lat="45.76677" lon="4.81148">
        <ele>209.5</ele>
        <time>2013-05-01T04:46:27.000Z</time>
      </trkpt>
      <trkpt lat="45.76675" lon="4.81151">
        <ele>209.3</ele>
        <time>2013-05-01T04:46:28.000Z</time>
      </trkpt>
      <trkpt lat="45.76674" lon="4.81154">
        <ele>209</ele>
        <time>2013-05-01T04:46:29.000Z</time>
      </trkpt>
      <trkpt lat="45.76674" lon="4.81158">
        <ele>208.6</ele>
        <time>2013-05-01T04:46:30.000Z</time>
      </trkpt>
      <trkpt lat="45.76674" lon="4.81161">
        <ele>208.2</ele>
        <time>2013-05-01T04:46:31.000Z</time>
      </trkpt>
      <trkpt lat="45.76674" lon="4.81165">
        <ele>207.5</ele>
        <time>2013-05-01T04:46:32.000Z</time>
      </trkpt>
      <trkpt lat="45.76674" lon="4.8117">
        <ele>207.4</ele>
        <time>2013-05-01T04:46:33.000Z</time>
      </trkpt>
      <trkpt lat="45.76674" lon="4.81176">
        <ele>207.5</ele>
        <time>2013-05-01T04:46:34.000Z</time>
      </trkpt>
      <trkpt lat="45.76675" lon="4.8118">
        <ele>207.6</ele>
        <time>2013-05-01T04:46:35.000Z</time>
      </trkpt>
      <trkpt lat="45.76677" lon="4.81185">
        <ele>207.6</ele>
        <time>2013-05-01T04:46:36.000Z</time>
      </trkpt>
      <trkpt lat="45.76679" lon="4.81189">
        <ele>207.5</ele>
        <time>2013-05-01T04:46:37.000Z</time>
      </trkpt>
      <trkpt lat="45.76681" lon="4.81192">
        <ele>207.4</ele>
        <time>2013-05-01T04:46:38.000Z</time>
      </trkpt>
      <trkpt lat="45.76683" lon="4.81195">
        <ele>207.2</ele>
        <time>2013-05-01T04:46:39.000Z</time>
      </trkpt>
      <trkpt lat="45.76685" lon="4.81197">
        <ele>206.8</ele>
        <time>2013-05-01T04:46:40.000Z</time>
      </trkpt>
      <trkpt lat="45.76687" lon="4.812">
        <ele>206.3</ele>
        <time>2013-05-01T04:46:41.000Z</time>
      </trkpt>
      <trkpt lat="45.76689" lon="4.81203">
        <ele>205.7</ele>
        <time>2013-05-01T04:46:42.000Z</time>
      </trkpt>
      <trkpt lat="45.76691" lon="4.81205">
        <ele>205.1</ele>
        <time>2013-05-01T04:46:43.000Z</time>
      </trkpt>
      <trkpt lat="45.76694" lon="4.81205">
        <ele>204.6</ele>
        <time>2013-05-01T04:46:44.000Z</time>
      </trkpt>
      <trkpt lat="45.76696" lon="4.81206">
        <ele>203.7</ele>
        <time>2013-05-01T04:46:45.000Z</time>
      </trkpt>
      <trkpt lat="45.76698" lon="4.81206">
        <ele>202.6</ele>
        <time>2013-05-01T04:46:46.000Z</time>
      </trkpt>
      <trkpt lat="45.76701" lon="4.81206">
        <ele>201.5</ele>
        <time>2013-05-01T04:46:47.000Z</time>
      </trkpt>
      <trkpt lat="45.76703" lon="4.81205">
        <ele>200.7</ele>
        <time>2013-05-01T04:46:48.000Z</time>
      </trkpt>
      <trkpt lat="45.76705" lon="4.81204">
        <ele>199.8</ele>
        <time>2013-05-01T04:46:49.000Z</time>
      </trkpt>
      <trkpt lat="45.76707" lon="4.81203">
        <ele>199.4</ele>
        <time>2013-05-01T04:46:50.000Z</time>
      </trkpt>
      <trkpt lat="45.76708" lon="4.81201">
        <ele>199.3</ele>
        <time>2013-05-01T04:46:51.000Z</time>
      </trkpt>
      <trkpt lat="45.76708" lon="4.81199">
        <ele>199.6</ele>
        <time>2013-05-01T04:46:52.000Z</time>
      </trkpt>
      <trkpt lat="45.76708" lon="4.81196">
        <ele>200.3</ele>
        <time>2013-05-01T04:46:53.000Z</time>
      </trkpt>
      <trkpt lat="45.76708" lon="4.81192">
        <ele>200.6</ele>
        <time>2013-05-01T04:46:54.000Z</time>
      </trkpt>
      <trkpt lat="45.76708" lon="4.81188">
        <ele>200.6</ele>
        <time>2013-05-01T04:46:55.000Z</time>
      </trkpt>
      <trkpt lat="45.76707" lon="4.81184">
        <ele>200.9</ele>
        <time>2013-05-01T04:46:56.000Z</time>
      </trkpt>
      <trkpt lat="45.76707" lon="4.8118">
        <ele>201</ele>
        <time>2013-05-01T04:46:57.000Z</time>
      </trkpt>
      <trkpt lat="45.76707" lon="4.81177">
        <ele>201.1</ele>
        <time>2013-05-01T04:46:58.000Z</time>
      </trkpt>
      <trkpt lat="45.76707" lon="4.81173">
        <ele>200.9</ele>
        <time>2013-05-01T04:46:59.000Z</time>
      </trkpt>
      <trkpt lat="45.76707" lon="4.81169">
        <ele>200.8</ele>
        <time>2013-05-01T04:47:00.000Z</time>
      </trkpt>
      <trkpt lat="45.76707" lon="4.81166">
        <ele>201</ele>
        <time>2013-05-01T04:47:01.000Z</time>
      </trkpt>
      <trkpt lat="45.76707" lon="4.81163">
        <ele>201.2</ele>
        <time>2013-05-01T04:47:02.000Z</time>
      </trkpt>
      <trkpt lat="45.76708" lon="4.8116">
        <ele>201.3</ele>
        <time>2013-05-01T04:47:03.000Z</time>
      </trkpt>
      <trkpt lat="45.76709" lon="4.81157">
        <ele>201.2</ele>
        <time>2013-05-01T04:47:04.000Z</time>
      </trkpt>
      <trkpt lat="45.7671" lon="4.81154">
        <ele>201.1</ele>
        <time>2013-05-01T04:47:05.000Z</time>
      </trkpt>
      <trkpt lat="45.76711" lon="4.81152">
        <ele>201.1</ele>
        <time>2013-05-01T04:47:06.000Z</time>
      </trkpt>
      <trkpt lat="45.76713" lon="4.8115">
        <ele>200.8</ele>
        <time>2013-05-01T04:47:07.000Z</time>
      </trkpt>
      <trkpt lat="45.76714" lon="4.81148">
        <ele>200.5</ele>
        <time>2013-05-01T04:47:08.000Z</time>
      </trkpt>
      <trkpt lat="45.76716" lon="4.81146">
        <ele>200.1</ele>
        <time>2013-05-01T04:47:09.000Z</time>
      </trkpt>
      <trkpt lat="45.76718" lon="4.81145">
        <ele>199.7</ele>
        <time>2013-05-01T04:47:10.000Z</time>
      </trkpt>
      <trkpt lat="45.7672" lon="4.81143">
        <ele>199.2</ele>
        <time>2013-05-01T04:47:11.000Z</time>
      </trkpt>
      <trkpt lat="45.76722" lon="4.81141">
        <ele>198.7</ele>
        <time>2013-05-01T04:47:12.000Z</time>
      </trkpt>
      <trkpt lat="45.76724" lon="4.8114">
        <ele>198.4</ele>
        <time>2013-05-01T04:47:13.000Z</time>
      </trkpt>
      <trkpt lat="45.76726" lon="4.81139">
        <ele>198.2</ele>
        <time>2013-05-01T04:47:14.000Z</time>
      </trkpt>
      <trkpt lat="45.76729" lon="4.81138">
        <ele>198</ele>
        <time>2013-05-01T04:47:15.000Z</time>
      </trkpt>
      <trkpt lat="45.76732" lon="4.81137">
        <ele>197.6</ele>
        <time>2013-05-01T04:47:16.000Z</time>
      </trkpt>
      <trkpt lat="45.76735" lon="4.81137">
        <ele>197</ele>
        <time>2013-05-01T04:47:17.000Z</time>
      </trkpt>
      <trkpt lat="45.76738" lon="4.81136">
        <ele>196.5</ele>
        <time>2013-05-01T04:47:18.000Z</time>
      </trkpt>
      <trkpt lat="45.76741" lon="4.81136">
        <ele>196</ele>
        <time>2013-05-01T04:47:19.000Z</time>
      </trkpt>
      <trkpt lat="45.76743" lon="4.81136">
        <ele>195.4</ele>
        <time>2013-05-01T04:47:20.000Z</time>
      </trkpt>
      <trkpt lat="45.76745" lon="4.81135">
        <ele>195.1</ele>
        <time>2013-05-01T04:47:21.000Z</time>
      </trkpt>
      <trkpt lat="45.76748" lon="4.81135">
        <ele>194.5</ele>
        <time>2013-05-01T04:47:22.000Z</time>
      </trkpt>
      <trkpt lat="45.76751" lon="4.81134">
        <ele>194.2</ele>
        <time>2013-05-01T04:47:23.000Z</time>
      </trkpt>
      <trkpt lat="45.76754" lon="4.81133">
        <ele>194</ele>
        <time>2013-05-01T04:47:24.000Z</time>
      </trkpt>
      <trkpt lat="45.76756" lon="4.81133">
        <ele>193.8</ele>
        <time>2013-05-01T04:47:25.000Z</time>
      </trkpt>
      <trkpt lat="45.76758" lon="4.81132">
        <ele>193.7</ele>
        <time>2013-05-01T04:47:26.000Z</time>
      </trkpt>
      <trkpt lat="45.7676" lon="4.8113">
        <ele>193.9</ele>
        <time>2013-05-01T04:47:27.000Z</time>
      </trkpt>
      <trkpt lat="45.76763" lon="4.81129">
        <ele>193.6</ele>
        <time>2013-05-01T04:47:28.000Z</time>
      </trkpt>
      <trkpt lat="45.76766" lon="4.81128">
        <ele>193.5</ele>
        <time>2013-05-01T04:47:29.000Z</time>
      </trkpt>
      <trkpt lat="45.76768" lon="4.81127">
        <ele>193.6</ele>
        <time>2013-05-01T04:47:30.000Z</time>
      </trkpt>
      <trkpt lat="45.7677" lon="4.81125">
        <ele>193.8</ele>
        <time>2013-05-01T04:47:31.000Z</time>
      </trkpt>
      <trkpt lat="45.76773" lon="4.81125">
        <ele>193.5</ele>
        <time>2013-05-01T04:47:32.000Z</time>
      </trkpt>
      <trkpt lat="45.76775" lon="4.81123">
        <ele>193.5</ele>
        <time>2013-05-01T04:47:33.000Z</time>
      </trkpt>
      <trkpt lat="45.76777" lon="4.81122">
        <ele>193.7</ele>
        <time>2013-05-01T04:47:34.000Z</time>
      </trkpt>
      <trkpt lat="45.76779" lon="4.8112">
        <ele>193.8</ele>
        <time>2013-05-01T04:47:35.000Z</time>
      </trkpt>
      <trkpt lat="45.76782" lon="4.81119">
        <ele>193.6</ele>
        <time>2013-05-01T04:47:36.000Z</time>
      </trkpt>
      <trkpt lat="45.76784" lon="4.81119">
        <ele>193.4</ele>
        <time>2013-05-01T04:47:37.000Z</time>
      </trkpt>
      <trkpt lat="45.76787" lon="4.81118">
        <ele>193</ele>
        <time>2013-05-01T04:47:38.000Z</time>
      </trkpt>
      <trkpt lat="45.7679" lon="4.81117">
        <ele>192.5</ele>
        <time>2013-05-01T04:47:39.000Z</time>
      </trkpt>
      <trkpt lat="45.76792" lon="4.81116">
        <ele>192.3</ele>
        <time>2013-05-01T04:47:40.000Z</time>
      </trkpt>
      <trkpt lat="45.76795" lon="4.81114">
        <ele>192.1</ele>
        <time>2013-05-01T04:47:41.000Z</time>
      </trkpt>
      <trkpt lat="45.76797" lon="4.81113">
        <ele>191.7</ele>
        <time>2013-05-01T04:47:42.000Z</time>
      </trkpt>
      <trkpt lat="45.768" lon="4.81113">
        <ele>191.1</ele>
        <time>2013-05-01T04:47:43.000Z</time>
      </trkpt>
      <trkpt lat="45.76803" lon="4.81113">
        <ele>190.5</ele>
        <time>2013-05-01T04:47:44.000Z</time>
      </trkpt>
      <trkpt lat="45.76805" lon="4.81113">
        <ele>189.9</ele>
        <time>2013-05-01T04:47:45.000Z</time>
      </trkpt>
      <trkpt lat="45.76808" lon="4.81112">
        <ele>189.6</ele>
        <time>2013-05-01T04:47:46.000Z</time>
      </trkpt>
      <trkpt lat="45.76811" lon="4.81112">
        <ele>189.6</ele>
        <time>2013-05-01T04:47:47.000Z</time>
      </trkpt>
      <trkpt lat="45.76813" lon="4.81111">
        <ele>189.8</ele>
        <time>2013-05-01T04:47:48.000Z</time>
      </trkpt>
      <trkpt lat="45.76815" lon="4.8111">
        <ele>189.9</ele>
        <time>2013-05-01T04:47:49.000Z</time>
      </trkpt>
      <trkpt lat="45.76817" lon="4.8111">
        <ele>189.6</ele>
        <time>2013-05-01T04:47:50.000Z</time>
      </trkpt>
      <trkpt lat="45.7682" lon="4.8111">
        <ele>189.3</ele>
        <time>2013-05-01T04:47:51.000Z</time>
      </trkpt>
      <trkpt lat="45.76823" lon="4.8111">
        <ele>189.1</ele>
        <time>2013-05-01T04:47:52.000Z</time>
      </trkpt>
      <trkpt lat="45.76825" lon="4.81111">
        <ele>188.8</ele>
        <time>2013-05-01T04:47:53.000Z</time>
      </trkpt>
      <trkpt lat="45.76827" lon="4.81111">
        <ele>188.4</ele>
        <time>2013-05-01T04:47:54.000Z</time>
      </trkpt>
      <trkpt lat="45.76829" lon="4.81112">
        <ele>188.1</ele>
        <time>2013-05-01T04:47:55.000Z</time>
      </trkpt>
      <trkpt lat="45.76831" lon="4.81115">
        <ele>187.5</ele>
        <time>2013-05-01T04:47:56.000Z</time>
      </trkpt>
      <trkpt lat="45.76833" lon="4.81117">
        <ele>186.9</ele>
        <time>2013-05-01T04:47:57.000Z</time>
      </trkpt>
      <trkpt lat="45.76835" lon="4.81119">
        <ele>186.2</ele>
        <time>2013-05-01T04:47:58.000Z</time>
      </trkpt>
      <trkpt lat="45.76837" lon="4.81122">
        <ele>185.5</ele>
        <time>2013-05-01T04:47:59.000Z</time>
      </trkpt>
      <trkpt lat="45.76838" lon="4.81125">
        <ele>184.8</ele>
        <time>2013-05-01T04:48:00.000Z</time>
      </trkpt>
      <trkpt lat="45.76838" lon="4.81128">
        <ele>184</ele>
        <time>2013-05-01T04:48:01.000Z</time>
      </trkpt>
      <trkpt lat="45.76838" lon="4.81131">
        <ele>183.3</ele>
        <time>2013-05-01T04:48:02.000Z</time>
      </trkpt>
      <trkpt lat="45.76837" lon="4.81133">
        <ele>182.8</ele>
        <time>2013-05-01T04:48:03.000Z</time>
      </trkpt>
      <trkpt lat="45.76835" lon="4.81135">
        <ele>182.6</ele>
        <time>2013-05-01T04:48:04.000Z</time>
      </trkpt>
      <trkpt lat="45.76834" lon="4.81137">
        <ele>182.3</ele>
        <time>2013-05-01T04:48:05.000Z</time>
      </trkpt>
      <trkpt lat="45.76832" lon="4.8114">
        <ele>181.9</ele>
        <time>2013-05-01T04:48:06.000Z</time>
      </trkpt>
      <trkpt lat="45.76831" lon="4.81142">
        <ele>181.4</ele>
        <time>2013-05-01T04:48:07.000Z</time>
      </trkpt>
      <trkpt lat="45.76829" lon="4.81144">
        <ele>181.2</ele>
        <time>2013-05-01T04:48:08.000Z</time>
      </trkpt>
      <trkpt lat="45.76827" lon="4.81146">
        <ele>180.9</ele>
        <time>2013-05-01T04:48:09.000Z</time>
      </trkpt>
      <trkpt lat="45.76826" lon="4.81147">
        <ele>180.8</ele>
        <time>2013-05-01T04:48:10.000Z</time>
      </trkpt>
      <trkpt lat="45.76824" lon="4.81148">
        <ele>180.8</ele>
        <time>2013-05-01T04:48:11.000Z</time>
      </trkpt>
      <trkpt lat="45.76822" lon="4.81149">
        <ele>181</ele>
        <time>2013-05-01T04:48:12.000Z</time>
      </trkpt>
      <trkpt lat="45.7682" lon="4.8115">
        <ele>181.1</ele>
        <time>2013-05-01T04:48:13.000Z</time>
      </trkpt>
      <trkpt lat="45.76817" lon="4.81152">
        <ele>181.2</ele>
        <time>2013-05-01T04:48:14.000Z</time>
      </trkpt>
      <trkpt lat="45.76815" lon="4.81153">
        <ele>181.4</ele>
        <time>2013-05-01T04:48:15.000Z</time>
      </trkpt>
      <trkpt lat="45.76813" lon="4.81155">
        <ele>181.4</ele>
        <time>2013-05-01T04:48:16.000Z</time>
      </trkpt>
      <trkpt lat="45.76811" lon="4.81157">
        <ele>181.5</ele>
        <time>2013-05-01T04:48:17.000Z</time>
      </trkpt>
      <trkpt lat="45.76808" lon="4.8116">
        <ele>181.6</ele>
        <time>2013-05-01T04:48:18.000Z</time>
      </trkpt>
      <trkpt lat="45.76806" lon="4.81162">
        <ele>181.9</ele>
        <time>2013-05-01T04:48:19.000Z</time>
      </trkpt>
      <trkpt lat="45.76804" lon="4.81164">
        <ele>181.7</ele>
        <time>2013-05-01T04:48:20.000Z</time>
      </trkpt>
      <trkpt lat="45.76802" lon="4.81165">
        <ele>181.6</ele>
        <time>2013-05-01T04:48:21.000Z</time>
      </trkpt>
      <trkpt lat="45.768" lon="4.81166">
        <ele>181.6</ele>
        <time>2013-05-01T04:48:22.000Z</time>
      </trkpt>
      <trkpt lat="45.76798" lon="4.81167">
        <ele>181.4</ele>
        <time>2013-05-01T04:48:23.000Z</time>
      </trkpt>
      <trkpt lat="45.76795" lon="4.81168">
        <ele>181.2</ele>
        <time>2013-05-01T04:48:24.000Z</time>
      </trkpt>
      <trkpt lat="45.76793" lon="4.8117">
        <ele>180.9</ele>
        <time>2013-05-01T04:48:25.000Z</time>
      </trkpt>
      <trkpt lat="45.7679" lon="4.81172">
        <ele>180.5</ele>
        <time>2013-05-01T04:48:26.000Z</time>
      </trkpt>
      <trkpt lat="45.76788" lon="4.81173">
        <ele>180.2</ele>
        <time>2013-05-01T04:48:27.000Z</time>
      </trkpt>
      <trkpt lat="45.76786" lon="4.81175">
        <ele>179.7</ele>
        <time>2013-05-01T04:48:28.000Z</time>
      </trkpt>
      <trkpt lat="45.76784" lon="4.81177">
        <ele>179.5</ele>
        <time>2013-05-01T04:48:29.000Z</time>
      </trkpt>
      <trkpt lat="45.76782" lon="4.81178">
        <ele>179.2</ele>
        <time>2013-05-01T04:48:30.000Z</time>
      </trkpt>
      <trkpt lat="45.76779" lon="4.8118">
        <ele>179.2</ele>
        <time>2013-05-01T04:48:31.000Z</time>
      </trkpt>
      <trkpt lat="45.76777" lon="4.81181">
        <ele>179.1</ele>
        <time>2013-05-01T04:48:32.000Z</time>
      </trkpt>
      <trkpt lat="45.76774" lon="4.81183">
        <ele>179.1</ele>
        <time>2013-05-01T04:48:33.000Z</time>
      </trkpt>
      <trkpt lat="45.76773" lon="4.81184">
        <ele>178.9</ele>
        <time>2013-05-01T04:48:34.000Z</time>
      </trkpt>
      <trkpt lat="45.7677" lon="4.81186">
        <ele>178.9</ele>
        <time>2013-05-01T04:48:35.000Z</time>
      </trkpt>
      <trkpt lat="45.76768" lon="4.81187">
        <ele>178.9</ele>
        <time>2013-05-01T04:48:36.000Z</time>
      </trkpt>
      <trkpt lat="45.76766" lon="4.81189">
        <ele>178.8</ele>
        <time>2013-05-01T04:48:37.000Z</time>
      </trkpt>
      <trkpt lat="45.76763" lon="4.81192">
        <ele>178.5</ele>
        <time>2013-05-01T04:48:38.000Z</time>
      </trkpt>
      <trkpt lat="45.76761" lon="4.81194">
        <ele>178.2</ele>
        <time>2013-05-01T04:48:39.000Z</time>
      </trkpt>
      <trkpt lat="45.76758" lon="4.81196">
        <ele>178.2</ele>
        <time>2013-05-01T04:48:40.000Z</time>
      </trkpt>
      <trkpt lat="45.76756" lon="4.81198">
        <ele>178.1</ele>
        <time>2013-05-01T04:48:41.000Z</time>
      </trkpt>
      <trkpt lat="45.76753" lon="4.812">
        <ele>178</ele>
        <time>2013-05-01T04:48:42.000Z</time>
      </trkpt>
      <trkpt lat="45.76751" lon="4.81201">
        <ele>177.9</ele>
        <time>2013-05-01T04:48:43.000Z</time>
      </trkpt>
      <trkpt lat="45.76749" lon="4.81203">
        <ele>178.3</ele>
        <time>2013-05-01T04:48:44.000Z</time>
      </trkpt>
      <trkpt lat="45.76746" lon="4.81204">
        <ele>179.3</ele>
        <time>2013-05-01T04:48:45.000Z</time>
      </trkpt>
      <trkpt lat="45.76744" lon="4.81205">
        <ele>180.1</ele>
        <time>2013-05-01T04:48:46.000Z</time>
      </trkpt>
      <trkpt lat="45.76742" lon="4.81206">
        <ele>180.9</ele>
        <time>2013-05-01T04:48:47.000Z</time>
      </trkpt>
      <trkpt lat="45.7674" lon="4.81209">
        <ele>181</ele>
        <time>2013-05-01T04:48:48.000Z</time>
      </trkpt>
      <trkpt lat="45.76739" lon="4.81211">
        <ele>181</ele>
        <time>2013-05-01T04:48:49.000Z</time>
      </trkpt>
      <trkpt lat="45.76738" lon="4.81213">
        <ele>180.9</ele>
        <time>2013-05-01T04:48:50.000Z</time>
      </trkpt>
      <trkpt lat="45.76737" lon="4.81215">
        <ele>180.7</ele>
        <time>2013-05-01T04:48:51.000Z</time>
      </trkpt>
      <trkpt lat="45.76736" lon="4.81219">
        <ele>180.2</ele>
        <time>2013-05-01T04:48:52.000Z</time>
      </trkpt>
      <trkpt lat="45.76735" lon="4.81222">
        <ele>179.6</ele>
        <time>2013-05-01T04:48:53.000Z</time>
      </trkpt>
      <trkpt lat="45.76734" lon="4.81224">
        <ele>179.7</ele>
        <time>2013-05-01T04:48:54.000Z</time>
      </trkpt>
      <trkpt lat="45.76734" lon="4.81227">
        <ele>179.7</ele>
        <time>2013-05-01T04:48:55.000Z</time>
      </trkpt>
      <trkpt lat="45.76733" lon="4.8123">
        <ele>179.6</ele>
        <time>2013-05-01T04:48:56.000Z</time>
      </trkpt>
      <trkpt lat="45.76733" lon="4.81233">
        <ele>179.4</ele>
        <time>2013-05-01T04:48:57.000Z</time>
      </trkpt>
      <trkpt lat="45.76734" lon="4.81236">
        <ele>178.8</ele>
        <time>2013-05-01T04:48:58.000Z</time>
      </trkpt>
      <trkpt lat="45.76735" lon="4.81238">
        <ele>178.1</ele>
        <time>2013-05-01T04:48:59.000Z</time>
      </trkpt>
      <trkpt lat="45.76736" lon="4.81242">
        <ele>177.2</ele>
        <time>2013-05-01T04:49:00.000Z</time>
      </trkpt>
      <trkpt lat="45.76738" lon="4.81244">
        <ele>176.3</ele>
        <time>2013-05-01T04:49:01.000Z</time>
      </trkpt>
      <trkpt lat="45.76739" lon="4.81247">
        <ele>175.7</ele>
        <time>2013-05-01T04:49:02.000Z</time>
      </trkpt>
      <trkpt lat="45.7674" lon="4.81251">
        <ele>175.1</ele>
        <time>2013-05-01T04:49:03.000Z</time>
      </trkpt>
      <trkpt lat="45.76741" lon="4.81253">
        <ele>174.6</ele>
        <time>2013-05-01T04:49:04.000Z</time>
      </trkpt>
      <trkpt lat="45.76742" lon="4.81256">
        <ele>174</ele>
        <time>2013-05-01T04:49:05.000Z</time>
      </trkpt>
      <trkpt lat="45.76744" lon="4.8126">
        <ele>173.2</ele>
        <time>2013-05-01T04:49:06.000Z</time>
      </trkpt>
      <trkpt lat="45.76746" lon="4.81263">
        <ele>172.5</ele>
        <time>2013-05-01T04:49:07.000Z</time>
      </trkpt>
      <trkpt lat="45.76748" lon="4.81265">
        <ele>171.8</ele>
        <time>2013-05-01T04:49:08.000Z</time>
      </trkpt>
      <trkpt lat="45.7675" lon="4.81268">
        <ele>171</ele>
        <time>2013-05-01T04:49:09.000Z</time>
      </trkpt>
      <trkpt lat="45.76752" lon="4.8127">
        <ele>170.9</ele>
        <time>2013-05-01T04:49:10.000Z</time>
      </trkpt>
      <trkpt lat="45.76754" lon="4.81272">
        <ele>170.8</ele>
        <time>2013-05-01T04:49:11.000Z</time>
      </trkpt>
      <trkpt lat="45.76757" lon="4.81275">
        <ele>170.8</ele>
        <time>2013-05-01T04:49:12.000Z</time>
      </trkpt>
      <trkpt lat="45.76759" lon="4.81277">
        <ele>170.7</ele>
        <time>2013-05-01T04:49:13.000Z</time>
      </trkpt>
      <trkpt lat="45.76761" lon="4.81279">
        <ele>170.5</ele>
        <time>2013-05-01T04:49:14.000Z</time>
      </trkpt>
      <trkpt lat="45.76764" lon="4.8128">
        <ele>170.4</ele>
        <time>2013-05-01T04:49:15.000Z</time>
      </trkpt>
      <trkpt lat="45.76765" lon="4.81282">
        <ele>170.2</ele>
        <time>2013-05-01T04:49:16.000Z</time>
      </trkpt>
      <trkpt lat="45.76768" lon="4.81285">
        <ele>169.9</ele>
        <time>2013-05-01T04:49:17.000Z</time>
      </trkpt>
      <trkpt lat="45.7677" lon="4.81287">
        <ele>169.6</ele>
        <time>2013-05-01T04:49:18.000Z</time>
      </trkpt>
      <trkpt lat="45.76773" lon="4.8129">
        <ele>169.3</ele>
        <time>2013-05-01T04:49:19.000Z</time>
      </trkpt>
      <trkpt lat="45.76775" lon="4.81293">
        <ele>169</ele>
        <time>2013-05-01T04:49:20.000Z</time>
      </trkpt>
      <trkpt lat="45.76777" lon="4.81295">
        <ele>168.8</ele>
        <time>2013-05-01T04:49:21.000Z</time>
      </trkpt>
      <trkpt lat="45.76779" lon="4.81298">
        <ele>168.6</ele>
        <time>2013-05-01T04:49:22.000Z</time>
      </trkpt>
      <trkpt lat="45.76781" lon="4.813">
        <ele>168.4</ele>
        <time>2013-05-01T04:49:23.000Z</time>
      </trkpt>
      <trkpt lat="45.76784" lon="4.81301">
        <ele>168.3</ele>
        <time>2013-05-01T04:49:24.000Z</time>
      </trkpt>
      <trkpt lat="45.76786" lon="4.81303">
        <ele>168.2</ele>
        <time>2013-05-01T04:49:25.000Z</time>
      </trkpt>
      <trkpt lat="45.76788" lon="4.81304">
        <ele>168.1</ele>
        <time>2013-05-01T04:49:26.000Z</time>
      </trkpt>
      <trkpt lat="45.7679" lon="4.81305">
        <ele>168</ele>
        <time>2013-05-01T04:49:27.000Z</time>
      </trkpt>
      <trkpt lat="45.76791" lon="4.81306">
        <ele>168</ele>
        <time>2013-05-01T04:49:28.000Z</time>
      </trkpt>
      <trkpt lat="45.76792" lon="4.81306">
        <ele>168</ele>
        <time>2013-05-01T04:49:29.000Z</time>
      </trkpt>
      <trkpt lat="45.76793" lon="4.81306">
        <ele>168</ele>
        <time>2013-05-01T04:49:30.000Z</time>
      </trkpt>
      <trkpt lat="45.76794" lon="4.81306">
        <ele>168</ele>
        <time>2013-05-01T04:49:31.000Z</time>
      </trkpt>
      <trkpt lat="45.76794" lon="4.81306">
        <ele>168</ele>
        <time>2013-05-01T04:49:32.000Z</time>
      </trkpt>
      <trkpt lat="45.76795" lon="4.81306">
        <ele>168</ele>
        <time>2013-05-01T04:49:33.000Z</time>
      </trkpt>
      <trkpt lat="45.76795" lon="4.81306">
        <ele>168</ele>
        <time>2013-05-01T04:49:34.000Z</time>
      </trkpt>
      <trkpt lat="45.76795" lon="4.81306">
        <ele>167.9</ele>
        <time>2013-05-01T04:49:35.000Z</time>
      </trkpt>
      <trkpt lat="45.76795" lon="4.81306">
        <ele>167.9</ele>
        <time>2013-05-01T04:49:36.000Z</time>
      </trkpt>
      <trkpt lat="45.76796" lon="4.81307">
        <ele>167.9</ele>
        <time>2013-05-01T04:49:37.000Z</time>
      </trkpt>
      <trkpt lat="45.76796" lon="4.81307">
        <ele>167.9</ele>
        <time>2013-05-01T04:49:38.000Z</time>
      </trkpt>
      <trkpt lat="45.76796" lon="4.81307">
        <ele>167.9</ele>
        <time>2013-05-01T04:49:39.000Z</time>
      </trkpt>
      <trkpt lat="45.76796" lon="4.81307">
        <ele>167.9</ele>
        <time>2013-05-01T04:49:40.000Z</time>
      </trkpt>
      <trkpt lat="45.76796" lon="4.81307">
        <ele>167.9</ele>
        <time>2013-05-01T04:49:41.000Z</time>
      </trkpt>
      <trkpt lat="45.76796" lon="4.81307">
        <ele>167.8</ele>
        <time>2013-05-01T04:49:42.000Z</time>
      </trkpt>
      <trkpt lat="45.76796" lon="4.81307">
        <ele>167.8</ele>
        <time>2013-05-01T04:49:43.000Z</time>
      </trkpt>
      <trkpt lat="45.76796" lon="4.81307">
        <ele>167.8</ele>
        <time>2013-05-01T04:49:44.000Z</time>
      </trkpt>
      <trkpt lat="45.76796" lon="4.81307">
        <ele>167.8</ele>
        <time>2013-05-01T04:49:45.000Z</time>
      </trkpt>
      <trkpt lat="45.76796" lon="4.81307">
        <ele>167.9</ele>
        <time>2013-05-01T04:49:46.000Z</time>
      </trkpt>
      <trkpt lat="45.76796" lon="4.81307">
        <ele>167.9</ele>
        <time>2013-05-01T04:49:47.000Z</time>
      </trkpt>
      <trkpt lat="45.76796" lon="4.81307">
        <ele>167.9</ele>
        <time>2013-05-01T04:49:48.000Z</time>
      </trkpt>
      <trkpt lat="45.76796" lon="4.81307">
        <ele>167.9</ele>
        <time>2013-05-01T04:49:49.000Z</time>
      </trkpt>
      <trkpt lat="45.76796" lon="4.81307">
        <ele>167.9</ele>
        <time>2013-05-01T04:49:50.000Z</time>
      </trkpt>
      <trkpt lat="45.76796" lon="4.81307">
        <ele>167.9</ele>
        <time>2013-05-01T04:49:51.000Z</time>
      </trkpt>
      <trkpt lat="45.76796" lon="4.81307">
        <ele>167.9</ele>
        <time>2013-05-01T04:49:52.000Z</time>
      </trkpt>
      <trkpt lat="45.76796" lon="4.81307">
        <ele>167.9</ele>
        <time>2013-05-01T04:49:53.000Z</time>
      </trkpt>
      <trkpt lat="45.76796" lon="4.81307">
        <ele>167.9</ele>
        <time>2013-05-01T04:49:54.000Z</time>
      </trkpt>
      <trkpt lat="45.76796" lon="4.81306">
        <ele>167.9</ele>
        <time>2013-05-01T04:49:55.000Z</time>
      </trkpt>
      <trkpt lat="45.76796" lon="4.81306">
        <ele>168</ele>
        <time>2013-05-01T04:49:56.000Z</time>
      </trkpt>
      <trkpt lat="45.76795" lon="4.81306">
        <ele>168</ele>
        <time>2013-05-01T04:49:57.000Z</time>
      </trkpt>
      <trkpt lat="45.76794" lon="4.81305">
        <ele>168</ele>
        <time>2013-05-01T04:49:58.000Z</time>
      </trkpt>
      <trkpt lat="45.76792" lon="4.81304">
        <ele>168.1</ele>
        <time>2013-05-01T04:49:59.000Z</time>
      </trkpt>
      <trkpt lat="45.7679" lon="4.81304">
        <ele>168.1</ele>
        <time>2013-05-01T04:50:00.000Z</time>
      </trkpt>
      <trkpt lat="45.76787" lon="4.81303">
        <ele>168.1</ele>
        <time>2013-05-01T04:50:01.000Z</time>
      </trkpt>
      <trkpt lat="45.76784" lon="4.81302">
        <ele>168.2</ele>
        <time>2013-05-01T04:50:02.000Z</time>
      </trkpt>
      <trkpt lat="45.76782" lon="4.81301">
        <ele>168.3</ele>
        <time>2013-05-01T04:50:03.000Z</time>
      </trkpt>
      <trkpt lat="45.76779" lon="4.813">
        <ele>168.4</ele>
        <time>2013-05-01T04:50:04.000Z</time>
      </trkpt>
      <trkpt lat="45.76777" lon="4.81298">
        <ele>168.6</ele>
        <time>2013-05-01T04:50:05.000Z</time>
      </trkpt>
      <trkpt lat="45.76775" lon="4.81296">
        <ele>168.8</ele>
        <time>2013-05-01T04:50:06.000Z</time>
      </trkpt>
      <trkpt lat="45.76773" lon="4.81294">
        <ele>169</ele>
        <time>2013-05-01T04:50:07.000Z</time>
      </trkpt>
      <trkpt lat="45.76771" lon="4.81292">
        <ele>169.2</ele>
        <time>2013-05-01T04:50:08.000Z</time>
      </trkpt>
      <trkpt lat="45.76769" lon="4.81291">
        <ele>169.3</ele>
        <time>2013-05-01T04:50:09.000Z</time>
      </trkpt>
      <trkpt lat="45.76767" lon="4.81289">
        <ele>169.6</ele>
        <time>2013-05-01T04:50:10.000Z</time>
      </trkpt>
      <trkpt lat="45.76765" lon="4.81287">
        <ele>169.8</ele>
        <time>2013-05-01T04:50:11.000Z</time>
      </trkpt>
      <trkpt lat="45.76763" lon="4.81285">
        <ele>170</ele>
        <time>2013-05-01T04:50:12.000Z</time>
      </trkpt>
      <trkpt lat="45.76761" lon="4.81282">
        <ele>170.3</ele>
        <time>2013-05-01T04:50:13.000Z</time>
      </trkpt>
      <trkpt lat="45.76759" lon="4.81281">
        <ele>170.4</ele>
        <time>2013-05-01T04:50:14.000Z</time>
      </trkpt>
      <trkpt lat="45.76757" lon="4.81279">
        <ele>170.6</ele>
        <time>2013-05-01T04:50:15.000Z</time>
      </trkpt>
      <trkpt lat="45.76755" lon="4.81278">
        <ele>170.8</ele>
        <time>2013-05-01T04:50:16.000Z</time>
      </trkpt>
      <trkpt lat="45.76753" lon="4.81276">
        <ele>170.9</ele>
        <time>2013-05-01T04:50:17.000Z</time>
      </trkpt>
      <trkpt lat="45.76751" lon="4.81274">
        <ele>171</ele>
        <time>2013-05-01T04:50:18.000Z</time>
      </trkpt>
      <trkpt lat="45.76749" lon="4.81272">
        <ele>171.3</ele>
        <time>2013-05-01T04:50:19.000Z</time>
      </trkpt>
      <trkpt lat="45.76748" lon="4.81269">
        <ele>171.9</ele>
        <time>2013-05-01T04:50:20.000Z</time>
      </trkpt>
      <trkpt lat="45.76746" lon="4.81266">
        <ele>172.3</ele>
        <time>2013-05-01T04:50:21.000Z</time>
      </trkpt>
      <trkpt lat="45.76745" lon="4.81263">
        <ele>172.9</ele>
        <time>2013-05-01T04:50:22.000Z</time>
      </trkpt>
      <trkpt lat="45.76744" lon="4.81261">
        <ele>173.4</ele>
        <time>2013-05-01T04:50:23.000Z</time>
      </trkpt>
      <trkpt lat="45.76743" lon="4.81258">
        <ele>173.8</ele>
        <time>2013-05-01T04:50:24.000Z</time>
      </trkpt>
      <trkpt lat="45.76742" lon="4.81256">
        <ele>174.2</ele>
        <time>2013-05-01T04:50:25.000Z</time>
      </trkpt>
      <trkpt lat="45.76741" lon="4.81255">
        <ele>174.5</ele>
        <time>2013-05-01T04:50:26.000Z</time>
      </trkpt>
      <trkpt lat="45.7674" lon="4.81253">
        <ele>174.9</ele>
        <time>2013-05-01T04:50:27.000Z</time>
      </trkpt>
      <trkpt lat="45.7674" lon="4.81251">
        <ele>175</ele>
        <time>2013-05-01T04:50:28.000Z</time>
      </trkpt>
      <trkpt lat="45.76739" lon="4.81249">
        <ele>175.5</ele>
        <time>2013-05-01T04:50:29.000Z</time>
      </trkpt>
      <trkpt lat="45.76739" lon="4.81246">
        <ele>175.8</ele>
        <time>2013-05-01T04:50:30.000Z</time>
      </trkpt>
      <trkpt lat="45.76739" lon="4.81242">
        <ele>176.1</ele>
        <time>2013-05-01T04:50:31.000Z</time>
      </trkpt>
      <trkpt lat="45.76739" lon="4.81238">
        <ele>176.4</ele>
        <time>2013-05-01T04:50:32.000Z</time>
      </trkpt>
      <trkpt lat="45.76739" lon="4.81235">
        <ele>176.6</ele>
        <time>2013-05-01T04:50:33.000Z</time>
      </trkpt>
      <trkpt lat="45.76739" lon="4.81231">
        <ele>176.9</ele>
        <time>2013-05-01T04:50:34.000Z</time>
      </trkpt>
      <trkpt lat="45.76739" lon="4.81228">
        <ele>176.9</ele>
        <time>2013-05-01T04:50:35.000Z</time>
      </trkpt>
      <trkpt lat="45.7674" lon="4.81225">
        <ele>176.8</ele>
        <time>2013-05-01T04:50:36.000Z</time>
      </trkpt>
      <trkpt lat="45.76741" lon="4.81223">
        <ele>176.6</ele>
        <time>2013-05-01T04:50:37.000Z</time>
      </trkpt>
      <trkpt lat="45.76742" lon="4.81221">
        <ele>176.6</ele>
        <time>2013-05-01T04:50:38.000Z</time>
      </trkpt>
      <trkpt lat="45.76743" lon="4.8122">
        <ele>176.2</ele>
        <time>2013-05-01T04:50:39.000Z</time>
      </trkpt>
      <trkpt lat="45.76745" lon="4.81218">
        <ele>175.8</ele>
        <time>2013-05-01T04:50:40.000Z</time>
      </trkpt>
      <trkpt lat="45.76747" lon="4.81217">
        <ele>175.2</ele>
        <time>2013-05-01T04:50:41.000Z</time>
      </trkpt>
      <trkpt lat="45.76749" lon="4.81215">
        <ele>174.9</ele>
        <time>2013-05-01T04:50:42.000Z</time>
      </trkpt>
      <trkpt lat="45.7675" lon="4.81212">
        <ele>175</ele>
        <time>2013-05-01T04:50:43.000Z</time>
      </trkpt>
      <trkpt lat="45.76751" lon="4.8121">
        <ele>175.5</ele>
        <time>2013-05-01T04:50:44.000Z</time>
      </trkpt>
      <trkpt lat="45.76753" lon="4.81208">
        <ele>175.8</ele>
        <time>2013-05-01T04:50:45.000Z</time>
      </trkpt>
      <trkpt lat="45.76755" lon="4.81205">
        <ele>176.3</ele>
        <time>2013-05-01T04:50:46.000Z</time>
      </trkpt>
      <trkpt lat="45.76756" lon="4.81202">
        <ele>176.8</ele>
        <time>2013-05-01T04:50:47.000Z</time>
      </trkpt>
      <trkpt lat="45.76758" lon="4.812">
        <ele>177.2</ele>
        <time>2013-05-01T04:50:48.000Z</time>
      </trkpt>
      <trkpt lat="45.76759" lon="4.81198">
        <ele>177.4</ele>
        <time>2013-05-01T04:50:49.000Z</time>
      </trkpt>
      <trkpt lat="45.76761" lon="4.81196">
        <ele>177.6</ele>
        <time>2013-05-01T04:50:50.000Z</time>
      </trkpt>
      <trkpt lat="45.76763" lon="4.81194">
        <ele>177.8</ele>
        <time>2013-05-01T04:50:51.000Z</time>
      </trkpt>
      <trkpt lat="45.76765" lon="4.81192">
        <ele>178</ele>
        <time>2013-05-01T04:50:52.000Z</time>
      </trkpt>
      <trkpt lat="45.76767" lon="4.8119">
        <ele>178.3</ele>
        <time>2013-05-01T04:50:53.000Z</time>
      </trkpt>
      <trkpt lat="45.76769" lon="4.81187">
        <ele>178.7</ele>
        <time>2013-05-01T04:50:54.000Z</time>
      </trkpt>
      <trkpt lat="45.76771" lon="4.81185">
        <ele>179.1</ele>
        <time>2013-05-01T04:50:55.000Z</time>
      </trkpt>
      <trkpt lat="45.76772" lon="4.81183">
        <ele>179.3</ele>
        <time>2013-05-01T04:50:56.000Z</time>
      </trkpt>
      <trkpt lat="45.76774" lon="4.81181">
        <ele>179.7</ele>
        <time>2013-05-01T04:50:57.000Z</time>
      </trkpt>
      <trkpt lat="45.76776" lon="4.81179">
        <ele>179.9</ele>
        <time>2013-05-01T04:50:58.000Z</time>
      </trkpt>
      <trkpt lat="45.76778" lon="4.81177">
        <ele>180</ele>
        <time>2013-05-01T04:50:59.000Z</time>
      </trkpt>
      <trkpt lat="45.7678" lon="4.81176">
        <ele>180.1</ele>
        <time>2013-05-01T04:51:00.000Z</time>
      </trkpt>
      <trkpt lat="45.76782" lon="4.81175">
        <ele>180.3</ele>
        <time>2013-05-01T04:51:01.000Z</time>
      </trkpt>
      <trkpt lat="45.76785" lon="4.81173">
        <ele>180.5</ele>
        <time>2013-05-01T04:51:02.000Z</time>
      </trkpt>
      <trkpt lat="45.76787" lon="4.81172">
        <ele>180.8</ele>
        <time>2013-05-01T04:51:03.000Z</time>
      </trkpt>
      <trkpt lat="45.76789" lon="4.8117">
        <ele>181.2</ele>
        <time>2013-05-01T04:51:04.000Z</time>
      </trkpt>
      <trkpt lat="45.76791" lon="4.81169">
        <ele>181.4</ele>
        <time>2013-05-01T04:51:05.000Z</time>
      </trkpt>
      <trkpt lat="45.76792" lon="4.81168">
        <ele>181.5</ele>
        <time>2013-05-01T04:51:06.000Z</time>
      </trkpt>
      <trkpt lat="45.76795" lon="4.81167">
        <ele>181.8</ele>
        <time>2013-05-01T04:51:07.000Z</time>
      </trkpt>
      <trkpt lat="45.76796" lon="4.81165">
        <ele>182</ele>
        <time>2013-05-01T04:51:08.000Z</time>
      </trkpt>
      <trkpt lat="45.76799" lon="4.81163">
        <ele>182.1</ele>
        <time>2013-05-01T04:51:09.000Z</time>
      </trkpt>
      <trkpt lat="45.768" lon="4.81162">
        <ele>182.3</ele>
        <time>2013-05-01T04:51:10.000Z</time>
      </trkpt>
      <trkpt lat="45.76803" lon="4.8116">
        <ele>182.4</ele>
        <time>2013-05-01T04:51:11.000Z</time>
      </trkpt>
      <trkpt lat="45.76805" lon="4.81158">
        <ele>182.6</ele>
        <time>2013-05-01T04:51:12.000Z</time>
      </trkpt>
      <trkpt lat="45.76807" lon="4.81156">
        <ele>182.6</ele>
        <time>2013-05-01T04:51:13.000Z</time>
      </trkpt>
      <trkpt lat="45.76809" lon="4.81154">
        <ele>182.5</ele>
        <time>2013-05-01T04:51:14.000Z</time>
      </trkpt>
      <trkpt lat="45.7681" lon="4.81152">
        <ele>182.7</ele>
        <time>2013-05-01T04:51:15.000Z</time>
      </trkpt>
      <trkpt lat="45.76812" lon="4.8115">
        <ele>182.8</ele>
        <time>2013-05-01T04:51:16.000Z</time>
      </trkpt>
      <trkpt lat="45.76814" lon="4.81148">
        <ele>182.8</ele>
        <time>2013-05-01T04:51:17.000Z</time>
      </trkpt>
      <trkpt lat="45.76815" lon="4.81147">
        <ele>182.9</ele>
        <time>2013-05-01T04:51:18.000Z</time>
      </trkpt>
      <trkpt lat="45.76817" lon="4.81145">
        <ele>182.9</ele>
        <time>2013-05-01T04:51:19.000Z</time>
      </trkpt>
      <trkpt lat="45.76819" lon="4.81142">
        <ele>183.2</ele>
        <time>2013-05-01T04:51:20.000Z</time>
      </trkpt>
      <trkpt lat="45.76821" lon="4.8114">
        <ele>183.6</ele>
        <time>2013-05-01T04:51:21.000Z</time>
      </trkpt>
      <trkpt lat="45.76822" lon="4.81138">
        <ele>183.8</ele>
        <time>2013-05-01T04:51:22.000Z</time>
      </trkpt>
      <trkpt lat="45.76824" lon="4.81136">
        <ele>184</ele>
        <time>2013-05-01T04:51:23.000Z</time>
      </trkpt>
      <trkpt lat="45.76826" lon="4.81134">
        <ele>184.1</ele>
        <time>2013-05-01T04:51:24.000Z</time>
      </trkpt>
      <trkpt lat="45.76828" lon="4.81131">
        <ele>184.4</ele>
        <time>2013-05-01T04:51:25.000Z</time>
      </trkpt>
      <trkpt lat="45.76829" lon="4.81129">
        <ele>184.6</ele>
        <time>2013-05-01T04:51:26.000Z</time>
      </trkpt>
      <trkpt lat="45.76831" lon="4.81128">
        <ele>184.7</ele>
        <time>2013-05-01T04:51:27.000Z</time>
      </trkpt>
      <trkpt lat="45.76833" lon="4.81127">
        <ele>184.5</ele>
        <time>2013-05-01T04:51:28.000Z</time>
      </trkpt>
      <trkpt lat="45.76835" lon="4.81126">
        <ele>184.6</ele>
        <time>2013-05-01T04:51:29.000Z</time>
      </trkpt>
      <trkpt lat="45.76836" lon="4.81125">
        <ele>184.8</ele>
        <time>2013-05-01T04:51:30.000Z</time>
      </trkpt>
      <trkpt lat="45.76837" lon="4.81123">
        <ele>185.3</ele>
        <time>2013-05-01T04:51:31.000Z</time>
      </trkpt>
      <trkpt lat="45.76838" lon="4.8112">
        <ele>186</ele>
        <time>2013-05-01T04:51:32.000Z</time>
      </trkpt>
      <trkpt lat="45.76838" lon="4.81117">
        <ele>186.6</ele>
        <time>2013-05-01T04:51:33.000Z</time>
      </trkpt>
      <trkpt lat="45.76838" lon="4.81114">
        <ele>187.3</ele>
        <time>2013-05-01T04:51:34.000Z</time>
      </trkpt>
      <trkpt lat="45.76838" lon="4.81111">
        <ele>188</ele>
        <time>2013-05-01T04:51:35.000Z</time>
      </trkpt>
      <trkpt lat="45.76837" lon="4.81108">
        <ele>189.1</ele>
        <time>2013-05-01T04:51:36.000Z</time>
      </trkpt>
      <trkpt lat="45.76836" lon="4.81106">
        <ele>190.2</ele>
        <time>2013-05-01T04:51:37.000Z</time>
      </trkpt>
      <trkpt lat="45.76834" lon="4.81103">
        <ele>191.1</ele>
        <time>2013-05-01T04:51:38.000Z</time>
      </trkpt>
      <trkpt lat="45.76832" lon="4.81101">
        <ele>192.2</ele>
        <time>2013-05-01T04:51:39.000Z</time>
      </trkpt>
      <trkpt lat="45.7683" lon="4.811">
        <ele>192.9</ele>
        <time>2013-05-01T04:51:40.000Z</time>
      </trkpt>
      <trkpt lat="45.76828" lon="4.81099">
        <ele>193.6</ele>
        <time>2013-05-01T04:51:41.000Z</time>
      </trkpt>
      <trkpt lat="45.76826" lon="4.81097">
        <ele>194.4</ele>
        <time>2013-05-01T04:51:42.000Z</time>
      </trkpt>
      <trkpt lat="45.76824" lon="4.81097">
        <ele>195</ele>
        <time>2013-05-01T04:51:43.000Z</time>
      </trkpt>
      <trkpt lat="45.76822" lon="4.81096">
        <ele>195.3</ele>
        <time>2013-05-01T04:51:44.000Z</time>
      </trkpt>
      <trkpt lat="45.7682" lon="4.81097">
        <ele>195.4</ele>
        <time>2013-05-01T04:51:45.000Z</time>
      </trkpt>
      <trkpt lat="45.76818" lon="4.81098">
        <ele>195.2</ele>
        <time>2013-05-01T04:51:46.000Z</time>
      </trkpt>
      <trkpt lat="45.76816" lon="4.81099">
        <ele>194.8</ele>
        <time>2013-05-01T04:51:47.000Z</time>
      </trkpt>
      <trkpt lat="45.76814" lon="4.81101">
        <ele>194</ele>
        <time>2013-05-01T04:51:48.000Z</time>
      </trkpt>
      <trkpt lat="45.76813" lon="4.81104">
        <ele>193</ele>
        <time>2013-05-01T04:51:49.000Z</time>
      </trkpt>
      <trkpt lat="45.76811" lon="4.81106">
        <ele>192.1</ele>
        <time>2013-05-01T04:51:50.000Z</time>
      </trkpt>
      <trkpt lat="45.76809" lon="4.81108">
        <ele>191.2</ele>
        <time>2013-05-01T04:51:51.000Z</time>
      </trkpt>
      <trkpt lat="45.76808" lon="4.8111">
        <ele>190.5</ele>
        <time>2013-05-01T04:51:52.000Z</time>
      </trkpt>
      <trkpt lat="45.76806" lon="4.81112">
        <ele>189.9</ele>
        <time>2013-05-01T04:51:53.000Z</time>
      </trkpt>
      <trkpt lat="45.76805" lon="4.81114">
        <ele>189.9</ele>
        <time>2013-05-01T04:51:54.000Z</time>
      </trkpt>
      <trkpt lat="45.76803" lon="4.81115">
        <ele>190</ele>
        <time>2013-05-01T04:51:55.000Z</time>
      </trkpt>
      <trkpt lat="45.76801" lon="4.81116">
        <ele>190.3</ele>
        <time>2013-05-01T04:51:56.000Z</time>
      </trkpt>
      <trkpt lat="45.76799" lon="4.81118">
        <ele>190.4</ele>
        <time>2013-05-01T04:51:57.000Z</time>
      </trkpt>
      <trkpt lat="45.76797" lon="4.81119">
        <ele>190.6</ele>
        <time>2013-05-01T04:51:58.000Z</time>
      </trkpt>
      <trkpt lat="45.76795" lon="4.81122">
        <ele>190.4</ele>
        <time>2013-05-01T04:51:59.000Z</time>
      </trkpt>
      <trkpt lat="45.76792" lon="4.81124">
        <ele>190.4</ele>
        <time>2013-05-01T04:52:00.000Z</time>
      </trkpt>
      <trkpt lat="45.7679" lon="4.81127">
        <ele>190.1</ele>
        <time>2013-05-01T04:52:01.000Z</time>
      </trkpt>
      <trkpt lat="45.76788" lon="4.81129">
        <ele>189.8</ele>
        <time>2013-05-01T04:52:02.000Z</time>
      </trkpt>
      <trkpt lat="45.76786" lon="4.81131">
        <ele>189.7</ele>
        <time>2013-05-01T04:52:03.000Z</time>
      </trkpt>
      <trkpt lat="45.76784" lon="4.81132">
        <ele>189.5</ele>
        <time>2013-05-01T04:52:04.000Z</time>
      </trkpt>
      <trkpt lat="45.76782" lon="4.81133">
        <ele>189.4</ele>
        <time>2013-05-01T04:52:05.000Z</time>
      </trkpt>
      <trkpt lat="45.7678" lon="4.81135">
        <ele>189.1</ele>
        <time>2013-05-01T04:52:06.000Z</time>
      </trkpt>
      <trkpt lat="45.76778" lon="4.81137">
        <ele>188.5</ele>
        <time>2013-05-01T04:52:07.000Z</time>
      </trkpt>
      <trkpt lat="45.76776" lon="4.8114">
        <ele>188.2</ele>
        <time>2013-05-01T04:52:08.000Z</time>
      </trkpt>
      <trkpt lat="45.76774" lon="4.81143">
        <ele>188.1</ele>
        <time>2013-05-01T04:52:09.000Z</time>
      </trkpt>
      <trkpt lat="45.76772" lon="4.81145">
        <ele>188.1</ele>
        <time>2013-05-01T04:52:10.000Z</time>
      </trkpt>
      <trkpt lat="45.7677" lon="4.81146">
        <ele>188.1</ele>
        <time>2013-05-01T04:52:11.000Z</time>
      </trkpt>
      <trkpt lat="45.76768" lon="4.81148">
        <ele>188.3</ele>
        <time>2013-05-01T04:52:12.000Z</time>
      </trkpt>
      <trkpt lat="45.76766" lon="4.81149">
        <ele>188.5</ele>
        <time>2013-05-01T04:52:13.000Z</time>
      </trkpt>
      <trkpt lat="45.76764" lon="4.8115">
        <ele>188.6</ele>
        <time>2013-05-01T04:52:14.000Z</time>
      </trkpt>
      <trkpt lat="45.76762" lon="4.81151">
        <ele>188.8</ele>
        <time>2013-05-01T04:52:15.000Z</time>
      </trkpt>
      <trkpt lat="45.7676" lon="4.81152">
        <ele>188.9</ele>
        <time>2013-05-01T04:52:16.000Z</time>
      </trkpt>
      <trkpt lat="45.76757" lon="4.81152">
        <ele>189.3</ele>
        <time>2013-05-01T04:52:17.000Z</time>
      </trkpt>
      <trkpt lat="45.76755" lon="4.81153">
        <ele>189.5</ele>
        <time>2013-05-01T04:52:18.000Z</time>
      </trkpt>
      <trkpt lat="45.76753" lon="4.81154">
        <ele>189.7</ele>
        <time>2013-05-01T04:52:19.000Z</time>
      </trkpt>
      <trkpt lat="45.76751" lon="4.81155">
        <ele>189.8</ele>
        <time>2013-05-01T04:52:20.000Z</time>
      </trkpt>
      <trkpt lat="45.76749" lon="4.81156">
        <ele>190.2</ele>
        <time>2013-05-01T04:52:21.000Z</time>
      </trkpt>
      <trkpt lat="45.76747" lon="4.81156">
        <ele>190.7</ele>
        <time>2013-05-01T04:52:22.000Z</time>
      </trkpt>
      <trkpt lat="45.76745" lon="4.81155">
        <ele>191.5</ele>
        <time>2013-05-01T04:52:23.000Z</time>
      </trkpt>
      <trkpt lat="45.76743" lon="4.81155">
        <ele>192</ele>
        <time>2013-05-01T04:52:24.000Z</time>
      </trkpt>
      <trkpt lat="45.76741" lon="4.81155">
        <ele>192.5</ele>
        <time>2013-05-01T04:52:25.000Z</time>
      </trkpt>
      <trkpt lat="45.76739" lon="4.81156">
        <ele>192.9</ele>
        <time>2013-05-01T04:52:26.000Z</time>
      </trkpt>
      <trkpt lat="45.76737" lon="4.81156">
        <ele>193.2</ele>
        <time>2013-05-01T04:52:27.000Z</time>
      </trkpt>
      <trkpt lat="45.76735" lon="4.81156">
        <ele>193.7</ele>
        <time>2013-05-01T04:52:28.000Z</time>
      </trkpt>
      <trkpt lat="45.76734" lon="4.81156">
        <ele>194.2</ele>
        <time>2013-05-01T04:52:29.000Z</time>
      </trkpt>
      <trkpt lat="45.76732" lon="4.81156">
        <ele>194.7</ele>
        <time>2013-05-01T04:52:30.000Z</time>
      </trkpt>
      <trkpt lat="45.7673" lon="4.81157">
        <ele>195.1</ele>
        <time>2013-05-01T04:52:31.000Z</time>
      </trkpt>
      <trkpt lat="45.76728" lon="4.81158">
        <ele>195.4</ele>
        <time>2013-05-01T04:52:32.000Z</time>
      </trkpt>
      <trkpt lat="45.76727" lon="4.81159">
        <ele>195.7</ele>
        <time>2013-05-01T04:52:33.000Z</time>
      </trkpt>
      <trkpt lat="45.76725" lon="4.8116">
        <ele>196</ele>
        <time>2013-05-01T04:52:34.000Z</time>
      </trkpt>
      <trkpt lat="45.76724" lon="4.81161">
        <ele>196.2</ele>
        <time>2013-05-01T04:52:35.000Z</time>
      </trkpt>
      <trkpt lat="45.76723" lon="4.81163">
        <ele>196.3</ele>
        <time>2013-05-01T04:52:36.000Z</time>
      </trkpt>
      <trkpt lat="45.76721" lon="4.81165">
        <ele>196.6</ele>
        <time>2013-05-01T04:52:37.000Z</time>
      </trkpt>
      <trkpt lat="45.7672" lon="4.81166">
        <ele>196.7</ele>
        <time>2013-05-01T04:52:38.000Z</time>
      </trkpt>
      <trkpt lat="45.7672" lon="4.81168">
        <ele>196.8</ele>
        <time>2013-05-01T04:52:39.000Z</time>
      </trkpt>
      <trkpt lat="45.76719" lon="4.8117">
        <ele>197</ele>
        <time>2013-05-01T04:52:40.000Z</time>
      </trkpt>
      <trkpt lat="45.76719" lon="4.81172">
        <ele>197</ele>
        <time>2013-05-01T04:52:41.000Z</time>
      </trkpt>
      <trkpt lat="45.76719" lon="4.81174">
        <ele>196.8</ele>
        <time>2013-05-01T04:52:42.000Z</time>
      </trkpt>
      <trkpt lat="45.7672" lon="4.81176">
        <ele>196.6</ele>
        <time>2013-05-01T04:52:43.000Z</time>
      </trkpt>
      <trkpt lat="45.7672" lon="4.81178">
        <ele>196.4</ele>
        <time>2013-05-01T04:52:44.000Z</time>
      </trkpt>
      <trkpt lat="45.76721" lon="4.8118">
        <ele>196.1</ele>
        <time>2013-05-01T04:52:45.000Z</time>
      </trkpt>
      <trkpt lat="45.76722" lon="4.81183">
        <ele>195.5</ele>
        <time>2013-05-01T04:52:46.000Z</time>
      </trkpt>
      <trkpt lat="45.76723" lon="4.81185">
        <ele>194.9</ele>
        <time>2013-05-01T04:52:47.000Z</time>
      </trkpt>
      <trkpt lat="45.76725" lon="4.81188">
        <ele>194.2</ele>
        <time>2013-05-01T04:52:48.000Z</time>
      </trkpt>
      <trkpt lat="45.76725" lon="4.8119">
        <ele>193.8</ele>
        <time>2013-05-01T04:52:49.000Z</time>
      </trkpt>
      <trkpt lat="45.76726" lon="4.81192">
        <ele>193.3</ele>
        <time>2013-05-01T04:52:50.000Z</time>
      </trkpt>
      <trkpt lat="45.76725" lon="4.81194">
        <ele>193.4</ele>
        <time>2013-05-01T04:52:51.000Z</time>
      </trkpt>
      <trkpt lat="45.76725" lon="4.81195">
        <ele>193.5</ele>
        <time>2013-05-01T04:52:52.000Z</time>
      </trkpt>
      <trkpt lat="45.76723" lon="4.81197">
        <ele>193.8</ele>
        <time>2013-05-01T04:52:53.000Z</time>
      </trkpt>
      <trkpt lat="45.76722" lon="4.81198">
        <ele>194.2</ele>
        <time>2013-05-01T04:52:54.000Z</time>
      </trkpt>
      <trkpt lat="45.7672" lon="4.81199">
        <ele>194.8</ele>
        <time>2013-05-01T04:52:55.000Z</time>
      </trkpt>
      <trkpt lat="45.76717" lon="4.81199">
        <ele>195.6</ele>
        <time>2013-05-01T04:52:56.000Z</time>
      </trkpt>
      <trkpt lat="45.76715" lon="4.812">
        <ele>196.4</ele>
        <time>2013-05-01T04:52:57.000Z</time>
      </trkpt>
      <trkpt lat="45.76712" lon="4.812">
        <ele>197.5</ele>
        <time>2013-05-01T04:52:58.000Z</time>
      </trkpt>
      <trkpt lat="45.7671" lon="4.81201">
        <ele>198.4</ele>
        <time>2013-05-01T04:52:59.000Z</time>
      </trkpt>
      <trkpt lat="45.76707" lon="4.81201">
        <ele>199.5</ele>
        <time>2013-05-01T04:53:00.000Z</time>
      </trkpt>
      <trkpt lat="45.76705" lon="4.812">
        <ele>200.7</ele>
        <time>2013-05-01T04:53:01.000Z</time>
      </trkpt>
      <trkpt lat="45.76703" lon="4.81199">
        <ele>201.7</ele>
        <time>2013-05-01T04:53:02.000Z</time>
      </trkpt>
      <trkpt lat="45.767" lon="4.81198">
        <ele>203</ele>
        <time>2013-05-01T04:53:03.000Z</time>
      </trkpt>
      <trkpt lat="45.76698" lon="4.81197">
        <ele>204.3</ele>
        <time>2013-05-01T04:53:04.000Z</time>
      </trkpt>
      <trkpt lat="45.76695" lon="4.81196">
        <ele>205.6</ele>
        <time>2013-05-01T04:53:05.000Z</time>
      </trkpt>
      <trkpt lat="45.76693" lon="4.81195">
        <ele>206.2</ele>
        <time>2013-05-01T04:53:06.000Z</time>
      </trkpt>
      <trkpt lat="45.7669" lon="4.81193">
        <ele>206.4</ele>
        <time>2013-05-01T04:53:07.000Z</time>
      </trkpt>
      <trkpt lat="45.76688" lon="4.81192">
        <ele>206.6</ele>
        <time>2013-05-01T04:53:08.000Z</time>
      </trkpt>
      <trkpt lat="45.76686" lon="4.8119">
        <ele>206.7</ele>
        <time>2013-05-01T04:53:09.000Z</time>
      </trkpt>
      <trkpt lat="45.76685" lon="4.81189">
        <ele>206.8</ele>
        <time>2013-05-01T04:53:10.000Z</time>
      </trkpt>
      <trkpt lat="45.76684" lon="4.81187">
        <ele>206.9</ele>
        <time>2013-05-01T04:53:11.000Z</time>
      </trkpt>
      <trkpt lat="45.76682" lon="4.81185">
        <ele>207</ele>
        <time>2013-05-01T04:53:12.000Z</time>
      </trkpt>
      <trkpt lat="45.76681" lon="4.81183">
        <ele>207.1</ele>
        <time>2013-05-01T04:53:13.000Z</time>
      </trkpt>
      <trkpt lat="45.76679" lon="4.81181">
        <ele>207.2</ele>
        <time>2013-05-01T04:53:14.000Z</time>
      </trkpt>
      <trkpt lat="45.76679" lon="4.81179">
        <ele>207.2</ele>
        <time>2013-05-01T04:53:15.000Z</time>
      </trkpt>
      <trkpt lat="45.76678" lon="4.81177">
        <ele>207.2</ele>
        <time>2013-05-01T04:53:16.000Z</time>
      </trkpt>
      <trkpt lat="45.76677" lon="4.81173">
        <ele>207.1</ele>
        <time>2013-05-01T04:53:17.000Z</time>
      </trkpt>
      <trkpt lat="45.76677" lon="4.8117">
        <ele>207</ele>
        <time>2013-05-01T04:53:18.000Z</time>
      </trkpt>
      <trkpt lat="45.76677" lon="4.81166">
        <ele>207</ele>
        <time>2013-05-01T04:53:19.000Z</time>
      </trkpt>
      <trkpt lat="45.76677" lon="4.81164">
        <ele>207.3</ele>
        <time>2013-05-01T04:53:20.000Z</time>
      </trkpt>
      <trkpt lat="45.76677" lon="4.81162">
        <ele>207.6</ele>
        <time>2013-05-01T04:53:21.000Z</time>
      </trkpt>
      <trkpt lat="45.76678" lon="4.81159">
        <ele>207.8</ele>
        <time>2013-05-01T04:53:22.000Z</time>
      </trkpt>
      <trkpt lat="45.76678" lon="4.81157">
        <ele>208.1</ele>
        <time>2013-05-01T04:53:23.000Z</time>
      </trkpt>
      <trkpt lat="45.7668" lon="4.81154">
        <ele>208.2</ele>
        <time>2013-05-01T04:53:24.000Z</time>
      </trkpt>
      <trkpt lat="45.76681" lon="4.81152">
        <ele>208.4</ele>
        <time>2013-05-01T04:53:25.000Z</time>
      </trkpt>
      <trkpt lat="45.76682" lon="4.81149">
        <ele>208.5</ele>
        <time>2013-05-01T04:53:26.000Z</time>
      </trkpt>
      <trkpt lat="45.76682" lon="4.81147">
        <ele>208.7</ele>
        <time>2013-05-01T04:53:27.000Z</time>
      </trkpt>
      <trkpt lat="45.76684" lon="4.81144">
        <ele>208.7</ele>
        <time>2013-05-01T04:53:28.000Z</time>
      </trkpt>
      <trkpt lat="45.76685" lon="4.81142">
        <ele>208.7</ele>
        <time>2013-05-01T04:53:29.000Z</time>
      </trkpt>
      <trkpt lat="45.76687" lon="4.8114">
        <ele>208.6</ele>
        <time>2013-05-01T04:53:30.000Z</time>
      </trkpt>
      <trkpt lat="45.76688" lon="4.81138">
        <ele>208.6</ele>
        <time>2013-05-01T04:53:31.000Z</time>
      </trkpt>
      <trkpt lat="45.7669" lon="4.81136">
        <ele>208.6</ele>
        <time>2013-05-01T04:53:32.000Z</time>
      </trkpt>
      <trkpt lat="45.76691" lon="4.81134">
        <ele>208.5</ele>
        <time>2013-05-01T04:53:33.000Z</time>
      </trkpt>
      <trkpt lat="45.76693" lon="4.81133">
        <ele>208.5</ele>
        <time>2013-05-01T04:53:34.000Z</time>
      </trkpt>
      <trkpt lat="45.76695" lon="4.81131">
        <ele>208.3</ele>
        <time>2013-05-01T04:53:35.000Z</time>
      </trkpt>
      <trkpt lat="45.76697" lon="4.8113">
        <ele>208.2</ele>
        <time>2013-05-01T04:53:36.000Z</time>
      </trkpt>
      <trkpt lat="45.76698" lon="4.81128">
        <ele>208.2</ele>
        <time>2013-05-01T04:53:37.000Z</time>
      </trkpt>
      <trkpt lat="45.767" lon="4.81126">
        <ele>208.2</ele>
        <time>2013-05-01T04:53:38.000Z</time>
      </trkpt>
      <trkpt lat="45.76702" lon="4.81124">
        <ele>208.2</ele>
        <time>2013-05-01T04:53:39.000Z</time>
      </trkpt>
      <trkpt lat="45.76704" lon="4.81123">
        <ele>208</ele>
        <time>2013-05-01T04:53:40.000Z</time>
      </trkpt>
      <trkpt lat="45.76706" lon="4.81121">
        <ele>208</ele>
        <time>2013-05-01T04:53:41.000Z</time>
      </trkpt>
      <trkpt lat="45.76708" lon="4.81118">
        <ele>208.2</ele>
        <time>2013-05-01T04:53:42.000Z</time>
      </trkpt>
      <trkpt lat="45.7671" lon="4.81116">
        <ele>208.5</ele>
        <time>2013-05-01T04:53:43.000Z</time>
      </trkpt>
      <trkpt lat="45.76712" lon="4.81114">
        <ele>208.8</ele>
        <time>2013-05-01T04:53:44.000Z</time>
      </trkpt>
      <trkpt lat="45.76713" lon="4.81112">
        <ele>209.2</ele>
        <time>2013-05-01T04:53:45.000Z</time>
      </trkpt>
      <trkpt lat="45.76715" lon="4.81109">
        <ele>209.5</ele>
        <time>2013-05-01T04:53:46.000Z</time>
      </trkpt>
      <trkpt lat="45.76717" lon="4.81107">
        <ele>209.7</ele>
        <time>2013-05-01T04:53:47.000Z</time>
      </trkpt>
      <trkpt lat="45.76718" lon="4.81105">
        <ele>210</ele>
        <time>2013-05-01T04:53:48.000Z</time>
      </trkpt>
      <trkpt lat="45.7672" lon="4.81102">
        <ele>210.4</ele>
        <time>2013-05-01T04:53:49.000Z</time>
      </trkpt>
      <trkpt lat="45.76721" lon="4.811">
        <ele>210.7</ele>
        <time>2013-05-01T04:53:50.000Z</time>
      </trkpt>
      <trkpt lat="45.76723" lon="4.81098">
        <ele>210.9</ele>
        <time>2013-05-01T04:53:51.000Z</time>
      </trkpt>
      <trkpt lat="45.76724" lon="4.81095">
        <ele>211.1</ele>
        <time>2013-05-01T04:53:52.000Z</time>
      </trkpt>
      <trkpt lat="45.76726" lon="4.81093">
        <ele>211.4</ele>
        <time>2013-05-01T04:53:53.000Z</time>
      </trkpt>
      <trkpt lat="45.76727" lon="4.81091">
        <ele>211.7</ele>
        <time>2013-05-01T04:53:54.000Z</time>
      </trkpt>
      <trkpt lat="45.76729" lon="4.81089">
        <ele>212</ele>
        <time>2013-05-01T04:53:55.000Z</time>
      </trkpt>
      <trkpt lat="45.7673" lon="4.81087">
        <ele>212.3</ele>
        <time>2013-05-01T04:53:56.000Z</time>
      </trkpt>
      <trkpt lat="45.76732" lon="4.81084">
        <ele>212.7</ele>
        <time>2013-05-01T04:53:57.000Z</time>
      </trkpt>
      <trkpt lat="45.76734" lon="4.81082">
        <ele>213</ele>
        <time>2013-05-01T04:53:58.000Z</time>
      </trkpt>
      <trkpt lat="45.76735" lon="4.8108">
        <ele>213.4</ele>
        <time>2013-05-01T04:53:59.000Z</time>
      </trkpt>
      <trkpt lat="45.76737" lon="4.81078">
        <ele>213.6</ele>
        <time>2013-05-01T04:54:00.000Z</time>
      </trkpt>
      <trkpt lat="45.76739" lon="4.81076">
        <ele>213.8</ele>
        <time>2013-05-01T04:54:01.000Z</time>
      </trkpt>
      <trkpt lat="45.76741" lon="4.81075">
        <ele>213.9</ele>
        <time>2013-05-01T04:54:02.000Z</time>
      </trkpt>
      <trkpt lat="45.76742" lon="4.81073">
        <ele>214.1</ele>
        <time>2013-05-01T04:54:03.000Z</time>
      </trkpt>
      <trkpt lat="45.76744" lon="4.81071">
        <ele>214.3</ele>
        <time>2013-05-01T04:54:04.000Z</time>
      </trkpt>
      <trkpt lat="45.76746" lon="4.81069">
        <ele>214.5</ele>
        <time>2013-05-01T04:54:05.000Z</time>
      </trkpt>
      <trkpt lat="45.76747" lon="4.81068">
        <ele>214.6</ele>
        <time>2013-05-01T04:54:06.000Z</time>
      </trkpt>
      <trkpt lat="45.76749" lon="4.81067">
        <ele>214.7</ele>
        <time>2013-05-01T04:54:07.000Z</time>
      </trkpt>
      <trkpt lat="45.76751" lon="4.81065">
        <ele>214.9</ele>
        <time>2013-05-01T04:54:08.000Z</time>
      </trkpt>
      <trkpt lat="45.76752" lon="4.81065">
        <ele>215</ele>
        <time>2013-05-01T04:54:09.000Z</time>
      </trkpt>
      <trkpt lat="45.76754" lon="4.81064">
        <ele>215.2</ele>
        <time>2013-05-01T04:54:10.000Z</time>
      </trkpt>
      <trkpt lat="45.76756" lon="4.81062">
        <ele>215.4</ele>
        <time>2013-05-01T04:54:11.000Z</time>
      </trkpt>
      <trkpt lat="45.76758" lon="4.81061">
        <ele>215.6</ele>
        <time>2013-05-01T04:54:12.000Z</time>
      </trkpt>
      <trkpt lat="45.7676" lon="4.8106">
        <ele>215.9</ele>
        <time>2013-05-01T04:54:13.000Z</time>
      </trkpt>
      <trkpt lat="45.76762" lon="4.8106">
        <ele>216</ele>
        <time>2013-05-01T04:54:14.000Z</time>
      </trkpt>
      <trkpt lat="45.76763" lon="4.81059">
        <ele>216.2</ele>
        <time>2013-05-01T04:54:15.000Z</time>
      </trkpt>
      <trkpt lat="45.76765" lon="4.81058">
        <ele>216.4</ele>
        <time>2013-05-01T04:54:16.000Z</time>
      </trkpt>
      <trkpt lat="45.76767" lon="4.81058">
        <ele>216.5</ele>
        <time>2013-05-01T04:54:17.000Z</time>
      </trkpt>
      <trkpt lat="45.76769" lon="4.81057">
        <ele>216.7</ele>
        <time>2013-05-01T04:54:18.000Z</time>
      </trkpt>
      <trkpt lat="45.76771" lon="4.81056">
        <ele>217</ele>
        <time>2013-05-01T04:54:19.000Z</time>
      </trkpt>
      <trkpt lat="45.76773" lon="4.81054">
        <ele>217.5</ele>
        <time>2013-05-01T04:54:20.000Z</time>
      </trkpt>
      <trkpt lat="45.76774" lon="4.81053">
        <ele>217.9</ele>
        <time>2013-05-01T04:54:21.000Z</time>
      </trkpt>
      <trkpt lat="45.76776" lon="4.81052">
        <ele>218.3</ele>
        <time>2013-05-01T04:54:22.000Z</time>
      </trkpt>
      <trkpt lat="45.76778" lon="4.8105">
        <ele>218.7</ele>
        <time>2013-05-01T04:54:23.000Z</time>
      </trkpt>
      <trkpt lat="45.7678" lon="4.81049">
        <ele>219</ele>
        <time>2013-05-01T04:54:24.000Z</time>
      </trkpt>
      <trkpt lat="45.76781" lon="4.81047">
        <ele>219.4</ele>
        <time>2013-05-01T04:54:25.000Z</time>
      </trkpt>
      <trkpt lat="45.76783" lon="4.81046">
        <ele>219.7</ele>
        <time>2013-05-01T04:54:26.000Z</time>
      </trkpt>
      <trkpt lat="45.76785" lon="4.81044">
        <ele>220.2</ele>
        <time>2013-05-01T04:54:27.000Z</time>
      </trkpt>
      <trkpt lat="45.76786" lon="4.81043">
        <ele>220.4</ele>
        <time>2013-05-01T04:54:28.000Z</time>
      </trkpt>
      <trkpt lat="45.76788" lon="4.81041">
        <ele>220.8</ele>
        <time>2013-05-01T04:54:29.000Z</time>
      </trkpt>
      <trkpt lat="45.7679" lon="4.81039">
        <ele>221.1</ele>
        <time>2013-05-01T04:54:30.000Z</time>
      </trkpt>
      <trkpt lat="45.76791" lon="4.81038">
        <ele>221.5</ele>
        <time>2013-05-01T04:54:31.000Z</time>
      </trkpt>
      <trkpt lat="45.76793" lon="4.81036">
        <ele>221.9</ele>
        <time>2013-05-01T04:54:32.000Z</time>
      </trkpt>
      <trkpt lat="45.76795" lon="4.81034">
        <ele>222.3</ele>
        <time>2013-05-01T04:54:33.000Z</time>
      </trkpt>
      <trkpt lat="45.76796" lon="4.81032">
        <ele>222.7</ele>
        <time>2013-05-01T04:54:34.000Z</time>
      </trkpt>
      <trkpt lat="45.76798" lon="4.81031">
        <ele>222.9</ele>
        <time>2013-05-01T04:54:35.000Z</time>
      </trkpt>
      <trkpt lat="45.76799" lon="4.8103">
        <ele>223.2</ele>
        <time>2013-05-01T04:54:36.000Z</time>
      </trkpt>
      <trkpt lat="45.76802" lon="4.81028">
        <ele>223.4</ele>
        <time>2013-05-01T04:54:37.000Z</time>
      </trkpt>
      <trkpt lat="45.76804" lon="4.81027">
        <ele>223.7</ele>
        <time>2013-05-01T04:54:38.000Z</time>
      </trkpt>
      <trkpt lat="45.76806" lon="4.81025">
        <ele>224.1</ele>
        <time>2013-05-01T04:54:39.000Z</time>
      </trkpt>
      <trkpt lat="45.76808" lon="4.81025">
        <ele>224.2</ele>
        <time>2013-05-01T04:54:40.000Z</time>
      </trkpt>
      <trkpt lat="45.7681" lon="4.81023">
        <ele>224.6</ele>
        <time>2013-05-01T04:54:41.000Z</time>
      </trkpt>
      <trkpt lat="45.76812" lon="4.81022">
        <ele>224.8</ele>
        <time>2013-05-01T04:54:42.000Z</time>
      </trkpt>
      <trkpt lat="45.76814" lon="4.81021">
        <ele>225.2</ele>
        <time>2013-05-01T04:54:43.000Z</time>
      </trkpt>
      <trkpt lat="45.76816" lon="4.8102">
        <ele>225.6</ele>
        <time>2013-05-01T04:54:44.000Z</time>
      </trkpt>
      <trkpt lat="45.76818" lon="4.81019">
        <ele>225.9</ele>
        <time>2013-05-01T04:54:45.000Z</time>
      </trkpt>
      <trkpt lat="45.7682" lon="4.81018">
        <ele>226.2</ele>
        <time>2013-05-01T04:54:46.000Z</time>
      </trkpt>
      <trkpt lat="45.76822" lon="4.81016">
        <ele>226.5</ele>
        <time>2013-05-01T04:54:47.000Z</time>
      </trkpt>
      <trkpt lat="45.76824" lon="4.81015">
        <ele>226.9</ele>
        <time>2013-05-01T04:54:48.000Z</time>
      </trkpt>
      <trkpt lat="45.76827" lon="4.81014">
        <ele>227.3</ele>
        <time>2013-05-01T04:54:49.000Z</time>
      </trkpt>
      <trkpt lat="45.76829" lon="4.81013">
        <ele>227.5</ele>
        <time>2013-05-01T04:54:50.000Z</time>
      </trkpt>
      <trkpt lat="45.76831" lon="4.81012">
        <ele>227.5</ele>
        <time>2013-05-01T04:54:51.000Z</time>
      </trkpt>
      <trkpt lat="45.76833" lon="4.81011">
        <ele>227.6</ele>
        <time>2013-05-01T04:54:52.000Z</time>
      </trkpt>
      <trkpt lat="45.76836" lon="4.8101">
        <ele>227.9</ele>
        <time>2013-05-01T04:54:53.000Z</time>
      </trkpt>
      <trkpt lat="45.76838" lon="4.8101">
        <ele>228.1</ele>
        <time>2013-05-01T04:54:54.000Z</time>
      </trkpt>
      <trkpt lat="45.7684" lon="4.8101">
        <ele>228.2</ele>
        <time>2013-05-01T04:54:55.000Z</time>
      </trkpt>
      <trkpt lat="45.76842" lon="4.8101">
        <ele>228.1</ele>
        <time>2013-05-01T04:54:56.000Z</time>
      </trkpt>
      <trkpt lat="45.76845" lon="4.8101">
        <ele>228.1</ele>
        <time>2013-05-01T04:54:57.000Z</time>
      </trkpt>
      <trkpt lat="45.76847" lon="4.81009">
        <ele>228.4</ele>
        <time>2013-05-01T04:54:58.000Z</time>
      </trkpt>
      <trkpt lat="45.76849" lon="4.81009">
        <ele>228.5</ele>
        <time>2013-05-01T04:54:59.000Z</time>
      </trkpt>
      <trkpt lat="45.76851" lon="4.81009">
        <ele>228.5</ele>
        <time>2013-05-01T04:55:00.000Z</time>
      </trkpt>
      <trkpt lat="45.76853" lon="4.81009">
        <ele>228.4</ele>
        <time>2013-05-01T04:55:01.000Z</time>
      </trkpt>
      <trkpt lat="45.76855" lon="4.81009">
        <ele>228.4</ele>
        <time>2013-05-01T04:55:02.000Z</time>
      </trkpt>
      <trkpt lat="45.76857" lon="4.81009">
        <ele>228.4</ele>
        <time>2013-05-01T04:55:03.000Z</time>
      </trkpt>
      <trkpt lat="45.7686" lon="4.8101">
        <ele>228.3</ele>
        <time>2013-05-01T04:55:04.000Z</time>
      </trkpt>
      <trkpt lat="45.76862" lon="4.8101">
        <ele>228.3</ele>
        <time>2013-05-01T04:55:05.000Z</time>
      </trkpt>
      <trkpt lat="45.76864" lon="4.8101">
        <ele>228.3</ele>
        <time>2013-05-01T04:55:06.000Z</time>
      </trkpt>
      <trkpt lat="45.76866" lon="4.8101">
        <ele>228.5</ele>
        <time>2013-05-01T04:55:07.000Z</time>
      </trkpt>
      <trkpt lat="45.76868" lon="4.81011">
        <ele>228.5</ele>
        <time>2013-05-01T04:55:08.000Z</time>
      </trkpt>
      <trkpt lat="45.76871" lon="4.81012">
        <ele>228.5</ele>
        <time>2013-05-01T04:55:09.000Z</time>
      </trkpt>
      <trkpt lat="45.76873" lon="4.81012">
        <ele>228.6</ele>
        <time>2013-05-01T04:55:10.000Z</time>
      </trkpt>
      <trkpt lat="45.76874" lon="4.81014">
        <ele>228.5</ele>
        <time>2013-05-01T04:55:11.000Z</time>
      </trkpt>
      <trkpt lat="45.76876" lon="4.81015">
        <ele>228.4</ele>
        <time>2013-05-01T04:55:12.000Z</time>
      </trkpt>
      <trkpt lat="45.76878" lon="4.81016">
        <ele>228.5</ele>
        <time>2013-05-01T04:55:13.000Z</time>
      </trkpt>
      <trkpt lat="45.7688" lon="4.81017">
        <ele>228.5</ele>
        <time>2013-05-01T04:55:14.000Z</time>
      </trkpt>
      <trkpt lat="45.76882" lon="4.81018">
        <ele>228.6</ele>
        <time>2013-05-01T04:55:15.000Z</time>
      </trkpt>
      <trkpt lat="45.76884" lon="4.81018">
        <ele>228.8</ele>
        <time>2013-05-01T04:55:16.000Z</time>
      </trkpt>
      <trkpt lat="45.76886" lon="4.8102">
        <ele>228.8</ele>
        <time>2013-05-01T04:55:17.000Z</time>
      </trkpt>
      <trkpt lat="45.76889" lon="4.81021">
        <ele>229</ele>
        <time>2013-05-01T04:55:18.000Z</time>
      </trkpt>
      <trkpt lat="45.76891" lon="4.81022">
        <ele>228.8</ele>
        <time>2013-05-01T04:55:19.000Z</time>
      </trkpt>
      <trkpt lat="45.76893" lon="4.81023">
        <ele>228.7</ele>
        <time>2013-05-01T04:55:20.000Z</time>
      </trkpt>
      <trkpt lat="45.76896" lon="4.81023">
        <ele>228.6</ele>
        <time>2013-05-01T04:55:21.000Z</time>
      </trkpt>
      <trkpt lat="45.76898" lon="4.81023">
        <ele>228.6</ele>
        <time>2013-05-01T04:55:22.000Z</time>
      </trkpt>
      <trkpt lat="45.769" lon="4.81021">
        <ele>228.7</ele>
        <time>2013-05-01T04:55:23.000Z</time>
      </trkpt>
      <trkpt lat="45.76902" lon="4.8102">
        <ele>228.7</ele>
        <time>2013-05-01T04:55:24.000Z</time>
      </trkpt>
      <trkpt lat="45.76904" lon="4.81018">
        <ele>228.8</ele>
        <time>2013-05-01T04:55:25.000Z</time>
      </trkpt>
      <trkpt lat="45.76906" lon="4.81017">
        <ele>228.8</ele>
        <time>2013-05-01T04:55:26.000Z</time>
      </trkpt>
      <trkpt lat="45.76908" lon="4.81016">
        <ele>228.8</ele>
        <time>2013-05-01T04:55:27.000Z</time>
      </trkpt>
      <trkpt lat="45.76909" lon="4.81015">
        <ele>228.8</ele>
        <time>2013-05-01T04:55:28.000Z</time>
      </trkpt>
      <trkpt lat="45.76911" lon="4.81013">
        <ele>228.9</ele>
        <time>2013-05-01T04:55:29.000Z</time>
      </trkpt>
      <trkpt lat="45.76912" lon="4.8101">
        <ele>229</ele>
        <time>2013-05-01T04:55:30.000Z</time>
      </trkpt>
      <trkpt lat="45.76913" lon="4.81007">
        <ele>229</ele>
        <time>2013-05-01T04:55:31.000Z</time>
      </trkpt>
      <trkpt lat="45.76914" lon="4.81004">
        <ele>229.1</ele>
        <time>2013-05-01T04:55:32.000Z</time>
      </trkpt>
      <trkpt lat="45.76914" lon="4.81002">
        <ele>229.2</ele>
        <time>2013-05-01T04:55:33.000Z</time>
      </trkpt>
      <trkpt lat="45.76914" lon="4.81">
        <ele>229.4</ele>
        <time>2013-05-01T04:55:34.000Z</time>
      </trkpt>
      <trkpt lat="45.76913" lon="4.80997">
        <ele>229.5</ele>
        <time>2013-05-01T04:55:35.000Z</time>
      </trkpt>
      <trkpt lat="45.76912" lon="4.80994">
        <ele>229.7</ele>
        <time>2013-05-01T04:55:36.000Z</time>
      </trkpt>
      <trkpt lat="45.76911" lon="4.80992">
        <ele>229.9</ele>
        <time>2013-05-01T04:55:37.000Z</time>
      </trkpt>
      <trkpt lat="45.76909" lon="4.80989">
        <ele>230.1</ele>
        <time>2013-05-01T04:55:38.000Z</time>
      </trkpt>
      <trkpt lat="45.76908" lon="4.80987">
        <ele>230.3</ele>
        <time>2013-05-01T04:55:39.000Z</time>
      </trkpt>
      <trkpt lat="45.76906" lon="4.80985">
        <ele>230.5</ele>
        <time>2013-05-01T04:55:40.000Z</time>
      </trkpt>
      <trkpt lat="45.76904" lon="4.80983">
        <ele>230.7</ele>
        <time>2013-05-01T04:55:41.000Z</time>
      </trkpt>
      <trkpt lat="45.76903" lon="4.80981">
        <ele>230.8</ele>
        <time>2013-05-01T04:55:42.000Z</time>
      </trkpt>
      <trkpt lat="45.76902" lon="4.80979">
        <ele>231</ele>
        <time>2013-05-01T04:55:43.000Z</time>
      </trkpt>
      <trkpt lat="45.769" lon="4.80978">
        <ele>231.1</ele>
        <time>2013-05-01T04:55:44.000Z</time>
      </trkpt>
      <trkpt lat="45.76899" lon="4.80977">
        <ele>231.2</ele>
        <time>2013-05-01T04:55:45.000Z</time>
      </trkpt>
      <trkpt lat="45.76897" lon="4.80976">
        <ele>231.4</ele>
        <time>2013-05-01T04:55:46.000Z</time>
      </trkpt>
      <trkpt lat="45.76896" lon="4.80974">
        <ele>231.5</ele>
        <time>2013-05-01T04:55:47.000Z</time>
      </trkpt>
      <trkpt lat="45.76894" lon="4.80972">
        <ele>231.6</ele>
        <time>2013-05-01T04:55:48.000Z</time>
      </trkpt>
      <trkpt lat="45.76892" lon="4.80971">
        <ele>231.8</ele>
        <time>2013-05-01T04:55:49.000Z</time>
      </trkpt>
      <trkpt lat="45.76891" lon="4.8097">
        <ele>231.8</ele>
        <time>2013-05-01T04:55:50.000Z</time>
      </trkpt>
      <trkpt lat="45.7689" lon="4.80969">
        <ele>231.9</ele>
        <time>2013-05-01T04:55:51.000Z</time>
      </trkpt>
      <trkpt lat="45.76888" lon="4.80968">
        <ele>232</ele>
        <time>2013-05-01T04:55:52.000Z</time>
      </trkpt>
      <trkpt lat="45.76887" lon="4.80967">
        <ele>232.2</ele>
        <time>2013-05-01T04:55:53.000Z</time>
      </trkpt>
      <trkpt lat="45.76885" lon="4.80966">
        <ele>232.3</ele>
        <time>2013-05-01T04:55:54.000Z</time>
      </trkpt>
      <trkpt lat="45.76884" lon="4.80965">
        <ele>232.4</ele>
        <time>2013-05-01T04:55:55.000Z</time>
      </trkpt>
      <trkpt lat="45.76882" lon="4.80964">
        <ele>232.5</ele>
        <time>2013-05-01T04:55:56.000Z</time>
      </trkpt>
      <trkpt lat="45.7688" lon="4.80964">
        <ele>232.7</ele>
        <time>2013-05-01T04:55:57.000Z</time>
      </trkpt>
      <trkpt lat="45.76877" lon="4.80964">
        <ele>232.8</ele>
        <time>2013-05-01T04:55:58.000Z</time>
      </trkpt>
      <trkpt lat="45.76875" lon="4.80964">
        <ele>233</ele>
        <time>2013-05-01T04:55:59.000Z</time>
      </trkpt>
      <trkpt lat="45.76873" lon="4.80964">
        <ele>233.2</ele>
        <time>2013-05-01T04:56:00.000Z</time>
      </trkpt>
      <trkpt lat="45.76871" lon="4.80964">
        <ele>233.3</ele>
        <time>2013-05-01T04:56:01.000Z</time>
      </trkpt>
      <trkpt lat="45.76868" lon="4.80964">
        <ele>233.5</ele>
        <time>2013-05-01T04:56:02.000Z</time>
      </trkpt>
      <trkpt lat="45.76866" lon="4.80964">
        <ele>233.6</ele>
        <time>2013-05-01T04:56:03.000Z</time>
      </trkpt>
      <trkpt lat="45.76864" lon="4.80964">
        <ele>233.8</ele>
        <time>2013-05-01T04:56:04.000Z</time>
      </trkpt>
      <trkpt lat="45.76862" lon="4.80964">
        <ele>234</ele>
        <time>2013-05-01T04:56:05.000Z</time>
      </trkpt>
      <trkpt lat="45.76859" lon="4.80964">
        <ele>234.1</ele>
        <time>2013-05-01T04:56:06.000Z</time>
      </trkpt>
      <trkpt lat="45.76857" lon="4.80964">
        <ele>234.3</ele>
        <time>2013-05-01T04:56:07.000Z</time>
      </trkpt>
      <trkpt lat="45.76855" lon="4.80965">
        <ele>234.4</ele>
        <time>2013-05-01T04:56:08.000Z</time>
      </trkpt>
      <trkpt lat="45.76853" lon="4.80967">
        <ele>234.6</ele>
        <time>2013-05-01T04:56:09.000Z</time>
      </trkpt>
      <trkpt lat="45.7685" lon="4.80967">
        <ele>234.8</ele>
        <time>2013-05-01T04:56:10.000Z</time>
      </trkpt>
      <trkpt lat="45.76848" lon="4.80968">
        <ele>235</ele>
        <time>2013-05-01T04:56:11.000Z</time>
      </trkpt>
      <trkpt lat="45.76845" lon="4.80968">
        <ele>235.2</ele>
        <time>2013-05-01T04:56:12.000Z</time>
      </trkpt>
      <trkpt lat="45.76843" lon="4.80967">
        <ele>235.3</ele>
        <time>2013-05-01T04:56:13.000Z</time>
      </trkpt>
      <trkpt lat="45.7684" lon="4.80967">
        <ele>235.5</ele>
        <time>2013-05-01T04:56:14.000Z</time>
      </trkpt>
      <trkpt lat="45.76838" lon="4.80967">
        <ele>235.7</ele>
        <time>2013-05-01T04:56:15.000Z</time>
      </trkpt>
      <trkpt lat="45.76836" lon="4.80967">
        <ele>235.8</ele>
        <time>2013-05-01T04:56:16.000Z</time>
      </trkpt>
      <trkpt lat="45.76833" lon="4.80967">
        <ele>236</ele>
        <time>2013-05-01T04:56:17.000Z</time>
      </trkpt>
      <trkpt lat="45.76832" lon="4.80966">
        <ele>236.1</ele>
        <time>2013-05-01T04:56:18.000Z</time>
      </trkpt>
      <trkpt lat="45.7683" lon="4.80965">
        <ele>236.2</ele>
        <time>2013-05-01T04:56:19.000Z</time>
      </trkpt>
      <trkpt lat="45.76829" lon="4.80963">
        <ele>236.3</ele>
        <time>2013-05-01T04:56:20.000Z</time>
      </trkpt>
      <trkpt lat="45.76828" lon="4.80962">
        <ele>236.4</ele>
        <time>2013-05-01T04:56:21.000Z</time>
      </trkpt>
      <trkpt lat="45.76826" lon="4.80961">
        <ele>236.5</ele>
        <time>2013-05-01T04:56:22.000Z</time>
      </trkpt>
      <trkpt lat="45.76825" lon="4.8096">
        <ele>236.6</ele>
        <time>2013-05-01T04:56:23.000Z</time>
      </trkpt>
      <trkpt lat="45.76823" lon="4.80958">
        <ele>236.7</ele>
        <time>2013-05-01T04:56:24.000Z</time>
      </trkpt>
      <trkpt lat="45.76821" lon="4.80957">
        <ele>236.9</ele>
        <time>2013-05-01T04:56:25.000Z</time>
      </trkpt>
      <trkpt lat="45.76819" lon="4.80957">
        <ele>237</ele>
        <time>2013-05-01T04:56:26.000Z</time>
      </trkpt>
      <trkpt lat="45.76817" lon="4.80956">
        <ele>237.2</ele>
        <time>2013-05-01T04:56:27.000Z</time>
      </trkpt>
      <trkpt lat="45.76814" lon="4.80956">
        <ele>237.4</ele>
        <time>2013-05-01T04:56:28.000Z</time>
      </trkpt>
      <trkpt lat="45.76812" lon="4.80956">
        <ele>237.5</ele>
        <time>2013-05-01T04:56:29.000Z</time>
      </trkpt>
      <trkpt lat="45.7681" lon="4.80956">
        <ele>237.7</ele>
        <time>2013-05-01T04:56:30.000Z</time>
      </trkpt>
      <trkpt lat="45.76807" lon="4.80957">
        <ele>237.9</ele>
        <time>2013-05-01T04:56:31.000Z</time>
      </trkpt>
      <trkpt lat="45.76805" lon="4.80957">
        <ele>238.1</ele>
        <time>2013-05-01T04:56:32.000Z</time>
      </trkpt>
      <trkpt lat="45.76803" lon="4.80956">
        <ele>238.2</ele>
        <time>2013-05-01T04:56:33.000Z</time>
      </trkpt>
      <trkpt lat="45.768" lon="4.80956">
        <ele>238.4</ele>
        <time>2013-05-01T04:56:34.000Z</time>
      </trkpt>
      <trkpt lat="45.76798" lon="4.80956">
        <ele>238.6</ele>
        <time>2013-05-01T04:56:35.000Z</time>
      </trkpt>
      <trkpt lat="45.76795" lon="4.80956">
        <ele>238.7</ele>
        <time>2013-05-01T04:56:36.000Z</time>
      </trkpt>
      <trkpt lat="45.76793" lon="4.80956">
        <ele>238.9</ele>
        <time>2013-05-01T04:56:37.000Z</time>
      </trkpt>
      <trkpt lat="45.76791" lon="4.80957">
        <ele>239</ele>
        <time>2013-05-01T04:56:38.000Z</time>
      </trkpt>
      <trkpt lat="45.76789" lon="4.80957">
        <ele>239.2</ele>
        <time>2013-05-01T04:56:39.000Z</time>
      </trkpt>
      <trkpt lat="45.76786" lon="4.80957">
        <ele>239.4</ele>
        <time>2013-05-01T04:56:40.000Z</time>
      </trkpt>
      <trkpt lat="45.76784" lon="4.80957">
        <ele>239.5</ele>
        <time>2013-05-01T04:56:41.000Z</time>
      </trkpt>
      <trkpt lat="45.76783" lon="4.80955">
        <ele>239.7</ele>
        <time>2013-05-01T04:56:42.000Z</time>
      </trkpt>
      <trkpt lat="45.76781" lon="4.80954">
        <ele>239.8</ele>
        <time>2013-05-01T04:56:43.000Z</time>
      </trkpt>
      <trkpt lat="45.76779" lon="4.80953">
        <ele>239.9</ele>
        <time>2013-05-01T04:56:44.000Z</time>
      </trkpt>
      <trkpt lat="45.76778" lon="4.80953">
        <ele>240</ele>
        <time>2013-05-01T04:56:45.000Z</time>
      </trkpt>
      <trkpt lat="45.76775" lon="4.80952">
        <ele>240.2</ele>
        <time>2013-05-01T04:56:46.000Z</time>
      </trkpt>
      <trkpt lat="45.76773" lon="4.80952">
        <ele>240.4</ele>
        <time>2013-05-01T04:56:47.000Z</time>
      </trkpt>
      <trkpt lat="45.76771" lon="4.80952">
        <ele>240.5</ele>
        <time>2013-05-01T04:56:48.000Z</time>
      </trkpt>
      <trkpt lat="45.76768" lon="4.80952">
        <ele>240.7</ele>
        <time>2013-05-01T04:56:49.000Z</time>
      </trkpt>
      <trkpt lat="45.76766" lon="4.80952">
        <ele>240.9</ele>
        <time>2013-05-01T04:56:50.000Z</time>
      </trkpt>
      <trkpt lat="45.76764" lon="4.80952">
        <ele>241.1</ele>
        <time>2013-05-01T04:56:51.000Z</time>
      </trkpt>
      <trkpt lat="45.76762" lon="4.80951">
        <ele>241.4</ele>
        <time>2013-05-01T04:56:52.000Z</time>
      </trkpt>
      <trkpt lat="45.76759" lon="4.80951">
        <ele>241.6</ele>
        <time>2013-05-01T04:56:53.000Z</time>
      </trkpt>
      <trkpt lat="45.76757" lon="4.80951">
        <ele>241.8</ele>
        <time>2013-05-01T04:56:54.000Z</time>
      </trkpt>
      <trkpt lat="45.76755" lon="4.8095">
        <ele>242</ele>
        <time>2013-05-01T04:56:55.000Z</time>
      </trkpt>
      <trkpt lat="45.76753" lon="4.80949">
        <ele>242.3</ele>
        <time>2013-05-01T04:56:56.000Z</time>
      </trkpt>
      <trkpt lat="45.76751" lon="4.80949">
        <ele>242.5</ele>
        <time>2013-05-01T04:56:57.000Z</time>
      </trkpt>
      <trkpt lat="45.76748" lon="4.80949">
        <ele>242.6</ele>
        <time>2013-05-01T04:56:58.000Z</time>
      </trkpt>
      <trkpt lat="45.76746" lon="4.80949">
        <ele>242.8</ele>
        <time>2013-05-01T04:56:59.000Z</time>
      </trkpt>
      <trkpt lat="45.76744" lon="4.80949">
        <ele>242.9</ele>
        <time>2013-05-01T04:57:00.000Z</time>
      </trkpt>
      <trkpt lat="45.76742" lon="4.80949">
        <ele>243</ele>
        <time>2013-05-01T04:57:01.000Z</time>
      </trkpt>
      <trkpt lat="45.7674" lon="4.80948">
        <ele>243.2</ele>
        <time>2013-05-01T04:57:02.000Z</time>
      </trkpt>
      <trkpt lat="45.76738" lon="4.80948">
        <ele>243.4</ele>
        <time>2013-05-01T04:57:03.000Z</time>
      </trkpt>
      <trkpt lat="45.76735" lon="4.80948">
        <ele>243.5</ele>
        <time>2013-05-01T04:57:04.000Z</time>
      </trkpt>
      <trkpt lat="45.76733" lon="4.80948">
        <ele>243.7</ele>
        <time>2013-05-01T04:57:05.000Z</time>
      </trkpt>
      <trkpt lat="45.76731" lon="4.80949">
        <ele>243.8</ele>
        <time>2013-05-01T04:57:06.000Z</time>
      </trkpt>
      <trkpt lat="45.76728" lon="4.80949">
        <ele>243.9</ele>
        <time>2013-05-01T04:57:07.000Z</time>
      </trkpt>
      <trkpt lat="45.76726" lon="4.8095">
        <ele>243.8</ele>
        <time>2013-05-01T04:57:08.000Z</time>
      </trkpt>
      <trkpt lat="45.76724" lon="4.8095">
        <ele>243.9</ele>
        <time>2013-05-01T04:57:09.000Z</time>
      </trkpt>
      <trkpt lat="45.76722" lon="4.8095">
        <ele>244.1</ele>
        <time>2013-05-01T04:57:10.000Z</time>
      </trkpt>
      <trkpt lat="45.76719" lon="4.8095">
        <ele>244.2</ele>
        <time>2013-05-01T04:57:11.000Z</time>
      </trkpt>
      <trkpt lat="45.76718" lon="4.8095">
        <ele>244.3</ele>
        <time>2013-05-01T04:57:12.000Z</time>
      </trkpt>
      <trkpt lat="45.76716" lon="4.8095">
        <ele>244.3</ele>
        <time>2013-05-01T04:57:13.000Z</time>
      </trkpt>
      <trkpt lat="45.76714" lon="4.80951">
        <ele>244.4</ele>
        <time>2013-05-01T04:57:14.000Z</time>
      </trkpt>
      <trkpt lat="45.76712" lon="4.80951">
        <ele>244.4</ele>
        <time>2013-05-01T04:57:15.000Z</time>
      </trkpt>
      <trkpt lat="45.7671" lon="4.80951">
        <ele>244.6</ele>
        <time>2013-05-01T04:57:16.000Z</time>
      </trkpt>
      <trkpt lat="45.76708" lon="4.8095">
        <ele>244.9</ele>
        <time>2013-05-01T04:57:17.000Z</time>
      </trkpt>
      <trkpt lat="45.76706" lon="4.8095">
        <ele>245</ele>
        <time>2013-05-01T04:57:18.000Z</time>
      </trkpt>
      <trkpt lat="45.76704" lon="4.80949">
        <ele>245.2</ele>
        <time>2013-05-01T04:57:19.000Z</time>
      </trkpt>
      <trkpt lat="45.76702" lon="4.80949">
        <ele>245.4</ele>
        <time>2013-05-01T04:57:20.000Z</time>
      </trkpt>
      <trkpt lat="45.76701" lon="4.80949">
        <ele>245.6</ele>
        <time>2013-05-01T04:57:21.000Z</time>
      </trkpt>
      <trkpt lat="45.76699" lon="4.80949">
        <ele>245.6</ele>
        <time>2013-05-01T04:57:22.000Z</time>
      </trkpt>
      <trkpt lat="45.76697" lon="4.80949">
        <ele>245.7</ele>
        <time>2013-05-01T04:57:23.000Z</time>
      </trkpt>
      <trkpt lat="45.76695" lon="4.80949">
        <ele>245.9</ele>
        <time>2013-05-01T04:57:24.000Z</time>
      </trkpt>
      <trkpt lat="45.76693" lon="4.80949">
        <ele>246.1</ele>
        <time>2013-05-01T04:57:25.000Z</time>
      </trkpt>
      <trkpt lat="45.76691" lon="4.80949">
        <ele>246.3</ele>
        <time>2013-05-01T04:57:26.000Z</time>
      </trkpt>
      <trkpt lat="45.76689" lon="4.80949">
        <ele>246.3</ele>
        <time>2013-05-01T04:57:27.000Z</time>
      </trkpt>
      <trkpt lat="45.76687" lon="4.8095">
        <ele>246.4</ele>
        <time>2013-05-01T04:57:28.000Z</time>
      </trkpt>
      <trkpt lat="45.76685" lon="4.8095">
        <ele>246.5</ele>
        <time>2013-05-01T04:57:29.000Z</time>
      </trkpt>
      <trkpt lat="45.76683" lon="4.8095">
        <ele>246.7</ele>
        <time>2013-05-01T04:57:30.000Z</time>
      </trkpt>
      <trkpt lat="45.76681" lon="4.80951">
        <ele>246.8</ele>
        <time>2013-05-01T04:57:31.000Z</time>
      </trkpt>
      <trkpt lat="45.76679" lon="4.80951">
        <ele>247</ele>
        <time>2013-05-01T04:57:32.000Z</time>
      </trkpt>
      <trkpt lat="45.76678" lon="4.80951">
        <ele>247.1</ele>
        <time>2013-05-01T04:57:33.000Z</time>
      </trkpt>
      <trkpt lat="45.76676" lon="4.80953">
        <ele>247.1</ele>
        <time>2013-05-01T04:57:34.000Z</time>
      </trkpt>
      <trkpt lat="45.76674" lon="4.80954">
        <ele>247.2</ele>
        <time>2013-05-01T04:57:35.000Z</time>
      </trkpt>
      <trkpt lat="45.76672" lon="4.80955">
        <ele>247.2</ele>
        <time>2013-05-01T04:57:36.000Z</time>
      </trkpt>
      <trkpt lat="45.76669" lon="4.80957">
        <ele>247.3</ele>
        <time>2013-05-01T04:57:37.000Z</time>
      </trkpt>
      <trkpt lat="45.76667" lon="4.80958">
        <ele>247.5</ele>
        <time>2013-05-01T04:57:38.000Z</time>
      </trkpt>
      <trkpt lat="45.76665" lon="4.80959">
        <ele>247.7</ele>
        <time>2013-05-01T04:57:39.000Z</time>
      </trkpt>
      <trkpt lat="45.76663" lon="4.80961">
        <ele>247.9</ele>
        <time>2013-05-01T04:57:40.000Z</time>
      </trkpt>
      <trkpt lat="45.76661" lon="4.80962">
        <ele>248.1</ele>
        <time>2013-05-01T04:57:41.000Z</time>
      </trkpt>
      <trkpt lat="45.76659" lon="4.80963">
        <ele>248.4</ele>
        <time>2013-05-01T04:57:42.000Z</time>
      </trkpt>
      <trkpt lat="45.76656" lon="4.80964">
        <ele>248.6</ele>
        <time>2013-05-01T04:57:43.000Z</time>
      </trkpt>
      <trkpt lat="45.76654" lon="4.80965">
        <ele>248.8</ele>
        <time>2013-05-01T04:57:44.000Z</time>
      </trkpt>
      <trkpt lat="45.76652" lon="4.80967">
        <ele>248.9</ele>
        <time>2013-05-01T04:57:45.000Z</time>
      </trkpt>
      <trkpt lat="45.7665" lon="4.80968">
        <ele>249</ele>
        <time>2013-05-01T04:57:46.000Z</time>
      </trkpt>
      <trkpt lat="45.76649" lon="4.8097">
        <ele>249</ele>
        <time>2013-05-01T04:57:47.000Z</time>
      </trkpt>
      <trkpt lat="45.76647" lon="4.80971">
        <ele>249.1</ele>
        <time>2013-05-01T04:57:48.000Z</time>
      </trkpt>
      <trkpt lat="45.76645" lon="4.80972">
        <ele>249.2</ele>
        <time>2013-05-01T04:57:49.000Z</time>
      </trkpt>
      <trkpt lat="45.76643" lon="4.80973">
        <ele>249.4</ele>
        <time>2013-05-01T04:57:50.000Z</time>
      </trkpt>
      <trkpt lat="45.76641" lon="4.80973">
        <ele>249.7</ele>
        <time>2013-05-01T04:57:51.000Z</time>
      </trkpt>
      <trkpt lat="45.76639" lon="4.80974">
        <ele>249.9</ele>
        <time>2013-05-01T04:57:52.000Z</time>
      </trkpt>
      <trkpt lat="45.76637" lon="4.80974">
        <ele>250.2</ele>
        <time>2013-05-01T04:57:53.000Z</time>
      </trkpt>
      <trkpt lat="45.76635" lon="4.80976">
        <ele>250.4</ele>
        <time>2013-05-01T04:57:54.000Z</time>
      </trkpt>
      <trkpt lat="45.76634" lon="4.80977">
        <ele>250.6</ele>
        <time>2013-05-01T04:57:55.000Z</time>
      </trkpt>
      <trkpt lat="45.76632" lon="4.80978">
        <ele>250.8</ele>
        <time>2013-05-01T04:57:56.000Z</time>
      </trkpt>
      <trkpt lat="45.76631" lon="4.80979">
        <ele>250.9</ele>
        <time>2013-05-01T04:57:57.000Z</time>
      </trkpt>
      <trkpt lat="45.76629" lon="4.80981">
        <ele>251.1</ele>
        <time>2013-05-01T04:57:58.000Z</time>
      </trkpt>
      <trkpt lat="45.76627" lon="4.80982">
        <ele>251.4</ele>
        <time>2013-05-01T04:57:59.000Z</time>
      </trkpt>
      <trkpt lat="45.76625" lon="4.80982">
        <ele>251.7</ele>
        <time>2013-05-01T04:58:00.000Z</time>
      </trkpt>
      <trkpt lat="45.76623" lon="4.80983">
        <ele>252</ele>
        <time>2013-05-01T04:58:01.000Z</time>
      </trkpt>
      <trkpt lat="45.76621" lon="4.80984">
        <ele>252.3</ele>
        <time>2013-05-01T04:58:02.000Z</time>
      </trkpt>
      <trkpt lat="45.76619" lon="4.80985">
        <ele>252.6</ele>
        <time>2013-05-01T04:58:03.000Z</time>
      </trkpt>
      <trkpt lat="45.76617" lon="4.80986">
        <ele>252.8</ele>
        <time>2013-05-01T04:58:04.000Z</time>
      </trkpt>
      <trkpt lat="45.76615" lon="4.80987">
        <ele>253</ele>
        <time>2013-05-01T04:58:05.000Z</time>
      </trkpt>
      <trkpt lat="45.76613" lon="4.80988">
        <ele>253.4</ele>
        <time>2013-05-01T04:58:06.000Z</time>
      </trkpt>
      <trkpt lat="45.76611" lon="4.8099">
        <ele>253.6</ele>
        <time>2013-05-01T04:58:07.000Z</time>
      </trkpt>
      <trkpt lat="45.76608" lon="4.80991">
        <ele>254.1</ele>
        <time>2013-05-01T04:58:08.000Z</time>
      </trkpt>
      <trkpt lat="45.76606" lon="4.80993">
        <ele>254.5</ele>
        <time>2013-05-01T04:58:09.000Z</time>
      </trkpt>
      <trkpt lat="45.76604" lon="4.80994">
        <ele>254.8</ele>
        <time>2013-05-01T04:58:10.000Z</time>
      </trkpt>
      <trkpt lat="45.76601" lon="4.80996">
        <ele>255.1</ele>
        <time>2013-05-01T04:58:11.000Z</time>
      </trkpt>
      <trkpt lat="45.76599" lon="4.80997">
        <ele>255.4</ele>
        <time>2013-05-01T04:58:12.000Z</time>
      </trkpt>
      <trkpt lat="45.76597" lon="4.80999">
        <ele>255.5</ele>
        <time>2013-05-01T04:58:13.000Z</time>
      </trkpt>
      <trkpt lat="45.76595" lon="4.81">
        <ele>255.5</ele>
        <time>2013-05-01T04:58:14.000Z</time>
      </trkpt>
      <trkpt lat="45.76593" lon="4.81002">
        <ele>255.6</ele>
        <time>2013-05-01T04:58:15.000Z</time>
      </trkpt>
      <trkpt lat="45.76591" lon="4.81004">
        <ele>255.7</ele>
        <time>2013-05-01T04:58:16.000Z</time>
      </trkpt>
      <trkpt lat="45.76589" lon="4.81006">
        <ele>255.8</ele>
        <time>2013-05-01T04:58:17.000Z</time>
      </trkpt>
      <trkpt lat="45.76587" lon="4.81009">
        <ele>255.9</ele>
        <time>2013-05-01T04:58:18.000Z</time>
      </trkpt>
      <trkpt lat="45.76584" lon="4.81011">
        <ele>256.2</ele>
        <time>2013-05-01T04:58:19.000Z</time>
      </trkpt>
      <trkpt lat="45.76583" lon="4.81013">
        <ele>256.6</ele>
        <time>2013-05-01T04:58:20.000Z</time>
      </trkpt>
      <trkpt lat="45.76581" lon="4.81015">
        <ele>257.1</ele>
        <time>2013-05-01T04:58:21.000Z</time>
      </trkpt>
      <trkpt lat="45.76579" lon="4.81017">
        <ele>257.6</ele>
        <time>2013-05-01T04:58:22.000Z</time>
      </trkpt>
      <trkpt lat="45.76577" lon="4.81019">
        <ele>258</ele>
        <time>2013-05-01T04:58:23.000Z</time>
      </trkpt>
      <trkpt lat="45.76576" lon="4.8102">
        <ele>258.4</ele>
        <time>2013-05-01T04:58:24.000Z</time>
      </trkpt>
      <trkpt lat="45.76574" lon="4.81022">
        <ele>258.8</ele>
        <time>2013-05-01T04:58:25.000Z</time>
      </trkpt>
      <trkpt lat="45.76572" lon="4.81023">
        <ele>259.3</ele>
        <time>2013-05-01T04:58:26.000Z</time>
      </trkpt>
      <trkpt lat="45.7657" lon="4.81025">
        <ele>259.6</ele>
        <time>2013-05-01T04:58:27.000Z</time>
      </trkpt>
      <trkpt lat="45.76568" lon="4.81027">
        <ele>259.9</ele>
        <time>2013-05-01T04:58:28.000Z</time>
      </trkpt>
      <trkpt lat="45.76565" lon="4.81029">
        <ele>260.2</ele>
        <time>2013-05-01T04:58:29.000Z</time>
      </trkpt>
      <trkpt lat="45.76563" lon="4.81031">
        <ele>260.4</ele>
        <time>2013-05-01T04:58:30.000Z</time>
      </trkpt>
      <trkpt lat="45.76561" lon="4.81033">
        <ele>260.5</ele>
        <time>2013-05-01T04:58:31.000Z</time>
      </trkpt>
      <trkpt lat="45.76559" lon="4.81034">
        <ele>260.7</ele>
        <time>2013-05-01T04:58:32.000Z</time>
      </trkpt>
      <trkpt lat="45.76557" lon="4.81035">
        <ele>261.1</ele>
        <time>2013-05-01T04:58:33.000Z</time>
      </trkpt>
      <trkpt lat="45.76555" lon="4.81036">
        <ele>261.2</ele>
        <time>2013-05-01T04:58:34.000Z</time>
      </trkpt>
      <trkpt lat="45.76553" lon="4.81038">
        <ele>261.3</ele>
        <time>2013-05-01T04:58:35.000Z</time>
      </trkpt>
      <trkpt lat="45.76551" lon="4.81039">
        <ele>261.5</ele>
        <time>2013-05-01T04:58:36.000Z</time>
      </trkpt>
      <trkpt lat="45.76549" lon="4.81041">
        <ele>261.7</ele>
        <time>2013-05-01T04:58:37.000Z</time>
      </trkpt>
      <trkpt lat="45.76547" lon="4.81042">
        <ele>261.9</ele>
        <time>2013-05-01T04:58:38.000Z</time>
      </trkpt>
      <trkpt lat="45.76545" lon="4.81044">
        <ele>262.1</ele>
        <time>2013-05-01T04:58:39.000Z</time>
      </trkpt>
      <trkpt lat="45.76543" lon="4.81046">
        <ele>262.1</ele>
        <time>2013-05-01T04:58:40.000Z</time>
      </trkpt>
      <trkpt lat="45.76541" lon="4.81048">
        <ele>262.1</ele>
        <time>2013-05-01T04:58:41.000Z</time>
      </trkpt>
      <trkpt lat="45.76539" lon="4.8105">
        <ele>262</ele>
        <time>2013-05-01T04:58:42.000Z</time>
      </trkpt>
      <trkpt lat="45.76537" lon="4.81052">
        <ele>262.1</ele>
        <time>2013-05-01T04:58:43.000Z</time>
      </trkpt>
      <trkpt lat="45.76535" lon="4.81053">
        <ele>262.4</ele>
        <time>2013-05-01T04:58:44.000Z</time>
      </trkpt>
      <trkpt lat="45.76533" lon="4.81055">
        <ele>262.5</ele>
        <time>2013-05-01T04:58:45.000Z</time>
      </trkpt>
      <trkpt lat="45.76531" lon="4.81057">
        <ele>262.8</ele>
        <time>2013-05-01T04:58:46.000Z</time>
      </trkpt>
      <trkpt lat="45.76528" lon="4.81058">
        <ele>263.3</ele>
        <time>2013-05-01T04:58:47.000Z</time>
      </trkpt>
      <trkpt lat="45.76526" lon="4.8106">
        <ele>263.5</ele>
        <time>2013-05-01T04:58:48.000Z</time>
      </trkpt>
      <trkpt lat="45.76524" lon="4.81062">
        <ele>263.6</ele>
        <time>2013-05-01T04:58:49.000Z</time>
      </trkpt>
      <trkpt lat="45.76523" lon="4.81064">
        <ele>263.5</ele>
        <time>2013-05-01T04:58:50.000Z</time>
      </trkpt>
      <trkpt lat="45.76521" lon="4.81067">
        <ele>263.4</ele>
        <time>2013-05-01T04:58:51.000Z</time>
      </trkpt>
      <trkpt lat="45.76519" lon="4.81069">
        <ele>263.5</ele>
        <time>2013-05-01T04:58:52.000Z</time>
      </trkpt>
      <trkpt lat="45.76517" lon="4.81071">
        <ele>263.7</ele>
        <time>2013-05-01T04:58:53.000Z</time>
      </trkpt>
      <trkpt lat="45.76516" lon="4.81073">
        <ele>263.8</ele>
        <time>2013-05-01T04:58:54.000Z</time>
      </trkpt>
      <trkpt lat="45.76515" lon="4.81076">
        <ele>263.6</ele>
        <time>2013-05-01T04:58:55.000Z</time>
      </trkpt>
      <trkpt lat="45.76514" lon="4.81078">
        <ele>263.5</ele>
        <time>2013-05-01T04:58:56.000Z</time>
      </trkpt>
      <trkpt lat="45.76512" lon="4.8108">
        <ele>263.6</ele>
        <time>2013-05-01T04:58:57.000Z</time>
      </trkpt>
      <trkpt lat="45.76511" lon="4.81082">
        <ele>263.6</ele>
        <time>2013-05-01T04:58:58.000Z</time>
      </trkpt>
      <trkpt lat="45.76511" lon="4.81085">
        <ele>263.4</ele>
        <time>2013-05-01T04:58:59.000Z</time>
      </trkpt>
      <trkpt lat="45.7651" lon="4.81087">
        <ele>263.4</ele>
        <time>2013-05-01T04:59:00.000Z</time>
      </trkpt>
      <trkpt lat="45.76509" lon="4.81089">
        <ele>263.4</ele>
        <time>2013-05-01T04:59:01.000Z</time>
      </trkpt>
      <trkpt lat="45.76509" lon="4.8109">
        <ele>263.4</ele>
        <time>2013-05-01T04:59:02.000Z</time>
      </trkpt>
      <trkpt lat="45.76508" lon="4.81091">
        <ele>263.5</ele>
        <time>2013-05-01T04:59:03.000Z</time>
      </trkpt>
      <trkpt lat="45.76507" lon="4.81094">
        <ele>263.6</ele>
        <time>2013-05-01T04:59:04.000Z</time>
      </trkpt>
      <trkpt lat="45.76505" lon="4.81096">
        <ele>263.8</ele>
        <time>2013-05-01T04:59:05.000Z</time>
      </trkpt>
      <trkpt lat="45.76505" lon="4.81099">
        <ele>263.8</ele>
        <time>2013-05-01T04:59:06.000Z</time>
      </trkpt>
      <trkpt lat="45.76503" lon="4.81101">
        <ele>264</ele>
        <time>2013-05-01T04:59:07.000Z</time>
      </trkpt>
      <trkpt lat="45.76502" lon="4.81103">
        <ele>264.1</ele>
        <time>2013-05-01T04:59:08.000Z</time>
      </trkpt>
      <trkpt lat="45.76501" lon="4.81105">
        <ele>264.2</ele>
        <time>2013-05-01T04:59:09.000Z</time>
      </trkpt>
      <trkpt lat="45.76501" lon="4.81108">
        <ele>264.2</ele>
        <time>2013-05-01T04:59:10.000Z</time>
      </trkpt>
      <trkpt lat="45.765" lon="4.8111">
        <ele>264.2</ele>
        <time>2013-05-01T04:59:11.000Z</time>
      </trkpt>
      <trkpt lat="45.76499" lon="4.81112">
        <ele>264.3</ele>
        <time>2013-05-01T04:59:12.000Z</time>
      </trkpt>
      <trkpt lat="45.76498" lon="4.81115">
        <ele>264.5</ele>
        <time>2013-05-01T04:59:13.000Z</time>
      </trkpt>
      <trkpt lat="45.76497" lon="4.81118">
        <ele>264.7</ele>
        <time>2013-05-01T04:59:14.000Z</time>
      </trkpt>
      <trkpt lat="45.76497" lon="4.81121">
        <ele>264.8</ele>
        <time>2013-05-01T04:59:15.000Z</time>
      </trkpt>
      <trkpt lat="45.76495" lon="4.81123">
        <ele>265.1</ele>
        <time>2013-05-01T04:59:16.000Z</time>
      </trkpt>
      <trkpt lat="45.76495" lon="4.81125">
        <ele>265.3</ele>
        <time>2013-05-01T04:59:17.000Z</time>
      </trkpt>
      <trkpt lat="45.76493" lon="4.81127">
        <ele>265.5</ele>
        <time>2013-05-01T04:59:18.000Z</time>
      </trkpt>
      <trkpt lat="45.76492" lon="4.8113">
        <ele>265.8</ele>
        <time>2013-05-01T04:59:19.000Z</time>
      </trkpt>
      <trkpt lat="45.76491" lon="4.81133">
        <ele>266.1</ele>
        <time>2013-05-01T04:59:20.000Z</time>
      </trkpt>
      <trkpt lat="45.7649" lon="4.81135">
        <ele>266.3</ele>
        <time>2013-05-01T04:59:21.000Z</time>
      </trkpt>
      <trkpt lat="45.76489" lon="4.81137">
        <ele>266.4</ele>
        <time>2013-05-01T04:59:22.000Z</time>
      </trkpt>
      <trkpt lat="45.76488" lon="4.8114">
        <ele>266.6</ele>
        <time>2013-05-01T04:59:23.000Z</time>
      </trkpt>
      <trkpt lat="45.76487" lon="4.81143">
        <ele>266.8</ele>
        <time>2013-05-01T04:59:24.000Z</time>
      </trkpt>
      <trkpt lat="45.76486" lon="4.81146">
        <ele>267</ele>
        <time>2013-05-01T04:59:25.000Z</time>
      </trkpt>
      <trkpt lat="45.76484" lon="4.81149">
        <ele>267.2</ele>
        <time>2013-05-01T04:59:26.000Z</time>
      </trkpt>
      <trkpt lat="45.76483" lon="4.81152">
        <ele>267.4</ele>
        <time>2013-05-01T04:59:27.000Z</time>
      </trkpt>
      <trkpt lat="45.76483" lon="4.81155">
        <ele>267.6</ele>
        <time>2013-05-01T04:59:28.000Z</time>
      </trkpt>
      <trkpt lat="45.76481" lon="4.81158">
        <ele>267.8</ele>
        <time>2013-05-01T04:59:29.000Z</time>
      </trkpt>
      <trkpt lat="45.7648" lon="4.81161">
        <ele>268</ele>
        <time>2013-05-01T04:59:30.000Z</time>
      </trkpt>
      <trkpt lat="45.7648" lon="4.81165">
        <ele>268.1</ele>
        <time>2013-05-01T04:59:31.000Z</time>
      </trkpt>
      <trkpt lat="45.76479" lon="4.81167">
        <ele>268.2</ele>
        <time>2013-05-01T04:59:32.000Z</time>
      </trkpt>
      <trkpt lat="45.76479" lon="4.8117">
        <ele>268.4</ele>
        <time>2013-05-01T04:59:33.000Z</time>
      </trkpt>
      <trkpt lat="45.76478" lon="4.81173">
        <ele>268.6</ele>
        <time>2013-05-01T04:59:34.000Z</time>
      </trkpt>
      <trkpt lat="45.76477" lon="4.81176">
        <ele>268.8</ele>
        <time>2013-05-01T04:59:35.000Z</time>
      </trkpt>
      <trkpt lat="45.76476" lon="4.81179">
        <ele>269</ele>
        <time>2013-05-01T04:59:36.000Z</time>
      </trkpt>
      <trkpt lat="45.76475" lon="4.81182">
        <ele>269.3</ele>
        <time>2013-05-01T04:59:37.000Z</time>
      </trkpt>
      <trkpt lat="45.76474" lon="4.81184">
        <ele>269.5</ele>
        <time>2013-05-01T04:59:38.000Z</time>
      </trkpt>
      <trkpt lat="45.76473" lon="4.81186">
        <ele>269.9</ele>
        <time>2013-05-01T04:59:39.000Z</time>
      </trkpt>
      <trkpt lat="45.76472" lon="4.81189">
        <ele>270</ele>
        <time>2013-05-01T04:59:40.000Z</time>
      </trkpt>
      <trkpt lat="45.76471" lon="4.81193">
        <ele>270.3</ele>
        <time>2013-05-01T04:59:41.000Z</time>
      </trkpt>
      <trkpt lat="45.7647" lon="4.81195">
        <ele>270.6</ele>
        <time>2013-05-01T04:59:42.000Z</time>
      </trkpt>
      <trkpt lat="45.76469" lon="4.81198">
        <ele>270.7</ele>
        <time>2013-05-01T04:59:43.000Z</time>
      </trkpt>
      <trkpt lat="45.76468" lon="4.81201">
        <ele>270.9</ele>
        <time>2013-05-01T04:59:44.000Z</time>
      </trkpt>
      <trkpt lat="45.76467" lon="4.81203">
        <ele>271.1</ele>
        <time>2013-05-01T04:59:45.000Z</time>
      </trkpt>
      <trkpt lat="45.76466" lon="4.81206">
        <ele>271.2</ele>
        <time>2013-05-01T04:59:46.000Z</time>
      </trkpt>
      <trkpt lat="45.76465" lon="4.81209">
        <ele>271.5</ele>
        <time>2013-05-01T04:59:47.000Z</time>
      </trkpt>
      <trkpt lat="45.76464" lon="4.81211">
        <ele>271.6</ele>
        <time>2013-05-01T04:59:48.000Z</time>
      </trkpt>
      <trkpt lat="45.76463" lon="4.81214">
        <ele>271.8</ele>
        <time>2013-05-01T04:59:49.000Z</time>
      </trkpt>
      <trkpt lat="45.76461" lon="4.81217">
        <ele>272</ele>
        <time>2013-05-01T04:59:50.000Z</time>
      </trkpt>
      <trkpt lat="45.7646" lon="4.8122">
        <ele>272.2</ele>
        <time>2013-05-01T04:59:51.000Z</time>
      </trkpt>
      <trkpt lat="45.76459" lon="4.81222">
        <ele>272.4</ele>
        <time>2013-05-01T04:59:52.000Z</time>
      </trkpt>
      <trkpt lat="45.76457" lon="4.81225">
        <ele>272.4</ele>
        <time>2013-05-01T04:59:53.000Z</time>
      </trkpt>
      <trkpt lat="45.76456" lon="4.81227">
        <ele>272.3</ele>
        <time>2013-05-01T04:59:54.000Z</time>
      </trkpt>
      <trkpt lat="45.76455" lon="4.8123">
        <ele>272.3</ele>
        <time>2013-05-01T04:59:55.000Z</time>
      </trkpt>
      <trkpt lat="45.76454" lon="4.81232">
        <ele>272.3</ele>
        <time>2013-05-01T04:59:56.000Z</time>
      </trkpt>
      <trkpt lat="45.76453" lon="4.81233">
        <ele>272.3</ele>
        <time>2013-05-01T04:59:57.000Z</time>
      </trkpt>
      <trkpt lat="45.76451" lon="4.81236">
        <ele>272.3</ele>
        <time>2013-05-01T04:59:58.000Z</time>
      </trkpt>
      <trkpt lat="45.7645" lon="4.81239">
        <ele>272.2</ele>
        <time>2013-05-01T04:59:59.000Z</time>
      </trkpt>
      <trkpt lat="45.76449" lon="4.81241">
        <ele>272.3</ele>
        <time>2013-05-01T05:00:00.000Z</time>
      </trkpt>
      <trkpt lat="45.76447" lon="4.81243">
        <ele>272.4</ele>
        <time>2013-05-01T05:00:01.000Z</time>
      </trkpt>
      <trkpt lat="45.76446" lon="4.81245">
        <ele>272.5</ele>
        <time>2013-05-01T05:00:02.000Z</time>
      </trkpt>
      <trkpt lat="45.76445" lon="4.81247">
        <ele>272.5</ele>
        <time>2013-05-01T05:00:03.000Z</time>
      </trkpt>
      <trkpt lat="45.76443" lon="4.81249">
        <ele>272.5</ele>
        <time>2013-05-01T05:00:04.000Z</time>
      </trkpt>
      <trkpt lat="45.76441" lon="4.81252">
        <ele>272.7</ele>
        <time>2013-05-01T05:00:05.000Z</time>
      </trkpt>
      <trkpt lat="45.7644" lon="4.81254">
        <ele>272.8</ele>
        <time>2013-05-01T05:00:06.000Z</time>
      </trkpt>
      <trkpt lat="45.76438" lon="4.81256">
        <ele>272.9</ele>
        <time>2013-05-01T05:00:07.000Z</time>
      </trkpt>
      <trkpt lat="45.76437" lon="4.81258">
        <ele>273.1</ele>
        <time>2013-05-01T05:00:08.000Z</time>
      </trkpt>
      <trkpt lat="45.76435" lon="4.8126">
        <ele>273.3</ele>
        <time>2013-05-01T05:00:09.000Z</time>
      </trkpt>
      <trkpt lat="45.76434" lon="4.81262">
        <ele>273.4</ele>
        <time>2013-05-01T05:00:10.000Z</time>
      </trkpt>
      <trkpt lat="45.76433" lon="4.81264">
        <ele>273.5</ele>
        <time>2013-05-01T05:00:11.000Z</time>
      </trkpt>
      <trkpt lat="45.76431" lon="4.81266">
        <ele>273.5</ele>
        <time>2013-05-01T05:00:12.000Z</time>
      </trkpt>
      <trkpt lat="45.7643" lon="4.81268">
        <ele>273.6</ele>
        <time>2013-05-01T05:00:13.000Z</time>
      </trkpt>
      <trkpt lat="45.76428" lon="4.8127">
        <ele>273.9</ele>
        <time>2013-05-01T05:00:14.000Z</time>
      </trkpt>
      <trkpt lat="45.76427" lon="4.81272">
        <ele>274</ele>
        <time>2013-05-01T05:00:15.000Z</time>
      </trkpt>
      <trkpt lat="45.76425" lon="4.81274">
        <ele>274.2</ele>
        <time>2013-05-01T05:00:16.000Z</time>
      </trkpt>
      <trkpt lat="45.76423" lon="4.81276">
        <ele>274.5</ele>
        <time>2013-05-01T05:00:17.000Z</time>
      </trkpt>
      <trkpt lat="45.76422" lon="4.81277">
        <ele>274.7</ele>
        <time>2013-05-01T05:00:18.000Z</time>
      </trkpt>
      <trkpt lat="45.7642" lon="4.81279">
        <ele>274.9</ele>
        <time>2013-05-01T05:00:19.000Z</time>
      </trkpt>
      <trkpt lat="45.76418" lon="4.8128">
        <ele>275.2</ele>
        <time>2013-05-01T05:00:20.000Z</time>
      </trkpt>
      <trkpt lat="45.76416" lon="4.81281">
        <ele>275.4</ele>
        <time>2013-05-01T05:00:21.000Z</time>
      </trkpt>
      <trkpt lat="45.76413" lon="4.81283">
        <ele>275.7</ele>
        <time>2013-05-01T05:00:22.000Z</time>
      </trkpt>
      <trkpt lat="45.76413" lon="4.81283">
        <ele>275.7</ele>
        <time>2013-05-01T05:00:23.000Z</time>
      </trkpt>
      <trkpt lat="45.76411" lon="4.81284">
        <ele>275.8</ele>
        <time>2013-05-01T05:00:24.000Z</time>
      </trkpt>
      <trkpt lat="45.7641" lon="4.81286">
        <ele>275.9</ele>
        <time>2013-05-01T05:00:25.000Z</time>
      </trkpt>
      <trkpt lat="45.76408" lon="4.81287">
        <ele>276.1</ele>
        <time>2013-05-01T05:00:26.000Z</time>
      </trkpt>
      <trkpt lat="45.76406" lon="4.81288">
        <ele>276.3</ele>
        <time>2013-05-01T05:00:27.000Z</time>
      </trkpt>
      <trkpt lat="45.76404" lon="4.81289">
        <ele>276.5</ele>
        <time>2013-05-01T05:00:28.000Z</time>
      </trkpt>
      <trkpt lat="45.76402" lon="4.81291">
        <ele>276.7</ele>
        <time>2013-05-01T05:00:29.000Z</time>
      </trkpt>
      <trkpt lat="45.76401" lon="4.81293">
        <ele>276.8</ele>
        <time>2013-05-01T05:00:30.000Z</time>
      </trkpt>
      <trkpt lat="45.76399" lon="4.81295">
        <ele>277</ele>
        <time>2013-05-01T05:00:31.000Z</time>
      </trkpt>
      <trkpt lat="45.76397" lon="4.81298">
        <ele>277.3</ele>
        <time>2013-05-01T05:00:32.000Z</time>
      </trkpt>
      <trkpt lat="45.76395" lon="4.81299">
        <ele>277.7</ele>
        <time>2013-05-01T05:00:33.000Z</time>
      </trkpt>
      <trkpt lat="45.76393" lon="4.813">
        <ele>278.3</ele>
        <time>2013-05-01T05:00:34.000Z</time>
      </trkpt>
      <trkpt lat="45.76391" lon="4.81301">
        <ele>278.9</ele>
        <time>2013-05-01T05:00:35.000Z</time>
      </trkpt>
      <trkpt lat="45.76389" lon="4.81302">
        <ele>279.3</ele>
        <time>2013-05-01T05:00:36.000Z</time>
      </trkpt>
      <trkpt lat="45.76386" lon="4.81304">
        <ele>279.4</ele>
        <time>2013-05-01T05:00:37.000Z</time>
      </trkpt>
      <trkpt lat="45.76384" lon="4.81305">
        <ele>279.5</ele>
        <time>2013-05-01T05:00:38.000Z</time>
      </trkpt>
      <trkpt lat="45.76382" lon="4.81307">
        <ele>279.8</ele>
        <time>2013-05-01T05:00:39.000Z</time>
      </trkpt>
      <trkpt lat="45.7638" lon="4.81308">
        <ele>280.1</ele>
        <time>2013-05-01T05:00:40.000Z</time>
      </trkpt>
      <trkpt lat="45.76378" lon="4.8131">
        <ele>280.3</ele>
        <time>2013-05-01T05:00:41.000Z</time>
      </trkpt>
      <trkpt lat="45.76375" lon="4.81311">
        <ele>280.6</ele>
        <time>2013-05-01T05:00:42.000Z</time>
      </trkpt>
      <trkpt lat="45.76373" lon="4.81312">
        <ele>280.8</ele>
        <time>2013-05-01T05:00:43.000Z</time>
      </trkpt>
      <trkpt lat="45.76371" lon="4.81314">
        <ele>281</ele>
        <time>2013-05-01T05:00:44.000Z</time>
      </trkpt>
      <trkpt lat="45.76369" lon="4.81315">
        <ele>281.2</ele>
        <time>2013-05-01T05:00:45.000Z</time>
      </trkpt>
      <trkpt lat="45.76367" lon="4.81316">
        <ele>281.4</ele>
        <time>2013-05-01T05:00:46.000Z</time>
      </trkpt>
      <trkpt lat="45.76365" lon="4.81316">
        <ele>281.6</ele>
        <time>2013-05-01T05:00:47.000Z</time>
      </trkpt>
      <trkpt lat="45.76363" lon="4.81317">
        <ele>281.8</ele>
        <time>2013-05-01T05:00:48.000Z</time>
      </trkpt>
      <trkpt lat="45.76361" lon="4.81317">
        <ele>282</ele>
        <time>2013-05-01T05:00:49.000Z</time>
      </trkpt>
      <trkpt lat="45.76359" lon="4.81317">
        <ele>282.1</ele>
        <time>2013-05-01T05:00:50.000Z</time>
      </trkpt>
      <trkpt lat="45.76357" lon="4.81317">
        <ele>282.2</ele>
        <time>2013-05-01T05:00:51.000Z</time>
      </trkpt>
      <trkpt lat="45.76355" lon="4.81316">
        <ele>282.3</ele>
        <time>2013-05-01T05:00:52.000Z</time>
      </trkpt>
      <trkpt lat="45.76353" lon="4.81315">
        <ele>282.4</ele>
        <time>2013-05-01T05:00:53.000Z</time>
      </trkpt>
      <trkpt lat="45.76351" lon="4.81315">
        <ele>282.5</ele>
        <time>2013-05-01T05:00:54.000Z</time>
      </trkpt>
      <trkpt lat="45.76349" lon="4.81314">
        <ele>282.6</ele>
        <time>2013-05-01T05:00:55.000Z</time>
      </trkpt>
      <trkpt lat="45.76347" lon="4.81313">
        <ele>282.6</ele>
        <time>2013-05-01T05:00:56.000Z</time>
      </trkpt>
      <trkpt lat="45.76345" lon="4.81313">
        <ele>282.7</ele>
        <time>2013-05-01T05:00:57.000Z</time>
      </trkpt>
      <trkpt lat="45.76343" lon="4.81312">
        <ele>282.8</ele>
        <time>2013-05-01T05:00:58.000Z</time>
      </trkpt>
      <trkpt lat="45.76341" lon="4.81311">
        <ele>282.9</ele>
        <time>2013-05-01T05:00:59.000Z</time>
      </trkpt>
      <trkpt lat="45.76339" lon="4.81311">
        <ele>282.9</ele>
        <time>2013-05-01T05:01:00.000Z</time>
      </trkpt>
      <trkpt lat="45.76337" lon="4.8131">
        <ele>283</ele>
        <time>2013-05-01T05:01:01.000Z</time>
      </trkpt>
      <trkpt lat="45.76335" lon="4.8131">
        <ele>283.1</ele>
        <time>2013-05-01T05:01:02.000Z</time>
      </trkpt>
      <trkpt lat="45.76333" lon="4.8131">
        <ele>283.2</ele>
        <time>2013-05-01T05:01:03.000Z</time>
      </trkpt>
      <trkpt lat="45.76331" lon="4.81309">
        <ele>283.3</ele>
        <time>2013-05-01T05:01:04.000Z</time>
      </trkpt>
      <trkpt lat="45.76328" lon="4.81308">
        <ele>283.5</ele>
        <time>2013-05-01T05:01:05.000Z</time>
      </trkpt>
      <trkpt lat="45.76326" lon="4.81308">
        <ele>283.6</ele>
        <time>2013-05-01T05:01:06.000Z</time>
      </trkpt>
      <trkpt lat="45.76324" lon="4.81307">
        <ele>283.7</ele>
        <time>2013-05-01T05:01:07.000Z</time>
      </trkpt>
      <trkpt lat="45.76322" lon="4.81307">
        <ele>283.9</ele>
        <time>2013-05-01T05:01:08.000Z</time>
      </trkpt>
      <trkpt lat="45.7632" lon="4.81306">
        <ele>284</ele>
        <time>2013-05-01T05:01:09.000Z</time>
      </trkpt>
      <trkpt lat="45.76317" lon="4.81306">
        <ele>284.2</ele>
        <time>2013-05-01T05:01:10.000Z</time>
      </trkpt>
      <trkpt lat="45.76315" lon="4.81305">
        <ele>284.3</ele>
        <time>2013-05-01T05:01:11.000Z</time>
      </trkpt>
      <trkpt lat="45.76313" lon="4.81305">
        <ele>284.4</ele>
        <time>2013-05-01T05:01:12.000Z</time>
      </trkpt>
      <trkpt lat="45.76311" lon="4.81304">
        <ele>284.5</ele>
        <time>2013-05-01T05:01:13.000Z</time>
      </trkpt>
      <trkpt lat="45.76309" lon="4.81304">
        <ele>284.6</ele>
        <time>2013-05-01T05:01:14.000Z</time>
      </trkpt>
      <trkpt lat="45.76307" lon="4.81303">
        <ele>284.7</ele>
        <time>2013-05-01T05:01:15.000Z</time>
      </trkpt>
      <trkpt lat="45.76305" lon="4.81303">
        <ele>284.8</ele>
        <time>2013-05-01T05:01:16.000Z</time>
      </trkpt>
      <trkpt lat="45.76303" lon="4.81302">
        <ele>284.9</ele>
        <time>2013-05-01T05:01:17.000Z</time>
      </trkpt>
      <trkpt lat="45.76301" lon="4.81302">
        <ele>285</ele>
        <time>2013-05-01T05:01:18.000Z</time>
      </trkpt>
      <trkpt lat="45.76298" lon="4.81301">
        <ele>285.2</ele>
        <time>2013-05-01T05:01:19.000Z</time>
      </trkpt>
      <trkpt lat="45.76296" lon="4.813">
        <ele>285.2</ele>
        <time>2013-05-01T05:01:20.000Z</time>
      </trkpt>
      <trkpt lat="45.76294" lon="4.813">
        <ele>285.3</ele>
        <time>2013-05-01T05:01:21.000Z</time>
      </trkpt>
      <trkpt lat="45.76292" lon="4.813">
        <ele>285.5</ele>
        <time>2013-05-01T05:01:22.000Z</time>
      </trkpt>
      <trkpt lat="45.7629" lon="4.81299">
        <ele>285.5</ele>
        <time>2013-05-01T05:01:23.000Z</time>
      </trkpt>
      <trkpt lat="45.76287" lon="4.81298">
        <ele>285.5</ele>
        <time>2013-05-01T05:01:24.000Z</time>
      </trkpt>
      <trkpt lat="45.76285" lon="4.81297">
        <ele>285.6</ele>
        <time>2013-05-01T05:01:25.000Z</time>
      </trkpt>
      <trkpt lat="45.76283" lon="4.81297">
        <ele>285.7</ele>
        <time>2013-05-01T05:01:26.000Z</time>
      </trkpt>
      <trkpt lat="45.7628" lon="4.81296">
        <ele>285.8</ele>
        <time>2013-05-01T05:01:27.000Z</time>
      </trkpt>
      <trkpt lat="45.76278" lon="4.81296">
        <ele>285.9</ele>
        <time>2013-05-01T05:01:28.000Z</time>
      </trkpt>
      <trkpt lat="45.76276" lon="4.81295">
        <ele>286</ele>
        <time>2013-05-01T05:01:29.000Z</time>
      </trkpt>
      <trkpt lat="45.76274" lon="4.81294">
        <ele>286.1</ele>
        <time>2013-05-01T05:01:30.000Z</time>
      </trkpt>
      <trkpt lat="45.76273" lon="4.81292">
        <ele>286</ele>
        <time>2013-05-01T05:01:31.000Z</time>
      </trkpt>
      <trkpt lat="45.76271" lon="4.8129">
        <ele>286</ele>
        <time>2013-05-01T05:01:32.000Z</time>
      </trkpt>
      <trkpt lat="45.76269" lon="4.81288">
        <ele>285.9</ele>
        <time>2013-05-01T05:01:33.000Z</time>
      </trkpt>
      <trkpt lat="45.76267" lon="4.81286">
        <ele>285.7</ele>
        <time>2013-05-01T05:01:34.000Z</time>
      </trkpt>
      <trkpt lat="45.76265" lon="4.81284">
        <ele>285.5</ele>
        <time>2013-05-01T05:01:35.000Z</time>
      </trkpt>
      <trkpt lat="45.76263" lon="4.81282">
        <ele>285.3</ele>
        <time>2013-05-01T05:01:36.000Z</time>
      </trkpt>
      <trkpt lat="45.76261" lon="4.8128">
        <ele>285.1</ele>
        <time>2013-05-01T05:01:37.000Z</time>
      </trkpt>
      <trkpt lat="45.76259" lon="4.8128">
        <ele>285.1</ele>
        <time>2013-05-01T05:01:38.000Z</time>
      </trkpt>
      <trkpt lat="45.76257" lon="4.8128">
        <ele>285.3</ele>
        <time>2013-05-01T05:01:39.000Z</time>
      </trkpt>
      <trkpt lat="45.76255" lon="4.81281">
        <ele>285.5</ele>
        <time>2013-05-01T05:01:40.000Z</time>
      </trkpt>
      <trkpt lat="45.76252" lon="4.81281">
        <ele>285.7</ele>
        <time>2013-05-01T05:01:41.000Z</time>
      </trkpt>
      <trkpt lat="45.7625" lon="4.81281">
        <ele>285.9</ele>
        <time>2013-05-01T05:01:42.000Z</time>
      </trkpt>
      <trkpt lat="45.76248" lon="4.81281">
        <ele>285.9</ele>
        <time>2013-05-01T05:01:43.000Z</time>
      </trkpt>
      <trkpt lat="45.76246" lon="4.81282">
        <ele>286</ele>
        <time>2013-05-01T05:01:44.000Z</time>
      </trkpt>
      <trkpt lat="45.76243" lon="4.81282">
        <ele>286.1</ele>
        <time>2013-05-01T05:01:45.000Z</time>
      </trkpt>
      <trkpt lat="45.76241" lon="4.81283">
        <ele>286.2</ele>
        <time>2013-05-01T05:01:46.000Z</time>
      </trkpt>
      <trkpt lat="45.76238" lon="4.81283">
        <ele>286.3</ele>
        <time>2013-05-01T05:01:47.000Z</time>
      </trkpt>
      <trkpt lat="45.76236" lon="4.81283">
        <ele>286.4</ele>
        <time>2013-05-01T05:01:48.000Z</time>
      </trkpt>
      <trkpt lat="45.76233" lon="4.81284">
        <ele>286.5</ele>
        <time>2013-05-01T05:01:49.000Z</time>
      </trkpt>
      <trkpt lat="45.76231" lon="4.81284">
        <ele>286.5</ele>
        <time>2013-05-01T05:01:50.000Z</time>
      </trkpt>
      <trkpt lat="45.76228" lon="4.81284">
        <ele>286.6</ele>
        <time>2013-05-01T05:01:51.000Z</time>
      </trkpt>
      <trkpt lat="45.76226" lon="4.81285">
        <ele>286.7</ele>
        <time>2013-05-01T05:01:52.000Z</time>
      </trkpt>
      <trkpt lat="45.76223" lon="4.81285">
        <ele>286.8</ele>
        <time>2013-05-01T05:01:53.000Z</time>
      </trkpt>
      <trkpt lat="45.76221" lon="4.81285">
        <ele>286.9</ele>
        <time>2013-05-01T05:01:54.000Z</time>
      </trkpt>
      <trkpt lat="45.76218" lon="4.81285">
        <ele>287</ele>
        <time>2013-05-01T05:01:55.000Z</time>
      </trkpt>
      <trkpt lat="45.76216" lon="4.81285">
        <ele>287</ele>
        <time>2013-05-01T05:01:56.000Z</time>
      </trkpt>
      <trkpt lat="45.76213" lon="4.81285">
        <ele>287.2</ele>
        <time>2013-05-01T05:01:57.000Z</time>
      </trkpt>
      <trkpt lat="45.76211" lon="4.81285">
        <ele>287.4</ele>
        <time>2013-05-01T05:01:58.000Z</time>
      </trkpt>
      <trkpt lat="45.76208" lon="4.81286">
        <ele>287.6</ele>
        <time>2013-05-01T05:01:59.000Z</time>
      </trkpt>
      <trkpt lat="45.76206" lon="4.81286">
        <ele>287.8</ele>
        <time>2013-05-01T05:02:00.000Z</time>
      </trkpt>
      <trkpt lat="45.76203" lon="4.81287">
        <ele>288</ele>
        <time>2013-05-01T05:02:01.000Z</time>
      </trkpt>
      <trkpt lat="45.762" lon="4.81287">
        <ele>288.2</ele>
        <time>2013-05-01T05:02:02.000Z</time>
      </trkpt>
      <trkpt lat="45.76198" lon="4.81288">
        <ele>288.3</ele>
        <time>2013-05-01T05:02:03.000Z</time>
      </trkpt>
      <trkpt lat="45.76195" lon="4.81289">
        <ele>288.6</ele>
        <time>2013-05-01T05:02:04.000Z</time>
      </trkpt>
      <trkpt lat="45.76193" lon="4.8129">
        <ele>288.6</ele>
        <time>2013-05-01T05:02:05.000Z</time>
      </trkpt>
      <trkpt lat="45.7619" lon="4.8129">
        <ele>288.7</ele>
        <time>2013-05-01T05:02:06.000Z</time>
      </trkpt>
      <trkpt lat="45.76188" lon="4.81291">
        <ele>288.6</ele>
        <time>2013-05-01T05:02:07.000Z</time>
      </trkpt>
      <trkpt lat="45.76185" lon="4.81291">
        <ele>288.6</ele>
        <time>2013-05-01T05:02:08.000Z</time>
      </trkpt>
      <trkpt lat="45.76183" lon="4.81291">
        <ele>288.5</ele>
        <time>2013-05-01T05:02:09.000Z</time>
      </trkpt>
      <trkpt lat="45.76181" lon="4.81291">
        <ele>288.4</ele>
        <time>2013-05-01T05:02:10.000Z</time>
      </trkpt>
      <trkpt lat="45.76178" lon="4.81291">
        <ele>288.3</ele>
        <time>2013-05-01T05:02:11.000Z</time>
      </trkpt>
      <trkpt lat="45.76176" lon="4.81291">
        <ele>288.2</ele>
        <time>2013-05-01T05:02:12.000Z</time>
      </trkpt>
      <trkpt lat="45.76173" lon="4.8129">
        <ele>288.1</ele>
        <time>2013-05-01T05:02:13.000Z</time>
      </trkpt>
      <trkpt lat="45.76171" lon="4.81289">
        <ele>287.9</ele>
        <time>2013-05-01T05:02:14.000Z</time>
      </trkpt>
      <trkpt lat="45.76168" lon="4.81287">
        <ele>287.7</ele>
        <time>2013-05-01T05:02:15.000Z</time>
      </trkpt>
      <trkpt lat="45.76167" lon="4.81285">
        <ele>287.5</ele>
        <time>2013-05-01T05:02:16.000Z</time>
      </trkpt>
      <trkpt lat="45.76165" lon="4.81282">
        <ele>287.4</ele>
        <time>2013-05-01T05:02:17.000Z</time>
      </trkpt>
      <trkpt lat="45.76163" lon="4.8128">
        <ele>287.2</ele>
        <time>2013-05-01T05:02:18.000Z</time>
      </trkpt>
      <trkpt lat="45.76162" lon="4.81276">
        <ele>287.2</ele>
        <time>2013-05-01T05:02:19.000Z</time>
      </trkpt>
      <trkpt lat="45.7616" lon="4.81274">
        <ele>287.2</ele>
        <time>2013-05-01T05:02:20.000Z</time>
      </trkpt>
      <trkpt lat="45.76159" lon="4.81271">
        <ele>287.2</ele>
        <time>2013-05-01T05:02:21.000Z</time>
      </trkpt>
      <trkpt lat="45.76157" lon="4.81268">
        <ele>287.2</ele>
        <time>2013-05-01T05:02:22.000Z</time>
      </trkpt>
      <trkpt lat="45.76156" lon="4.81264">
        <ele>287.2</ele>
        <time>2013-05-01T05:02:23.000Z</time>
      </trkpt>
      <trkpt lat="45.76154" lon="4.81261">
        <ele>287.2</ele>
        <time>2013-05-01T05:02:24.000Z</time>
      </trkpt>
      <trkpt lat="45.76153" lon="4.81258">
        <ele>287.2</ele>
        <time>2013-05-01T05:02:25.000Z</time>
      </trkpt>
      <trkpt lat="45.76151" lon="4.81255">
        <ele>287.1</ele>
        <time>2013-05-01T05:02:26.000Z</time>
      </trkpt>
      <trkpt lat="45.7615" lon="4.81252">
        <ele>287</ele>
        <time>2013-05-01T05:02:27.000Z</time>
      </trkpt>
      <trkpt lat="45.76149" lon="4.81249">
        <ele>287</ele>
        <time>2013-05-01T05:02:28.000Z</time>
      </trkpt>
      <trkpt lat="45.76147" lon="4.81246">
        <ele>286.9</ele>
        <time>2013-05-01T05:02:29.000Z</time>
      </trkpt>
      <trkpt lat="45.76146" lon="4.81243">
        <ele>286.9</ele>
        <time>2013-05-01T05:02:30.000Z</time>
      </trkpt>
      <trkpt lat="45.76145" lon="4.81239">
        <ele>286.8</ele>
        <time>2013-05-01T05:02:31.000Z</time>
      </trkpt>
      <trkpt lat="45.76143" lon="4.81236">
        <ele>286.8</ele>
        <time>2013-05-01T05:02:32.000Z</time>
      </trkpt>
      <trkpt lat="45.76141" lon="4.81234">
        <ele>286.9</ele>
        <time>2013-05-01T05:02:33.000Z</time>
      </trkpt>
      <trkpt lat="45.76139" lon="4.81232">
        <ele>287</ele>
        <time>2013-05-01T05:02:34.000Z</time>
      </trkpt>
      <trkpt lat="45.76137" lon="4.8123">
        <ele>287</ele>
        <time>2013-05-01T05:02:35.000Z</time>
      </trkpt>
      <trkpt lat="45.76135" lon="4.81229">
        <ele>287</ele>
        <time>2013-05-01T05:02:36.000Z</time>
      </trkpt>
      <trkpt lat="45.76133" lon="4.81228">
        <ele>287</ele>
        <time>2013-05-01T05:02:37.000Z</time>
      </trkpt>
      <trkpt lat="45.76131" lon="4.81227">
        <ele>287.1</ele>
        <time>2013-05-01T05:02:38.000Z</time>
      </trkpt>
      <trkpt lat="45.76129" lon="4.81226">
        <ele>287.1</ele>
        <time>2013-05-01T05:02:39.000Z</time>
      </trkpt>
      <trkpt lat="45.76126" lon="4.81226">
        <ele>287.1</ele>
        <time>2013-05-01T05:02:40.000Z</time>
      </trkpt>
      <trkpt lat="45.76124" lon="4.81226">
        <ele>287.1</ele>
        <time>2013-05-01T05:02:41.000Z</time>
      </trkpt>
      <trkpt lat="45.76121" lon="4.81226">
        <ele>287.1</ele>
        <time>2013-05-01T05:02:42.000Z</time>
      </trkpt>
      <trkpt lat="45.76119" lon="4.81227">
        <ele>287.1</ele>
        <time>2013-05-01T05:02:43.000Z</time>
      </trkpt>
      <trkpt lat="45.76117" lon="4.81228">
        <ele>287.2</ele>
        <time>2013-05-01T05:02:44.000Z</time>
      </trkpt>
      <trkpt lat="45.76115" lon="4.81229">
        <ele>287.2</ele>
        <time>2013-05-01T05:02:45.000Z</time>
      </trkpt>
      <trkpt lat="45.76112" lon="4.8123">
        <ele>287.3</ele>
        <time>2013-05-01T05:02:46.000Z</time>
      </trkpt>
      <trkpt lat="45.7611" lon="4.81231">
        <ele>287.2</ele>
        <time>2013-05-01T05:02:47.000Z</time>
      </trkpt>
      <trkpt lat="45.76108" lon="4.81233">
        <ele>287.2</ele>
        <time>2013-05-01T05:02:48.000Z</time>
      </trkpt>
      <trkpt lat="45.76106" lon="4.81234">
        <ele>287.2</ele>
        <time>2013-05-01T05:02:49.000Z</time>
      </trkpt>
      <trkpt lat="45.76103" lon="4.81236">
        <ele>287.2</ele>
        <time>2013-05-01T05:02:50.000Z</time>
      </trkpt>
      <trkpt lat="45.76101" lon="4.81237">
        <ele>287.2</ele>
        <time>2013-05-01T05:02:51.000Z</time>
      </trkpt>
      <trkpt lat="45.76099" lon="4.81238">
        <ele>287.3</ele>
        <time>2013-05-01T05:02:52.000Z</time>
      </trkpt>
      <trkpt lat="45.76097" lon="4.81239">
        <ele>287.3</ele>
        <time>2013-05-01T05:02:53.000Z</time>
      </trkpt>
      <trkpt lat="45.76095" lon="4.81241">
        <ele>287.4</ele>
        <time>2013-05-01T05:02:54.000Z</time>
      </trkpt>
      <trkpt lat="45.76093" lon="4.81242">
        <ele>287.5</ele>
        <time>2013-05-01T05:02:55.000Z</time>
      </trkpt>
      <trkpt lat="45.7609" lon="4.81243">
        <ele>287.8</ele>
        <time>2013-05-01T05:02:56.000Z</time>
      </trkpt>
      <trkpt lat="45.76088" lon="4.81244">
        <ele>287.9</ele>
        <time>2013-05-01T05:02:57.000Z</time>
      </trkpt>
      <trkpt lat="45.76086" lon="4.81245">
        <ele>288.1</ele>
        <time>2013-05-01T05:02:58.000Z</time>
      </trkpt>
      <trkpt lat="45.76084" lon="4.81246">
        <ele>288.3</ele>
        <time>2013-05-01T05:02:59.000Z</time>
      </trkpt>
      <trkpt lat="45.76082" lon="4.81247">
        <ele>288.4</ele>
        <time>2013-05-01T05:03:00.000Z</time>
      </trkpt>
      <trkpt lat="45.7608" lon="4.81248">
        <ele>288.5</ele>
        <time>2013-05-01T05:03:01.000Z</time>
      </trkpt>
      <trkpt lat="45.76077" lon="4.8125">
        <ele>288.7</ele>
        <time>2013-05-01T05:03:02.000Z</time>
      </trkpt>
      <trkpt lat="45.76075" lon="4.81251">
        <ele>288.8</ele>
        <time>2013-05-01T05:03:03.000Z</time>
      </trkpt>
      <trkpt lat="45.76073" lon="4.81253">
        <ele>288.8</ele>
        <time>2013-05-01T05:03:04.000Z</time>
      </trkpt>
      <trkpt lat="45.76071" lon="4.81254">
        <ele>288.8</ele>
        <time>2013-05-01T05:03:05.000Z</time>
      </trkpt>
      <trkpt lat="45.76069" lon="4.81255">
        <ele>288.9</ele>
        <time>2013-05-01T05:03:06.000Z</time>
      </trkpt>
      <trkpt lat="45.76067" lon="4.81257">
        <ele>288.9</ele>
        <time>2013-05-01T05:03:07.000Z</time>
      </trkpt>
      <trkpt lat="45.76065" lon="4.81258">
        <ele>289</ele>
        <time>2013-05-01T05:03:08.000Z</time>
      </trkpt>
      <trkpt lat="45.76062" lon="4.81259">
        <ele>289</ele>
        <time>2013-05-01T05:03:09.000Z</time>
      </trkpt>
      <trkpt lat="45.7606" lon="4.8126">
        <ele>289.1</ele>
        <time>2013-05-01T05:03:10.000Z</time>
      </trkpt>
      <trkpt lat="45.76057" lon="4.81261">
        <ele>289.2</ele>
        <time>2013-05-01T05:03:11.000Z</time>
      </trkpt>
      <trkpt lat="45.76055" lon="4.81263">
        <ele>289.4</ele>
        <time>2013-05-01T05:03:12.000Z</time>
      </trkpt>
      <trkpt lat="45.76053" lon="4.81264">
        <ele>289.5</ele>
        <time>2013-05-01T05:03:13.000Z</time>
      </trkpt>
      <trkpt lat="45.7605" lon="4.81265">
        <ele>289.5</ele>
        <time>2013-05-01T05:03:14.000Z</time>
      </trkpt>
      <trkpt lat="45.76048" lon="4.81267">
        <ele>289.6</ele>
        <time>2013-05-01T05:03:15.000Z</time>
      </trkpt>
      <trkpt lat="45.76046" lon="4.81268">
        <ele>289.7</ele>
        <time>2013-05-01T05:03:16.000Z</time>
      </trkpt>
      <trkpt lat="45.76044" lon="4.81269">
        <ele>289.7</ele>
        <time>2013-05-01T05:03:17.000Z</time>
      </trkpt>
      <trkpt lat="45.76041" lon="4.81271">
        <ele>289.9</ele>
        <time>2013-05-01T05:03:18.000Z</time>
      </trkpt>
      <trkpt lat="45.76039" lon="4.81272">
        <ele>289.9</ele>
        <time>2013-05-01T05:03:19.000Z</time>
      </trkpt>
      <trkpt lat="45.76037" lon="4.81273">
        <ele>289.9</ele>
        <time>2013-05-01T05:03:20.000Z</time>
      </trkpt>
      <trkpt lat="45.76034" lon="4.81274">
        <ele>290</ele>
        <time>2013-05-01T05:03:21.000Z</time>
      </trkpt>
      <trkpt lat="45.76032" lon="4.81276">
        <ele>290</ele>
        <time>2013-05-01T05:03:22.000Z</time>
      </trkpt>
      <trkpt lat="45.76029" lon="4.81277">
        <ele>290</ele>
        <time>2013-05-01T05:03:23.000Z</time>
      </trkpt>
      <trkpt lat="45.76027" lon="4.81279">
        <ele>290.1</ele>
        <time>2013-05-01T05:03:24.000Z</time>
      </trkpt>
      <trkpt lat="45.76025" lon="4.81281">
        <ele>290.2</ele>
        <time>2013-05-01T05:03:25.000Z</time>
      </trkpt>
      <trkpt lat="45.76023" lon="4.81283">
        <ele>290.3</ele>
        <time>2013-05-01T05:03:26.000Z</time>
      </trkpt>
      <trkpt lat="45.7602" lon="4.81285">
        <ele>290.5</ele>
        <time>2013-05-01T05:03:27.000Z</time>
      </trkpt>
      <trkpt lat="45.76018" lon="4.81286">
        <ele>290.6</ele>
        <time>2013-05-01T05:03:28.000Z</time>
      </trkpt>
      <trkpt lat="45.76016" lon="4.81288">
        <ele>290.7</ele>
        <time>2013-05-01T05:03:29.000Z</time>
      </trkpt>
      <trkpt lat="45.76014" lon="4.81289">
        <ele>290.8</ele>
        <time>2013-05-01T05:03:30.000Z</time>
      </trkpt>
      <trkpt lat="45.76011" lon="4.81291">
        <ele>291</ele>
        <time>2013-05-01T05:03:31.000Z</time>
      </trkpt>
      <trkpt lat="45.76009" lon="4.81293">
        <ele>291.1</ele>
        <time>2013-05-01T05:03:32.000Z</time>
      </trkpt>
      <trkpt lat="45.76007" lon="4.81295">
        <ele>291.2</ele>
        <time>2013-05-01T05:03:33.000Z</time>
      </trkpt>
      <trkpt lat="45.76004" lon="4.81297">
        <ele>291.4</ele>
        <time>2013-05-01T05:03:34.000Z</time>
      </trkpt>
      <trkpt lat="45.76002" lon="4.81299">
        <ele>291.5</ele>
        <time>2013-05-01T05:03:35.000Z</time>
      </trkpt>
      <trkpt lat="45.76" lon="4.81301">
        <ele>291.7</ele>
        <time>2013-05-01T05:03:36.000Z</time>
      </trkpt>
      <trkpt lat="45.75998" lon="4.81303">
        <ele>291.6</ele>
        <time>2013-05-01T05:03:37.000Z</time>
      </trkpt>
      <trkpt lat="45.75996" lon="4.81305">
        <ele>291.6</ele>
        <time>2013-05-01T05:03:38.000Z</time>
      </trkpt>
      <trkpt lat="45.75994" lon="4.81307">
        <ele>291.7</ele>
        <time>2013-05-01T05:03:39.000Z</time>
      </trkpt>
      <trkpt lat="45.75993" lon="4.8131">
        <ele>291.8</ele>
        <time>2013-05-01T05:03:40.000Z</time>
      </trkpt>
      <trkpt lat="45.75991" lon="4.81313">
        <ele>291.9</ele>
        <time>2013-05-01T05:03:41.000Z</time>
      </trkpt>
      <trkpt lat="45.7599" lon="4.81316">
        <ele>292</ele>
        <time>2013-05-01T05:03:42.000Z</time>
      </trkpt>
      <trkpt lat="45.75988" lon="4.81319">
        <ele>292.1</ele>
        <time>2013-05-01T05:03:43.000Z</time>
      </trkpt>
      <trkpt lat="45.75987" lon="4.81322">
        <ele>292.2</ele>
        <time>2013-05-01T05:03:44.000Z</time>
      </trkpt>
      <trkpt lat="45.75985" lon="4.81326">
        <ele>292.3</ele>
        <time>2013-05-01T05:03:45.000Z</time>
      </trkpt>
      <trkpt lat="45.75983" lon="4.81329">
        <ele>292.5</ele>
        <time>2013-05-01T05:03:46.000Z</time>
      </trkpt>
      <trkpt lat="45.75982" lon="4.81332">
        <ele>292.6</ele>
        <time>2013-05-01T05:03:47.000Z</time>
      </trkpt>
      <trkpt lat="45.75981" lon="4.81335">
        <ele>292.6</ele>
        <time>2013-05-01T05:03:48.000Z</time>
      </trkpt>
      <trkpt lat="45.75979" lon="4.81338">
        <ele>292.5</ele>
        <time>2013-05-01T05:03:49.000Z</time>
      </trkpt>
      <trkpt lat="45.75978" lon="4.81341">
        <ele>292.4</ele>
        <time>2013-05-01T05:03:50.000Z</time>
      </trkpt>
      <trkpt lat="45.75977" lon="4.81344">
        <ele>292.3</ele>
        <time>2013-05-01T05:03:51.000Z</time>
      </trkpt>
      <trkpt lat="45.75976" lon="4.81347">
        <ele>292.3</ele>
        <time>2013-05-01T05:03:52.000Z</time>
      </trkpt>
      <trkpt lat="45.75975" lon="4.81351">
        <ele>292.2</ele>
        <time>2013-05-01T05:03:53.000Z</time>
      </trkpt>
      <trkpt lat="45.75974" lon="4.81354">
        <ele>292.1</ele>
        <time>2013-05-01T05:03:54.000Z</time>
      </trkpt>
      <trkpt lat="45.75973" lon="4.81357">
        <ele>292</ele>
        <time>2013-05-01T05:03:55.000Z</time>
      </trkpt>
      <trkpt lat="45.75971" lon="4.8136">
        <ele>291.9</ele>
        <time>2013-05-01T05:03:56.000Z</time>
      </trkpt>
      <trkpt lat="45.7597" lon="4.81363">
        <ele>291.9</ele>
        <time>2013-05-01T05:03:57.000Z</time>
      </trkpt>
      <trkpt lat="45.75969" lon="4.81366">
        <ele>291.9</ele>
        <time>2013-05-01T05:03:58.000Z</time>
      </trkpt>
      <trkpt lat="45.75967" lon="4.81369">
        <ele>291.9</ele>
        <time>2013-05-01T05:03:59.000Z</time>
      </trkpt>
      <trkpt lat="45.75966" lon="4.81372">
        <ele>291.8</ele>
        <time>2013-05-01T05:04:00.000Z</time>
      </trkpt>
      <trkpt lat="45.75964" lon="4.81375">
        <ele>291.7</ele>
        <time>2013-05-01T05:04:01.000Z</time>
      </trkpt>
      <trkpt lat="45.75962" lon="4.81378">
        <ele>291.7</ele>
        <time>2013-05-01T05:04:02.000Z</time>
      </trkpt>
      <trkpt lat="45.75961" lon="4.8138">
        <ele>291.6</ele>
        <time>2013-05-01T05:04:03.000Z</time>
      </trkpt>
      <trkpt lat="45.7596" lon="4.81383">
        <ele>291.5</ele>
        <time>2013-05-01T05:04:04.000Z</time>
      </trkpt>
      <trkpt lat="45.75958" lon="4.81386">
        <ele>291.4</ele>
        <time>2013-05-01T05:04:05.000Z</time>
      </trkpt>
      <trkpt lat="45.75957" lon="4.81388">
        <ele>291.3</ele>
        <time>2013-05-01T05:04:06.000Z</time>
      </trkpt>
      <trkpt lat="45.75956" lon="4.81391">
        <ele>291.4</ele>
        <time>2013-05-01T05:04:07.000Z</time>
      </trkpt>
      <trkpt lat="45.75954" lon="4.81395">
        <ele>291.4</ele>
        <time>2013-05-01T05:04:08.000Z</time>
      </trkpt>
      <trkpt lat="45.75951" lon="4.81401">
        <ele>291.5</ele>
        <time>2013-05-01T05:04:09.000Z</time>
      </trkpt>
      <trkpt lat="45.75951" lon="4.81401">
        <ele>291.5</ele>
        <time>2013-05-01T05:04:10.000Z</time>
      </trkpt>
      <trkpt lat="45.75949" lon="4.81403">
        <ele>291.5</ele>
        <time>2013-05-01T05:04:11.000Z</time>
      </trkpt>
      <trkpt lat="45.75948" lon="4.81406">
        <ele>291.6</ele>
        <time>2013-05-01T05:04:12.000Z</time>
      </trkpt>
      <trkpt lat="45.75946" lon="4.8141">
        <ele>291.7</ele>
        <time>2013-05-01T05:04:13.000Z</time>
      </trkpt>
      <trkpt lat="45.75945" lon="4.81414">
        <ele>291.8</ele>
        <time>2013-05-01T05:04:14.000Z</time>
      </trkpt>
      <trkpt lat="45.75943" lon="4.81417">
        <ele>291.8</ele>
        <time>2013-05-01T05:04:15.000Z</time>
      </trkpt>
      <trkpt lat="45.75942" lon="4.8142">
        <ele>291.8</ele>
        <time>2013-05-01T05:04:16.000Z</time>
      </trkpt>
      <trkpt lat="45.75941" lon="4.81423">
        <ele>291.8</ele>
        <time>2013-05-01T05:04:17.000Z</time>
      </trkpt>
      <trkpt lat="45.75941" lon="4.81427">
        <ele>291.7</ele>
        <time>2013-05-01T05:04:18.000Z</time>
      </trkpt>
      <trkpt lat="45.7594" lon="4.81431">
        <ele>291.8</ele>
        <time>2013-05-01T05:04:19.000Z</time>
      </trkpt>
      <trkpt lat="45.75941" lon="4.81434">
        <ele>292</ele>
        <time>2013-05-01T05:04:20.000Z</time>
      </trkpt>
      <trkpt lat="45.75941" lon="4.81438">
        <ele>292.1</ele>
        <time>2013-05-01T05:04:21.000Z</time>
      </trkpt>
      <trkpt lat="45.75941" lon="4.81442">
        <ele>292.3</ele>
        <time>2013-05-01T05:04:22.000Z</time>
      </trkpt>
      <trkpt lat="45.75942" lon="4.81445">
        <ele>292.4</ele>
        <time>2013-05-01T05:04:23.000Z</time>
      </trkpt>
      <trkpt lat="45.75942" lon="4.81449">
        <ele>292.4</ele>
        <time>2013-05-01T05:04:24.000Z</time>
      </trkpt>
      <trkpt lat="45.75943" lon="4.81452">
        <ele>292.4</ele>
        <time>2013-05-01T05:04:25.000Z</time>
      </trkpt>
      <trkpt lat="45.75943" lon="4.81456">
        <ele>292.4</ele>
        <time>2013-05-01T05:04:26.000Z</time>
      </trkpt>
      <trkpt lat="45.75944" lon="4.81459">
        <ele>292.4</ele>
        <time>2013-05-01T05:04:27.000Z</time>
      </trkpt>
      <trkpt lat="45.75945" lon="4.81463">
        <ele>292.4</ele>
        <time>2013-05-01T05:04:28.000Z</time>
      </trkpt>
      <trkpt lat="45.75946" lon="4.81467">
        <ele>292.3</ele>
        <time>2013-05-01T05:04:29.000Z</time>
      </trkpt>
      <trkpt lat="45.75947" lon="4.81469">
        <ele>292.4</ele>
        <time>2013-05-01T05:04:30.000Z</time>
      </trkpt>
      <trkpt lat="45.75948" lon="4.81472">
        <ele>292.4</ele>
        <time>2013-05-01T05:04:31.000Z</time>
      </trkpt>
      <trkpt lat="45.75949" lon="4.81475">
        <ele>292.6</ele>
        <time>2013-05-01T05:04:32.000Z</time>
      </trkpt>
      <trkpt lat="45.7595" lon="4.81479">
        <ele>292.8</ele>
        <time>2013-05-01T05:04:33.000Z</time>
      </trkpt>
      <trkpt lat="45.75951" lon="4.81482">
        <ele>293</ele>
        <time>2013-05-01T05:04:34.000Z</time>
      </trkpt>
      <trkpt lat="45.75952" lon="4.81485">
        <ele>293.2</ele>
        <time>2013-05-01T05:04:35.000Z</time>
      </trkpt>
      <trkpt lat="45.75953" lon="4.81489">
        <ele>293.4</ele>
        <time>2013-05-01T05:04:36.000Z</time>
      </trkpt>
      <trkpt lat="45.75954" lon="4.81492">
        <ele>293.5</ele>
        <time>2013-05-01T05:04:37.000Z</time>
      </trkpt>
      <trkpt lat="45.75955" lon="4.81496">
        <ele>293.6</ele>
        <time>2013-05-01T05:04:38.000Z</time>
      </trkpt>
      <trkpt lat="45.75955" lon="4.81499">
        <ele>293.7</ele>
        <time>2013-05-01T05:04:39.000Z</time>
      </trkpt>
      <trkpt lat="45.75956" lon="4.81502">
        <ele>293.9</ele>
        <time>2013-05-01T05:04:40.000Z</time>
      </trkpt>
      <trkpt lat="45.75957" lon="4.81505">
        <ele>294</ele>
        <time>2013-05-01T05:04:41.000Z</time>
      </trkpt>
      <trkpt lat="45.75958" lon="4.81508">
        <ele>294.1</ele>
        <time>2013-05-01T05:04:42.000Z</time>
      </trkpt>
      <trkpt lat="45.75959" lon="4.81512">
        <ele>294.2</ele>
        <time>2013-05-01T05:04:43.000Z</time>
      </trkpt>
      <trkpt lat="45.7596" lon="4.81515">
        <ele>294.3</ele>
        <time>2013-05-01T05:04:44.000Z</time>
      </trkpt>
      <trkpt lat="45.7596" lon="4.81518">
        <ele>294.4</ele>
        <time>2013-05-01T05:04:45.000Z</time>
      </trkpt>
      <trkpt lat="45.75961" lon="4.81521">
        <ele>294.5</ele>
        <time>2013-05-01T05:04:46.000Z</time>
      </trkpt>
      <trkpt lat="45.75962" lon="4.81524">
        <ele>294.6</ele>
        <time>2013-05-01T05:04:47.000Z</time>
      </trkpt>
      <trkpt lat="45.75962" lon="4.81528">
        <ele>294.6</ele>
        <time>2013-05-01T05:04:48.000Z</time>
      </trkpt>
      <trkpt lat="45.75962" lon="4.81531">
        <ele>294.6</ele>
        <time>2013-05-01T05:04:49.000Z</time>
      </trkpt>
      <trkpt lat="45.75962" lon="4.81535">
        <ele>294.6</ele>
        <time>2013-05-01T05:04:50.000Z</time>
      </trkpt>
      <trkpt lat="45.75961" lon="4.81538">
        <ele>294.6</ele>
        <time>2013-05-01T05:04:51.000Z</time>
      </trkpt>
      <trkpt lat="45.7596" lon="4.8154">
        <ele>294.6</ele>
        <time>2013-05-01T05:04:52.000Z</time>
      </trkpt>
      <trkpt lat="45.7596" lon="4.81544">
        <ele>294.5</ele>
        <time>2013-05-01T05:04:53.000Z</time>
      </trkpt>
      <trkpt lat="45.75959" lon="4.81547">
        <ele>294.5</ele>
        <time>2013-05-01T05:04:54.000Z</time>
      </trkpt>
      <trkpt lat="45.75959" lon="4.8155">
        <ele>294.5</ele>
        <time>2013-05-01T05:04:55.000Z</time>
      </trkpt>
      <trkpt lat="45.75959" lon="4.81554">
        <ele>294.5</ele>
        <time>2013-05-01T05:04:56.000Z</time>
      </trkpt>
      <trkpt lat="45.75959" lon="4.81557">
        <ele>294.5</ele>
        <time>2013-05-01T05:04:57.000Z</time>
      </trkpt>
      <trkpt lat="45.7596" lon="4.81561">
        <ele>294.6</ele>
        <time>2013-05-01T05:04:58.000Z</time>
      </trkpt>
      <trkpt lat="45.75961" lon="4.81564">
        <ele>294.7</ele>
        <time>2013-05-01T05:04:59.000Z</time>
      </trkpt>
      <trkpt lat="45.75962" lon="4.81568">
        <ele>294.8</ele>
        <time>2013-05-01T05:05:00.000Z</time>
      </trkpt>
      <trkpt lat="45.75963" lon="4.81571">
        <ele>294.9</ele>
        <time>2013-05-01T05:05:01.000Z</time>
      </trkpt>
      <trkpt lat="45.75964" lon="4.81575">
        <ele>294.9</ele>
        <time>2013-05-01T05:05:02.000Z</time>
      </trkpt>
      <trkpt lat="45.75965" lon="4.81578">
        <ele>294.9</ele>
        <time>2013-05-01T05:05:03.000Z</time>
      </trkpt>
      <trkpt lat="45.75966" lon="4.8158">
        <ele>295</ele>
        <time>2013-05-01T05:05:04.000Z</time>
      </trkpt>
      <trkpt lat="45.75967" lon="4.81583">
        <ele>295</ele>
        <time>2013-05-01T05:05:05.000Z</time>
      </trkpt>
      <trkpt lat="45.75968" lon="4.81587">
        <ele>295</ele>
        <time>2013-05-01T05:05:06.000Z</time>
      </trkpt>
      <trkpt lat="45.7597" lon="4.8159">
        <ele>295</ele>
        <time>2013-05-01T05:05:07.000Z</time>
      </trkpt>
      <trkpt lat="45.75971" lon="4.81593">
        <ele>295</ele>
        <time>2013-05-01T05:05:08.000Z</time>
      </trkpt>
      <trkpt lat="45.75972" lon="4.81597">
        <ele>295</ele>
        <time>2013-05-01T05:05:09.000Z</time>
      </trkpt>
      <trkpt lat="45.75972" lon="4.81601">
        <ele>295</ele>
        <time>2013-05-01T05:05:10.000Z</time>
      </trkpt>
      <trkpt lat="45.75973" lon="4.81604">
        <ele>295</ele>
        <time>2013-05-01T05:05:11.000Z</time>
      </trkpt>
      <trkpt lat="45.75974" lon="4.81608">
        <ele>295.1</ele>
        <time>2013-05-01T05:05:12.000Z</time>
      </trkpt>
      <trkpt lat="45.75976" lon="4.81611">
        <ele>295.1</ele>
        <time>2013-05-01T05:05:13.000Z</time>
      </trkpt>
      <trkpt lat="45.75977" lon="4.81613">
        <ele>295.3</ele>
        <time>2013-05-01T05:05:14.000Z</time>
      </trkpt>
      <trkpt lat="45.75979" lon="4.81617">
        <ele>295.4</ele>
        <time>2013-05-01T05:05:15.000Z</time>
      </trkpt>
      <trkpt lat="45.75981" lon="4.8162">
        <ele>295.6</ele>
        <time>2013-05-01T05:05:16.000Z</time>
      </trkpt>
      <trkpt lat="45.75982" lon="4.81623">
        <ele>295.8</ele>
        <time>2013-05-01T05:05:17.000Z</time>
      </trkpt>
      <trkpt lat="45.75984" lon="4.81627">
        <ele>296</ele>
        <time>2013-05-01T05:05:18.000Z</time>
      </trkpt>
      <trkpt lat="45.75985" lon="4.8163">
        <ele>296.1</ele>
        <time>2013-05-01T05:05:19.000Z</time>
      </trkpt>
      <trkpt lat="45.75986" lon="4.81634">
        <ele>296.3</ele>
        <time>2013-05-01T05:05:20.000Z</time>
      </trkpt>
      <trkpt lat="45.75987" lon="4.81637">
        <ele>296.5</ele>
        <time>2013-05-01T05:05:21.000Z</time>
      </trkpt>
      <trkpt lat="45.75987" lon="4.81641">
        <ele>296.5</ele>
        <time>2013-05-01T05:05:22.000Z</time>
      </trkpt>
      <trkpt lat="45.75988" lon="4.81644">
        <ele>296.5</ele>
        <time>2013-05-01T05:05:23.000Z</time>
      </trkpt>
      <trkpt lat="45.75989" lon="4.81647">
        <ele>296.4</ele>
        <time>2013-05-01T05:05:24.000Z</time>
      </trkpt>
      <trkpt lat="45.7599" lon="4.8165">
        <ele>296.4</ele>
        <time>2013-05-01T05:05:25.000Z</time>
      </trkpt>
      <trkpt lat="45.75992" lon="4.81654">
        <ele>296.3</ele>
        <time>2013-05-01T05:05:26.000Z</time>
      </trkpt>
      <trkpt lat="45.75993" lon="4.81657">
        <ele>296.3</ele>
        <time>2013-05-01T05:05:27.000Z</time>
      </trkpt>
      <trkpt lat="45.75994" lon="4.81661">
        <ele>296.2</ele>
        <time>2013-05-01T05:05:28.000Z</time>
      </trkpt>
      <trkpt lat="45.75995" lon="4.81665">
        <ele>296.1</ele>
        <time>2013-05-01T05:05:29.000Z</time>
      </trkpt>
      <trkpt lat="45.75996" lon="4.81668">
        <ele>296</ele>
        <time>2013-05-01T05:05:30.000Z</time>
      </trkpt>
      <trkpt lat="45.75997" lon="4.81672">
        <ele>296</ele>
        <time>2013-05-01T05:05:31.000Z</time>
      </trkpt>
      <trkpt lat="45.75998" lon="4.81676">
        <ele>296</ele>
        <time>2013-05-01T05:05:32.000Z</time>
      </trkpt>
      <trkpt lat="45.75999" lon="4.8168">
        <ele>296</ele>
        <time>2013-05-01T05:05:33.000Z</time>
      </trkpt>
      <trkpt lat="45.76" lon="4.81684">
        <ele>296</ele>
        <time>2013-05-01T05:05:34.000Z</time>
      </trkpt>
      <trkpt lat="45.76002" lon="4.81687">
        <ele>296.1</ele>
        <time>2013-05-01T05:05:35.000Z</time>
      </trkpt>
      <trkpt lat="45.76003" lon="4.81691">
        <ele>296.1</ele>
        <time>2013-05-01T05:05:36.000Z</time>
      </trkpt>
      <trkpt lat="45.76003" lon="4.81695">
        <ele>296.1</ele>
        <time>2013-05-01T05:05:37.000Z</time>
      </trkpt>
      <trkpt lat="45.76004" lon="4.81698">
        <ele>296</ele>
        <time>2013-05-01T05:05:38.000Z</time>
      </trkpt>
      <trkpt lat="45.76005" lon="4.81702">
        <ele>295.9</ele>
        <time>2013-05-01T05:05:39.000Z</time>
      </trkpt>
      <trkpt lat="45.76006" lon="4.81705">
        <ele>295.7</ele>
        <time>2013-05-01T05:05:40.000Z</time>
      </trkpt>
      <trkpt lat="45.76007" lon="4.81708">
        <ele>295.6</ele>
        <time>2013-05-01T05:05:41.000Z</time>
      </trkpt>
      <trkpt lat="45.76008" lon="4.81711">
        <ele>295.5</ele>
        <time>2013-05-01T05:05:42.000Z</time>
      </trkpt>
      <trkpt lat="45.76009" lon="4.81714">
        <ele>295.4</ele>
        <time>2013-05-01T05:05:43.000Z</time>
      </trkpt>
      <trkpt lat="45.76009" lon="4.81718">
        <ele>295.2</ele>
        <time>2013-05-01T05:05:44.000Z</time>
      </trkpt>
      <trkpt lat="45.7601" lon="4.81721">
        <ele>295</ele>
        <time>2013-05-01T05:05:45.000Z</time>
      </trkpt>
      <trkpt lat="45.7601" lon="4.81725">
        <ele>294.8</ele>
        <time>2013-05-01T05:05:46.000Z</time>
      </trkpt>
      <trkpt lat="45.76011" lon="4.81729">
        <ele>294.5</ele>
        <time>2013-05-01T05:05:47.000Z</time>
      </trkpt>
      <trkpt lat="45.76011" lon="4.81733">
        <ele>294.2</ele>
        <time>2013-05-01T05:05:48.000Z</time>
      </trkpt>
      <trkpt lat="45.76012" lon="4.81736">
        <ele>294</ele>
        <time>2013-05-01T05:05:49.000Z</time>
      </trkpt>
      <trkpt lat="45.76012" lon="4.8174">
        <ele>293.7</ele>
        <time>2013-05-01T05:05:50.000Z</time>
      </trkpt>
      <trkpt lat="45.76013" lon="4.81744">
        <ele>293.5</ele>
        <time>2013-05-01T05:05:51.000Z</time>
      </trkpt>
      <trkpt lat="45.76013" lon="4.81747">
        <ele>293.2</ele>
        <time>2013-05-01T05:05:52.000Z</time>
      </trkpt>
      <trkpt lat="45.76014" lon="4.8175">
        <ele>293</ele>
        <time>2013-05-01T05:05:53.000Z</time>
      </trkpt>
      <trkpt lat="45.76015" lon="4.81754">
        <ele>292.8</ele>
        <time>2013-05-01T05:05:54.000Z</time>
      </trkpt>
      <trkpt lat="45.76015" lon="4.81758">
        <ele>292.6</ele>
        <time>2013-05-01T05:05:55.000Z</time>
      </trkpt>
      <trkpt lat="45.76016" lon="4.81763">
        <ele>292.3</ele>
        <time>2013-05-01T05:05:56.000Z</time>
      </trkpt>
      <trkpt lat="45.76016" lon="4.81766">
        <ele>292.1</ele>
        <time>2013-05-01T05:05:57.000Z</time>
      </trkpt>
      <trkpt lat="45.76018" lon="4.8177">
        <ele>291.9</ele>
        <time>2013-05-01T05:05:58.000Z</time>
      </trkpt>
      <trkpt lat="45.76019" lon="4.81773">
        <ele>291.6</ele>
        <time>2013-05-01T05:05:59.000Z</time>
      </trkpt>
      <trkpt lat="45.76019" lon="4.81777">
        <ele>291.4</ele>
        <time>2013-05-01T05:06:00.000Z</time>
      </trkpt>
      <trkpt lat="45.7602" lon="4.81781">
        <ele>291.3</ele>
        <time>2013-05-01T05:06:01.000Z</time>
      </trkpt>
      <trkpt lat="45.76021" lon="4.81785">
        <ele>291.2</ele>
        <time>2013-05-01T05:06:02.000Z</time>
      </trkpt>
      <trkpt lat="45.76022" lon="4.81788">
        <ele>291.1</ele>
        <time>2013-05-01T05:06:03.000Z</time>
      </trkpt>
      <trkpt lat="45.76023" lon="4.81792">
        <ele>291.1</ele>
        <time>2013-05-01T05:06:04.000Z</time>
      </trkpt>
      <trkpt lat="45.76024" lon="4.81796">
        <ele>291.1</ele>
        <time>2013-05-01T05:06:05.000Z</time>
      </trkpt>
      <trkpt lat="45.76025" lon="4.81799">
        <ele>291</ele>
        <time>2013-05-01T05:06:06.000Z</time>
      </trkpt>
      <trkpt lat="45.76026" lon="4.81802">
        <ele>291</ele>
        <time>2013-05-01T05:06:07.000Z</time>
      </trkpt>
      <trkpt lat="45.76027" lon="4.81806">
        <ele>291</ele>
        <time>2013-05-01T05:06:08.000Z</time>
      </trkpt>
      <trkpt lat="45.76028" lon="4.8181">
        <ele>290.8</ele>
        <time>2013-05-01T05:06:09.000Z</time>
      </trkpt>
      <trkpt lat="45.76029" lon="4.81814">
        <ele>290.6</ele>
        <time>2013-05-01T05:06:10.000Z</time>
      </trkpt>
      <trkpt lat="45.7603" lon="4.81817">
        <ele>290.4</ele>
        <time>2013-05-01T05:06:11.000Z</time>
      </trkpt>
      <trkpt lat="45.76032" lon="4.81821">
        <ele>290.3</ele>
        <time>2013-05-01T05:06:12.000Z</time>
      </trkpt>
      <trkpt lat="45.76033" lon="4.81824">
        <ele>290.1</ele>
        <time>2013-05-01T05:06:13.000Z</time>
      </trkpt>
      <trkpt lat="45.76034" lon="4.81828">
        <ele>289.9</ele>
        <time>2013-05-01T05:06:14.000Z</time>
      </trkpt>
      <trkpt lat="45.76035" lon="4.81831">
        <ele>289.8</ele>
        <time>2013-05-01T05:06:15.000Z</time>
      </trkpt>
      <trkpt lat="45.76036" lon="4.81834">
        <ele>289.7</ele>
        <time>2013-05-01T05:06:16.000Z</time>
      </trkpt>
      <trkpt lat="45.76037" lon="4.81838">
        <ele>289.4</ele>
        <time>2013-05-01T05:06:17.000Z</time>
      </trkpt>
      <trkpt lat="45.76038" lon="4.81841">
        <ele>289.2</ele>
        <time>2013-05-01T05:06:18.000Z</time>
      </trkpt>
      <trkpt lat="45.76039" lon="4.81844">
        <ele>289</ele>
        <time>2013-05-01T05:06:19.000Z</time>
      </trkpt>
      <trkpt lat="45.7604" lon="4.81847">
        <ele>288.8</ele>
        <time>2013-05-01T05:06:20.000Z</time>
      </trkpt>
      <trkpt lat="45.76042" lon="4.81851">
        <ele>288.6</ele>
        <time>2013-05-01T05:06:21.000Z</time>
      </trkpt>
      <trkpt lat="45.76043" lon="4.81854">
        <ele>288.4</ele>
        <time>2013-05-01T05:06:22.000Z</time>
      </trkpt>
      <trkpt lat="45.76044" lon="4.81857">
        <ele>288.2</ele>
        <time>2013-05-01T05:06:23.000Z</time>
      </trkpt>
      <trkpt lat="45.76045" lon="4.81861">
        <ele>288</ele>
        <time>2013-05-01T05:06:24.000Z</time>
      </trkpt>
      <trkpt lat="45.76045" lon="4.81865">
        <ele>287.8</ele>
        <time>2013-05-01T05:06:25.000Z</time>
      </trkpt>
      <trkpt lat="45.76046" lon="4.81869">
        <ele>287.7</ele>
        <time>2013-05-01T05:06:26.000Z</time>
      </trkpt>
      <trkpt lat="45.76046" lon="4.81872">
        <ele>287.5</ele>
        <time>2013-05-01T05:06:27.000Z</time>
      </trkpt>
      <trkpt lat="45.76047" lon="4.81875">
        <ele>287.3</ele>
        <time>2013-05-01T05:06:28.000Z</time>
      </trkpt>
      <trkpt lat="45.76048" lon="4.81879">
        <ele>287.1</ele>
        <time>2013-05-01T05:06:29.000Z</time>
      </trkpt>
      <trkpt lat="45.76049" lon="4.81883">
        <ele>286.8</ele>
        <time>2013-05-01T05:06:30.000Z</time>
      </trkpt>
      <trkpt lat="45.7605" lon="4.81886">
        <ele>286.6</ele>
        <time>2013-05-01T05:06:31.000Z</time>
      </trkpt>
      <trkpt lat="45.76051" lon="4.81889">
        <ele>286.3</ele>
        <time>2013-05-01T05:06:32.000Z</time>
      </trkpt>
      <trkpt lat="45.76052" lon="4.81892">
        <ele>286.4</ele>
        <time>2013-05-01T05:06:33.000Z</time>
      </trkpt>
      <trkpt lat="45.76053" lon="4.81895">
        <ele>286.4</ele>
        <time>2013-05-01T05:06:34.000Z</time>
      </trkpt>
      <trkpt lat="45.76053" lon="4.81899">
        <ele>286.5</ele>
        <time>2013-05-01T05:06:35.000Z</time>
      </trkpt>
      <trkpt lat="45.76054" lon="4.81903">
        <ele>286.5</ele>
        <time>2013-05-01T05:06:36.000Z</time>
      </trkpt>
      <trkpt lat="45.76055" lon="4.81906">
        <ele>286.6</ele>
        <time>2013-05-01T05:06:37.000Z</time>
      </trkpt>
      <trkpt lat="45.76056" lon="4.81909">
        <ele>286.7</ele>
        <time>2013-05-01T05:06:38.000Z</time>
      </trkpt>
      <trkpt lat="45.76057" lon="4.81912">
        <ele>286.7</ele>
        <time>2013-05-01T05:06:39.000Z</time>
      </trkpt>
      <trkpt lat="45.76058" lon="4.81914">
        <ele>286.7</ele>
        <time>2013-05-01T05:06:40.000Z</time>
      </trkpt>
      <trkpt lat="45.7606" lon="4.81917">
        <ele>286.7</ele>
        <time>2013-05-01T05:06:41.000Z</time>
      </trkpt>
      <trkpt lat="45.76061" lon="4.8192">
        <ele>286.5</ele>
        <time>2013-05-01T05:06:42.000Z</time>
      </trkpt>
      <trkpt lat="45.76062" lon="4.81923">
        <ele>286.4</ele>
        <time>2013-05-01T05:06:43.000Z</time>
      </trkpt>
      <trkpt lat="45.76063" lon="4.81926">
        <ele>286.2</ele>
        <time>2013-05-01T05:06:44.000Z</time>
      </trkpt>
      <trkpt lat="45.76064" lon="4.81929">
        <ele>286.1</ele>
        <time>2013-05-01T05:06:45.000Z</time>
      </trkpt>
      <trkpt lat="45.76065" lon="4.81932">
        <ele>286</ele>
        <time>2013-05-01T05:06:46.000Z</time>
      </trkpt>
      <trkpt lat="45.76065" lon="4.81934">
        <ele>285.9</ele>
        <time>2013-05-01T05:06:47.000Z</time>
      </trkpt>
      <trkpt lat="45.76066" lon="4.81936">
        <ele>285.8</ele>
        <time>2013-05-01T05:06:48.000Z</time>
      </trkpt>
      <trkpt lat="45.76067" lon="4.8194">
        <ele>285.7</ele>
        <time>2013-05-01T05:06:49.000Z</time>
      </trkpt>
      <trkpt lat="45.76068" lon="4.81943">
        <ele>285.6</ele>
        <time>2013-05-01T05:06:50.000Z</time>
      </trkpt>
      <trkpt lat="45.76069" lon="4.81946">
        <ele>285.6</ele>
        <time>2013-05-01T05:06:51.000Z</time>
      </trkpt>
      <trkpt lat="45.7607" lon="4.8195">
        <ele>285.6</ele>
        <time>2013-05-01T05:06:52.000Z</time>
      </trkpt>
      <trkpt lat="45.76071" lon="4.81953">
        <ele>285.6</ele>
        <time>2013-05-01T05:06:53.000Z</time>
      </trkpt>
      <trkpt lat="45.76072" lon="4.81956">
        <ele>285.7</ele>
        <time>2013-05-01T05:06:54.000Z</time>
      </trkpt>
      <trkpt lat="45.76072" lon="4.8196">
        <ele>285.7</ele>
        <time>2013-05-01T05:06:55.000Z</time>
      </trkpt>
      <trkpt lat="45.76073" lon="4.81963">
        <ele>285.8</ele>
        <time>2013-05-01T05:06:56.000Z</time>
      </trkpt>
      <trkpt lat="45.76074" lon="4.81967">
        <ele>285.9</ele>
        <time>2013-05-01T05:06:57.000Z</time>
      </trkpt>
      <trkpt lat="45.76075" lon="4.81971">
        <ele>286</ele>
        <time>2013-05-01T05:06:58.000Z</time>
      </trkpt>
      <trkpt lat="45.76075" lon="4.81974">
        <ele>286</ele>
        <time>2013-05-01T05:06:59.000Z</time>
      </trkpt>
      <trkpt lat="45.76076" lon="4.81978">
        <ele>286.1</ele>
        <time>2013-05-01T05:07:00.000Z</time>
      </trkpt>
      <trkpt lat="45.76078" lon="4.81981">
        <ele>286.2</ele>
        <time>2013-05-01T05:07:01.000Z</time>
      </trkpt>
      <trkpt lat="45.76078" lon="4.81984">
        <ele>286.3</ele>
        <time>2013-05-01T05:07:02.000Z</time>
      </trkpt>
      <trkpt lat="45.76079" lon="4.81988">
        <ele>286.4</ele>
        <time>2013-05-01T05:07:03.000Z</time>
      </trkpt>
      <trkpt lat="45.7608" lon="4.8199">
        <ele>286.5</ele>
        <time>2013-05-01T05:07:04.000Z</time>
      </trkpt>
      <trkpt lat="45.76082" lon="4.81993">
        <ele>286.7</ele>
        <time>2013-05-01T05:07:05.000Z</time>
      </trkpt>
      <trkpt lat="45.76083" lon="4.81996">
        <ele>286.9</ele>
        <time>2013-05-01T05:07:06.000Z</time>
      </trkpt>
      <trkpt lat="45.76084" lon="4.82">
        <ele>287</ele>
        <time>2013-05-01T05:07:07.000Z</time>
      </trkpt>
      <trkpt lat="45.76086" lon="4.82004">
        <ele>286.9</ele>
        <time>2013-05-01T05:07:08.000Z</time>
      </trkpt>
      <trkpt lat="45.76087" lon="4.82008">
        <ele>286.9</ele>
        <time>2013-05-01T05:07:09.000Z</time>
      </trkpt>
      <trkpt lat="45.76087" lon="4.82012">
        <ele>287</ele>
        <time>2013-05-01T05:07:10.000Z</time>
      </trkpt>
      <trkpt lat="45.76088" lon="4.82016">
        <ele>287</ele>
        <time>2013-05-01T05:07:11.000Z</time>
      </trkpt>
      <trkpt lat="45.76089" lon="4.8202">
        <ele>287.1</ele>
        <time>2013-05-01T05:07:12.000Z</time>
      </trkpt>
      <trkpt lat="45.7609" lon="4.82024">
        <ele>287.2</ele>
        <time>2013-05-01T05:07:13.000Z</time>
      </trkpt>
      <trkpt lat="45.76092" lon="4.82027">
        <ele>287.3</ele>
        <time>2013-05-01T05:07:14.000Z</time>
      </trkpt>
      <trkpt lat="45.76093" lon="4.82031">
        <ele>287.5</ele>
        <time>2013-05-01T05:07:15.000Z</time>
      </trkpt>
      <trkpt lat="45.76094" lon="4.82035">
        <ele>287.7</ele>
        <time>2013-05-01T05:07:16.000Z</time>
      </trkpt>
      <trkpt lat="45.76095" lon="4.82039">
        <ele>287.8</ele>
        <time>2013-05-01T05:07:17.000Z</time>
      </trkpt>
      <trkpt lat="45.76096" lon="4.82043">
        <ele>288</ele>
        <time>2013-05-01T05:07:18.000Z</time>
      </trkpt>
      <trkpt lat="45.76097" lon="4.82045">
        <ele>288.1</ele>
        <time>2013-05-01T05:07:19.000Z</time>
      </trkpt>
      <trkpt lat="45.76098" lon="4.82049">
        <ele>288.3</ele>
        <time>2013-05-01T05:07:20.000Z</time>
      </trkpt>
      <trkpt lat="45.76099" lon="4.82052">
        <ele>288.4</ele>
        <time>2013-05-01T05:07:21.000Z</time>
      </trkpt>
      <trkpt lat="45.761" lon="4.82055">
        <ele>288.6</ele>
        <time>2013-05-01T05:07:22.000Z</time>
      </trkpt>
      <trkpt lat="45.76102" lon="4.82058">
        <ele>288.8</ele>
        <time>2013-05-01T05:07:23.000Z</time>
      </trkpt>
      <trkpt lat="45.76103" lon="4.82061">
        <ele>289.1</ele>
        <time>2013-05-01T05:07:24.000Z</time>
      </trkpt>
      <trkpt lat="45.76104" lon="4.82064">
        <ele>289.3</ele>
        <time>2013-05-01T05:07:25.000Z</time>
      </trkpt>
      <trkpt lat="45.76106" lon="4.82067">
        <ele>289.6</ele>
        <time>2013-05-01T05:07:26.000Z</time>
      </trkpt>
      <trkpt lat="45.76107" lon="4.8207">
        <ele>289.9</ele>
        <time>2013-05-01T05:07:27.000Z</time>
      </trkpt>
      <trkpt lat="45.76108" lon="4.82073">
        <ele>290.1</ele>
        <time>2013-05-01T05:07:28.000Z</time>
      </trkpt>
      <trkpt lat="45.76109" lon="4.82076">
        <ele>290.4</ele>
        <time>2013-05-01T05:07:29.000Z</time>
      </trkpt>
      <trkpt lat="45.7611" lon="4.82079">
        <ele>290.6</ele>
        <time>2013-05-01T05:07:30.000Z</time>
      </trkpt>
      <trkpt lat="45.76111" lon="4.82081">
        <ele>290.8</ele>
        <time>2013-05-01T05:07:31.000Z</time>
      </trkpt>
      <trkpt lat="45.76113" lon="4.82083">
        <ele>291</ele>
        <time>2013-05-01T05:07:32.000Z</time>
      </trkpt>
      <trkpt lat="45.76115" lon="4.82085">
        <ele>291</ele>
        <time>2013-05-01T05:07:33.000Z</time>
      </trkpt>
      <trkpt lat="45.76117" lon="4.82086">
        <ele>291.1</ele>
        <time>2013-05-01T05:07:34.000Z</time>
      </trkpt>
      <trkpt lat="45.7612" lon="4.82087">
        <ele>291.1</ele>
        <time>2013-05-01T05:07:35.000Z</time>
      </trkpt>
      <trkpt lat="45.76121" lon="4.82088">
        <ele>291.2</ele>
        <time>2013-05-01T05:07:36.000Z</time>
      </trkpt>
      <trkpt lat="45.76123" lon="4.8209">
        <ele>291.2</ele>
        <time>2013-05-01T05:07:37.000Z</time>
      </trkpt>
      <trkpt lat="45.76124" lon="4.82092">
        <ele>291.3</ele>
        <time>2013-05-01T05:07:38.000Z</time>
      </trkpt>
      <trkpt lat="45.76126" lon="4.82094">
        <ele>291.4</ele>
        <time>2013-05-01T05:07:39.000Z</time>
      </trkpt>
      <trkpt lat="45.76128" lon="4.82095">
        <ele>291.4</ele>
        <time>2013-05-01T05:07:40.000Z</time>
      </trkpt>
      <trkpt lat="45.76131" lon="4.82097">
        <ele>291.5</ele>
        <time>2013-05-01T05:07:41.000Z</time>
      </trkpt>
      <trkpt lat="45.76133" lon="4.82098">
        <ele>291.5</ele>
        <time>2013-05-01T05:07:42.000Z</time>
      </trkpt>
      <trkpt lat="45.76135" lon="4.82099">
        <ele>291.6</ele>
        <time>2013-05-01T05:07:43.000Z</time>
      </trkpt>
      <trkpt lat="45.76137" lon="4.821">
        <ele>291.6</ele>
        <time>2013-05-01T05:07:44.000Z</time>
      </trkpt>
      <trkpt lat="45.76139" lon="4.82102">
        <ele>291.7</ele>
        <time>2013-05-01T05:07:45.000Z</time>
      </trkpt>
      <trkpt lat="45.76141" lon="4.82103">
        <ele>291.7</ele>
        <time>2013-05-01T05:07:46.000Z</time>
      </trkpt>
      <trkpt lat="45.76144" lon="4.82103">
        <ele>291.7</ele>
        <time>2013-05-01T05:07:47.000Z</time>
      </trkpt>
      <trkpt lat="45.76147" lon="4.82103">
        <ele>291.6</ele>
        <time>2013-05-01T05:07:48.000Z</time>
      </trkpt>
      <trkpt lat="45.76149" lon="4.82103">
        <ele>291.6</ele>
        <time>2013-05-01T05:07:49.000Z</time>
      </trkpt>
      <trkpt lat="45.76152" lon="4.82104">
        <ele>291.6</ele>
        <time>2013-05-01T05:07:50.000Z</time>
      </trkpt>
      <trkpt lat="45.76155" lon="4.82104">
        <ele>291.6</ele>
        <time>2013-05-01T05:07:51.000Z</time>
      </trkpt>
      <trkpt lat="45.76157" lon="4.82106">
        <ele>291.7</ele>
        <time>2013-05-01T05:07:52.000Z</time>
      </trkpt>
      <trkpt lat="45.76159" lon="4.82107">
        <ele>291.7</ele>
        <time>2013-05-01T05:07:53.000Z</time>
      </trkpt>
      <trkpt lat="45.76161" lon="4.82108">
        <ele>291.8</ele>
        <time>2013-05-01T05:07:54.000Z</time>
      </trkpt>
      <trkpt lat="45.76164" lon="4.8211">
        <ele>291.9</ele>
        <time>2013-05-01T05:07:55.000Z</time>
      </trkpt>
      <trkpt lat="45.76166" lon="4.82111">
        <ele>292</ele>
        <time>2013-05-01T05:07:56.000Z</time>
      </trkpt>
      <trkpt lat="45.76169" lon="4.82112">
        <ele>291.9</ele>
        <time>2013-05-01T05:07:57.000Z</time>
      </trkpt>
      <trkpt lat="45.76171" lon="4.82113">
        <ele>291.7</ele>
        <time>2013-05-01T05:07:58.000Z</time>
      </trkpt>
      <trkpt lat="45.76173" lon="4.82114">
        <ele>291.6</ele>
        <time>2013-05-01T05:07:59.000Z</time>
      </trkpt>
      <trkpt lat="45.76176" lon="4.82114">
        <ele>291.4</ele>
        <time>2013-05-01T05:08:00.000Z</time>
      </trkpt>
      <trkpt lat="45.76178" lon="4.82115">
        <ele>291.3</ele>
        <time>2013-05-01T05:08:01.000Z</time>
      </trkpt>
      <trkpt lat="45.7618" lon="4.82116">
        <ele>291.2</ele>
        <time>2013-05-01T05:08:02.000Z</time>
      </trkpt>
      <trkpt lat="45.76183" lon="4.82117">
        <ele>291.1</ele>
        <time>2013-05-01T05:08:03.000Z</time>
      </trkpt>
      <trkpt lat="45.76185" lon="4.82118">
        <ele>291</ele>
        <time>2013-05-01T05:08:04.000Z</time>
      </trkpt>
      <trkpt lat="45.76187" lon="4.82118">
        <ele>290.9</ele>
        <time>2013-05-01T05:08:05.000Z</time>
      </trkpt>
      <trkpt lat="45.7619" lon="4.82119">
        <ele>290.8</ele>
        <time>2013-05-01T05:08:06.000Z</time>
      </trkpt>
      <trkpt lat="45.76192" lon="4.8212">
        <ele>290.7</ele>
        <time>2013-05-01T05:08:07.000Z</time>
      </trkpt>
      <trkpt lat="45.76195" lon="4.82121">
        <ele>290.7</ele>
        <time>2013-05-01T05:08:08.000Z</time>
      </trkpt>
      <trkpt lat="45.76197" lon="4.82121">
        <ele>290.6</ele>
        <time>2013-05-01T05:08:09.000Z</time>
      </trkpt>
      <trkpt lat="45.76199" lon="4.82122">
        <ele>290.5</ele>
        <time>2013-05-01T05:08:10.000Z</time>
      </trkpt>
      <trkpt lat="45.76201" lon="4.82123">
        <ele>290.5</ele>
        <time>2013-05-01T05:08:11.000Z</time>
      </trkpt>
      <trkpt lat="45.76204" lon="4.82125">
        <ele>290.5</ele>
        <time>2013-05-01T05:08:12.000Z</time>
      </trkpt>
      <trkpt lat="45.76206" lon="4.82128">
        <ele>290.6</ele>
        <time>2013-05-01T05:08:13.000Z</time>
      </trkpt>
      <trkpt lat="45.76207" lon="4.8213">
        <ele>290.7</ele>
        <time>2013-05-01T05:08:14.000Z</time>
      </trkpt>
      <trkpt lat="45.76209" lon="4.82132">
        <ele>290.8</ele>
        <time>2013-05-01T05:08:15.000Z</time>
      </trkpt>
      <trkpt lat="45.76211" lon="4.82133">
        <ele>290.9</ele>
        <time>2013-05-01T05:08:16.000Z</time>
      </trkpt>
      <trkpt lat="45.76214" lon="4.82134">
        <ele>290.8</ele>
        <time>2013-05-01T05:08:17.000Z</time>
      </trkpt>
      <trkpt lat="45.76216" lon="4.82135">
        <ele>290.8</ele>
        <time>2013-05-01T05:08:18.000Z</time>
      </trkpt>
      <trkpt lat="45.76219" lon="4.82135">
        <ele>290.7</ele>
        <time>2013-05-01T05:08:19.000Z</time>
      </trkpt>
      <trkpt lat="45.76221" lon="4.82136">
        <ele>290.8</ele>
        <time>2013-05-01T05:08:20.000Z</time>
      </trkpt>
      <trkpt lat="45.76223" lon="4.82138">
        <ele>290.8</ele>
        <time>2013-05-01T05:08:21.000Z</time>
      </trkpt>
      <trkpt lat="45.76225" lon="4.82139">
        <ele>290.8</ele>
        <time>2013-05-01T05:08:22.000Z</time>
      </trkpt>
      <trkpt lat="45.76228" lon="4.8214">
        <ele>290.6</ele>
        <time>2013-05-01T05:08:23.000Z</time>
      </trkpt>
      <trkpt lat="45.7623" lon="4.82141">
        <ele>290.5</ele>
        <time>2013-05-01T05:08:24.000Z</time>
      </trkpt>
      <trkpt lat="45.76233" lon="4.82142">
        <ele>290.4</ele>
        <time>2013-05-01T05:08:25.000Z</time>
      </trkpt>
      <trkpt lat="45.76235" lon="4.82142">
        <ele>290.3</ele>
        <time>2013-05-01T05:08:26.000Z</time>
      </trkpt>
      <trkpt lat="45.76237" lon="4.82144">
        <ele>290.2</ele>
        <time>2013-05-01T05:08:27.000Z</time>
      </trkpt>
      <trkpt lat="45.76239" lon="4.82145">
        <ele>290.2</ele>
        <time>2013-05-01T05:08:28.000Z</time>
      </trkpt>
      <trkpt lat="45.76241" lon="4.82146">
        <ele>290.1</ele>
        <time>2013-05-01T05:08:29.000Z</time>
      </trkpt>
      <trkpt lat="45.76243" lon="4.82147">
        <ele>290</ele>
        <time>2013-05-01T05:08:30.000Z</time>
      </trkpt>
      <trkpt lat="45.76245" lon="4.82148">
        <ele>290</ele>
        <time>2013-05-01T05:08:31.000Z</time>
      </trkpt>
      <trkpt lat="45.76247" lon="4.82149">
        <ele>289.9</ele>
        <time>2013-05-01T05:08:32.000Z</time>
      </trkpt>
      <trkpt lat="45.76249" lon="4.8215">
        <ele>289.9</ele>
        <time>2013-05-01T05:08:33.000Z</time>
      </trkpt>
      <trkpt lat="45.76252" lon="4.82151">
        <ele>289.8</ele>
        <time>2013-05-01T05:08:34.000Z</time>
      </trkpt>
      <trkpt lat="45.76254" lon="4.82152">
        <ele>289.8</ele>
        <time>2013-05-01T05:08:35.000Z</time>
      </trkpt>
      <trkpt lat="45.76257" lon="4.82152">
        <ele>289.8</ele>
        <time>2013-05-01T05:08:36.000Z</time>
      </trkpt>
      <trkpt lat="45.76259" lon="4.82154">
        <ele>289.9</ele>
        <time>2013-05-01T05:08:37.000Z</time>
      </trkpt>
      <trkpt lat="45.76261" lon="4.82156">
        <ele>290</ele>
        <time>2013-05-01T05:08:38.000Z</time>
      </trkpt>
      <trkpt lat="45.76263" lon="4.82158">
        <ele>290.2</ele>
        <time>2013-05-01T05:08:39.000Z</time>
      </trkpt>
      <trkpt lat="45.76265" lon="4.82161">
        <ele>290.4</ele>
        <time>2013-05-01T05:08:40.000Z</time>
      </trkpt>
      <trkpt lat="45.76266" lon="4.82164">
        <ele>290.7</ele>
        <time>2013-05-01T05:08:41.000Z</time>
      </trkpt>
      <trkpt lat="45.76267" lon="4.82168">
        <ele>291</ele>
        <time>2013-05-01T05:08:42.000Z</time>
      </trkpt>
      <trkpt lat="45.76268" lon="4.82171">
        <ele>291.1</ele>
        <time>2013-05-01T05:08:43.000Z</time>
      </trkpt>
      <trkpt lat="45.76268" lon="4.82175">
        <ele>291.1</ele>
        <time>2013-05-01T05:08:44.000Z</time>
      </trkpt>
      <trkpt lat="45.76268" lon="4.82179">
        <ele>291.2</ele>
        <time>2013-05-01T05:08:45.000Z</time>
      </trkpt>
      <trkpt lat="45.76268" lon="4.82183">
        <ele>291.2</ele>
        <time>2013-05-01T05:08:46.000Z</time>
      </trkpt>
      <trkpt lat="45.76269" lon="4.82187">
        <ele>291.2</ele>
        <time>2013-05-01T05:08:47.000Z</time>
      </trkpt>
      <trkpt lat="45.76269" lon="4.82191">
        <ele>291.3</ele>
        <time>2013-05-01T05:08:48.000Z</time>
      </trkpt>
      <trkpt lat="45.76269" lon="4.82195">
        <ele>291.3</ele>
        <time>2013-05-01T05:08:49.000Z</time>
      </trkpt>
      <trkpt lat="45.76269" lon="4.82199">
        <ele>291.3</ele>
        <time>2013-05-01T05:08:50.000Z</time>
      </trkpt>
      <trkpt lat="45.76269" lon="4.82201">
        <ele>291.3</ele>
        <time>2013-05-01T05:08:51.000Z</time>
      </trkpt>
      <trkpt lat="45.76271" lon="4.82204">
        <ele>291.3</ele>
        <time>2013-05-01T05:08:52.000Z</time>
      </trkpt>
      <trkpt lat="45.76273" lon="4.82206">
        <ele>291.2</ele>
        <time>2013-05-01T05:08:53.000Z</time>
      </trkpt>
      <trkpt lat="45.76275" lon="4.82207">
        <ele>291.1</ele>
        <time>2013-05-01T05:08:54.000Z</time>
      </trkpt>
      <trkpt lat="45.76277" lon="4.82208">
        <ele>291</ele>
        <time>2013-05-01T05:08:55.000Z</time>
      </trkpt>
      <trkpt lat="45.7628" lon="4.82209">
        <ele>290.9</ele>
        <time>2013-05-01T05:08:56.000Z</time>
      </trkpt>
      <trkpt lat="45.76282" lon="4.8221">
        <ele>290.8</ele>
        <time>2013-05-01T05:08:57.000Z</time>
      </trkpt>
      <trkpt lat="45.76284" lon="4.82211">
        <ele>290.8</ele>
        <time>2013-05-01T05:08:58.000Z</time>
      </trkpt>
      <trkpt lat="45.76287" lon="4.82212">
        <ele>290.7</ele>
        <time>2013-05-01T05:08:59.000Z</time>
      </trkpt>
      <trkpt lat="45.7629" lon="4.82212">
        <ele>290.6</ele>
        <time>2013-05-01T05:09:00.000Z</time>
      </trkpt>
      <trkpt lat="45.76292" lon="4.82213">
        <ele>290.5</ele>
        <time>2013-05-01T05:09:01.000Z</time>
      </trkpt>
      <trkpt lat="45.76295" lon="4.82213">
        <ele>290.4</ele>
        <time>2013-05-01T05:09:02.000Z</time>
      </trkpt>
      <trkpt lat="45.76297" lon="4.82213">
        <ele>290.3</ele>
        <time>2013-05-01T05:09:03.000Z</time>
      </trkpt>
      <trkpt lat="45.763" lon="4.82213">
        <ele>290.2</ele>
        <time>2013-05-01T05:09:04.000Z</time>
      </trkpt>
      <trkpt lat="45.76303" lon="4.82213">
        <ele>290.1</ele>
        <time>2013-05-01T05:09:05.000Z</time>
      </trkpt>
      <trkpt lat="45.76305" lon="4.82213">
        <ele>290</ele>
        <time>2013-05-01T05:09:06.000Z</time>
      </trkpt>
      <trkpt lat="45.76308" lon="4.82214">
        <ele>290</ele>
        <time>2013-05-01T05:09:07.000Z</time>
      </trkpt>
      <trkpt lat="45.76311" lon="4.82214">
        <ele>290</ele>
        <time>2013-05-01T05:09:08.000Z</time>
      </trkpt>
      <trkpt lat="45.76314" lon="4.82215">
        <ele>290</ele>
        <time>2013-05-01T05:09:09.000Z</time>
      </trkpt>
      <trkpt lat="45.76317" lon="4.82215">
        <ele>290</ele>
        <time>2013-05-01T05:09:10.000Z</time>
      </trkpt>
      <trkpt lat="45.7632" lon="4.82215">
        <ele>290</ele>
        <time>2013-05-01T05:09:11.000Z</time>
      </trkpt>
      <trkpt lat="45.76323" lon="4.82215">
        <ele>290</ele>
        <time>2013-05-01T05:09:12.000Z</time>
      </trkpt>
      <trkpt lat="45.76326" lon="4.82215">
        <ele>290</ele>
        <time>2013-05-01T05:09:13.000Z</time>
      </trkpt>
      <trkpt lat="45.76328" lon="4.82215">
        <ele>290</ele>
        <time>2013-05-01T05:09:14.000Z</time>
      </trkpt>
      <trkpt lat="45.76331" lon="4.82215">
        <ele>290</ele>
        <time>2013-05-01T05:09:15.000Z</time>
      </trkpt>
      <trkpt lat="45.76334" lon="4.82214">
        <ele>290</ele>
        <time>2013-05-01T05:09:16.000Z</time>
      </trkpt>
      <trkpt lat="45.76336" lon="4.82214">
        <ele>289.8</ele>
        <time>2013-05-01T05:09:17.000Z</time>
      </trkpt>
      <trkpt lat="45.76338" lon="4.82214">
        <ele>289.7</ele>
        <time>2013-05-01T05:09:18.000Z</time>
      </trkpt>
      <trkpt lat="45.76341" lon="4.82214">
        <ele>289.5</ele>
        <time>2013-05-01T05:09:19.000Z</time>
      </trkpt>
      <trkpt lat="45.76344" lon="4.82214">
        <ele>289.3</ele>
        <time>2013-05-01T05:09:20.000Z</time>
      </trkpt>
      <trkpt lat="45.76346" lon="4.82215">
        <ele>289.2</ele>
        <time>2013-05-01T05:09:21.000Z</time>
      </trkpt>
      <trkpt lat="45.76349" lon="4.82215">
        <ele>289</ele>
        <time>2013-05-01T05:09:22.000Z</time>
      </trkpt>
      <trkpt lat="45.76351" lon="4.82214">
        <ele>288.8</ele>
        <time>2013-05-01T05:09:23.000Z</time>
      </trkpt>
      <trkpt lat="45.76354" lon="4.82214">
        <ele>288.6</ele>
        <time>2013-05-01T05:09:24.000Z</time>
      </trkpt>
      <trkpt lat="45.76357" lon="4.82215">
        <ele>288.5</ele>
        <time>2013-05-01T05:09:25.000Z</time>
      </trkpt>
      <trkpt lat="45.76359" lon="4.82215">
        <ele>288.3</ele>
        <time>2013-05-01T05:09:26.000Z</time>
      </trkpt>
      <trkpt lat="45.76362" lon="4.82215">
        <ele>288.1</ele>
        <time>2013-05-01T05:09:27.000Z</time>
      </trkpt>
      <trkpt lat="45.76364" lon="4.82215">
        <ele>287.5</ele>
        <time>2013-05-01T05:09:28.000Z</time>
      </trkpt>
      <trkpt lat="45.76367" lon="4.82216">
        <ele>287</ele>
        <time>2013-05-01T05:09:29.000Z</time>
      </trkpt>
      <trkpt lat="45.76369" lon="4.82217">
        <ele>286.7</ele>
        <time>2013-05-01T05:09:30.000Z</time>
      </trkpt>
      <trkpt lat="45.76372" lon="4.82218">
        <ele>286.3</ele>
        <time>2013-05-01T05:09:31.000Z</time>
      </trkpt>
      <trkpt lat="45.76374" lon="4.8222">
        <ele>286.1</ele>
        <time>2013-05-01T05:09:32.000Z</time>
      </trkpt>
      <trkpt lat="45.76376" lon="4.82223">
        <ele>286.3</ele>
        <time>2013-05-01T05:09:33.000Z</time>
      </trkpt>
      <trkpt lat="45.76377" lon="4.82226">
        <ele>286.2</ele>
        <time>2013-05-01T05:09:34.000Z</time>
      </trkpt>
      <trkpt lat="45.76378" lon="4.8223">
        <ele>286.2</ele>
        <time>2013-05-01T05:09:35.000Z</time>
      </trkpt>
      <trkpt lat="45.76379" lon="4.82234">
        <ele>286.2</ele>
        <time>2013-05-01T05:09:36.000Z</time>
      </trkpt>
      <trkpt lat="45.7638" lon="4.82237">
        <ele>286.2</ele>
        <time>2013-05-01T05:09:37.000Z</time>
      </trkpt>
      <trkpt lat="45.76381" lon="4.82241">
        <ele>286.2</ele>
        <time>2013-05-01T05:09:38.000Z</time>
      </trkpt>
      <trkpt lat="45.76382" lon="4.82245">
        <ele>286.3</ele>
        <time>2013-05-01T05:09:39.000Z</time>
      </trkpt>
      <trkpt lat="45.76383" lon="4.82248">
        <ele>286.4</ele>
        <time>2013-05-01T05:09:40.000Z</time>
      </trkpt>
      <trkpt lat="45.76383" lon="4.82252">
        <ele>286.3</ele>
        <time>2013-05-01T05:09:41.000Z</time>
      </trkpt>
      <trkpt lat="45.76385" lon="4.82256">
        <ele>286.1</ele>
        <time>2013-05-01T05:09:42.000Z</time>
      </trkpt>
      <trkpt lat="45.76386" lon="4.82259">
        <ele>285.9</ele>
        <time>2013-05-01T05:09:43.000Z</time>
      </trkpt>
      <trkpt lat="45.76387" lon="4.82262">
        <ele>285.7</ele>
        <time>2013-05-01T05:09:44.000Z</time>
      </trkpt>
      <trkpt lat="45.76388" lon="4.82264">
        <ele>285.6</ele>
        <time>2013-05-01T05:09:45.000Z</time>
      </trkpt>
      <trkpt lat="45.76389" lon="4.82265">
        <ele>285.4</ele>
        <time>2013-05-01T05:09:46.000Z</time>
      </trkpt>
      <trkpt lat="45.76391" lon="4.82266">
        <ele>285.2</ele>
        <time>2013-05-01T05:09:47.000Z</time>
      </trkpt>
      <trkpt lat="45.76392" lon="4.82266">
        <ele>285</ele>
        <time>2013-05-01T05:09:48.000Z</time>
      </trkpt>
      <trkpt lat="45.76394" lon="4.82265">
        <ele>284.8</ele>
        <time>2013-05-01T05:09:49.000Z</time>
      </trkpt>
      <trkpt lat="45.76396" lon="4.82265">
        <ele>284.6</ele>
        <time>2013-05-01T05:09:50.000Z</time>
      </trkpt>
      <trkpt lat="45.76398" lon="4.82265">
        <ele>284.4</ele>
        <time>2013-05-01T05:09:51.000Z</time>
      </trkpt>
      <trkpt lat="45.76399" lon="4.82264">
        <ele>284.2</ele>
        <time>2013-05-01T05:09:52.000Z</time>
      </trkpt>
      <trkpt lat="45.76401" lon="4.82264">
        <ele>284</ele>
        <time>2013-05-01T05:09:53.000Z</time>
      </trkpt>
      <trkpt lat="45.76403" lon="4.82263">
        <ele>283.8</ele>
        <time>2013-05-01T05:09:54.000Z</time>
      </trkpt>
      <trkpt lat="45.76405" lon="4.82263">
        <ele>283.5</ele>
        <time>2013-05-01T05:09:55.000Z</time>
      </trkpt>
      <trkpt lat="45.76407" lon="4.82262">
        <ele>283.3</ele>
        <time>2013-05-01T05:09:56.000Z</time>
      </trkpt>
      <trkpt lat="45.76408" lon="4.82262">
        <ele>283.1</ele>
        <time>2013-05-01T05:09:57.000Z</time>
      </trkpt>
      <trkpt lat="45.7641" lon="4.82262">
        <ele>282.9</ele>
        <time>2013-05-01T05:09:58.000Z</time>
      </trkpt>
      <trkpt lat="45.76412" lon="4.82262">
        <ele>282.6</ele>
        <time>2013-05-01T05:09:59.000Z</time>
      </trkpt>
      <trkpt lat="45.76414" lon="4.82263">
        <ele>282.3</ele>
        <time>2013-05-01T05:10:00.000Z</time>
      </trkpt>
      <trkpt lat="45.76416" lon="4.82263">
        <ele>282.1</ele>
        <time>2013-05-01T05:10:01.000Z</time>
      </trkpt>
      <trkpt lat="45.76418" lon="4.82264">
        <ele>281.5</ele>
        <time>2013-05-01T05:10:02.000Z</time>
      </trkpt>
      <trkpt lat="45.7642" lon="4.82264">
        <ele>280.9</ele>
        <time>2013-05-01T05:10:03.000Z</time>
      </trkpt>
      <trkpt lat="45.76422" lon="4.82265">
        <ele>280.2</ele>
        <time>2013-05-01T05:10:04.000Z</time>
      </trkpt>
      <trkpt lat="45.76423" lon="4.82265">
        <ele>279.7</ele>
        <time>2013-05-01T05:10:05.000Z</time>
      </trkpt>
      <trkpt lat="45.76425" lon="4.82266">
        <ele>279.2</ele>
        <time>2013-05-01T05:10:06.000Z</time>
      </trkpt>
      <trkpt lat="45.76426" lon="4.82267">
        <ele>278.7</ele>
        <time>2013-05-01T05:10:07.000Z</time>
      </trkpt>
      <trkpt lat="45.76427" lon="4.82267">
        <ele>278.5</ele>
        <time>2013-05-01T05:10:08.000Z</time>
      </trkpt>
      <trkpt lat="45.76427" lon="4.82268">
        <ele>278.6</ele>
        <time>2013-05-01T05:10:09.000Z</time>
      </trkpt>
      <trkpt lat="45.76426" lon="4.82268">
        <ele>278.7</ele>
        <time>2013-05-01T05:10:10.000Z</time>
      </trkpt>
      <trkpt lat="45.76426" lon="4.82268">
        <ele>278.7</ele>
        <time>2013-05-01T05:10:11.000Z</time>
      </trkpt>
      <trkpt lat="45.76427" lon="4.82268">
        <ele>278.7</ele>
        <time>2013-05-01T05:10:12.000Z</time>
      </trkpt>
      <trkpt lat="45.76427" lon="4.82268">
        <ele>278.7</ele>
        <time>2013-05-01T05:10:13.000Z</time>
      </trkpt>
      <trkpt lat="45.76427" lon="4.82268">
        <ele>278.7</ele>
        <time>2013-05-01T05:10:14.000Z</time>
      </trkpt>
      <trkpt lat="45.76427" lon="4.82268">
        <ele>278.6</ele>
        <time>2013-05-01T05:10:15.000Z</time>
      </trkpt>
      <trkpt lat="45.76427" lon="4.82268">
        <ele>278.6</ele>
        <time>2013-05-01T05:10:16.000Z</time>
      </trkpt>
      <trkpt lat="45.76427" lon="4.82268">
        <ele>278.5</ele>
        <time>2013-05-01T05:10:17.000Z</time>
      </trkpt>
      <trkpt lat="45.76427" lon="4.82269">
        <ele>278.5</ele>
        <time>2013-05-01T05:10:18.000Z</time>
      </trkpt>
      <trkpt lat="45.76427" lon="4.82269">
        <ele>278.5</ele>
        <time>2013-05-01T05:10:19.000Z</time>
      </trkpt>
      <trkpt lat="45.76427" lon="4.82269">
        <ele>278.5</ele>
        <time>2013-05-01T05:10:20.000Z</time>
      </trkpt>
      <trkpt lat="45.76427" lon="4.82269">
        <ele>278.5</ele>
        <time>2013-05-01T05:10:21.000Z</time>
      </trkpt>
      <trkpt lat="45.76427" lon="4.8227">
        <ele>278.5</ele>
        <time>2013-05-01T05:10:22.000Z</time>
      </trkpt>
      <trkpt lat="45.76428" lon="4.8227">
        <ele>278.5</ele>
        <time>2013-05-01T05:10:23.000Z</time>
      </trkpt>
      <trkpt lat="45.76428" lon="4.82271">
        <ele>278.4</ele>
        <time>2013-05-01T05:10:24.000Z</time>
      </trkpt>
      <trkpt lat="45.76428" lon="4.82272">
        <ele>278.3</ele>
        <time>2013-05-01T05:10:25.000Z</time>
      </trkpt>
      <trkpt lat="45.76429" lon="4.82272">
        <ele>278</ele>
        <time>2013-05-01T05:10:26.000Z</time>
      </trkpt>
      <trkpt lat="45.7643" lon="4.82274">
        <ele>277.9</ele>
        <time>2013-05-01T05:10:27.000Z</time>
      </trkpt>
      <trkpt lat="45.7643" lon="4.82275">
        <ele>277.9</ele>
        <time>2013-05-01T05:10:28.000Z</time>
      </trkpt>
      <trkpt lat="45.76431" lon="4.82277">
        <ele>277.7</ele>
        <time>2013-05-01T05:10:29.000Z</time>
      </trkpt>
      <trkpt lat="45.76433" lon="4.82278">
        <ele>277.4</ele>
        <time>2013-05-01T05:10:30.000Z</time>
      </trkpt>
      <trkpt lat="45.76434" lon="4.82278">
        <ele>277</ele>
        <time>2013-05-01T05:10:31.000Z</time>
      </trkpt>
      <trkpt lat="45.76435" lon="4.82279">
        <ele>276.6</ele>
        <time>2013-05-01T05:10:32.000Z</time>
      </trkpt>
      <trkpt lat="45.76437" lon="4.82279">
        <ele>276.2</ele>
        <time>2013-05-01T05:10:33.000Z</time>
      </trkpt>
      <trkpt lat="45.76438" lon="4.82278">
        <ele>276</ele>
        <time>2013-05-01T05:10:34.000Z</time>
      </trkpt>
      <trkpt lat="45.76439" lon="4.82278">
        <ele>275.7</ele>
        <time>2013-05-01T05:10:35.000Z</time>
      </trkpt>
      <trkpt lat="45.76439" lon="4.82277">
        <ele>275.5</ele>
        <time>2013-05-01T05:10:36.000Z</time>
      </trkpt>
      <trkpt lat="45.7644" lon="4.82278">
        <ele>275.3</ele>
        <time>2013-05-01T05:10:37.000Z</time>
      </trkpt>
      <trkpt lat="45.76441" lon="4.82278">
        <ele>275.1</ele>
        <time>2013-05-01T05:10:38.000Z</time>
      </trkpt>
      <trkpt lat="45.76441" lon="4.82279">
        <ele>274.8</ele>
        <time>2013-05-01T05:10:39.000Z</time>
      </trkpt>
      <trkpt lat="45.76442" lon="4.82279">
        <ele>274.6</ele>
        <time>2013-05-01T05:10:40.000Z</time>
      </trkpt>
      <trkpt lat="45.76443" lon="4.8228">
        <ele>274.4</ele>
        <time>2013-05-01T05:10:41.000Z</time>
      </trkpt>
      <trkpt lat="45.76443" lon="4.82281">
        <ele>274.1</ele>
        <time>2013-05-01T05:10:42.000Z</time>
      </trkpt>
      <trkpt lat="45.76444" lon="4.82282">
        <ele>274</ele>
        <time>2013-05-01T05:10:43.000Z</time>
      </trkpt>
      <trkpt lat="45.76444" lon="4.82283">
        <ele>273.7</ele>
        <time>2013-05-01T05:10:44.000Z</time>
      </trkpt>
      <trkpt lat="45.76445" lon="4.82283">
        <ele>273.4</ele>
        <time>2013-05-01T05:10:45.000Z</time>
      </trkpt>
      <trkpt lat="45.76446" lon="4.82283">
        <ele>273.1</ele>
        <time>2013-05-01T05:10:46.000Z</time>
      </trkpt>
      <trkpt lat="45.76447" lon="4.82284">
        <ele>272.9</ele>
        <time>2013-05-01T05:10:47.000Z</time>
      </trkpt>
      <trkpt lat="45.76447" lon="4.82285">
        <ele>272.6</ele>
        <time>2013-05-01T05:10:48.000Z</time>
      </trkpt>
      <trkpt lat="45.76448" lon="4.82285">
        <ele>272.4</ele>
        <time>2013-05-01T05:10:49.000Z</time>
      </trkpt>
      <trkpt lat="45.76448" lon="4.82286">
        <ele>272.1</ele>
        <time>2013-05-01T05:10:50.000Z</time>
      </trkpt>
      <trkpt lat="45.76449" lon="4.82287">
        <ele>271.8</ele>
        <time>2013-05-01T05:10:51.000Z</time>
      </trkpt>
      <trkpt lat="45.7645" lon="4.82288">
        <ele>271.5</ele>
        <time>2013-05-01T05:10:52.000Z</time>
      </trkpt>
      <trkpt lat="45.76451" lon="4.82289">
        <ele>271.2</ele>
        <time>2013-05-01T05:10:53.000Z</time>
      </trkpt>
      <trkpt lat="45.76452" lon="4.82289">
        <ele>270.9</ele>
        <time>2013-05-01T05:10:54.000Z</time>
      </trkpt>
      <trkpt lat="45.76453" lon="4.8229">
        <ele>270.4</ele>
        <time>2013-05-01T05:10:55.000Z</time>
      </trkpt>
      <trkpt lat="45.76454" lon="4.82291">
        <ele>270</ele>
        <time>2013-05-01T05:10:56.000Z</time>
      </trkpt>
      <trkpt lat="45.76455" lon="4.82292">
        <ele>269.6</ele>
        <time>2013-05-01T05:10:57.000Z</time>
      </trkpt>
      <trkpt lat="45.76456" lon="4.82292">
        <ele>269.3</ele>
        <time>2013-05-01T05:10:58.000Z</time>
      </trkpt>
      <trkpt lat="45.76456" lon="4.82293">
        <ele>269.1</ele>
        <time>2013-05-01T05:10:59.000Z</time>
      </trkpt>
      <trkpt lat="45.76457" lon="4.82294">
        <ele>268.8</ele>
        <time>2013-05-01T05:11:00.000Z</time>
      </trkpt>
      <trkpt lat="45.76458" lon="4.82295">
        <ele>268.6</ele>
        <time>2013-05-01T05:11:01.000Z</time>
      </trkpt>
      <trkpt lat="45.76459" lon="4.82296">
        <ele>268.3</ele>
        <time>2013-05-01T05:11:02.000Z</time>
      </trkpt>
      <trkpt lat="45.76459" lon="4.82296">
        <ele>268.1</ele>
        <time>2013-05-01T05:11:03.000Z</time>
      </trkpt>
      <trkpt lat="45.7646" lon="4.82297">
        <ele>267.9</ele>
        <time>2013-05-01T05:11:04.000Z</time>
      </trkpt>
      <trkpt lat="45.76461" lon="4.82297">
        <ele>267.5</ele>
        <time>2013-05-01T05:11:05.000Z</time>
      </trkpt>
      <trkpt lat="45.76462" lon="4.82297">
        <ele>267.2</ele>
        <time>2013-05-01T05:11:06.000Z</time>
      </trkpt>
      <trkpt lat="45.76464" lon="4.82298">
        <ele>266.7</ele>
        <time>2013-05-01T05:11:07.000Z</time>
      </trkpt>
      <trkpt lat="45.76464" lon="4.82298">
        <ele>266.7</ele>
        <time>2013-05-01T05:11:08.000Z</time>
      </trkpt>
      <trkpt lat="45.76464" lon="4.82298">
        <ele>266.5</ele>
        <time>2013-05-01T05:11:09.000Z</time>
      </trkpt>
      <trkpt lat="45.76465" lon="4.82298">
        <ele>266.4</ele>
        <time>2013-05-01T05:11:10.000Z</time>
      </trkpt>
      <trkpt lat="45.76465" lon="4.82299">
        <ele>266.3</ele>
        <time>2013-05-01T05:11:11.000Z</time>
      </trkpt>
      <trkpt lat="45.76465" lon="4.82299">
        <ele>266.2</ele>
        <time>2013-05-01T05:11:12.000Z</time>
      </trkpt>
      <trkpt lat="45.76466" lon="4.82299">
        <ele>266</ele>
        <time>2013-05-01T05:11:13.000Z</time>
      </trkpt>
      <trkpt lat="45.76466" lon="4.82299">
        <ele>265.8</ele>
        <time>2013-05-01T05:11:14.000Z</time>
      </trkpt>
      <trkpt lat="45.76467" lon="4.823">
        <ele>265.7</ele>
        <time>2013-05-01T05:11:15.000Z</time>
      </trkpt>
      <trkpt lat="45.76467" lon="4.823">
        <ele>265.5</ele>
        <time>2013-05-01T05:11:16.000Z</time>
      </trkpt>
      <trkpt lat="45.76468" lon="4.823">
        <ele>265.3</ele>
        <time>2013-05-01T05:11:17.000Z</time>
      </trkpt>
      <trkpt lat="45.76468" lon="4.823">
        <ele>265.2</ele>
        <time>2013-05-01T05:11:18.000Z</time>
      </trkpt>
      <trkpt lat="45.76469" lon="4.823">
        <ele>265.1</ele>
        <time>2013-05-01T05:11:19.000Z</time>
      </trkpt>
      <trkpt lat="45.76469" lon="4.823">
        <ele>265</ele>
        <time>2013-05-01T05:11:20.000Z</time>
      </trkpt>
      <trkpt lat="45.76469" lon="4.823">
        <ele>265</ele>
        <time>2013-05-01T05:11:21.000Z</time>
      </trkpt>
      <trkpt lat="45.76469" lon="4.823">
        <ele>264.9</ele>
        <time>2013-05-01T05:11:22.000Z</time>
      </trkpt>
      <trkpt lat="45.7647" lon="4.82299">
        <ele>264.7</ele>
        <time>2013-05-01T05:11:23.000Z</time>
      </trkpt>
      <trkpt lat="45.76471" lon="4.82299">
        <ele>264.5</ele>
        <time>2013-05-01T05:11:24.000Z</time>
      </trkpt>
      <trkpt lat="45.76471" lon="4.82299">
        <ele>264.3</ele>
        <time>2013-05-01T05:11:25.000Z</time>
      </trkpt>
      <trkpt lat="45.76472" lon="4.82299">
        <ele>264</ele>
        <time>2013-05-01T05:11:26.000Z</time>
      </trkpt>
      <trkpt lat="45.76473" lon="4.823">
        <ele>263.7</ele>
        <time>2013-05-01T05:11:27.000Z</time>
      </trkpt>
      <trkpt lat="45.76474" lon="4.823">
        <ele>263.5</ele>
        <time>2013-05-01T05:11:28.000Z</time>
      </trkpt>
      <trkpt lat="45.76474" lon="4.823">
        <ele>263.4</ele>
        <time>2013-05-01T05:11:29.000Z</time>
      </trkpt>
      <trkpt lat="45.76475" lon="4.82301">
        <ele>263.2</ele>
        <time>2013-05-01T05:11:30.000Z</time>
      </trkpt>
      <trkpt lat="45.76475" lon="4.82301">
        <ele>263.1</ele>
        <time>2013-05-01T05:11:31.000Z</time>
      </trkpt>
      <trkpt lat="45.76475" lon="4.82301">
        <ele>263</ele>
        <time>2013-05-01T05:11:32.000Z</time>
      </trkpt>
      <trkpt lat="45.76475" lon="4.82301">
        <ele>263</ele>
        <time>2013-05-01T05:11:33.000Z</time>
      </trkpt>
      <trkpt lat="45.76476" lon="4.82301">
        <ele>262.9</ele>
        <time>2013-05-01T05:11:34.000Z</time>
      </trkpt>
      <trkpt lat="45.76476" lon="4.82301">
        <ele>262.8</ele>
        <time>2013-05-01T05:11:35.000Z</time>
      </trkpt>
      <trkpt lat="45.76476" lon="4.82301">
        <ele>262.8</ele>
        <time>2013-05-01T05:11:36.000Z</time>
      </trkpt>
      <trkpt lat="45.76477" lon="4.82302">
        <ele>262.5</ele>
        <time>2013-05-01T05:11:37.000Z</time>
      </trkpt>
      <trkpt lat="45.76477" lon="4.82303">
        <ele>262.4</ele>
        <time>2013-05-01T05:11:38.000Z</time>
      </trkpt>
      <trkpt lat="45.76478" lon="4.82304">
        <ele>262.3</ele>
        <time>2013-05-01T05:11:39.000Z</time>
      </trkpt>
      <trkpt lat="45.76478" lon="4.82305">
        <ele>262.2</ele>
        <time>2013-05-01T05:11:40.000Z</time>
      </trkpt>
      <trkpt lat="45.76479" lon="4.82306">
        <ele>261.8</ele>
        <time>2013-05-01T05:11:41.000Z</time>
      </trkpt>
      <trkpt lat="45.7648" lon="4.82307">
        <ele>261.4</ele>
        <time>2013-05-01T05:11:42.000Z</time>
      </trkpt>
      <trkpt lat="45.76481" lon="4.82308">
        <ele>261.2</ele>
        <time>2013-05-01T05:11:43.000Z</time>
      </trkpt>
      <trkpt lat="45.76481" lon="4.82309">
        <ele>261.1</ele>
        <time>2013-05-01T05:11:44.000Z</time>
      </trkpt>
      <trkpt lat="45.76481" lon="4.8231">
        <ele>261</ele>
        <time>2013-05-01T05:11:45.000Z</time>
      </trkpt>
      <trkpt lat="45.76482" lon="4.82311">
        <ele>260.7</ele>
        <time>2013-05-01T05:11:46.000Z</time>
      </trkpt>
      <trkpt lat="45.76483" lon="4.82312">
        <ele>260.4</ele>
        <time>2013-05-01T05:11:47.000Z</time>
      </trkpt>
      <trkpt lat="45.76483" lon="4.82313">
        <ele>260.2</ele>
        <time>2013-05-01T05:11:48.000Z</time>
      </trkpt>
      <trkpt lat="45.76484" lon="4.82314">
        <ele>259.9</ele>
        <time>2013-05-01T05:11:49.000Z</time>
      </trkpt>
      <trkpt lat="45.76485" lon="4.82316">
        <ele>259.5</ele>
        <time>2013-05-01T05:11:50.000Z</time>
      </trkpt>
      <trkpt lat="45.76486" lon="4.82317">
        <ele>259.2</ele>
        <time>2013-05-01T05:11:51.000Z</time>
      </trkpt>
      <trkpt lat="45.76487" lon="4.82318">
        <ele>258.9</ele>
        <time>2013-05-01T05:11:52.000Z</time>
      </trkpt>
      <trkpt lat="45.76488" lon="4.82319">
        <ele>258.5</ele>
        <time>2013-05-01T05:11:53.000Z</time>
      </trkpt>
      <trkpt lat="45.76489" lon="4.8232">
        <ele>258.1</ele>
        <time>2013-05-01T05:11:54.000Z</time>
      </trkpt>
      <trkpt lat="45.7649" lon="4.82322">
        <ele>257.8</ele>
        <time>2013-05-01T05:11:55.000Z</time>
      </trkpt>
      <trkpt lat="45.76491" lon="4.82323">
        <ele>257.3</ele>
        <time>2013-05-01T05:11:56.000Z</time>
      </trkpt>
      <trkpt lat="45.76492" lon="4.82324">
        <ele>256.9</ele>
        <time>2013-05-01T05:11:57.000Z</time>
      </trkpt>
      <trkpt lat="45.76493" lon="4.82325">
        <ele>256.5</ele>
        <time>2013-05-01T05:11:58.000Z</time>
      </trkpt>
      <trkpt lat="45.76494" lon="4.82327">
        <ele>256.2</ele>
        <time>2013-05-01T05:11:59.000Z</time>
      </trkpt>
      <trkpt lat="45.76495" lon="4.82328">
        <ele>255.9</ele>
        <time>2013-05-01T05:12:00.000Z</time>
      </trkpt>
      <trkpt lat="45.76495" lon="4.8233">
        <ele>255.7</ele>
        <time>2013-05-01T05:12:01.000Z</time>
      </trkpt>
      <trkpt lat="45.76496" lon="4.82332">
        <ele>255.5</ele>
        <time>2013-05-01T05:12:02.000Z</time>
      </trkpt>
      <trkpt lat="45.76496" lon="4.82334">
        <ele>255.3</ele>
        <time>2013-05-01T05:12:03.000Z</time>
      </trkpt>
      <trkpt lat="45.76496" lon="4.82336">
        <ele>255</ele>
        <time>2013-05-01T05:12:04.000Z</time>
      </trkpt>
      <trkpt lat="45.76497" lon="4.82338">
        <ele>254.5</ele>
        <time>2013-05-01T05:12:05.000Z</time>
      </trkpt>
      <trkpt lat="45.76498" lon="4.82339">
        <ele>254.2</ele>
        <time>2013-05-01T05:12:06.000Z</time>
      </trkpt>
      <trkpt lat="45.76499" lon="4.82341">
        <ele>253.9</ele>
        <time>2013-05-01T05:12:07.000Z</time>
      </trkpt>
      <trkpt lat="45.76499" lon="4.82342">
        <ele>253.7</ele>
        <time>2013-05-01T05:12:08.000Z</time>
      </trkpt>
      <trkpt lat="45.765" lon="4.82342">
        <ele>253.5</ele>
        <time>2013-05-01T05:12:09.000Z</time>
      </trkpt>
      <trkpt lat="45.765" lon="4.82342">
        <ele>253.5</ele>
        <time>2013-05-01T05:12:10.000Z</time>
      </trkpt>
      <trkpt lat="45.76499" lon="4.8234">
        <ele>253.7</ele>
        <time>2013-05-01T05:12:11.000Z</time>
      </trkpt>
      <trkpt lat="45.76499" lon="4.82339">
        <ele>254</ele>
        <time>2013-05-01T05:12:12.000Z</time>
      </trkpt>
      <trkpt lat="45.76499" lon="4.82337">
        <ele>254.1</ele>
        <time>2013-05-01T05:12:13.000Z</time>
      </trkpt>
      <trkpt lat="45.76498" lon="4.82336">
        <ele>254.5</ele>
        <time>2013-05-01T05:12:14.000Z</time>
      </trkpt>
      <trkpt lat="45.76497" lon="4.82334">
        <ele>254.8</ele>
        <time>2013-05-01T05:12:15.000Z</time>
      </trkpt>
      <trkpt lat="45.76497" lon="4.82332">
        <ele>255</ele>
        <time>2013-05-01T05:12:16.000Z</time>
      </trkpt>
      <trkpt lat="45.76496" lon="4.82331">
        <ele>255.3</ele>
        <time>2013-05-01T05:12:17.000Z</time>
      </trkpt>
      <trkpt lat="45.76495" lon="4.82329">
        <ele>255.7</ele>
        <time>2013-05-01T05:12:18.000Z</time>
      </trkpt>
      <trkpt lat="45.76494" lon="4.82328">
        <ele>256.2</ele>
        <time>2013-05-01T05:12:19.000Z</time>
      </trkpt>
      <trkpt lat="45.76493" lon="4.82326">
        <ele>256.5</ele>
        <time>2013-05-01T05:12:20.000Z</time>
      </trkpt>
      <trkpt lat="45.76492" lon="4.82325">
        <ele>256.8</ele>
        <time>2013-05-01T05:12:21.000Z</time>
      </trkpt>
      <trkpt lat="45.76492" lon="4.82324">
        <ele>257</ele>
        <time>2013-05-01T05:12:22.000Z</time>
      </trkpt>
      <trkpt lat="45.76491" lon="4.82322">
        <ele>257.3</ele>
        <time>2013-05-01T05:12:23.000Z</time>
      </trkpt>
      <trkpt lat="45.7649" lon="4.8232">
        <ele>257.7</ele>
        <time>2013-05-01T05:12:24.000Z</time>
      </trkpt>
      <trkpt lat="45.76489" lon="4.82318">
        <ele>258.2</ele>
        <time>2013-05-01T05:12:25.000Z</time>
      </trkpt>
      <trkpt lat="45.76488" lon="4.82316">
        <ele>258.5</ele>
        <time>2013-05-01T05:12:26.000Z</time>
      </trkpt>
      <trkpt lat="45.76488" lon="4.82314">
        <ele>258.7</ele>
        <time>2013-05-01T05:12:27.000Z</time>
      </trkpt>
      <trkpt lat="45.76486" lon="4.82313">
        <ele>259.2</ele>
        <time>2013-05-01T05:12:28.000Z</time>
      </trkpt>
      <trkpt lat="45.76485" lon="4.8231">
        <ele>259.6</ele>
        <time>2013-05-01T05:12:29.000Z</time>
      </trkpt>
      <trkpt lat="45.76484" lon="4.82308">
        <ele>260</ele>
        <time>2013-05-01T05:12:30.000Z</time>
      </trkpt>
      <trkpt lat="45.76484" lon="4.82308">
        <ele>260.3</ele>
        <time>2013-05-01T05:12:31.000Z</time>
      </trkpt>
      <trkpt lat="45.76482" lon="4.82307">
        <ele>260.7</ele>
        <time>2013-05-01T05:12:32.000Z</time>
      </trkpt>
      <trkpt lat="45.76481" lon="4.82306">
        <ele>261.3</ele>
        <time>2013-05-01T05:12:33.000Z</time>
      </trkpt>
      <trkpt lat="45.76479" lon="4.82305">
        <ele>261.7</ele>
        <time>2013-05-01T05:12:34.000Z</time>
      </trkpt>
      <trkpt lat="45.76478" lon="4.82305">
        <ele>262</ele>
        <time>2013-05-01T05:12:35.000Z</time>
      </trkpt>
      <trkpt lat="45.76478" lon="4.82304">
        <ele>262.2</ele>
        <time>2013-05-01T05:12:36.000Z</time>
      </trkpt>
      <trkpt lat="45.76478" lon="4.82303">
        <ele>262.3</ele>
        <time>2013-05-01T05:12:37.000Z</time>
      </trkpt>
      <trkpt lat="45.76477" lon="4.82302">
        <ele>262.4</ele>
        <time>2013-05-01T05:12:38.000Z</time>
      </trkpt>
      <trkpt lat="45.76477" lon="4.82301">
        <ele>262.5</ele>
        <time>2013-05-01T05:12:39.000Z</time>
      </trkpt>
      <trkpt lat="45.76477" lon="4.823">
        <ele>262.5</ele>
        <time>2013-05-01T05:12:40.000Z</time>
      </trkpt>
      <trkpt lat="45.76476" lon="4.82299">
        <ele>262.7</ele>
        <time>2013-05-01T05:12:41.000Z</time>
      </trkpt>
      <trkpt lat="45.76475" lon="4.82298">
        <ele>263</ele>
        <time>2013-05-01T05:12:42.000Z</time>
      </trkpt>
      <trkpt lat="45.76475" lon="4.82296">
        <ele>263.2</ele>
        <time>2013-05-01T05:12:43.000Z</time>
      </trkpt>
      <trkpt lat="45.76474" lon="4.82296">
        <ele>263.4</ele>
        <time>2013-05-01T05:12:44.000Z</time>
      </trkpt>
      <trkpt lat="45.76473" lon="4.82295">
        <ele>263.8</ele>
        <time>2013-05-01T05:12:45.000Z</time>
      </trkpt>
      <trkpt lat="45.76472" lon="4.82295">
        <ele>264.2</ele>
        <time>2013-05-01T05:12:46.000Z</time>
      </trkpt>
      <trkpt lat="45.7647" lon="4.82294">
        <ele>264.6</ele>
        <time>2013-05-01T05:12:47.000Z</time>
      </trkpt>
      <trkpt lat="45.7647" lon="4.82293">
        <ele>264.8</ele>
        <time>2013-05-01T05:12:48.000Z</time>
      </trkpt>
      <trkpt lat="45.76469" lon="4.82292">
        <ele>265</ele>
        <time>2013-05-01T05:12:49.000Z</time>
      </trkpt>
      <trkpt lat="45.76469" lon="4.82291">
        <ele>265.2</ele>
        <time>2013-05-01T05:12:50.000Z</time>
      </trkpt>
      <trkpt lat="45.76468" lon="4.8229">
        <ele>265.4</ele>
        <time>2013-05-01T05:12:51.000Z</time>
      </trkpt>
      <trkpt lat="45.76467" lon="4.82289">
        <ele>265.6</ele>
        <time>2013-05-01T05:12:52.000Z</time>
      </trkpt>
      <trkpt lat="45.76467" lon="4.82289">
        <ele>265.8</ele>
        <time>2013-05-01T05:12:53.000Z</time>
      </trkpt>
      <trkpt lat="45.76466" lon="4.82288">
        <ele>266.1</ele>
        <time>2013-05-01T05:12:54.000Z</time>
      </trkpt>
      <trkpt lat="45.76465" lon="4.82287">
        <ele>266.4</ele>
        <time>2013-05-01T05:12:55.000Z</time>
      </trkpt>
      <trkpt lat="45.76465" lon="4.82286">
        <ele>266.6</ele>
        <time>2013-05-01T05:12:56.000Z</time>
      </trkpt>
      <trkpt lat="45.76464" lon="4.82286">
        <ele>266.9</ele>
        <time>2013-05-01T05:12:57.000Z</time>
      </trkpt>
      <trkpt lat="45.76463" lon="4.82285">
        <ele>267.2</ele>
        <time>2013-05-01T05:12:58.000Z</time>
      </trkpt>
      <trkpt lat="45.76462" lon="4.82284">
        <ele>267.5</ele>
        <time>2013-05-01T05:12:59.000Z</time>
      </trkpt>
      <trkpt lat="45.76461" lon="4.82284">
        <ele>267.8</ele>
        <time>2013-05-01T05:13:00.000Z</time>
      </trkpt>
      <trkpt lat="45.76461" lon="4.82283">
        <ele>268.1</ele>
        <time>2013-05-01T05:13:01.000Z</time>
      </trkpt>
      <trkpt lat="45.7646" lon="4.82283">
        <ele>268.3</ele>
        <time>2013-05-01T05:13:02.000Z</time>
      </trkpt>
      <trkpt lat="45.76459" lon="4.82283">
        <ele>268.5</ele>
        <time>2013-05-01T05:13:03.000Z</time>
      </trkpt>
      <trkpt lat="45.76459" lon="4.82282">
        <ele>268.7</ele>
        <time>2013-05-01T05:13:04.000Z</time>
      </trkpt>
      <trkpt lat="45.76458" lon="4.82282">
        <ele>268.9</ele>
        <time>2013-05-01T05:13:05.000Z</time>
      </trkpt>
      <trkpt lat="45.76458" lon="4.82281">
        <ele>269</ele>
        <time>2013-05-01T05:13:06.000Z</time>
      </trkpt>
      <trkpt lat="45.76458" lon="4.82281">
        <ele>269.2</ele>
        <time>2013-05-01T05:13:07.000Z</time>
      </trkpt>
      <trkpt lat="45.76457" lon="4.82281">
        <ele>269.4</ele>
        <time>2013-05-01T05:13:08.000Z</time>
      </trkpt>
      <trkpt lat="45.76456" lon="4.8228">
        <ele>269.6</ele>
        <time>2013-05-01T05:13:09.000Z</time>
      </trkpt>
      <trkpt lat="45.76456" lon="4.82279">
        <ele>269.8</ele>
        <time>2013-05-01T05:13:10.000Z</time>
      </trkpt>
      <trkpt lat="45.76455" lon="4.82279">
        <ele>270.1</ele>
        <time>2013-05-01T05:13:11.000Z</time>
      </trkpt>
      <trkpt lat="45.76454" lon="4.82278">
        <ele>270.4</ele>
        <time>2013-05-01T05:13:12.000Z</time>
      </trkpt>
      <trkpt lat="45.76453" lon="4.82277">
        <ele>270.7</ele>
        <time>2013-05-01T05:13:13.000Z</time>
      </trkpt>
      <trkpt lat="45.76453" lon="4.82277">
        <ele>270.9</ele>
        <time>2013-05-01T05:13:14.000Z</time>
      </trkpt>
      <trkpt lat="45.76452" lon="4.82277">
        <ele>271.2</ele>
        <time>2013-05-01T05:13:15.000Z</time>
      </trkpt>
      <trkpt lat="45.76451" lon="4.82276">
        <ele>271.4</ele>
        <time>2013-05-01T05:13:16.000Z</time>
      </trkpt>
      <trkpt lat="45.7645" lon="4.82276">
        <ele>271.7</ele>
        <time>2013-05-01T05:13:17.000Z</time>
      </trkpt>
      <trkpt lat="45.7645" lon="4.82276">
        <ele>271.9</ele>
        <time>2013-05-01T05:13:18.000Z</time>
      </trkpt>
      <trkpt lat="45.76449" lon="4.82276">
        <ele>272.2</ele>
        <time>2013-05-01T05:13:19.000Z</time>
      </trkpt>
      <trkpt lat="45.76448" lon="4.82275">
        <ele>272.3</ele>
        <time>2013-05-01T05:13:20.000Z</time>
      </trkpt>
      <trkpt lat="45.76448" lon="4.82275">
        <ele>272.5</ele>
        <time>2013-05-01T05:13:21.000Z</time>
      </trkpt>
      <trkpt lat="45.76447" lon="4.82275">
        <ele>272.7</ele>
        <time>2013-05-01T05:13:22.000Z</time>
      </trkpt>
      <trkpt lat="45.76446" lon="4.82275">
        <ele>273.1</ele>
        <time>2013-05-01T05:13:23.000Z</time>
      </trkpt>
      <trkpt lat="45.76445" lon="4.82275">
        <ele>273.3</ele>
        <time>2013-05-01T05:13:24.000Z</time>
      </trkpt>
      <trkpt lat="45.76444" lon="4.82275">
        <ele>273.6</ele>
        <time>2013-05-01T05:13:25.000Z</time>
      </trkpt>
      <trkpt lat="45.76444" lon="4.82275">
        <ele>273.8</ele>
        <time>2013-05-01T05:13:26.000Z</time>
      </trkpt>
      <trkpt lat="45.76443" lon="4.82274">
        <ele>273.9</ele>
        <time>2013-05-01T05:13:27.000Z</time>
      </trkpt>
      <trkpt lat="45.76443" lon="4.82274">
        <ele>274.1</ele>
        <time>2013-05-01T05:13:28.000Z</time>
      </trkpt>
      <trkpt lat="45.76442" lon="4.82274">
        <ele>274.3</ele>
        <time>2013-05-01T05:13:29.000Z</time>
      </trkpt>
      <trkpt lat="45.76441" lon="4.82274">
        <ele>274.5</ele>
        <time>2013-05-01T05:13:30.000Z</time>
      </trkpt>
      <trkpt lat="45.7644" lon="4.82273">
        <ele>274.6</ele>
        <time>2013-05-01T05:13:31.000Z</time>
      </trkpt>
      <trkpt lat="45.7644" lon="4.82272">
        <ele>274.7</ele>
        <time>2013-05-01T05:13:32.000Z</time>
      </trkpt>
      <trkpt lat="45.76439" lon="4.82272">
        <ele>274.8</ele>
        <time>2013-05-01T05:13:33.000Z</time>
      </trkpt>
      <trkpt lat="45.76439" lon="4.82271">
        <ele>275</ele>
        <time>2013-05-01T05:13:34.000Z</time>
      </trkpt>
      <trkpt lat="45.76438" lon="4.82271">
        <ele>275.1</ele>
        <time>2013-05-01T05:13:35.000Z</time>
      </trkpt>
      <trkpt lat="45.76437" lon="4.82271">
        <ele>275.4</ele>
        <time>2013-05-01T05:13:36.000Z</time>
      </trkpt>
      <trkpt lat="45.76436" lon="4.8227">
        <ele>275.6</ele>
        <time>2013-05-01T05:13:37.000Z</time>
      </trkpt>
      <trkpt lat="45.76436" lon="4.8227">
        <ele>275.8</ele>
        <time>2013-05-01T05:13:38.000Z</time>
      </trkpt>
      <trkpt lat="45.76435" lon="4.82269">
        <ele>276</ele>
        <time>2013-05-01T05:13:39.000Z</time>
      </trkpt>
      <trkpt lat="45.76434" lon="4.82269">
        <ele>276.1</ele>
        <time>2013-05-01T05:13:40.000Z</time>
      </trkpt>
      <trkpt lat="45.76434" lon="4.82268">
        <ele>276.2</ele>
        <time>2013-05-01T05:13:41.000Z</time>
      </trkpt>
      <trkpt lat="45.76433" lon="4.82268">
        <ele>276.5</ele>
        <time>2013-05-01T05:13:42.000Z</time>
      </trkpt>
      <trkpt lat="45.76432" lon="4.82267">
        <ele>276.6</ele>
        <time>2013-05-01T05:13:43.000Z</time>
      </trkpt>
      <trkpt lat="45.76432" lon="4.82267">
        <ele>276.7</ele>
        <time>2013-05-01T05:13:44.000Z</time>
      </trkpt>
      <trkpt lat="45.76431" lon="4.82266">
        <ele>276.9</ele>
        <time>2013-05-01T05:13:45.000Z</time>
      </trkpt>
      <trkpt lat="45.7643" lon="4.82265">
        <ele>277.2</ele>
        <time>2013-05-01T05:13:46.000Z</time>
      </trkpt>
      <trkpt lat="45.76429" lon="4.82265">
        <ele>277.5</ele>
        <time>2013-05-01T05:13:47.000Z</time>
      </trkpt>
      <trkpt lat="45.76428" lon="4.82264">
        <ele>278</ele>
        <time>2013-05-01T05:13:48.000Z</time>
      </trkpt>
      <trkpt lat="45.76426" lon="4.82263">
        <ele>278.5</ele>
        <time>2013-05-01T05:13:49.000Z</time>
      </trkpt>
      <trkpt lat="45.76425" lon="4.82262">
        <ele>279.1</ele>
        <time>2013-05-01T05:13:50.000Z</time>
      </trkpt>
      <trkpt lat="45.76423" lon="4.82262">
        <ele>279.6</ele>
        <time>2013-05-01T05:13:51.000Z</time>
      </trkpt>
      <trkpt lat="45.76421" lon="4.82262">
        <ele>280.3</ele>
        <time>2013-05-01T05:13:52.000Z</time>
      </trkpt>
      <trkpt lat="45.7642" lon="4.82261">
        <ele>280.8</ele>
        <time>2013-05-01T05:13:53.000Z</time>
      </trkpt>
      <trkpt lat="45.76418" lon="4.8226">
        <ele>281.4</ele>
        <time>2013-05-01T05:13:54.000Z</time>
      </trkpt>
      <trkpt lat="45.76416" lon="4.82259">
        <ele>282.1</ele>
        <time>2013-05-01T05:13:55.000Z</time>
      </trkpt>
      <trkpt lat="45.76414" lon="4.8226">
        <ele>282.3</ele>
        <time>2013-05-01T05:13:56.000Z</time>
      </trkpt>
      <trkpt lat="45.76412" lon="4.8226">
        <ele>282.6</ele>
        <time>2013-05-01T05:13:57.000Z</time>
      </trkpt>
      <trkpt lat="45.7641" lon="4.82261">
        <ele>282.9</ele>
        <time>2013-05-01T05:13:58.000Z</time>
      </trkpt>
      <trkpt lat="45.76407" lon="4.82261">
        <ele>283.2</ele>
        <time>2013-05-01T05:13:59.000Z</time>
      </trkpt>
      <trkpt lat="45.76405" lon="4.82261">
        <ele>283.5</ele>
        <time>2013-05-01T05:14:00.000Z</time>
      </trkpt>
      <trkpt lat="45.76404" lon="4.82261">
        <ele>283.7</ele>
        <time>2013-05-01T05:14:01.000Z</time>
      </trkpt>
      <trkpt lat="45.76402" lon="4.82261">
        <ele>283.9</ele>
        <time>2013-05-01T05:14:02.000Z</time>
      </trkpt>
      <trkpt lat="45.764" lon="4.82261">
        <ele>284.2</ele>
        <time>2013-05-01T05:14:03.000Z</time>
      </trkpt>
      <trkpt lat="45.76398" lon="4.82261">
        <ele>284.5</ele>
        <time>2013-05-01T05:14:04.000Z</time>
      </trkpt>
      <trkpt lat="45.76396" lon="4.82261">
        <ele>284.7</ele>
        <time>2013-05-01T05:14:05.000Z</time>
      </trkpt>
      <trkpt lat="45.76393" lon="4.82261">
        <ele>285</ele>
        <time>2013-05-01T05:14:06.000Z</time>
      </trkpt>
      <trkpt lat="45.76391" lon="4.82261">
        <ele>285.3</ele>
        <time>2013-05-01T05:14:07.000Z</time>
      </trkpt>
      <trkpt lat="45.76389" lon="4.8226">
        <ele>285.6</ele>
        <time>2013-05-01T05:14:08.000Z</time>
      </trkpt>
      <trkpt lat="45.76387" lon="4.82259">
        <ele>285.8</ele>
        <time>2013-05-01T05:14:09.000Z</time>
      </trkpt>
      <trkpt lat="45.76385" lon="4.82257">
        <ele>286</ele>
        <time>2013-05-01T05:14:10.000Z</time>
      </trkpt>
      <trkpt lat="45.76384" lon="4.82254">
        <ele>286.2</ele>
        <time>2013-05-01T05:14:11.000Z</time>
      </trkpt>
      <trkpt lat="45.76382" lon="4.82252">
        <ele>286.4</ele>
        <time>2013-05-01T05:14:12.000Z</time>
      </trkpt>
      <trkpt lat="45.76381" lon="4.82249">
        <ele>286.5</ele>
        <time>2013-05-01T05:14:13.000Z</time>
      </trkpt>
      <trkpt lat="45.7638" lon="4.82246">
        <ele>286.5</ele>
        <time>2013-05-01T05:14:14.000Z</time>
      </trkpt>
      <trkpt lat="45.76379" lon="4.82243">
        <ele>286.5</ele>
        <time>2013-05-01T05:14:15.000Z</time>
      </trkpt>
      <trkpt lat="45.76379" lon="4.8224">
        <ele>286.4</ele>
        <time>2013-05-01T05:14:16.000Z</time>
      </trkpt>
      <trkpt lat="45.76379" lon="4.82237">
        <ele>286.3</ele>
        <time>2013-05-01T05:14:17.000Z</time>
      </trkpt>
      <trkpt lat="45.76378" lon="4.82234">
        <ele>286.3</ele>
        <time>2013-05-01T05:14:18.000Z</time>
      </trkpt>
      <trkpt lat="45.76378" lon="4.82231">
        <ele>286.3</ele>
        <time>2013-05-01T05:14:19.000Z</time>
      </trkpt>
      <trkpt lat="45.76378" lon="4.82228">
        <ele>286.2</ele>
        <time>2013-05-01T05:14:20.000Z</time>
      </trkpt>
      <trkpt lat="45.76378" lon="4.82225">
        <ele>286.1</ele>
        <time>2013-05-01T05:14:21.000Z</time>
      </trkpt>
      <trkpt lat="45.76377" lon="4.82222">
        <ele>285.9</ele>
        <time>2013-05-01T05:14:22.000Z</time>
      </trkpt>
      <trkpt lat="45.76376" lon="4.82219">
        <ele>285.7</ele>
        <time>2013-05-01T05:14:23.000Z</time>
      </trkpt>
      <trkpt lat="45.76374" lon="4.82218">
        <ele>285.7</ele>
        <time>2013-05-01T05:14:24.000Z</time>
      </trkpt>
      <trkpt lat="45.76372" lon="4.82217">
        <ele>286.1</ele>
        <time>2013-05-01T05:14:25.000Z</time>
      </trkpt>
      <trkpt lat="45.7637" lon="4.82217">
        <ele>286.5</ele>
        <time>2013-05-01T05:14:26.000Z</time>
      </trkpt>
      <trkpt lat="45.76368" lon="4.82218">
        <ele>287.1</ele>
        <time>2013-05-01T05:14:27.000Z</time>
      </trkpt>
      <trkpt lat="45.76365" lon="4.82218">
        <ele>287.6</ele>
        <time>2013-05-01T05:14:28.000Z</time>
      </trkpt>
      <trkpt lat="45.76363" lon="4.82219">
        <ele>288.3</ele>
        <time>2013-05-01T05:14:29.000Z</time>
      </trkpt>
      <trkpt lat="45.7636" lon="4.82219">
        <ele>288.7</ele>
        <time>2013-05-01T05:14:30.000Z</time>
      </trkpt>
      <trkpt lat="45.76358" lon="4.82219">
        <ele>288.8</ele>
        <time>2013-05-01T05:14:31.000Z</time>
      </trkpt>
      <trkpt lat="45.76355" lon="4.8222">
        <ele>289</ele>
        <time>2013-05-01T05:14:32.000Z</time>
      </trkpt>
      <trkpt lat="45.76353" lon="4.8222">
        <ele>289.1</ele>
        <time>2013-05-01T05:14:33.000Z</time>
      </trkpt>
      <trkpt lat="45.76351" lon="4.82219">
        <ele>289.2</ele>
        <time>2013-05-01T05:14:34.000Z</time>
      </trkpt>
      <trkpt lat="45.76348" lon="4.8222">
        <ele>289.3</ele>
        <time>2013-05-01T05:14:35.000Z</time>
      </trkpt>
      <trkpt lat="45.76345" lon="4.8222">
        <ele>289.5</ele>
        <time>2013-05-01T05:14:36.000Z</time>
      </trkpt>
      <trkpt lat="45.76343" lon="4.82219">
        <ele>289.5</ele>
        <time>2013-05-01T05:14:37.000Z</time>
      </trkpt>
      <trkpt lat="45.7634" lon="4.82219">
        <ele>289.6</ele>
        <time>2013-05-01T05:14:38.000Z</time>
      </trkpt>
      <trkpt lat="45.76338" lon="4.82218">
        <ele>289.8</ele>
        <time>2013-05-01T05:14:39.000Z</time>
      </trkpt>
      <trkpt lat="45.76335" lon="4.82218">
        <ele>289.9</ele>
        <time>2013-05-01T05:14:40.000Z</time>
      </trkpt>
      <trkpt lat="45.76333" lon="4.82217">
        <ele>290</ele>
        <time>2013-05-01T05:14:41.000Z</time>
      </trkpt>
      <trkpt lat="45.7633" lon="4.82217">
        <ele>290</ele>
        <time>2013-05-01T05:14:42.000Z</time>
      </trkpt>
      <trkpt lat="45.76327" lon="4.82216">
        <ele>290</ele>
        <time>2013-05-01T05:14:43.000Z</time>
      </trkpt>
      <trkpt lat="45.76325" lon="4.82216">
        <ele>290</ele>
        <time>2013-05-01T05:14:44.000Z</time>
      </trkpt>
      <trkpt lat="45.76322" lon="4.82216">
        <ele>290</ele>
        <time>2013-05-01T05:14:45.000Z</time>
      </trkpt>
      <trkpt lat="45.76319" lon="4.82215">
        <ele>290</ele>
        <time>2013-05-01T05:14:46.000Z</time>
      </trkpt>
      <trkpt lat="45.76316" lon="4.82214">
        <ele>290</ele>
        <time>2013-05-01T05:14:47.000Z</time>
      </trkpt>
      <trkpt lat="45.76313" lon="4.82214">
        <ele>290</ele>
        <time>2013-05-01T05:14:48.000Z</time>
      </trkpt>
      <trkpt lat="45.76311" lon="4.82214">
        <ele>290</ele>
        <time>2013-05-01T05:14:49.000Z</time>
      </trkpt>
      <trkpt lat="45.76308" lon="4.82214">
        <ele>290</ele>
        <time>2013-05-01T05:14:50.000Z</time>
      </trkpt>
      <trkpt lat="45.76305" lon="4.82214">
        <ele>290</ele>
        <time>2013-05-01T05:14:51.000Z</time>
      </trkpt>
      <trkpt lat="45.76302" lon="4.82214">
        <ele>290.1</ele>
        <time>2013-05-01T05:14:52.000Z</time>
      </trkpt>
      <trkpt lat="45.763" lon="4.82214">
        <ele>290.2</ele>
        <time>2013-05-01T05:14:53.000Z</time>
      </trkpt>
      <trkpt lat="45.76297" lon="4.82214">
        <ele>290.3</ele>
        <time>2013-05-01T05:14:54.000Z</time>
      </trkpt>
      <trkpt lat="45.76295" lon="4.82214">
        <ele>290.4</ele>
        <time>2013-05-01T05:14:55.000Z</time>
      </trkpt>
      <trkpt lat="45.76292" lon="4.82214">
        <ele>290.5</ele>
        <time>2013-05-01T05:14:56.000Z</time>
      </trkpt>
      <trkpt lat="45.76289" lon="4.82213">
        <ele>290.6</ele>
        <time>2013-05-01T05:14:57.000Z</time>
      </trkpt>
      <trkpt lat="45.76287" lon="4.82213">
        <ele>290.7</ele>
        <time>2013-05-01T05:14:58.000Z</time>
      </trkpt>
      <trkpt lat="45.76284" lon="4.82212">
        <ele>290.8</ele>
        <time>2013-05-01T05:14:59.000Z</time>
      </trkpt>
      <trkpt lat="45.76282" lon="4.82212">
        <ele>290.9</ele>
        <time>2013-05-01T05:15:00.000Z</time>
      </trkpt>
      <trkpt lat="45.76279" lon="4.82211">
        <ele>291</ele>
        <time>2013-05-01T05:15:01.000Z</time>
      </trkpt>
      <trkpt lat="45.76277" lon="4.8221">
        <ele>291</ele>
        <time>2013-05-01T05:15:02.000Z</time>
      </trkpt>
      <trkpt lat="45.76275" lon="4.82208">
        <ele>291.1</ele>
        <time>2013-05-01T05:15:03.000Z</time>
      </trkpt>
      <trkpt lat="45.76273" lon="4.82205">
        <ele>291.2</ele>
        <time>2013-05-01T05:15:04.000Z</time>
      </trkpt>
      <trkpt lat="45.76271" lon="4.82205">
        <ele>291.2</ele>
        <time>2013-05-01T05:15:05.000Z</time>
      </trkpt>
      <trkpt lat="45.76271" lon="4.82205">
        <ele>291.3</ele>
        <time>2013-05-01T05:15:06.000Z</time>
      </trkpt>
      <trkpt lat="45.76271" lon="4.82206">
        <ele>291.2</ele>
        <time>2013-05-01T05:15:07.000Z</time>
      </trkpt>
      <trkpt lat="45.76272" lon="4.82207">
        <ele>291.2</ele>
        <time>2013-05-01T05:15:08.000Z</time>
      </trkpt>
      <trkpt lat="45.76272" lon="4.82208">
        <ele>291.2</ele>
        <time>2013-05-01T05:15:09.000Z</time>
      </trkpt>
      <trkpt lat="45.76272" lon="4.82209">
        <ele>291.2</ele>
        <time>2013-05-01T05:15:10.000Z</time>
      </trkpt>
      <trkpt lat="45.76272" lon="4.8221">
        <ele>291.2</ele>
        <time>2013-05-01T05:15:11.000Z</time>
      </trkpt>
      <trkpt lat="45.76272" lon="4.82209">
        <ele>291.2</ele>
        <time>2013-05-01T05:15:12.000Z</time>
      </trkpt>
      <trkpt lat="45.7627" lon="4.82206">
        <ele>291.3</ele>
        <time>2013-05-01T05:15:13.000Z</time>
      </trkpt>
      <trkpt lat="45.7627" lon="4.82203">
        <ele>291.3</ele>
        <time>2013-05-01T05:15:14.000Z</time>
      </trkpt>
      <trkpt lat="45.7627" lon="4.82199">
        <ele>291.3</ele>
        <time>2013-05-01T05:15:15.000Z</time>
      </trkpt>
      <trkpt lat="45.7627" lon="4.82195">
        <ele>291.3</ele>
        <time>2013-05-01T05:15:16.000Z</time>
      </trkpt>
      <trkpt lat="45.7627" lon="4.82191">
        <ele>291.3</ele>
        <time>2013-05-01T05:15:17.000Z</time>
      </trkpt>
      <trkpt lat="45.7627" lon="4.82187">
        <ele>291.2</ele>
        <time>2013-05-01T05:15:18.000Z</time>
      </trkpt>
      <trkpt lat="45.7627" lon="4.82183">
        <ele>291.2</ele>
        <time>2013-05-01T05:15:19.000Z</time>
      </trkpt>
      <trkpt lat="45.76271" lon="4.82179">
        <ele>291.1</ele>
        <time>2013-05-01T05:15:20.000Z</time>
      </trkpt>
      <trkpt lat="45.76272" lon="4.82176">
        <ele>291.1</ele>
        <time>2013-05-01T05:15:21.000Z</time>
      </trkpt>
      <trkpt lat="45.76272" lon="4.82172">
        <ele>291</ele>
        <time>2013-05-01T05:15:22.000Z</time>
      </trkpt>
      <trkpt lat="45.76272" lon="4.82168">
        <ele>291</ele>
        <time>2013-05-01T05:15:23.000Z</time>
      </trkpt>
      <trkpt lat="45.76271" lon="4.82165">
        <ele>290.8</ele>
        <time>2013-05-01T05:15:24.000Z</time>
      </trkpt>
      <trkpt lat="45.76269" lon="4.82162">
        <ele>290.5</ele>
        <time>2013-05-01T05:15:25.000Z</time>
      </trkpt>
      <trkpt lat="45.76267" lon="4.82159">
        <ele>290.3</ele>
        <time>2013-05-01T05:15:26.000Z</time>
      </trkpt>
      <trkpt lat="45.76265" lon="4.82156">
        <ele>290</ele>
        <time>2013-05-01T05:15:27.000Z</time>
      </trkpt>
      <trkpt lat="45.76263" lon="4.82154">
        <ele>289.8</ele>
        <time>2013-05-01T05:15:28.000Z</time>
      </trkpt>
      <trkpt lat="45.76261" lon="4.82151">
        <ele>289.7</ele>
        <time>2013-05-01T05:15:29.000Z</time>
      </trkpt>
      <trkpt lat="45.76259" lon="4.8215">
        <ele>289.6</ele>
        <time>2013-05-01T05:15:30.000Z</time>
      </trkpt>
      <trkpt lat="45.76257" lon="4.8215">
        <ele>289.7</ele>
        <time>2013-05-01T05:15:31.000Z</time>
      </trkpt>
      <trkpt lat="45.76254" lon="4.8215">
        <ele>289.7</ele>
        <time>2013-05-01T05:15:32.000Z</time>
      </trkpt>
      <trkpt lat="45.76252" lon="4.8215">
        <ele>289.7</ele>
        <time>2013-05-01T05:15:33.000Z</time>
      </trkpt>
      <trkpt lat="45.76249" lon="4.8215">
        <ele>289.8</ele>
        <time>2013-05-01T05:15:34.000Z</time>
      </trkpt>
      <trkpt lat="45.76246" lon="4.82151">
        <ele>290</ele>
        <time>2013-05-01T05:15:35.000Z</time>
      </trkpt>
      <trkpt lat="45.76244" lon="4.8215">
        <ele>290.2</ele>
        <time>2013-05-01T05:15:36.000Z</time>
      </trkpt>
      <trkpt lat="45.76241" lon="4.8215">
        <ele>290.3</ele>
        <time>2013-05-01T05:15:37.000Z</time>
      </trkpt>
      <trkpt lat="45.76239" lon="4.82149">
        <ele>290.4</ele>
        <time>2013-05-01T05:15:38.000Z</time>
      </trkpt>
      <trkpt lat="45.76236" lon="4.82148">
        <ele>290.5</ele>
        <time>2013-05-01T05:15:39.000Z</time>
      </trkpt>
      <trkpt lat="45.76234" lon="4.82147">
        <ele>290.6</ele>
        <time>2013-05-01T05:15:40.000Z</time>
      </trkpt>
      <trkpt lat="45.76232" lon="4.82146">
        <ele>290.7</ele>
        <time>2013-05-01T05:15:41.000Z</time>
      </trkpt>
      <trkpt lat="45.76229" lon="4.82145">
        <ele>290.8</ele>
        <time>2013-05-01T05:15:42.000Z</time>
      </trkpt>
      <trkpt lat="45.76227" lon="4.82143">
        <ele>290.9</ele>
        <time>2013-05-01T05:15:43.000Z</time>
      </trkpt>
      <trkpt lat="45.76225" lon="4.82142">
        <ele>291</ele>
        <time>2013-05-01T05:15:44.000Z</time>
      </trkpt>
      <trkpt lat="45.76222" lon="4.82141">
        <ele>291.1</ele>
        <time>2013-05-01T05:15:45.000Z</time>
      </trkpt>
      <trkpt lat="45.7622" lon="4.82141">
        <ele>291.1</ele>
        <time>2013-05-01T05:15:46.000Z</time>
      </trkpt>
      <trkpt lat="45.76218" lon="4.8214">
        <ele>291.2</ele>
        <time>2013-05-01T05:15:47.000Z</time>
      </trkpt>
      <trkpt lat="45.76215" lon="4.82139">
        <ele>291.3</ele>
        <time>2013-05-01T05:15:48.000Z</time>
      </trkpt>
      <trkpt lat="45.76213" lon="4.82139">
        <ele>291.3</ele>
        <time>2013-05-01T05:15:49.000Z</time>
      </trkpt>
      <trkpt lat="45.7621" lon="4.82137">
        <ele>291.3</ele>
        <time>2013-05-01T05:15:50.000Z</time>
      </trkpt>
      <trkpt lat="45.76208" lon="4.82136">
        <ele>291.3</ele>
        <time>2013-05-01T05:15:51.000Z</time>
      </trkpt>
      <trkpt lat="45.76206" lon="4.82134">
        <ele>291.2</ele>
        <time>2013-05-01T05:15:52.000Z</time>
      </trkpt>
      <trkpt lat="45.76204" lon="4.82132">
        <ele>291.1</ele>
        <time>2013-05-01T05:15:53.000Z</time>
      </trkpt>
      <trkpt lat="45.76201" lon="4.82131">
        <ele>291.1</ele>
        <time>2013-05-01T05:15:54.000Z</time>
      </trkpt>
      <trkpt lat="45.76198" lon="4.8213">
        <ele>291.2</ele>
        <time>2013-05-01T05:15:55.000Z</time>
      </trkpt>
      <trkpt lat="45.76196" lon="4.82129">
        <ele>291.2</ele>
        <time>2013-05-01T05:15:56.000Z</time>
      </trkpt>
      <trkpt lat="45.76193" lon="4.82128">
        <ele>291.2</ele>
        <time>2013-05-01T05:15:57.000Z</time>
      </trkpt>
      <trkpt lat="45.76191" lon="4.82126">
        <ele>291.2</ele>
        <time>2013-05-01T05:15:58.000Z</time>
      </trkpt>
      <trkpt lat="45.76188" lon="4.82126">
        <ele>291.3</ele>
        <time>2013-05-01T05:15:59.000Z</time>
      </trkpt>
      <trkpt lat="45.76186" lon="4.82125">
        <ele>291.3</ele>
        <time>2013-05-01T05:16:00.000Z</time>
      </trkpt>
      <trkpt lat="45.76184" lon="4.82124">
        <ele>291.4</ele>
        <time>2013-05-01T05:16:01.000Z</time>
      </trkpt>
      <trkpt lat="45.76181" lon="4.82124">
        <ele>291.4</ele>
        <time>2013-05-01T05:16:02.000Z</time>
      </trkpt>
      <trkpt lat="45.76179" lon="4.82123">
        <ele>291.5</ele>
        <time>2013-05-01T05:16:03.000Z</time>
      </trkpt>
      <trkpt lat="45.76176" lon="4.82122">
        <ele>291.6</ele>
        <time>2013-05-01T05:16:04.000Z</time>
      </trkpt>
      <trkpt lat="45.76174" lon="4.82122">
        <ele>291.7</ele>
        <time>2013-05-01T05:16:05.000Z</time>
      </trkpt>
      <trkpt lat="45.76171" lon="4.82121">
        <ele>291.8</ele>
        <time>2013-05-01T05:16:06.000Z</time>
      </trkpt>
      <trkpt lat="45.76169" lon="4.82121">
        <ele>291.9</ele>
        <time>2013-05-01T05:16:07.000Z</time>
      </trkpt>
      <trkpt lat="45.76166" lon="4.8212">
        <ele>292</ele>
        <time>2013-05-01T05:16:08.000Z</time>
      </trkpt>
      <trkpt lat="45.76164" lon="4.8212">
        <ele>292</ele>
        <time>2013-05-01T05:16:09.000Z</time>
      </trkpt>
      <trkpt lat="45.76161" lon="4.82119">
        <ele>292.1</ele>
        <time>2013-05-01T05:16:10.000Z</time>
      </trkpt>
      <trkpt lat="45.76159" lon="4.82118">
        <ele>292.1</ele>
        <time>2013-05-01T05:16:11.000Z</time>
      </trkpt>
      <trkpt lat="45.76156" lon="4.82117">
        <ele>292.1</ele>
        <time>2013-05-01T05:16:12.000Z</time>
      </trkpt>
      <trkpt lat="45.76154" lon="4.82116">
        <ele>292.1</ele>
        <time>2013-05-01T05:16:13.000Z</time>
      </trkpt>
      <trkpt lat="45.76151" lon="4.82115">
        <ele>292.1</ele>
        <time>2013-05-01T05:16:14.000Z</time>
      </trkpt>
      <trkpt lat="45.76149" lon="4.82114">
        <ele>292.1</ele>
        <time>2013-05-01T05:16:15.000Z</time>
      </trkpt>
      <trkpt lat="45.76146" lon="4.82113">
        <ele>292</ele>
        <time>2013-05-01T05:16:16.000Z</time>
      </trkpt>
      <trkpt lat="45.76144" lon="4.82112">
        <ele>292</ele>
        <time>2013-05-01T05:16:17.000Z</time>
      </trkpt>
      <trkpt lat="45.76141" lon="4.82112">
        <ele>292</ele>
        <time>2013-05-01T05:16:18.000Z</time>
      </trkpt>
      <trkpt lat="45.76139" lon="4.82111">
        <ele>292</ele>
        <time>2013-05-01T05:16:19.000Z</time>
      </trkpt>
      <trkpt lat="45.76137" lon="4.8211">
        <ele>292</ele>
        <time>2013-05-01T05:16:20.000Z</time>
      </trkpt>
      <trkpt lat="45.76134" lon="4.82109">
        <ele>291.9</ele>
        <time>2013-05-01T05:16:21.000Z</time>
      </trkpt>
      <trkpt lat="45.76132" lon="4.82107">
        <ele>291.9</ele>
        <time>2013-05-01T05:16:22.000Z</time>
      </trkpt>
      <trkpt lat="45.76129" lon="4.82106">
        <ele>291.8</ele>
        <time>2013-05-01T05:16:23.000Z</time>
      </trkpt>
      <trkpt lat="45.76127" lon="4.82104">
        <ele>291.7</ele>
        <time>2013-05-01T05:16:24.000Z</time>
      </trkpt>
      <trkpt lat="45.76125" lon="4.82102">
        <ele>291.7</ele>
        <time>2013-05-01T05:16:25.000Z</time>
      </trkpt>
      <trkpt lat="45.76123" lon="4.82101">
        <ele>291.6</ele>
        <time>2013-05-01T05:16:26.000Z</time>
      </trkpt>
      <trkpt lat="45.7612" lon="4.82099">
        <ele>291.5</ele>
        <time>2013-05-01T05:16:27.000Z</time>
      </trkpt>
      <trkpt lat="45.76118" lon="4.82097">
        <ele>291.5</ele>
        <time>2013-05-01T05:16:28.000Z</time>
      </trkpt>
      <trkpt lat="45.76116" lon="4.82094">
        <ele>291.4</ele>
        <time>2013-05-01T05:16:29.000Z</time>
      </trkpt>
      <trkpt lat="45.76113" lon="4.82092">
        <ele>291.3</ele>
        <time>2013-05-01T05:16:30.000Z</time>
      </trkpt>
      <trkpt lat="45.76111" lon="4.8209">
        <ele>291.2</ele>
        <time>2013-05-01T05:16:31.000Z</time>
      </trkpt>
      <trkpt lat="45.76109" lon="4.82087">
        <ele>291.1</ele>
        <time>2013-05-01T05:16:32.000Z</time>
      </trkpt>
      <trkpt lat="45.76108" lon="4.82084">
        <ele>290.9</ele>
        <time>2013-05-01T05:16:33.000Z</time>
      </trkpt>
      <trkpt lat="45.76106" lon="4.82081">
        <ele>290.7</ele>
        <time>2013-05-01T05:16:34.000Z</time>
      </trkpt>
      <trkpt lat="45.76105" lon="4.82078">
        <ele>290.4</ele>
        <time>2013-05-01T05:16:35.000Z</time>
      </trkpt>
      <trkpt lat="45.76103" lon="4.82075">
        <ele>290.1</ele>
        <time>2013-05-01T05:16:36.000Z</time>
      </trkpt>
      <trkpt lat="45.76101" lon="4.82072">
        <ele>289.8</ele>
        <time>2013-05-01T05:16:37.000Z</time>
      </trkpt>
      <trkpt lat="45.76099" lon="4.8207">
        <ele>289.6</ele>
        <time>2013-05-01T05:16:38.000Z</time>
      </trkpt>
      <trkpt lat="45.76098" lon="4.82067">
        <ele>289.3</ele>
        <time>2013-05-01T05:16:39.000Z</time>
      </trkpt>
      <trkpt lat="45.76096" lon="4.82064">
        <ele>289</ele>
        <time>2013-05-01T05:16:40.000Z</time>
      </trkpt>
      <trkpt lat="45.76095" lon="4.8206">
        <ele>288.7</ele>
        <time>2013-05-01T05:16:41.000Z</time>
      </trkpt>
      <trkpt lat="45.76093" lon="4.82057">
        <ele>288.5</ele>
        <time>2013-05-01T05:16:42.000Z</time>
      </trkpt>
      <trkpt lat="45.76092" lon="4.82054">
        <ele>288.2</ele>
        <time>2013-05-01T05:16:43.000Z</time>
      </trkpt>
      <trkpt lat="45.76091" lon="4.8205">
        <ele>288.1</ele>
        <time>2013-05-01T05:16:44.000Z</time>
      </trkpt>
      <trkpt lat="45.7609" lon="4.82047">
        <ele>287.9</ele>
        <time>2013-05-01T05:16:45.000Z</time>
      </trkpt>
      <trkpt lat="45.76089" lon="4.82043">
        <ele>287.8</ele>
        <time>2013-05-01T05:16:46.000Z</time>
      </trkpt>
      <trkpt lat="45.76088" lon="4.8204">
        <ele>287.6</ele>
        <time>2013-05-01T05:16:47.000Z</time>
      </trkpt>
      <trkpt lat="45.76087" lon="4.82037">
        <ele>287.5</ele>
        <time>2013-05-01T05:16:48.000Z</time>
      </trkpt>
      <trkpt lat="45.76086" lon="4.82033">
        <ele>287.3</ele>
        <time>2013-05-01T05:16:49.000Z</time>
      </trkpt>
      <trkpt lat="45.76085" lon="4.8203">
        <ele>287.1</ele>
        <time>2013-05-01T05:16:50.000Z</time>
      </trkpt>
      <trkpt lat="45.76084" lon="4.82026">
        <ele>287</ele>
        <time>2013-05-01T05:16:51.000Z</time>
      </trkpt>
      <trkpt lat="45.76083" lon="4.82023">
        <ele>287</ele>
        <time>2013-05-01T05:16:52.000Z</time>
      </trkpt>
      <trkpt lat="45.76082" lon="4.8202">
        <ele>286.8</ele>
        <time>2013-05-01T05:16:53.000Z</time>
      </trkpt>
      <trkpt lat="45.76081" lon="4.82017">
        <ele>286.8</ele>
        <time>2013-05-01T05:16:54.000Z</time>
      </trkpt>
      <trkpt lat="45.7608" lon="4.82013">
        <ele>286.7</ele>
        <time>2013-05-01T05:16:55.000Z</time>
      </trkpt>
      <trkpt lat="45.76079" lon="4.82006">
        <ele>286.6</ele>
        <time>2013-05-01T05:16:56.000Z</time>
      </trkpt>
      <trkpt lat="45.76078" lon="4.82003">
        <ele>286.6</ele>
        <time>2013-05-01T05:16:57.000Z</time>
      </trkpt>
      <trkpt lat="45.76078" lon="4.82003">
        <ele>286.6</ele>
        <time>2013-05-01T05:16:58.000Z</time>
      </trkpt>
      <trkpt lat="45.76078" lon="4.82">
        <ele>286.6</ele>
        <time>2013-05-01T05:16:59.000Z</time>
      </trkpt>
    </trkseg>
  </trk>
</gpx>